# Wetter Temperatur Luftdruck Luftfeuchtigkeit Sichtweite Windgeschwindigkeit Windrichtung Zeit
1 Clouds 25 1015 74 10000 5.14 100 14:37 01.02.2023
2 Clouds 25 1014 77 10000 5.14 90 13:20 01.02.2023
3 Clouds 24 1014 79 10000 5.14 70 12:50 01.02.2023
4 Clouds 24 1013 80 10000 5.14 80 11:56 01.02.2023
5 Rain 24 1012 83 10000 5.14 100 08:51 01.02.2023
6 Clouds 25 1012 80 10000 7.72 110 02:34 01.02.2023
7 Clouds 28 1010 66 10000 7.72 100 21:38 31.01.2023
8 Clouds 29 1010 62 10000 4.12 70 19:48 31.01.2023
9 Clear 30 1009 60 10000 4.92 69 18:37 31.01.2023
10 Clouds 28 1011 65 10000 5.14 90 15:36 31.01.2023
11 Clouds 28 1011 67 10000 5.14 90 15:18 31.01.2023
12 Clouds 26 1011 69 10000 5.66 100 14:18 31.01.2023
13 Clouds 24 1010 80 10000 3.09 140 12:19 31.01.2023
14 Clouds 23 1009 90 10000 1.54 140 10:27 31.01.2023
15 Clouds 23 1009 88 10000 2.06 140 09:51 31.01.2023
16 Clouds 23 1008 87 10000 3.09 80 08:59 31.01.2023
17 Clouds 23 1008 87 10000 3.09 80 08:34 31.01.2023
18 Clouds 24 1009 84 10000 5.14 110 05:29 31.01.2023
19 Clear 27 1008 60 10000 3.6 90 23:40 30.01.2023
20 Clear 28 1008 53 10000 3.6 90 22:50 30.01.2023
21 Clear 28 1008 50 10000 4.12 90 21:48 30.01.2023
22 Clear 29 1009 50 10000 4.12 80 20:45 30.01.2023
23 Clear 28 1009 51 10000 3.19 108 18:55 30.01.2023
24 Clouds 27 1011 59 10000 3.09 100 17:26 30.01.2023
25 Clear 25 1012 72 10000 3.5 71 14:48 30.01.2023
26 Clear 25 1012 71 10000 3.51 71 14:48 30.01.2023
27 Clouds 24 1013 76 10000 5.14 60 13:56 30.01.2023
28 Clouds 23 1013 79 10000 6.17 70 12:20 30.01.2023
29 Clouds 22 1012 83 10000 6.69 80 10:24 30.01.2023
30 Clouds 22 1012 82 10000 6.69 70 09:53 30.01.2023
31 Clouds 22 1012 76 10000 7.2 80 08:30 30.01.2023
32 Clouds 23 1014 71 10000 7.2 80 06:23 30.01.2023
33 Clouds 24 1015 67 10000 8.75 120 00:50 30.01.2023
34 Clear 25 1014 65 10000 9.26 110 23:31 29.01.2023
35 Clear 26 1014 58 10000 8.23 100 22:36 29.01.2023
36 Clouds 28 1015 46 10000 8.23 100 20:54 29.01.2023
37 Clouds 28 1015 48 10000 8.23 100 20:19 29.01.2023
38 Clouds 27 1016 52 10000 7.72 100 19:32 29.01.2023
39 Clouds 27 1017 60 10000 7.2 100 17:56 29.01.2023
40 Clouds 27 1017 60 10000 7.2 100 17:56 29.01.2023
41 Clouds 27 1017 62 10000 7.2 100 16:43 29.01.2023
42 Clouds 27 1017 61 10000 7.2 100 16:19 29.01.2023
43 Clouds 26 1017 67 10000 5.66 120 14:20 29.01.2023
44 Clouds 25 1017 73 10000 4.12 120 12:59 29.01.2023
45 Clouds 25 1017 74 10000 4.12 120 12:37 29.01.2023
46 Clouds 25 1017 77 10000 4.12 120 12:18 29.01.2023
47 Clouds 24 1016 81 10000 2.57 130 11:36 29.01.2023
48 Clouds 23 1016 84 10000 4.63 110 10:45 29.01.2023
49 Clouds 24 1015 84 10000 4.63 100 08:30 29.01.2023
50 Clouds 25 1016 82 10000 7.2 100 03:43 29.01.2023
51 Clouds 27 1014 78 10000 6.69 100 23:50 28.01.2023
52 Clouds 29 1014 70 10000 5.66 100 20:53 28.01.2023
53 Clear 29 1014 68 10000 3.6 70 19:56 28.01.2023
54 Clouds 30 1014 66 10000 4.63 70 18:53 28.01.2023
55 Clouds 29 1014 64 10000 4.63 70 17:42 28.01.2023
56 Clouds 29 1015 65 10000 4.63 100 16:41 28.01.2023
57 Clouds 29 1015 65 10000 4.63 100 16:41 28.01.2023
58 Clouds 28 1015 67 10000 4.63 100 16:19 28.01.2023
59 Clouds 27 1015 71 10000 3.6 140 15:22 28.01.2023
60 Clouds 24 1014 87 8000 1.54 210 13:49 28.01.2023
61 Mist 23 1015 93 3000 2.06 180 12:21 28.01.2023
62 Clear 21 1013 94 7000 1.03 0 10:35 28.01.2023
63 Clear 21 1014 94 10000 2.89 143 09:30 28.01.2023
64 Clear 23 1012 85 10000 1.03 0 02:27 28.01.2023
65 Clear 24 1011 78 10000 2.06 150 00:28 28.01.2023
66 Clear 25 1009 76 10000 4.12 200 22:46 27.01.2023
67 Rain 22 1011 87 9000 7.72 320 19:47 27.01.2023
68 Rain 23 1012 89 10000 4.63 300 17:58 27.01.2023
69 Clouds 23 1012 89 10000 4.63 300 17:20 27.01.2023
70 Rain 23 1009 89 10000 2.57 150 16:55 27.01.2023
71 Rain 21 1011 94 7000 1.54 130 15:27 27.01.2023
72 Rain 21 1013 95 7000 2.06 320 14:27 27.01.2023
73 Thunderstorm 21 1012 95 4000 3.6 180 13:33 27.01.2023
74 Clear 26 1007 74 10000 2.57 360 09:37 27.01.2023
75 Clear 27 1008 76 10000 3.09 100 06:51 27.01.2023
76 Clear 30 1006 53 10000 3.09 120 00:28 27.01.2023
77 Clouds 32 1006 50 10000 2.57 80 21:57 26.01.2023
78 Clouds 31 1007 56 10000 3.09 50 20:55 26.01.2023
79 Clear 31 1008 55 10000 3.6 40 19:59 26.01.2023
80 Clouds 29 1009 61 10000 5.66 30 17:57 26.01.2023
81 Clear 29 1010 63 10000 5.66 20 16:42 26.01.2023
82 Clear 28 1010 62 10000 5.66 20 16:20 26.01.2023
83 Clear 28 1010 64 10000 4.63 340 15:42 26.01.2023
84 Clear 27 1010 65 10000 4.63 340 15:24 26.01.2023
85 Clear 28 1010 65 10000 6.17 360 13:50 26.01.2023
86 Clear 26 1009 65 10000 5.14 350 12:31 26.01.2023
87 Clouds 25 1008 73 9000 5.14 340 10:35 26.01.2023
88 Clouds 25 1008 68 10000 2.06 40 09:58 26.01.2023
89 Clouds 25 1008 68 10000 2.06 40 09:34 26.01.2023
90 Clear 26 1008 71 10000 5.14 100 06:39 26.01.2023
91 Clear 27 1008 76 10000 9.26 110 23:41 25.01.2023
92 Clear 28 1008 71 10000 8.75 100 22:48 25.01.2023
93 Clouds 32 1008 51 10000 3.6 70 21:26 25.01.2023
94 Clouds 30 1009 51 10000 3.09 60 20:59 25.01.2023
95 Clouds 32 1010 47 10000 5.32 90 18:29 25.01.2023
96 Clouds 30 1011 52 10000 2.97 94 16:22 25.01.2023
97 Clear 27 1011 59 10000 1.54 180 14:57 25.01.2023
98 Clear 23 1011 72 10000 2.06 180 12:29 25.01.2023
99 Clear 21 1010 81 10000 2.57 190 09:53 25.01.2023
100 Clear 22 1009 78 10000 2.57 190 09:20 25.01.2023
101 Clouds 25 1009 54 8000 1.54 200 06:26 25.01.2023
102 Rain 30 1008 41 9000 3.09 280 00:30 25.01.2023
103 Clear 32 1006 37 10000 3.6 350 21:55 24.01.2023
104 Clear 33 1006 37 10000 3.6 350 21:27 24.01.2023
105 Clouds 34 1006 31 10000 3.29 89 19:37 24.01.2023
106 Clouds 34 1007 29 10000 2.53 108 18:30 24.01.2023
107 Clear 31 1008 32 10000 3.09 350 17:18 24.01.2023
108 Clear 30 1008 35 10000 3.09 360 16:52 24.01.2023
109 Clear 28 1009 41 10000 4.59 8 14:27 24.01.2023
110 Clear 24 1009 56 10000 6.17 360 12:24 24.01.2023
111 Clear 23 1008 58 10000 5.66 360 09:36 24.01.2023
112 Clear 25 1007 57 10000 3.09 20 08:20 24.01.2023
113 Clear 26 1007 55 10000 4.63 70 07:49 24.01.2023
114 Clear 27 1009 64 10000 2.57 80 02:54 24.01.2023
115 Clear 27 1009 55 10000 3.09 70 00:41 24.01.2023
116 Clear 29 1008 43 10000 2.57 60 23:29 23.01.2023
117 Clear 31 1007 39 10000 2.6 79 20:54 23.01.2023
118 Clouds 31 1010 42 10000 3.09 60 19:24 23.01.2023
119 Clear 30 1010 43 10000 1.52 73 17:29 23.01.2023
120 Clear 29 1011 44 10000 1.49 97 15:32 23.01.2023
121 Clear 26 1012 54 10000 3.6 80 13:57 23.01.2023
122 Clear 26 1012 57 10000 2.57 110 12:58 23.01.2023
123 Clear 25 1012 59 10000 2.57 110 12:21 23.01.2023
124 Clear 24 1011 67 10000 2.57 120 11:29 23.01.2023
125 Clear 23 1010 69 10000 4.63 130 08:25 23.01.2023
126 Clear 30 1006 39 10000 3.6 180 00:27 23.01.2023
127 Clear 33 1004 32 10000 1.56 223 22:20 22.01.2023
128 Clouds 34 1005 32 10000 2.57 240 21:19 22.01.2023
129 Clear 34 1005 31 10000 2.57 0 20:22 22.01.2023
130 Clear 34 1005 32 10000 2.17 224 19:45 22.01.2023
131 Clear 34 1006 33 10000 1.68 228 18:48 22.01.2023
132 Clear 33 1007 35 10000 1.36 232 17:56 22.01.2023
133 Clear 32 1006 35 10000 2.06 240 17:24 22.01.2023
134 Clear 31 1007 37 10000 2.57 0 15:34 22.01.2023
135 Clear 30 1007 43 10000 1.54 0 14:47 22.01.2023
136 Clear 27 1007 52 10000 1.03 0 13:28 22.01.2023
137 Clear 25 1007 62 10000 1.03 0 12:34 22.01.2023
138 Clear 23 1007 66 10000 1.54 210 11:34 22.01.2023
139 Clear 23 1006 70 10000 1.54 220 09:35 22.01.2023
140 Clear 24 1005 69 10000 1.03 0 05:51 22.01.2023
141 Clouds 26 1003 78 10000 1.03 0 00:40 22.01.2023
142 Mist 27 1003 69 3500 1.54 240 23:30 21.01.2023
143 Clear 32 1002 44 10000 2.57 0 21:40 21.01.2023
144 Clouds 31 1004 49 10000 2.57 0 19:23 21.01.2023
145 Clouds 28 1006 65 10000 2.57 290 16:41 21.01.2023
146 Rain 24 1006 83 10000 2.57 310 14:24 21.01.2023
147 Clouds 23 1005 87 9000 1.03 0 12:57 21.01.2023
148 Clear 23 1005 90 10000 0.51 0 11:42 21.01.2023
149 Rain 22 1006 90 10000 1.03 0 10:49 21.01.2023
150 Clear 22 1004 91 10000 1.54 220 08:50 21.01.2023
151 Rain 24 1005 88 10000 4.12 350 04:31 21.01.2023
152 Thunderstorm 23 1009 92 2800 3.6 210 22:28 20.01.2023
153 Rain 24 1006 91 4000 7.72 140 21:38 20.01.2023
154 Rain 26 1006 74 7000 5.14 190 20:56 20.01.2023
155 Clear 32 1006 56 10000 6.17 110 19:31 20.01.2023
156 Rain 32 1008 58 10000 4.87 92 16:39 20.01.2023
157 Clear 28 1009 69 10000 3.09 30 14:46 20.01.2023
158 Clear 28 1010 71 10000 3.09 50 13:51 20.01.2023
159 Clear 25 1010 78 10000 4.12 30 10:24 20.01.2023
160 Clear 25 1011 72 10000 3.6 40 08:51 20.01.2023
161 Clear 27 1012 67 10000 4.63 70 04:22 20.01.2023
162 Clear 26 1012 77 10000 7.72 120 02:29 20.01.2023
163 Clouds 29 1012 59 10000 8.23 110 22:32 19.01.2023
164 Clouds 30 1014 57 10000 7.72 100 20:25 19.01.2023
165 Clouds 30 1014 61 10000 7.2 100 19:23 19.01.2023
166 Clear 27 1017 65 10000 5.14 110 16:25 19.01.2023
167 Clear 25 1017 76 10000 3.09 40 11:28 19.01.2023
168 Clear 24 1016 76 10000 5.14 50 08:59 19.01.2023
169 Clouds 25 1017 78 10000 8.75 120 00:45 19.01.2023
170 Clear 28 1017 64 10000 10.29 120 21:19 18.01.2023
171 Clear 28 1017 60 10000 8.75 120 20:19 18.01.2023
172 Clear 28 1018 60 10000 8.75 120 19:37 18.01.2023
173 Clear 29 1019 58 10000 6.69 100 17:35 18.01.2023
174 Clouds 26 1020 66 10000 4.63 70 15:24 18.01.2023
175 Clouds 25 1020 73 10000 4.12 60 13:29 18.01.2023
176 Clouds 23 1019 77 10000 6.17 70 11:20 18.01.2023
177 Clear 23 1017 75 10000 5.66 70 08:23 18.01.2023
178 Clear 27 1015 72 10000 9.26 120 01:27 18.01.2023
179 Clear 29 1014 62 10000 9.26 130 23:32 17.01.2023
180 Clear 33 1014 35 10000 7.2 110 20:37 17.01.2023
181 Clear 34 1013 29 10000 6.69 102 19:33 17.01.2023
182 Clear 32 1015 39 10000 6.69 100 18:18 17.01.2023
183 Clear 31 1016 42 10000 3.6 80 16:24 17.01.2023
184 Clear 29 1016 46 10000 3.09 50 14:55 17.01.2023
185 Clear 28 1016 50 10000 3.61 53 13:47 17.01.2023
186 Clear 26 1015 56 10000 4.12 20 11:52 17.01.2023
187 Clear 26 1015 57 10000 4.12 20 11:23 17.01.2023
188 Clear 26 1014 57 10000 3.09 50 09:31 17.01.2023
189 Clear 27 1014 55 10000 4.12 60 07:53 17.01.2023
190 Clear 27 1013 60 10000 5.66 120 03:54 17.01.2023
191 Clear 28 1012 69 10000 7.72 110 00:57 17.01.2023
192 Clear 32 1011 44 10000 4.63 90 22:59 16.01.2023
193 Clear 33 1011 38 10000 4.63 90 21:47 16.01.2023
194 Clear 35 1010 26 10000 5.13 85 20:23 16.01.2023
195 Clouds 35 1011 29 10000 4.46 88 19:28 16.01.2023
196 Clouds 35 1011 35 10000 4.46 88 18:52 16.01.2023
197 Clouds 35 1012 35 10000 3.57 81 18:20 16.01.2023
198 Clouds 35 1012 36 10000 3.57 81 17:34 16.01.2023
199 Clear 30 1014 47 10000 1.87 43 14:36 16.01.2023
200 Clear 28 1014 51 10000 2.06 360 13:37 16.01.2023
201 Clear 25 1013 64 10000 3.09 10 10:27 16.01.2023
202 Clear 25 1012 57 10000 4.12 20 08:53 16.01.2023
203 Smoke 31 1011 31 10000 5.14 110 23:21 15.01.2023
204 Clear 34 1010 23 10000 4.29 78 21:32 15.01.2023
205 Clear 34 1011 20 10000 4.19 80 20:32 15.01.2023
206 Clear 34 1011 21 10000 3.73 84 19:38 15.01.2023
207 Clear 34 1013 27 10000 2.79 71 17:38 15.01.2023
208 Clear 32 1015 28 10000 1.82 19 15:18 15.01.2023
209 Smoke 24 1014 52 10000 4.12 340 12:29 15.01.2023
210 Smoke 24 1014 54 10000 4.12 360 11:29 15.01.2023
211 Smoke 24 1014 54 10000 4.12 360 11:29 15.01.2023
212 Clear 23 1013 61 10000 2.06 360 10:27 15.01.2023
213 Clear 23 1012 55 10000 1.54 360 08:54 15.01.2023
214 Clear 28 1009 30 10000 2.57 350 00:35 15.01.2023
215 Clear 30 1009 44 10000 3.6 350 22:44 14.01.2023
216 Clear 30 1009 24 10000 3.6 360 21:54 14.01.2023
217 Clear 30 1009 24 10000 3.6 360 21:36 14.01.2023
218 Clear 30 1009 24 10000 3.6 360 21:36 14.01.2023
219 Clear 30 1009 24 10000 3.6 360 21:18 14.01.2023
220 Clear 30 1009 24 10000 3.6 360 21:18 14.01.2023
221 Clear 30 1009 23 10000 3.09 10 20:28 14.01.2023
222 Clear 30 1010 27 10000 3.6 10 18:18 14.01.2023
223 Clear 29 1011 51 10000 4.12 350 15:41 14.01.2023
224 Clear 28 1011 33 10000 4.12 350 15:23 14.01.2023
225 Clear 26 1011 38 10000 4.63 340 14:19 14.01.2023
226 Clear 25 1010 42 10000 3.6 340 13:25 14.01.2023
227 Clear 22 1009 65 10000 3.09 310 10:50 14.01.2023
228 Clear 22 1009 66 10000 3.6 340 09:23 14.01.2023
229 Clear 25 1009 23 10000 1.54 160 02:36 14.01.2023
230 Clear 29 1007 37 10000 3.09 0 22:59 13.01.2023
231 Clear 29 1007 37 10000 3.09 0 22:41 13.01.2023
232 Clear 30 1007 17 10000 3.6 210 21:58 13.01.2023
233 Clear 30 1008 18 10000 3.6 0 20:35 13.01.2023
234 Clear 30 1009 19 10000 4.12 0 19:27 13.01.2023
235 Clear 28 1011 24 10000 4.12 200 16:58 13.01.2023
236 Clear 27 1011 41 10000 3.09 180 14:53 13.01.2023
237 Clouds 23 1011 59 9000 2.06 0 12:24 13.01.2023
238 Clouds 23 1011 59 9000 2.06 0 12:24 13.01.2023
239 Clear 22 1010 69 10000 1.03 0 10:41 13.01.2023
240 Clear 21 1010 69 10000 1.03 0 10:22 13.01.2023
241 Clear 22 1010 62 10000 2.57 360 09:41 13.01.2023
242 Clear 23 1009 64 10000 3.6 360 08:51 13.01.2023
243 Clear 23 1009 63 10000 1.54 50 06:56 13.01.2023
244 Clear 24 1010 57 10000 2.57 60 05:47 13.01.2023
245 Clear 26 1008 54 10000 5.14 110 00:55 13.01.2023
246 Clear 28 1007 23 10000 2.06 0 22:46 12.01.2023
247 Clouds 29 1008 29 10000 3.09 190 21:19 12.01.2023
248 Clouds 29 1009 30 10000 2.57 210 20:46 12.01.2023
249 Clouds 27 1010 42 10000 2.06 20 18:26 12.01.2023
250 Clouds 27 1011 53 10000 3.09 50 16:59 12.01.2023
251 Clouds 24 1012 67 10000 2.57 200 14:54 12.01.2023
252 Clouds 23 1012 71 10000 2.57 200 14:26 12.01.2023
253 Clouds 22 1011 80 8000 3.09 200 13:38 12.01.2023
254 Clouds 18 1010 91 6000 3.09 190 11:44 12.01.2023
255 Clear 19 1010 90 10000 1.03 0 10:24 12.01.2023
256 Clear 20 1010 85 10000 1.03 0 07:26 12.01.2023
257 Clouds 26 1009 64 10000 2.57 180 00:31 12.01.2023
258 Clouds 27 1009 57 10000 1.54 0 23:48 11.01.2023
259 Clouds 27 1008 53 10000 1.54 0 23:30 11.01.2023
260 Clouds 27 1008 53 10000 1.54 0 23:30 11.01.2023
261 Clear 27 1009 53 10000 1.54 250 22:50 11.01.2023
262 Rain 26 1010 60 10000 1.54 160 20:59 11.01.2023
263 Rain 26 1011 60 10000 2.06 180 18:50 11.01.2023
264 Rain 26 1011 62 9000 2.06 200 17:30 11.01.2023
265 Clear 27 1011 60 10000 2.06 0 15:31 11.01.2023
266 Rain 25 1011 72 10000 2.06 180 13:53 11.01.2023
267 Clear 25 1011 70 10000 3.09 0 12:21 11.01.2023
268 Clear 24 1009 74 10000 0.51 0 10:47 11.01.2023
269 Clear 25 1008 72 10000 3.6 60 08:21 11.01.2023
270 Clear 25 1009 72 10000 3.6 70 07:26 11.01.2023
271 Clear 26 1010 72 10000 6.17 110 03:56 11.01.2023
272 Clouds 27 1009 71 10000 8.23 110 22:46 10.01.2023
273 Clouds 27 1009 71 10000 8.23 110 22:46 10.01.2023
274 Clouds 28 1009 68 10000 8.23 110 22:18 10.01.2023
275 Clouds 32 1009 48 10000 4.63 90 20:43 10.01.2023
276 Clouds 32 1008 40 10000 4.04 78 19:51 10.01.2023
277 Clouds 32 1009 42 10000 4.11 89 18:48 10.01.2023
278 Clouds 32 1010 45 10000 3.48 94 17:59 10.01.2023
279 Clear 29 1012 55 10000 2.06 60 16:47 10.01.2023
280 Clouds 28 1012 62 10000 2.17 81 15:31 10.01.2023
281 Clouds 27 1012 64 10000 2.26 61 14:33 10.01.2023
282 Clear 24 1013 71 10000 3.09 60 12:25 10.01.2023
283 Clear 23 1011 76 10000 3.09 60 09:29 10.01.2023
284 Clear 23 1011 74 10000 3.6 50 08:30 10.01.2023
285 Clear 23 1011 74 10000 3.6 50 08:30 10.01.2023
286 Clear 24 1011 72 10000 5.66 70 07:28 10.01.2023
287 Clear 25 1013 72 10000 7.72 100 04:55 10.01.2023
288 Clouds 25 1012 75 10000 9.77 110 23:37 09.01.2023
289 Clear 27 1012 65 10000 8.23 100 21:51 09.01.2023
290 Clear 29 1013 59 10000 7.72 100 20:45 09.01.2023
291 Clouds 30 1013 52 10000 6.17 100 19:30 09.01.2023
292 Clear 30 1013 47 10000 5.09 103 17:55 09.01.2023
293 Clear 30 1013 47 10000 5.09 103 17:55 09.01.2023
294 Clear 30 1014 48 10000 4.18 100 17:26 09.01.2023
295 Clear 28 1015 54 10000 3.09 50 16:32 09.01.2023
296 Clear 27 1016 56 10000 3.09 40 15:30 09.01.2023
297 Clear 26 1016 59 10000 3.6 40 14:46 09.01.2023
298 Clear 25 1016 62 10000 3.6 30 13:38 09.01.2023
299 Clear 24 1016 61 10000 4.63 50 12:49 09.01.2023
300 Clear 23 1016 62 10000 5.66 50 11:42 09.01.2023
301 Clear 23 1016 67 10000 5.14 60 10:26 09.01.2023
302 Clear 24 1015 69 10000 5.14 70 06:41 09.01.2023
303 Clear 24 1016 76 10000 8.23 120 02:54 09.01.2023
304 Clear 25 1016 72 10000 8.75 110 23:52 08.01.2023
305 Clear 29 1017 57 10000 7.2 100 21:24 08.01.2023
306 Clouds 29 1017 53 10000 7.2 100 20:58 08.01.2023
307 Clear 30 1016 50 10000 5.57 102 19:48 08.01.2023
308 Clear 28 1019 56 10000 3.6 80 17:42 08.01.2023
309 Clear 28 1019 55 10000 3.6 80 17:19 08.01.2023
310 Clear 27 1020 62 10000 3.6 70 15:39 08.01.2023
311 Clear 26 1021 66 10000 4.12 70 14:35 08.01.2023
312 Clear 25 1021 68 10000 3.6 60 13:55 08.01.2023
313 Clear 25 1021 70 10000 3.6 60 13:21 08.01.2023
314 Clear 24 1020 73 10000 4.12 60 11:49 08.01.2023
315 Clear 23 1019 74 10000 3.6 60 09:38 08.01.2023
316 Clear 24 1019 70 10000 5.14 50 08:33 08.01.2023
317 Clear 26 1018 67 10000 5.14 80 04:26 08.01.2023
318 Clear 27 1018 61 10000 9.77 120 23:23 07.01.2023
319 Clear 28 1018 57 10000 9.77 110 22:39 07.01.2023
320 Clear 28 1018 56 10000 9.77 110 21:59 07.01.2023
321 Clear 29 1019 47 10000 8.23 110 20:59 07.01.2023
322 Clear 30 1019 40 10000 8.23 110 20:25 07.01.2023
323 Clear 31 1019 38 10000 7.2 110 19:23 07.01.2023
324 Clear 30 1020 42 10000 6.17 100 18:18 07.01.2023
325 Clear 30 1020 42 10000 6.17 100 18:18 07.01.2023
326 Clear 30 1021 39 10000 4.12 80 17:40 07.01.2023
327 Clear 29 1021 42 10000 4.12 80 16:41 07.01.2023
328 Clear 29 1021 43 10000 4.12 80 16:20 07.01.2023
329 Clear 28 1022 45 10000 4.12 70 15:38 07.01.2023
330 Clear 28 1022 46 10000 4.12 70 15:18 07.01.2023
331 Clear 26 1022 52 10000 4.12 50 13:58 07.01.2023
332 Clear 25 1022 55 10000 4.12 50 13:40 07.01.2023
333 Clear 24 1022 59 10000 4.12 30 12:44 07.01.2023
334 Clear 23 1021 64 10000 4.12 50 11:59 07.01.2023
335 Clear 23 1020 70 10000 4.63 60 10:27 07.01.2023
336 Clear 24 1019 69 10000 4.63 50 08:48 07.01.2023
337 Clear 24 1019 64 10000 6.17 60 07:47 07.01.2023
338 Clear 24 1019 62 10000 6.17 60 07:20 07.01.2023
339 Clear 26 1018 49 10000 8.23 70 04:59 07.01.2023
340 Clear 29 1016 52 10000 9.26 120 22:57 06.01.2023
341 Clear 29 1016 51 10000 9.26 120 22:20 06.01.2023
342 Clear 31 1016 42 10000 8.23 110 21:44 06.01.2023
343 Clear 32 1017 33 10000 6.69 100 19:59 06.01.2023
344 Clear 32 1017 34 10000 6.69 100 19:41 06.01.2023
345 Clear 32 1017 35 10000 6.69 100 19:23 06.01.2023
346 Clouds 32 1016 32 10000 6.23 104 18:50 06.01.2023
347 Clear 30 1018 47 10000 5.14 100 17:31 06.01.2023
348 Clouds 30 1017 46 10000 4.85 103 16:50 06.01.2023
349 Clouds 29 1018 53 10000 3.68 98 16:20 06.01.2023
350 Clear 29 1018 55 10000 4.63 100 15:50 06.01.2023
351 Clear 27 1018 61 10000 3.09 70 14:54 06.01.2023
352 Clear 25 1018 69 10000 2.06 40 12:42 06.01.2023
353 Clear 24 1017 68 10000 3.09 30 10:59 06.01.2023
354 Clear 23 1016 68 10000 2.57 20 09:27 06.01.2023
355 Clear 24 1016 61 10000 2.06 50 07:46 06.01.2023
356 Clear 26 1015 54 10000 5.14 120 01:45 06.01.2023
357 Clear 30 1014 25 10000 5.66 110 22:55 05.01.2023
358 Clear 31 1013 19 10000 5.5 103 21:54 05.01.2023
359 Clear 31 1014 21 10000 4.06 100 19:32 05.01.2023
360 Clear 30 1016 23 10000 2.75 70 17:28 05.01.2023
361 Clear 29 1016 28 10000 2.32 60 16:21 05.01.2023
362 Clear 29 1016 34 10000 2.33 60 15:46 05.01.2023
363 Clear 27 1017 37 10000 2.14 43 14:47 05.01.2023
364 Clear 23 1016 51 10000 2.57 10 12:43 05.01.2023
365 Clear 21 1016 59 10000 4.12 360 11:51 05.01.2023
366 Clear 20 1015 69 10000 4.12 20 09:54 05.01.2023
367 Clear 20 1015 69 10000 3.6 50 08:29 05.01.2023
368 Clear 21 1014 69 10000 5.14 70 07:19 05.01.2023
369 Clear 22 1015 61 10000 5.14 70 04:57 05.01.2023
370 Clear 25 1013 50 10000 6.69 110 22:55 04.01.2023
371 Clear 25 1013 51 10000 5.66 80 21:33 04.01.2023
372 Clear 27 1013 47 10000 4.63 70 20:36 04.01.2023
373 Clear 27 1014 42 10000 3.6 50 19:56 04.01.2023
374 Clear 27 1014 42 10000 3.6 50 19:56 04.01.2023
375 Clear 28 1014 37 10000 3.6 50 19:31 04.01.2023
376 Clear 28 1014 38 10000 3.09 60 18:30 04.01.2023
377 Clouds 29 1014 29 10000 2 52 16:32 04.01.2023
378 Clear 27 1015 28 10000 4.63 70 15:34 04.01.2023
379 Clear 26 1014 25 10000 3.6 120 13:53 04.01.2023
380 Clear 22 1013 44 10000 1.03 0 11:40 04.01.2023
381 Clear 22 1013 49 10000 1.03 0 11:19 04.01.2023
382 Clear 20 1013 57 10000 0.51 0 10:42 04.01.2023
383 Clear 19 1013 60 10000 0.51 0 10:21 04.01.2023
384 Clear 20 1011 58 10000 1.54 160 07:19 04.01.2023
385 Clear 26 1009 40 10000 2.06 230 01:43 04.01.2023
386 Clear 29 1007 24 10000 3.6 240 23:58 03.01.2023
387 Clear 30 1006 22 10000 3.6 240 23:32 03.01.2023
388 Clear 31 1005 21 10000 4.12 280 22:26 03.01.2023
389 Clear 31 1006 22 10000 4.63 250 20:51 03.01.2023
390 Clear 31 1007 22 10000 4.12 0 18:52 03.01.2023
391 Clear 29 1009 26 10000 3.6 280 16:46 03.01.2023
392 Clear 28 1009 33 10000 4.63 310 15:43 03.01.2023
393 Clear 24 1009 51 10000 4.12 340 13:50 03.01.2023
394 Clear 24 1009 52 10000 4.12 340 13:29 03.01.2023
395 Clear 22 1009 60 10000 5.14 330 12:57 03.01.2023
396 Clear 22 1009 60 10000 5.14 330 12:57 03.01.2023
397 Clear 22 1009 63 10000 5.14 330 12:28 03.01.2023
398 Clear 19 1008 72 10000 3.6 320 09:58 03.01.2023
399 Clear 23 1008 69 10000 6.17 70 04:29 03.01.2023
400 Clear 23 1008 68 10000 5.14 80 03:53 03.01.2023
401 Clear 23 1008 71 10000 5.14 80 03:33 03.01.2023
402 Clear 29 1006 22 10000 1.54 0 23:20 02.01.2023
403 Clear 30 1006 39 10000 2.57 0 22:40 02.01.2023
404 Clear 30 1006 23 10000 3.6 260 21:26 02.01.2023
405 Clear 30 1007 24 10000 3.09 230 20:31 02.01.2023
406 Clear 29 1007 25 10000 4.12 230 19:20 02.01.2023
407 Clear 27 1008 35 10000 3.6 240 16:54 02.01.2023
408 Clouds 21 1009 63 10000 3.6 230 14:27 02.01.2023
409 Clouds 19 1009 75 10000 4.12 230 12:57 02.01.2023
410 Clouds 17 1009 84 10000 3.09 240 11:39 02.01.2023
411 Clouds 17 1007 89 10000 3.6 250 08:55 02.01.2023
412 Clouds 19 1008 93 10000 3.09 290 05:43 02.01.2023
413 Rain 20 1009 95 2500 1.54 200 23:32 01.01.2023
414 Mist 20 1009 94 2500 0.51 0 21:55 01.01.2023
415 Rain 21 1009 87 5000 2.06 220 20:50 01.01.2023
416 Rain 22 1009 78 9000 2.06 190 20:18 01.01.2023
417 Rain 22 1009 78 9000 2.06 190 20:18 01.01.2023
418 Rain 25 1010 61 9000 2.06 240 18:53 01.01.2023
419 Rain 25 1010 60 9000 2.57 140 17:24 01.01.2023
420 Rain 26 1010 59 10000 2.57 200 16:57 01.01.2023
421 Clear 26 1010 58 10000 1.54 240 15:38 01.01.2023
422 Clear 24 1010 60 10000 4.12 80 13:49 01.01.2023
423 Clear 24 1010 64 10000 5.66 100 12:57 01.01.2023
424 Clear 23 1010 68 10000 6.17 100 11:41 01.01.2023
425 Clear 22 1010 69 10000 6.17 100 11:21 01.01.2023
426 Clear 22 1010 63 10000 6.17 100 09:29 01.01.2023
427 Clear 22 1010 59 10000 6.17 100 08:25 01.01.2023
428 Clear 22 1011 60 10000 6.69 90 07:30 01.01.2023
429 Clear 23 1011 63 10000 8.75 100 06:39 01.01.2023
430 Clear 23 1012 65 10000 10.8 110 23:45 31.12.2022
431 Clear 23 1012 64 10000 10.8 110 23:20 31.12.2022
432 Clear 25 1012 62 10000 10.29 110 21:45 31.12.2022
433 Clear 26 1012 60 10000 10.29 110 21:22 31.12.2022
434 Clear 26 1013 57 10000 10.29 100 20:20 31.12.2022
435 Clear 28 1014 49 10000 8.75 100 18:45 31.12.2022
436 Clear 27 1014 49 10000 8.75 100 18:20 31.12.2022
437 Clear 27 1014 51 10000 8.23 110 17:55 31.12.2022
438 Clear 28 1014 47 10000 6.17 100 16:59 31.12.2022
439 Clear 28 1014 45 10000 6.17 100 16:30 31.12.2022
440 Clear 28 1014 41 10000 5.14 100 15:19 31.12.2022
441 Clear 27 1013 31 10000 4.63 140 13:44 31.12.2022
442 Clear 25 1013 37 10000 3.6 150 12:40 31.12.2022
443 Clear 24 1013 38 10000 3.6 150 12:20 31.12.2022
444 Clear 24 1013 38 10000 3.6 150 12:20 31.12.2022
445 Clear 24 1012 38 10000 4.12 150 11:50 31.12.2022
446 Clear 23 1012 39 10000 4.12 150 10:37 31.12.2022
447 Clear 23 1011 38 10000 4.63 150 09:55 31.12.2022
448 Clear 24 1011 36 10000 4.63 150 09:35 31.12.2022
449 Clear 24 1009 45 10000 3.6 150 07:49 31.12.2022
450 Clear 30 1006 49 8000 1.54 320 00:43 31.12.2022
451 Clear 32 1005 51 9000 3.6 350 23:47 30.12.2022
452 Clear 33 1005 42 7000 4.12 360 22:50 30.12.2022
453 Clear 36 1004 28 10000 3.84 51 21:45 30.12.2022
454 Clear 36 1005 27 10000 3.95 51 21:26 30.12.2022
455 Clear 35 1007 28 10000 3.7 30 18:59 30.12.2022
456 Clear 34 1008 32 10000 3.7 20 17:51 30.12.2022
457 Clear 34 1008 32 10000 3.7 20 17:32 30.12.2022
458 Clear 31 1010 37 10000 3.93 356 15:57 30.12.2022
459 Clear 29 1010 41 10000 4.3 351 14:53 30.12.2022
460 Clear 23 1011 51 10000 5.66 360 11:58 30.12.2022
461 Clear 22 1010 50 10000 6.69 360 08:21 30.12.2022
462 Clear 25 1012 51 10000 4.12 10 03:39 30.12.2022
463 Clear 26 1011 45 10000 3.09 20 01:53 30.12.2022
464 Clear 27 1011 46 10000 3.6 30 22:54 29.12.2022
465 Clear 29 1010 39 10000 4.67 79 21:31 29.12.2022
466 Clear 30 1010 35 10000 3.94 63 20:54 29.12.2022
467 Clear 30 1011 31 10000 3.16 60 20:25 29.12.2022
468 Clear 29 1014 27 10000 2.23 68 18:26 29.12.2022
469 Clear 28 1015 28 10000 1.44 81 17:29 29.12.2022
470 Clear 26 1015 40 10000 4.12 360 16:55 29.12.2022
471 Clear 27 1015 35 10000 0.78 81 15:59 29.12.2022
472 Clear 26 1016 39 10000 0.13 215 15:29 29.12.2022
473 Clear 23 1016 50 10000 2.06 360 13:33 29.12.2022
474 Clear 21 1016 57 10000 2 0 11:28 29.12.2022
475 Clear 19 1014 69 10000 2.57 140 07:43 29.12.2022
476 Clear 26 1010 55 10000 6.69 90 23:45 28.12.2022
477 Clear 26 1010 57 10000 6.69 90 23:26 28.12.2022
478 Clouds 30 1009 30 10000 3.09 190 21:21 28.12.2022
479 Clouds 30 1010 34 10000 3.6 0 20:24 28.12.2022
480 Clouds 29 1010 37 10000 3.09 170 19:23 28.12.2022
481 Clear 28 1010 46 10000 4.12 210 16:43 28.12.2022
482 Clear 25 1009 48 10000 2.06 220 14:29 28.12.2022
483 Clear 25 1009 40 10000 3.09 260 12:49 28.12.2022
484 Clear 24 1009 43 10000 2.57 280 11:51 28.12.2022
485 Clear 21 1008 57 10000 2.57 310 10:35 28.12.2022
486 Clear 23 1008 56 10000 2.57 320 07:51 28.12.2022
487 Clear 23 1009 49 10000 2.57 310 06:48 28.12.2022
488 Clear 25 1010 51 10000 1.54 310 03:43 28.12.2022
489 Clear 29 1008 41 10000 5.14 360 23:22 27.12.2022
490 Clear 31 1009 25 10000 3.35 60 19:53 27.12.2022
491 Clear 31 1010 27 10000 2.98 53 19:20 27.12.2022
492 Clouds 29 1012 37 10000 4.12 360 17:20 27.12.2022
493 Clear 30 1012 34 10000 2.77 30 16:33 27.12.2022
494 Clear 28 1013 40 10000 2.44 354 14:55 27.12.2022
495 Smoke 22 1013 57 10000 3.09 330 12:28 27.12.2022
496 Clear 20 1012 65 10000 1.03 0 10:31 27.12.2022
497 Clear 20 1012 65 10000 1.03 0 10:31 27.12.2022
498 Clear 19 1012 66 10000 2.06 310 09:44 27.12.2022
499 Clear 19 1012 65 10000 2.06 310 09:20 27.12.2022
500 Clear 22 1012 64 10000 3.09 80 04:57 27.12.2022
501 Clear 26 1011 53 10000 3.09 10 23:40 26.12.2022
502 Clear 28 1012 40 10000 4.92 85 21:52 26.12.2022
503 Rain 28 1011 40 10000 3.57 61 20:44 26.12.2022
504 Clear 28 1012 35 10000 3.04 52 19:55 26.12.2022
505 Clear 28 1013 31 10000 2.68 54 18:42 26.12.2022
506 Clear 26 1015 37 10000 3.6 20 17:18 26.12.2022
507 Clouds 24 1016 43 10000 4.63 360 15:38 26.12.2022
508 Clear 21 1017 55 10000 2.57 310 12:59 26.12.2022
509 Clear 17 1017 68 10000 1.54 290 10:49 26.12.2022
510 Clouds 18 1018 67 10000 1.03 0 05:43 26.12.2022
511 Clear 21 1016 56 10000 2.57 360 23:41 25.12.2022
512 Clear 22 1016 53 10000 3.09 20 22:50 25.12.2022
513 Clear 23 1016 48 10000 3.09 20 22:22 25.12.2022
514 Clear 23 1017 38 10000 4.12 150 19:56 25.12.2022
515 Clear 23 1017 38 10000 4.12 150 19:56 25.12.2022
516 Clear 22 1018 41 10000 3.09 0 17:52 25.12.2022
517 Clear 22 1018 43 10000 3.09 0 17:34 25.12.2022
518 Clouds 21 1019 46 10000 2.57 0 16:40 25.12.2022
519 Clouds 17 1020 58 10000 3.09 170 13:30 25.12.2022
520 Clouds 17 1020 58 10000 3.09 170 13:30 25.12.2022
521 Clouds 17 1020 58 10000 3.09 170 13:30 25.12.2022
522 Clear 16 1019 64 10000 1.54 200 11:35 25.12.2022
523 Clear 17 1020 62 10000 4.12 170 03:20 25.12.2022
524 Clouds 22 1015 49 10000 3.6 180 22:47 24.12.2022
525 Clouds 20 1016 72 10000 4.12 180 19:53 24.12.2022
526 Clouds 19 1016 80 10000 3.6 180 16:59 24.12.2022
527 Clouds 19 1015 81 10000 2.57 0 15:28 24.12.2022
528 Clouds 18 1015 89 10000 3.6 210 14:22 24.12.2022
529 Rain 19 1013 92 10000 2.06 190 11:54 24.12.2022
530 Rain 18 1011 93 8000 2.57 160 10:23 24.12.2022
531 Rain 18 1011 94 8000 4.12 180 09:37 24.12.2022
532 Rain 19 1010 95 7000 2.57 210 07:59 24.12.2022
533 Rain 23 1009 86 9000 1.03 0 02:51 24.12.2022
534 Clouds 24 1008 79 10000 5.66 110 00:18 24.12.2022
535 Clouds 25 1008 68 10000 4.12 80 22:30 23.12.2022
536 Clouds 26 1009 68 10000 5.14 100 20:55 23.12.2022
537 Clouds 28 1010 59 10000 4.12 90 19:40 23.12.2022
538 Clouds 27 1010 60 10000 4.12 90 19:21 23.12.2022
539 Clouds 27 1011 61 10000 2.57 50 18:53 23.12.2022
540 Clouds 27 1011 61 10000 2.57 50 18:21 23.12.2022
541 Clouds 27 1011 67 10000 3.09 50 16:39 23.12.2022
542 Clouds 26 1011 73 10000 4.12 80 15:43 23.12.2022
543 Clouds 23 1011 82 10000 3.09 60 12:18 23.12.2022
544 Rain 21 1010 91 8000 4.12 360 09:42 23.12.2022
545 Rain 21 1011 90 8000 4.12 360 09:23 23.12.2022
546 Rain 22 1010 88 7000 4.63 360 07:19 23.12.2022
547 Rain 22 1010 87 7000 6.17 330 06:48 23.12.2022
548 Clear 27 1009 63 10000 8.23 120 23:23 22.12.2022
549 Clear 27 1009 64 10000 7.72 110 22:57 22.12.2022
550 Clear 29 1009 49 10000 8.23 110 21:25 22.12.2022
551 Clouds 31 1010 49 10000 5.99 100 19:26 22.12.2022
552 Clouds 31 1010 49 10000 5.99 100 19:26 22.12.2022
553 Clouds 31 1010 48 10000 4.97 95 18:51 22.12.2022
554 Clouds 30 1012 49 10000 4.66 99 17:29 22.12.2022
555 Clouds 29 1012 52 10000 4.66 99 16:39 22.12.2022
556 Clear 27 1013 56 10000 3.8 95 15:35 22.12.2022
557 Clear 27 1014 59 10000 3.6 50 14:51 22.12.2022
558 Clear 25 1015 64 10000 3.09 50 13:34 22.12.2022
559 Clear 24 1015 66 10000 3.6 30 12:59 22.12.2022
560 Clear 22 1014 70 10000 4.63 50 10:44 22.12.2022
561 Clear 22 1014 71 10000 4.63 50 10:22 22.12.2022
562 Clear 22 1014 71 10000 4.63 50 09:20 22.12.2022
563 Clear 23 1014 69 10000 3.6 50 08:26 22.12.2022
564 Clear 24 1013 63 10000 6.69 60 05:27 22.12.2022
565 Clear 25 1013 73 10000 5.66 100 04:18 22.12.2022
566 Clear 24 1013 71 10000 9.77 120 23:49 21.12.2022
567 Clear 26 1014 65 10000 8.75 100 21:57 21.12.2022
568 Clear 27 1014 60 10000 8.75 100 21:22 21.12.2022
569 Clear 27 1014 59 10000 7.72 110 20:49 21.12.2022
570 Clear 28 1015 52 10000 7.2 100 19:59 21.12.2022
571 Clear 28 1015 52 10000 7.2 100 19:41 21.12.2022
572 Clear 28 1015 52 10000 7.2 100 19:22 21.12.2022
573 Clouds 27 1016 57 10000 6.69 100 18:44 21.12.2022
574 Clear 28 1015 54 10000 5.68 103 17:35 21.12.2022
575 Clear 24 1017 66 10000 3.09 70 14:32 21.12.2022
576 Clear 23 1017 66 10000 3.09 50 12:57 21.12.2022
577 Clear 22 1017 67 10000 4.12 60 11:42 21.12.2022
578 Clear 22 1017 68 10000 4.12 60 11:19 21.12.2022
579 Clear 22 1016 66 10000 4.63 60 08:53 21.12.2022
580 Clear 23 1017 58 10000 5.66 60 06:59 21.12.2022
581 Clouds 24 1015 71 10000 8.23 130 01:27 21.12.2022
582 Clouds 26 1014 66 10000 11.32 110 22:42 20.12.2022
583 Clouds 27 1014 62 10000 10.29 110 21:19 20.12.2022
584 Clouds 29 1015 48 10000 8.75 100 20:19 20.12.2022
585 Clear 29 1014 46 10000 5.05 96 18:49 20.12.2022
586 Clear 29 1015 47 10000 3.97 104 18:28 20.12.2022
587 Clear 28 1015 51 10000 3.97 104 17:51 20.12.2022
588 Clear 28 1016 53 10000 4.07 105 17:28 20.12.2022
589 Clear 28 1016 53 10000 4.07 105 17:28 20.12.2022
590 Clear 28 1016 53 10000 4.07 105 16:32 20.12.2022
591 Clear 25 1017 63 10000 3.6 60 14:57 20.12.2022
592 Clear 25 1017 61 10000 3.54 83 14:36 20.12.2022
593 Clear 24 1018 68 10000 3.6 70 13:52 20.12.2022
594 Clear 23 1018 69 10000 3.09 50 12:40 20.12.2022
595 Clear 23 1017 71 10000 3.09 60 11:55 20.12.2022
596 Clear 22 1016 73 10000 3.09 40 10:42 20.12.2022
597 Clear 23 1015 69 10000 4.12 50 07:31 20.12.2022
598 Clear 24 1015 69 10000 9.26 120 00:20 20.12.2022
599 Clear 26 1014 63 10000 8.23 100 22:36 19.12.2022
600 Clear 28 1015 49 10000 7.2 100 21:30 19.12.2022
601 Clear 29 1014 35 10000 7.23 101 19:42 19.12.2022
602 Clouds 28 1016 42 10000 6.17 100 18:59 19.12.2022
603 Clouds 27 1016 52 10000 4.63 100 17:58 19.12.2022
604 Clear 27 1017 51 10000 3.9 101 16:29 19.12.2022
605 Clear 24 1018 66 10000 4.59 53 13:22 19.12.2022
606 Clouds 22 1017 72 10000 3.6 30 11:46 19.12.2022
607 Clear 21 1016 69 10000 4.63 30 08:23 19.12.2022
608 Clear 22 1016 66 10000 4.63 40 07:22 19.12.2022
609 Clear 23 1014 66 10000 7.72 120 00:54 19.12.2022
610 Clouds 25 1014 49 10000 8.75 100 21:50 18.12.2022
611 Clouds 26 1014 47 10000 8.75 100 21:31 18.12.2022
612 Clear 26 1014 43 10000 8.23 100 20:56 18.12.2022
613 Clear 27 1015 35 10000 7.72 100 19:44 18.12.2022
614 Clear 26 1015 36 10000 7.72 100 19:23 18.12.2022
615 Clouds 26 1016 42 10000 2.06 70 17:52 18.12.2022
616 Clouds 25 1017 53 10000 2.06 70 15:43 18.12.2022
617 Clouds 24 1017 54 10000 2.06 70 15:24 18.12.2022
618 Clouds 23 1017 57 10000 1.54 0 14:59 18.12.2022
619 Clouds 22 1017 62 10000 3.09 350 13:29 18.12.2022
620 Clouds 21 1017 66 10000 3.6 50 12:50 18.12.2022
621 Clouds 21 1017 67 10000 3.09 30 11:51 18.12.2022
622 Clouds 20 1015 70 10000 3.09 30 09:36 18.12.2022
623 Clouds 20 1015 68 10000 3.6 40 08:46 18.12.2022
624 Clouds 20 1015 64 10000 5.66 60 06:41 18.12.2022
625 Clouds 20 1015 63 10000 5.66 60 06:18 18.12.2022
626 Clouds 22 1013 70 10000 11.32 110 01:53 18.12.2022
627 Clear 23 1012 55 10000 8.75 100 22:58 17.12.2022
628 Clouds 24 1013 42 10000 6.17 100 20:57 17.12.2022
629 Clouds 23 1015 41 10000 4.63 110 17:52 17.12.2022
630 Clouds 22 1016 43 10000 4.12 60 15:32 17.12.2022
631 Clouds 21 1016 57 10000 5.14 50 13:20 17.12.2022
632 Clouds 19 1016 67 10000 5.66 60 11:19 17.12.2022
633 Clouds 18 1016 69 10000 5.66 60 10:40 17.12.2022
634 Clouds 18 1015 64 10000 7.2 70 08:37 17.12.2022
635 Clouds 18 1015 61 10000 8.23 70 06:47 17.12.2022
636 Clouds 19 1016 62 10000 6.69 100 04:41 17.12.2022
637 Clouds 21 1017 51 10000 8.23 100 22:53 16.12.2022
638 Clouds 22 1017 53 10000 9.26 100 20:27 16.12.2022
639 Clouds 23 1018 51 10000 7.2 110 18:22 16.12.2022
640 Clouds 22 1019 53 10000 6.69 100 15:28 16.12.2022
641 Clouds 22 1019 55 10000 5.14 110 14:36 16.12.2022
642 Clouds 20 1019 59 10000 3.6 130 12:38 16.12.2022
643 Clouds 19 1019 60 10000 2.57 150 11:56 16.12.2022
644 Clouds 17 1018 68 10000 2.57 150 09:40 16.12.2022
645 Clouds 17 1017 68 10000 2.57 160 08:39 16.12.2022
646 Clouds 18 1017 66 10000 2.57 150 07:54 16.12.2022
647 Clear 21 1017 59 10000 7.72 120 02:43 16.12.2022
648 Clear 26 1015 33 10000 9.77 110 22:33 15.12.2022
649 Clouds 27 1015 35 10000 10.29 100 21:30 15.12.2022
650 Clouds 28 1015 26 10000 6.17 150 19:46 15.12.2022
651 Clouds 28 1015 31 10000 5.14 140 18:53 15.12.2022
652 Clouds 26 1015 41 10000 4.63 150 17:27 15.12.2022
653 Clouds 26 1015 52 10000 2.57 180 15:46 15.12.2022
654 Clouds 25 1014 57 10000 1.54 70 14:55 15.12.2022
655 Clear 22 1015 81 10000 3.09 40 12:51 15.12.2022
656 Clear 21 1015 83 10000 3.09 40 12:22 15.12.2022
657 Rain 21 1012 73 9000 5.14 190 08:55 15.12.2022
658 Rain 22 1012 64 10000 4.63 180 08:18 15.12.2022
659 Clear 26 1007 58 10000 2.06 80 05:43 15.12.2022
660 Clear 32 1006 36 10000 0.45 270 22:40 14.12.2022
661 Smoke 32 1006 39 10000 3.09 30 21:24 14.12.2022
662 Clear 33 1005 35 10000 3.68 69 20:36 14.12.2022
663 Smoke 31 1008 39 10000 4.12 30 19:34 14.12.2022
664 Smoke 30 1010 39 10000 4.63 350 16:58 14.12.2022
665 Clear 31 1010 35 10000 3.79 18 16:19 14.12.2022
666 Smoke 28 1011 43 10000 4.12 340 14:50 14.12.2022
667 Clear 24 1011 50 10000 4.12 330 12:56 14.12.2022
668 Clear 21 1011 62 10000 2.57 320 10:45 14.12.2022
669 Clear 19 1011 67 10000 5.14 354 09:38 14.12.2022
670 Clear 23 1010 60 10000 2.57 40 06:28 14.12.2022
671 Clear 27 1010 47 10000 3.09 30 21:57 13.12.2022
672 Clear 27 1010 47 10000 3.09 30 21:36 13.12.2022
673 Clouds 26 1010 50 10000 4.12 30 20:47 13.12.2022
674 Clouds 26 1012 47 10000 4.12 20 18:49 13.12.2022
675 Clouds 24 1013 48 10000 3.6 20 16:22 13.12.2022
676 Clouds 24 1013 48 10000 3.6 20 16:22 13.12.2022
677 Clouds 24 1014 44 10000 2.57 20 14:53 13.12.2022
678 Clouds 22 1014 46 10000 1.03 0 12:53 13.12.2022
679 Clouds 18 1013 69 10000 1.03 0 10:39 13.12.2022
680 Clear 16 1012 75 10000 2.06 170 09:46 13.12.2022
681 Clear 17 1011 74 10000 2.57 170 07:52 13.12.2022
682 Rain 22 1009 43 10000 3.6 160 22:23 12.12.2022
683 Clouds 25 1007 34 10000 3.09 80 21:39 12.12.2022
684 Clear 27 1007 33 10000 3.09 20 19:33 12.12.2022
685 Clear 27 1008 33 10000 3.09 40 17:39 12.12.2022
686 Clear 26 1008 31 10000 3.09 0 15:23 12.12.2022
687 Clear 21 1008 42 10000 1.03 0 12:44 12.12.2022
688 Clear 19 1006 44 10000 2.57 160 09:20 12.12.2022
689 Clouds 21 1007 46 10000 4.63 160 05:44 12.12.2022
690 Clear 24 1005 55 10000 3.6 190 03:53 12.12.2022
691 Clouds 29 1002 55 10000 5.14 170 23:21 11.12.2022
692 Clear 38 1001 33 10000 0.89 293 21:29 11.12.2022
693 Clear 38 1002 34 10000 1.79 225 19:54 11.12.2022
694 Clouds 36 1002 40 10000 6.69 330 19:36 11.12.2022
695 Clear 36 1003 42 10000 1.34 315 18:24 11.12.2022
696 Clear 35 1005 45 10000 0.89 45 17:33 11.12.2022
697 Clouds 33 1006 51 10000 6.69 320 16:52 11.12.2022
698 Clouds 31 1007 58 10000 4.63 340 15:47 11.12.2022
699 Clear 31 1008 61 10000 5.14 330 14:50 11.12.2022
700 Clear 28 1009 70 10000 5.14 330 13:21 11.12.2022
701 Clear 27 1009 75 10000 6.17 340 12:40 11.12.2022
702 Clear 24 1009 81 10000 5.14 360 08:56 11.12.2022
703 Clear 25 1011 66 10000 7.72 120 00:35 11.12.2022
704 Clear 26 1011 61 10000 6.69 120 23:32 10.12.2022
705 Clear 28 1010 54 10000 7.72 130 22:33 10.12.2022
706 Clear 28 1010 54 10000 7.72 130 22:33 10.12.2022
707 Clear 29 1010 53 10000 7.37 98 21:20 10.12.2022
708 Clear 28 1012 56 10000 6.69 110 20:39 10.12.2022
709 Clear 28 1012 50 10000 6.69 120 18:58 10.12.2022
710 Clear 28 1012 54 10000 6.69 100 16:57 10.12.2022
711 Clear 28 1012 53 10000 6.69 100 16:33 10.12.2022
712 Clear 27 1012 56 10000 6.69 110 15:38 10.12.2022
713 Clear 27 1012 59 10000 6.69 100 14:48 10.12.2022
714 Clouds 26 1012 69 10000 6.17 100 12:54 10.12.2022
715 Clouds 25 1011 74 10000 7.72 100 11:37 10.12.2022
716 Clouds 24 1011 83 10000 9.26 100 10:41 10.12.2022
717 Clouds 23 1010 76 10000 9.77 110 08:58 10.12.2022
718 Clouds 23 1010 78 10000 9.77 100 07:19 10.12.2022
719 Thunderstorm 24 1009 90 6000 4.63 0 00:40 10.12.2022
720 Rain 34 1000 46 10000 3.09 90 23:18 09.12.2022
721 Clear 33 1000 52 10000 3.6 80 22:37 09.12.2022
722 Clouds 37 1002 38 10000 4.32 78 21:24 09.12.2022
723 Clouds 37 999 39 10000 4.32 78 20:41 09.12.2022
724 Clouds 38 1002 35 10000 2.39 56 18:42 09.12.2022
725 Clouds 36 1003 37 10000 2.28 31 17:51 09.12.2022
726 Clouds 35 1004 41 10000 3.13 5 16:31 09.12.2022
727 Clouds 35 1007 40 10000 0.89 90 15:34 09.12.2022
728 Clouds 33 1006 43 10000 3.06 348 14:40 09.12.2022
729 Clear 27 1006 62 10000 3.6 340 11:29 09.12.2022
730 Clear 26 1005 66 10000 3.09 340 10:32 09.12.2022
731 Clear 26 1005 80 10000 2.06 20 08:24 09.12.2022
732 Clear 28 1005 69 10000 0 0 03:18 09.12.2022
733 Clear 31 1004 58 10000 3.6 350 23:37 08.12.2022
734 Clear 35 1002 34 10000 1.65 54 20:56 08.12.2022
735 Clear 35 1002 33 10000 1.49 39 20:21 08.12.2022
736 Clear 33 1006 45 10000 4.63 350 16:51 08.12.2022
737 Clear 29 1006 57 10000 1.54 360 14:43 08.12.2022
738 Clear 28 1006 60 10000 1.54 360 14:20 08.12.2022
739 Clear 23 1006 85 10000 3.6 10 10:49 08.12.2022
740 Clouds 22 1005 88 8000 3.6 20 09:34 08.12.2022
741 Rain 21 1006 91 10000 0.45 90 08:58 08.12.2022
742 Clear 31 1007 50 10000 4.12 120 22:44 07.12.2022
743 Clouds 32 1008 38 10000 5.77 94 22:19 07.12.2022
744 Clouds 32 1008 38 10000 5.77 94 22:19 07.12.2022
745 Clear 32 1007 34 10000 3.09 90 21:47 07.12.2022
746 Rain 34 1005 29 10000 4.69 90 20:36 07.12.2022
747 Clear 34 1010 30 10000 4.18 83 18:41 07.12.2022
748 Clear 31 1012 50 10000 3.09 10 15:53 07.12.2022
749 Clear 30 1012 50 10000 2.57 20 14:30 07.12.2022
750 Clear 26 1012 62 10000 3.6 360 11:36 07.12.2022
751 Clear 25 1011 62 10000 5.14 360 10:30 07.12.2022
752 Clear 25 1011 60 10000 3.6 360 09:32 07.12.2022
753 Clear 25 1010 57 10000 3.09 350 08:36 07.12.2022
754 Clear 28 1010 53 10000 4.12 10 05:27 07.12.2022
755 Clear 27 1011 67 10000 4.12 100 02:58 07.12.2022
756 Clear 32 1010 49 10000 4.12 90 22:18 06.12.2022
757 Clear 35 1009 38 10000 3.5 92 19:38 06.12.2022
758 Clear 32 1012 48 10000 2.71 60 17:20 06.12.2022
759 Clear 32 1012 48 10000 2.71 60 16:30 06.12.2022
760 Clear 31 1012 51 10000 2.34 43 15:37 06.12.2022
761 Clear 30 1013 53 10000 2.66 21 14:40 06.12.2022
762 Clear 29 1014 55 10000 3.26 7 14:19 06.12.2022
763 Clear 26 1013 65 10000 4.63 350 12:41 06.12.2022
764 Clear 25 1013 70 10000 6.17 360 11:58 06.12.2022
765 Clear 25 1012 65 10000 5.66 10 07:50 06.12.2022
766 Clear 28 1011 54 10000 4.12 10 03:25 06.12.2022
767 Clear 28 1009 65 10000 7.72 100 23:44 05.12.2022
768 Clear 31 1010 50 10000 6.17 100 21:47 05.12.2022
769 Clear 32 1010 44 10000 6.17 100 20:54 05.12.2022
770 Clear 32 1010 44 10000 6.17 100 20:22 05.12.2022
771 Clear 33 1009 43 10000 4.65 94 19:36 05.12.2022
772 Clear 33 1012 43 10000 3.19 86 16:53 05.12.2022
773 Clear 28 1013 58 10000 2.57 50 15:29 05.12.2022
774 Clear 30 1013 51 10000 2.13 77 14:49 05.12.2022
775 Clear 26 1013 68 10000 2.57 20 12:58 05.12.2022
776 Clear 26 1013 69 10000 2.57 20 12:38 05.12.2022
777 Clear 25 1012 70 10000 1.54 50 11:42 05.12.2022
778 Clear 23 1011 78 10000 1.54 30 08:37 05.12.2022
779 Clear 26 1010 67 10000 3.6 100 00:18 05.12.2022
780 Clear 28 1009 52 10000 3.09 70 22:44 04.12.2022
781 Clear 28 1009 51 10000 3.09 70 22:19 04.12.2022
782 Clear 29 1009 49 10000 2.57 40 21:32 04.12.2022
783 Clear 31 1008 44 10000 3.97 69 20:20 04.12.2022
784 Clear 32 1009 41 10000 3.81 65 19:23 04.12.2022
785 Clear 30 1010 48 10000 3.09 50 18:35 04.12.2022
786 Clear 31 1010 40 10000 2.64 76 17:22 04.12.2022
787 Clear 30 1010 34 10000 2.64 76 16:37 04.12.2022
788 Clear 30 1010 35 10000 2.21 98 16:18 04.12.2022
789 Clear 29 1011 40 10000 1.33 126 15:27 04.12.2022
790 Clear 27 1011 47 10000 0.77 176 14:19 04.12.2022
791 Clouds 24 1011 63 10000 1.54 20 12:51 04.12.2022
792 Clouds 24 1011 70 10000 1.54 20 12:33 04.12.2022
793 Clear 23 1010 75 9000 0.51 0 11:34 04.12.2022
794 Clear 19 1009 85 10000 0.51 0 07:36 04.12.2022
795 Clear 22 1010 65 10000 6.17 110 02:51 04.12.2022
796 Clear 23 1009 51 10000 6.69 100 23:44 03.12.2022
797 Clear 24 1009 52 10000 5.66 100 22:34 03.12.2022
798 Clear 25 1009 53 10000 5.14 90 21:50 03.12.2022
799 Clear 25 1010 50 10000 5.14 80 20:45 03.12.2022
800 Clear 25 1012 41 10000 4.63 70 18:41 03.12.2022
801 Clouds 25 1011 44 10000 3.49 85 17:49 03.12.2022
802 Clouds 24 1013 50 10000 2.57 70 15:50 03.12.2022
803 Clear 22 1014 61 10000 2.57 50 13:43 03.12.2022
804 Clear 21 1014 69 10000 2.06 50 12:43 03.12.2022
805 Clear 20 1014 73 10000 3.09 60 11:34 03.12.2022
806 Clear 19 1013 76 10000 3.09 80 08:25 03.12.2022
807 Clear 21 1013 67 10000 5.14 90 02:48 03.12.2022
808 Clear 22 1012 71 10000 5.66 100 23:38 02.12.2022
809 Clear 23 1012 64 10000 5.66 80 21:52 02.12.2022
810 Clear 24 1013 57 10000 4.12 60 19:45 02.12.2022
811 Clear 24 1015 48 10000 3.09 30 16:26 02.12.2022
812 Clear 22 1015 51 10000 2.57 50 15:53 02.12.2022
813 Clear 21 1015 56 10000 2.06 0 14:29 02.12.2022
814 Clouds 20 1015 63 9000 2.57 160 13:43 02.12.2022
815 Clear 17 1014 76 10000 2.57 170 11:49 02.12.2022
816 Clear 16 1015 84 10000 2.57 160 10:26 02.12.2022
817 Clouds 16 1014 82 10000 3.6 150 07:48 02.12.2022
818 Clouds 16 1014 81 10000 3.6 150 07:18 02.12.2022
819 Clouds 23 1011 62 10000 3.6 180 22:49 01.12.2022
820 Clouds 23 1010 64 10000 4.63 170 21:41 01.12.2022
821 Clouds 23 1010 64 10000 4.63 180 20:36 01.12.2022
822 Clouds 22 1011 69 10000 4.12 180 18:58 01.12.2022
823 Clouds 21 1011 77 10000 4.63 180 16:57 01.12.2022
824 Clouds 19 1010 85 10000 4.12 190 14:21 01.12.2022
825 Clouds 19 1008 93 10000 2.57 0 10:56 01.12.2022
826 Clouds 19 1007 94 8000 2.06 180 09:54 01.12.2022
827 Clouds 19 1007 94 8000 2.06 180 09:36 01.12.2022
828 Clouds 19 1007 94 2000 3.09 190 05:49 01.12.2022
829 Clouds 24 1005 66 10000 4.63 180 22:41 30.11.2022
830 Clouds 25 1005 66 10000 4.12 170 21:20 30.11.2022
831 Clouds 25 1006 61 9000 4.63 190 20:55 30.11.2022
832 Clouds 26 1006 59 9000 4.63 190 20:23 30.11.2022
833 Clouds 29 1005 57 10000 3.21 122 18:36 30.11.2022
834 Clouds 30 1006 54 10000 3.58 99 17:39 30.11.2022
835 Clouds 29 1007 59 10000 2.49 96 16:20 30.11.2022
836 Clear 27 1007 64 10000 3.09 80 14:45 30.11.2022
837 Clouds 27 1008 62 10000 2.48 88 14:24 30.11.2022
838 Clouds 25 1007 70 10000 2.57 60 11:57 30.11.2022
839 Clear 24 1005 73 10000 4.63 360 09:21 30.11.2022
840 Clear 25 1004 71 10000 4.63 30 07:59 30.11.2022
841 Clear 26 1005 66 10000 2.57 30 04:56 30.11.2022
842 Clear 29 1004 49 10000 4.12 90 23:22 29.11.2022
843 Clouds 31 1003 42 10000 5.4 90 21:47 29.11.2022
844 Clouds 32 1005 35 10000 1.03 0 20:42 29.11.2022
845 Clouds 33 1006 32 10000 4.13 90 19:36 29.11.2022
846 Clear 31 1006 40 10000 3.32 74 17:51 29.11.2022
847 Clear 29 1008 58 10000 3.09 30 16:28 29.11.2022
848 Clear 27 1010 62 10000 3.6 360 14:51 29.11.2022
849 Clear 27 1009 62 10000 3.76 16 13:36 29.11.2022
850 Clear 24 1010 69 10000 6.17 350 12:35 29.11.2022
851 Clear 24 1010 71 10000 5.14 360 11:30 29.11.2022
852 Clear 23 1010 76 10000 4.12 10 10:23 29.11.2022
853 Clear 24 1009 74 10000 6.69 360 08:42 29.11.2022
854 Clear 25 1009 70 10000 5.14 40 05:49 29.11.2022
855 Clear 27 1010 62 10000 6.17 120 23:35 28.11.2022
856 Clear 28 1009 55 10000 6.69 120 22:57 28.11.2022
857 Clear 30 1010 50 10000 6.17 110 21:54 28.11.2022
858 Clear 30 1010 49 10000 6.17 110 21:36 28.11.2022
859 Clouds 29 1011 54 10000 6.69 100 19:41 28.11.2022
860 Clouds 29 1012 58 10000 5.66 100 18:30 28.11.2022
861 Clouds 29 1013 56 10000 4.63 90 17:51 28.11.2022
862 Clear 28 1014 57 10000 3.6 80 16:35 28.11.2022
863 Clear 25 1015 68 10000 3.6 50 14:28 28.11.2022
864 Clouds 24 1016 71 10000 3.09 40 13:52 28.11.2022
865 Clouds 24 1016 76 10000 3.6 40 12:42 28.11.2022
866 Clear 23 1015 88 10000 3.6 20 10:22 28.11.2022
867 Clear 24 1015 79 10000 2.57 40 07:27 28.11.2022
868 Clear 25 1016 73 10000 5.66 60 04:43 28.11.2022
869 Clear 25 1016 78 10000 5.14 90 03:58 28.11.2022
870 Clear 25 1016 81 10000 5.14 90 03:18 28.11.2022
871 Clear 27 1016 67 10000 9.77 120 22:47 27.11.2022
872 Clear 28 1016 63 10000 8.75 110 21:41 27.11.2022
873 Clear 29 1017 56 10000 7.2 110 20:22 27.11.2022
874 Clear 27 1019 65 10000 5.66 100 17:34 27.11.2022
875 Clouds 26 1020 73 10000 3.09 70 14:33 27.11.2022
876 Clouds 24 1020 79 10000 2.57 50 12:32 27.11.2022
877 Clouds 22 1019 85 10000 4.12 360 10:48 27.11.2022
878 Clear 23 1018 83 10000 4.12 20 08:18 27.11.2022
879 Clear 25 1018 66 10000 7.2 120 00:36 27.11.2022
880 Clear 29 1017 54 10000 6.69 110 21:58 26.11.2022
881 Clear 28 1017 56 10000 6.17 100 20:51 26.11.2022
882 Clear 29 1018 49 10000 6.17 100 19:22 26.11.2022
883 Clear 29 1018 55 10000 4.09 108 16:59 26.11.2022
884 Clear 26 1019 70 10000 3.6 100 15:38 26.11.2022
885 Clear 22 1019 76 10000 5.14 100 12:55 26.11.2022
886 Clouds 21 1019 81 10000 5.14 90 11:24 26.11.2022
887 Clouds 20 1018 87 10000 5.66 90 09:44 26.11.2022
888 Clouds 21 1018 86 10000 5.66 90 08:46 26.11.2022
889 Clear 23 1018 76 10000 9.26 110 23:23 25.11.2022
890 Clear 24 1018 69 10000 8.23 120 21:41 25.11.2022
891 Clear 24 1018 68 10000 8.23 120 21:19 25.11.2022
892 Clear 24 1020 64 10000 7.72 110 19:44 25.11.2022
893 Clouds 24 1021 64 10000 8.23 100 16:40 25.11.2022
894 Clouds 21 1021 72 10000 8.75 120 13:43 25.11.2022
895 Clear 17 1018 79 10000 5.66 140 09:19 25.11.2022
896 Clear 17 1018 76 10000 4.63 140 08:38 25.11.2022
897 Clear 18 1018 69 10000 4.12 140 06:52 25.11.2022
898 Clouds 27 1016 43 9000 5.14 150 01:54 25.11.2022
899 Clear 32 1013 34 10000 1.03 0 23:43 24.11.2022
900 Clear 33 1013 25 10000 0.79 81 22:37 24.11.2022
901 Smoke 33 1011 40 10000 2.06 30 21:42 24.11.2022
902 Clear 35 1010 27 10000 3.02 27 19:48 24.11.2022
903 Clear 34 1011 30 10000 3.17 32 17:48 24.11.2022
904 Clear 34 1011 27 10000 2.59 36 17:24 24.11.2022
905 Clear 33 1011 29 10000 2.59 36 16:40 24.11.2022
906 Clear 29 1012 39 10000 2.16 327 14:24 24.11.2022
907 Clear 23 1012 54 10000 3.6 330 12:41 24.11.2022
908 Clear 21 1011 54 10000 4.12 330 11:37 24.11.2022
909 Clear 21 1010 49 10000 4.12 320 08:47 24.11.2022
910 Clear 23 1009 43 10000 3.09 320 04:46 24.11.2022
911 Clear 26 1007 40 10000 4.12 350 00:40 24.11.2022
912 Clear 27 1007 42 10000 6.69 360 23:32 23.11.2022
913 Clear 29 1008 33 10000 4.63 350 21:47 23.11.2022
914 Clear 30 1008 26 10000 4.77 2 20:49 23.11.2022
915 Clear 29 1010 32 10000 4.12 350 19:34 23.11.2022
916 Clear 30 1009 26 10000 4.8 15 18:54 23.11.2022
917 Clear 29 1011 29 10000 4.99 7 17:29 23.11.2022
918 Clear 28 1011 30 10000 4.99 7 17:29 23.11.2022
919 Clear 23 1013 39 10000 5.66 330 13:42 23.11.2022
920 Clear 21 1013 43 10000 5.66 330 13:21 23.11.2022
921 Clear 20 1013 44 10000 3.6 320 12:22 23.11.2022
922 Clear 19 1013 50 10000 3.6 310 11:44 23.11.2022
923 Clear 17 1013 54 10000 2.57 310 10:45 23.11.2022
924 Clear 16 1012 62 10000 2.57 310 09:45 23.11.2022
925 Clear 16 1012 62 10000 2.57 310 09:26 23.11.2022
926 Clear 16 1012 63 10000 1.03 0 08:37 23.11.2022
927 Clear 16 1012 63 10000 1.03 0 07:19 23.11.2022
928 Clear 16 1013 52 10000 0.51 0 05:19 23.11.2022
929 Clear 21 1013 32 10000 2.57 0 23:47 22.11.2022
930 Clear 23 1012 30 10000 3.09 180 22:36 22.11.2022
931 Clear 23 1012 32 10000 2.57 180 21:34 22.11.2022
932 Clear 22 1013 33 10000 3.09 170 20:50 22.11.2022
933 Clear 22 1013 33 10000 3.09 170 20:19 22.11.2022
934 Clear 22 1014 33 10000 3.6 240 18:34 22.11.2022
935 Clear 21 1014 34 10000 3.09 0 17:45 22.11.2022
936 Clouds 20 1015 39 10000 3.09 230 16:23 22.11.2022
937 Clouds 17 1016 61 10000 2.57 170 13:48 22.11.2022
938 Clouds 14 1015 76 10000 1.54 0 11:57 22.11.2022
939 Clouds 14 1015 87 10000 2.06 190 09:26 22.11.2022
940 Clouds 15 1015 86 10000 2.57 180 07:55 22.11.2022
941 Clouds 16 1015 79 10000 3.09 170 03:47 22.11.2022
942 Clouds 17 1014 83 10000 4.12 180 23:41 21.11.2022
943 Drizzle 17 1014 82 8000 3.6 180 22:49 21.11.2022
944 Clouds 18 1013 77 10000 2.57 0 21:59 21.11.2022
945 Clouds 18 1013 78 10000 3.6 170 20:56 21.11.2022
946 Clouds 18 1013 78 10000 3.6 170 20:56 21.11.2022
947 Clouds 18 1014 83 10000 4.12 180 19:42 21.11.2022
948 Clouds 17 1014 87 10000 3.6 190 18:54 21.11.2022
949 Clouds 17 1014 90 10000 3.6 190 18:34 21.11.2022
950 Rain 16 1015 89 9000 3.6 180 16:56 21.11.2022
951 Rain 16 1015 89 9000 3.6 180 16:37 21.11.2022
952 Rain 16 1015 91 9000 3.09 190 15:50 21.11.2022
953 Rain 15 1015 89 9000 2.57 0 14:55 21.11.2022
954 Rain 15 1014 88 10000 4.12 190 13:44 21.11.2022
955 Drizzle 15 1014 91 9000 4.63 190 11:38 21.11.2022
956 Rain 16 1013 90 9000 3.6 180 09:18 21.11.2022
957 Rain 17 1012 88 10000 3.09 180 07:42 21.11.2022
958 Rain 21 1011 79 7000 4.12 150 22:43 20.11.2022
959 Clouds 24 1010 58 5000 7.2 150 21:36 20.11.2022
960 Clouds 24 1010 58 5000 7.2 150 21:36 20.11.2022
961 Clear 25 1009 54 10000 6.69 160 20:32 20.11.2022
962 Clear 27 1009 57 10000 4.12 200 18:39 20.11.2022
963 Rain 28 1009 54 10000 4.12 120 16:32 20.11.2022
964 Clear 28 1008 53 10000 4.12 150 15:30 20.11.2022
965 Clouds 27 1009 53 10000 1.03 0 14:54 20.11.2022
966 Clouds 25 1009 55 10000 1.54 0 13:34 20.11.2022
967 Clear 24 1009 62 10000 3.6 340 12:42 20.11.2022
968 Clear 25 1007 59 10000 3.09 350 11:26 20.11.2022
969 Clear 25 1006 59 10000 1.54 30 10:40 20.11.2022
970 Clear 25 1006 63 10000 2.57 90 09:23 20.11.2022
971 Clear 25 1005 62 10000 3.09 110 08:35 20.11.2022
972 Rain 25 1005 61 10000 2.57 130 07:29 20.11.2022
973 Clear 26 1007 53 10000 1.03 0 02:19 20.11.2022
974 Clear 28 1007 41 10000 1.03 0 01:20 20.11.2022
975 Clear 29 1007 39 10000 1.54 210 00:41 20.11.2022
976 Clear 29 1007 38 10000 1.54 210 00:22 20.11.2022
977 Rain 29 1006 38 10000 2.32 275 23:49 19.11.2022
978 Rain 30 1006 39 10000 1.41 262 23:23 19.11.2022
979 Clouds 30 1006 45 10000 1.41 262 22:38 19.11.2022
980 Clouds 30 1006 46 10000 2.27 295 21:32 19.11.2022
981 Rain 30 1007 50 10000 2.57 20 20:56 19.11.2022
982 Clear 30 1007 52 10000 2.57 20 20:29 19.11.2022
983 Clouds 32 1006 41 10000 4.3 359 18:55 19.11.2022
984 Clouds 31 1007 42 10000 4.73 354 17:40 19.11.2022
985 Clouds 31 1008 42 10000 5.39 349 17:19 19.11.2022
986 Clear 27 1010 54 10000 3.6 360 15:41 19.11.2022
987 Clear 27 1010 52 10000 2.57 360 14:30 19.11.2022
988 Rain 24 1010 59 10000 4.63 10 11:58 19.11.2022
989 Clear 24 1010 65 10000 4.63 340 10:40 19.11.2022
990 Rain 24 1009 67 10000 5.14 10 08:39 19.11.2022
991 Clear 24 1011 70 10000 3.6 110 04:51 19.11.2022
992 Clear 25 1010 73 10000 2.06 160 01:55 19.11.2022
993 Clear 25 1010 62 10000 7.72 120 23:44 18.11.2022
994 Clear 26 1011 58 10000 8.23 120 22:34 18.11.2022
995 Clear 27 1011 57 10000 8.75 120 21:37 18.11.2022
996 Clear 27 1012 53 10000 7.2 120 20:59 18.11.2022
997 Clear 28 1012 48 10000 7.2 120 20:26 18.11.2022
998 Clear 28 1012 51 10000 6.69 120 19:46 18.11.2022
999 Clear 29 1013 47 10000 6.17 120 18:28 18.11.2022
1000 Clear 27 1015 57 10000 7.72 100 16:42 18.11.2022
1001 Clouds 26 1016 56 10000 2.82 42 13:40 18.11.2022
1002 Clear 23 1016 62 10000 4.63 110 11:24 18.11.2022
1003 Clear 23 1015 68 10000 3.09 80 08:24 18.11.2022
1004 Clear 23 1015 59 10000 6.69 70 06:23 18.11.2022
1005 Clear 23 1016 59 10000 6.17 70 05:18 18.11.2022
1006 Clear 23 1016 70 10000 9.26 120 00:42 18.11.2022
1007 Clear 28 1015 47 10000 8.75 120 21:26 17.11.2022
1008 Clear 29 1015 39 10000 8.75 110 20:29 17.11.2022
1009 Clear 29 1016 39 10000 8.75 110 19:50 17.11.2022
1010 Clear 28 1017 41 10000 5.66 110 18:35 17.11.2022
1011 Rain 27 1017 49 10000 4.12 80 17:32 17.11.2022
1012 Clear 27 1018 50 10000 5.14 80 16:42 17.11.2022
1013 Clear 24 1019 52 10000 4.12 130 12:29 17.11.2022
1014 Rain 23 1019 53 10000 4.12 140 11:21 17.11.2022
1015 Clear 23 1017 51 10000 3.6 110 08:19 17.11.2022
1016 Clear 26 1016 57 10000 2.06 80 02:35 17.11.2022
1017 Clear 28 1015 46 10000 4.12 110 00:20 17.11.2022
1018 Clear 32 1015 28 10000 0.45 315 22:27 16.11.2022
1019 Clear 33 1013 30 10000 3.76 43 20:35 16.11.2022
1020 Clear 33 1015 30 10000 3.08 54 19:29 16.11.2022
1021 Clear 33 1015 31 10000 3.08 54 18:33 16.11.2022
1022 Clear 33 1016 28 10000 1.67 45 16:36 16.11.2022
1023 Clear 25 1016 49 10000 2.57 360 12:56 16.11.2022
1024 Clear 20 1014 71 10000 1.03 0 08:27 16.11.2022
1025 Clear 26 1013 34 10000 1.54 220 01:49 16.11.2022
1026 Clear 30 1011 26 10000 2.06 240 23:50 15.11.2022
1027 Clear 32 1010 22 10000 3.09 230 21:54 15.11.2022
1028 Clear 32 1010 23 10000 3.6 0 20:25 15.11.2022
1029 Clear 31 1011 23 10000 4.63 0 19:18 15.11.2022
1030 Clear 31 1011 26 10000 3.6 210 17:38 15.11.2022
1031 Clear 29 1011 30 10000 3.6 0 16:22 15.11.2022
1032 Clear 27 1012 33 10000 3.09 0 15:40 15.11.2022
1033 Clear 25 1012 37 10000 3.09 250 14:41 15.11.2022
1034 Clear 20 1011 50 10000 2.06 250 12:58 15.11.2022
1035 Clear 17 1010 61 10000 3.09 250 11:22 15.11.2022
1036 Clear 16 1009 69 10000 2.06 270 09:43 15.11.2022
1037 Clear 22 1006 46 10000 2.57 0 00:54 15.11.2022
1038 Clear 22 1006 47 10000 2.57 0 00:24 15.11.2022
1039 Clouds 22 1005 52 10000 3.09 0 22:33 14.11.2022
1040 Clouds 22 1005 57 10000 3.09 0 20:44 14.11.2022
1041 Clouds 21 1005 62 10000 4.63 240 19:46 14.11.2022
1042 Clouds 21 1004 64 10000 3.6 0 18:27 14.11.2022
1043 Clouds 16 1004 90 10000 4.12 230 12:55 14.11.2022
1044 Clouds 16 1004 90 10000 4.12 230 12:55 14.11.2022
1045 Drizzle 16 1003 93 7000 3.6 0 11:49 14.11.2022
1046 Drizzle 16 1002 93 9000 4.63 230 10:58 14.11.2022
1047 Clouds 17 1001 90 10000 3.6 0 08:34 14.11.2022
1048 Clouds 17 1001 92 10000 3.6 210 07:52 14.11.2022
1049 Rain 19 1003 96 4000 1.54 0 02:32 14.11.2022
1050 Thunderstorm 21 1003 91 9000 9.77 100 22:50 13.11.2022
1051 Rain 24 1002 78 9000 3.6 90 21:41 13.11.2022
1052 Rain 24 1003 72 10000 2.06 120 20:46 13.11.2022
1053 Rain 24 1004 73 10000 5.66 100 18:54 13.11.2022
1054 Rain 24 1005 76 10000 6.69 100 17:49 13.11.2022
1055 Rain 23 1007 77 10000 6.17 100 15:40 13.11.2022
1056 Clouds 22 1007 81 10000 6.17 100 14:31 13.11.2022
1057 Clouds 22 1008 81 10000 5.14 100 12:56 13.11.2022
1058 Rain 21 1007 87 10000 6.17 100 11:35 13.11.2022
1059 Clouds 21 1007 87 10000 5.66 100 10:36 13.11.2022
1060 Clear 21 1008 73 10000 3.6 140 05:53 13.11.2022
1061 Clear 23 1008 82 10000 5.14 110 23:54 12.11.2022
1062 Clear 25 1008 62 10000 3.6 80 21:32 12.11.2022
1063 Clear 25 1008 63 10000 3.6 80 20:41 12.11.2022
1064 Clear 25 1009 65 10000 3.6 60 18:57 12.11.2022
1065 Clear 26 1011 48 10000 2.06 170 16:52 12.11.2022
1066 Rain 24 1011 56 10000 2.06 0 15:37 12.11.2022
1067 Clouds 23 1012 64 10000 2.06 0 13:32 12.11.2022
1068 Clear 20 1010 83 10000 3.6 20 09:35 12.11.2022
1069 Clear 21 1011 74 10000 2.57 30 07:47 12.11.2022
1070 Clouds 23 1010 66 10000 6.17 110 23:37 11.11.2022
1071 Clear 27 1010 50 10000 6.69 100 20:56 11.11.2022
1072 Clear 27 1010 50 10000 6.69 100 20:28 11.11.2022
1073 Clear 27 1011 56 10000 6.17 100 19:26 11.11.2022
1074 Clouds 28 1011 44 10000 3.96 94 17:59 11.11.2022
1075 Clouds 27 1012 49 10000 4.02 92 16:55 11.11.2022
1076 Clear 23 1015 73 10000 2.06 30 14:30 11.11.2022
1077 Clouds 23 1014 67 10000 2.9 39 13:31 11.11.2022
1078 Clear 21 1014 77 10000 1.54 50 11:38 11.11.2022
1079 Clear 20 1013 79 10000 4.12 80 08:43 11.11.2022
1080 Clear 19 1013 87 10000 4.12 110 07:41 11.11.2022
1081 Clear 22 1013 70 10000 4.12 110 00:30 11.11.2022
1082 Clear 23 1012 67 10000 3.6 110 22:51 10.11.2022
1083 Clouds 24 1012 60 10000 5.66 110 21:39 10.11.2022
1084 Rain 24 1012 57 10000 5.66 110 21:20 10.11.2022
1085 Rain 25 1013 51 10000 3.6 100 20:23 10.11.2022
1086 Clouds 25 1014 46 10000 2.06 70 19:55 10.11.2022
1087 Clouds 27 1015 47 10000 2.57 60 18:44 10.11.2022
1088 Clouds 24 1016 56 10000 3.6 70 16:26 10.11.2022
1089 Clear 22 1016 58 10000 2.06 70 14:43 10.11.2022
1090 Clear 21 1015 66 10000 2.57 50 13:18 10.11.2022
1091 Clear 18 1014 75 10000 4.63 60 09:19 10.11.2022
1092 Clear 20 1014 66 10000 5.66 50 06:40 10.11.2022
1093 Clear 21 1012 79 10000 7.2 100 00:56 10.11.2022
1094 Clear 22 1012 69 10000 8.75 110 22:46 09.11.2022
1095 Clear 23 1013 55 10000 6.17 100 20:50 09.11.2022
1096 Clear 23 1013 53 10000 6.17 100 20:31 09.11.2022
1097 Clear 23 1014 50 10000 7.2 100 19:48 09.11.2022
1098 Clear 23 1014 51 10000 7.2 100 19:24 09.11.2022
1099 Clouds 24 1016 49 10000 3.94 92 16:50 09.11.2022
1100 Clouds 21 1019 61 10000 3.6 360 14:48 09.11.2022
1101 Clouds 21 1019 61 10000 3.6 360 14:26 09.11.2022
1102 Clouds 20 1019 67 10000 5.14 360 13:33 09.11.2022
1103 Clouds 19 1019 68 10000 4.12 360 12:49 09.11.2022
1104 Clear 17 1018 74 10000 6.17 20 08:53 09.11.2022
1105 Clear 18 1018 72 10000 6.17 20 07:46 09.11.2022
1106 Clear 21 1018 82 8000 5.66 90 01:44 09.11.2022
1107 Clear 23 1018 68 10000 8.23 110 21:56 08.11.2022
1108 Clear 23 1018 66 10000 8.23 110 21:35 08.11.2022
1109 Clear 23 1019 59 10000 7.72 100 20:41 08.11.2022
1110 Clear 24 1019 58 10000 7.2 100 19:47 08.11.2022
1111 Clear 24 1020 50 10000 4.63 70 18:57 08.11.2022
1112 Clear 23 1021 48 10000 4.12 50 17:32 08.11.2022
1113 Clouds 20 1023 65 10000 5.14 50 14:57 08.11.2022
1114 Clouds 18 1023 70 10000 5.66 50 13:44 08.11.2022
1115 Clouds 18 1023 71 10000 5.66 50 13:25 08.11.2022
1116 Clouds 16 1023 77 10000 6.17 30 09:46 08.11.2022
1117 Clear 17 1022 74 10000 6.17 40 07:30 08.11.2022
1118 Clear 20 1023 78 10000 7.2 100 01:41 08.11.2022
1119 Clear 20 1023 78 10000 7.2 100 01:41 08.11.2022
1120 Clear 21 1022 68 10000 10.29 110 22:51 07.11.2022
1121 Clear 22 1022 63 10000 9.26 110 21:38 07.11.2022
1122 Clear 24 1022 53 10000 8.23 100 20:44 07.11.2022
1123 Clear 24 1023 51 10000 7.72 100 19:30 07.11.2022
1124 Clear 23 1024 51 10000 4.63 100 17:39 07.11.2022
1125 Clouds 22 1026 55 10000 3.6 50 15:36 07.11.2022
1126 Clouds 21 1026 61 10000 3.6 50 14:49 07.11.2022
1127 Clouds 18 1026 73 10000 3.6 20 12:55 07.11.2022
1128 Clouds 17 1025 75 10000 4.63 30 11:44 07.11.2022
1129 Clear 17 1025 76 10000 5.66 30 09:49 07.11.2022
1130 Clear 18 1024 72 10000 6.69 30 07:53 07.11.2022
1131 Clear 19 1024 69 10000 7.72 50 06:25 07.11.2022
1132 Clear 20 1023 81 10000 6.17 110 01:42 07.11.2022
1133 Clear 22 1022 64 10000 9.26 110 22:31 06.11.2022
1134 Clouds 22 1022 62 10000 10.29 110 21:21 06.11.2022
1135 Clear 23 1022 60 10000 8.75 110 20:32 06.11.2022
1136 Clear 23 1023 54 10000 7.72 110 19:55 06.11.2022
1137 Clear 23 1024 49 10000 7.72 100 18:41 06.11.2022
1138 Clear 23 1024 47 10000 7.72 100 18:19 06.11.2022
1139 Clear 23 1025 52 10000 7.2 100 17:22 06.11.2022
1140 Clouds 22 1025 51 10000 4.63 80 16:40 06.11.2022
1141 Clouds 21 1026 56 10000 4.63 70 15:53 06.11.2022
1142 Clouds 20 1026 64 10000 4.63 60 14:24 06.11.2022
1143 Clouds 18 1026 73 10000 5.66 60 12:39 06.11.2022
1144 Clouds 17 1025 78 10000 5.14 60 10:48 06.11.2022
1145 Clear 16 1024 78 10000 6.17 50 09:30 06.11.2022
1146 Clouds 20 1023 76 9000 5.14 90 02:19 06.11.2022
1147 Clear 20 1021 73 10000 10.8 110 23:22 05.11.2022
1148 Clear 22 1022 52 10000 7.2 110 19:43 05.11.2022
1149 Clouds 22 1024 51 10000 3.6 60 17:45 05.11.2022
1150 Clouds 21 1024 56 10000 3.6 50 16:21 05.11.2022
1151 Clouds 19 1025 62 10000 4.63 50 14:34 05.11.2022
1152 Clouds 17 1025 73 10000 5.14 40 12:51 05.11.2022
1153 Clouds 16 1024 83 10000 6.69 50 10:31 05.11.2022
1154 Clear 16 1024 78 10000 7.2 50 08:47 05.11.2022
1155 Clear 17 1024 70 10000 7.72 60 06:57 05.11.2022
1156 Clear 19 1024 60 10000 7.72 60 03:49 05.11.2022
1157 Clear 19 1023 76 10000 9.77 110 23:35 04.11.2022
1158 Clear 20 1023 67 10000 10.29 110 22:28 04.11.2022
1159 Clear 21 1023 52 10000 8.75 110 20:20 04.11.2022
1160 Clear 21 1025 55 10000 6.69 110 17:46 04.11.2022
1161 Clear 20 1026 56 10000 5.14 80 16:34 04.11.2022
1162 Clouds 18 1028 67 9000 4.12 50 13:39 04.11.2022
1163 Clouds 17 1028 72 9000 4.63 50 12:23 04.11.2022
1164 Clouds 15 1026 80 10000 5.14 60 09:40 04.11.2022
1165 Clear 16 1026 77 10000 5.66 70 08:21 04.11.2022
1166 Clear 16 1026 77 10000 5.66 70 08:21 04.11.2022
1167 Clear 16 1026 77 10000 5.14 70 07:26 04.11.2022
1168 Clear 18 1027 68 10000 8.23 120 01:35 04.11.2022
1169 Clear 20 1026 50 10000 8.75 110 22:30 03.11.2022
1170 Clear 22 1026 52 10000 7.2 100 20:48 03.11.2022
1171 Clear 23 1027 54 10000 6.69 100 19:43 03.11.2022
1172 Clear 23 1027 57 10000 5.14 80 18:46 03.11.2022
1173 Clear 24 1028 50 10000 3.6 60 17:38 03.11.2022
1174 Clear 24 1029 41 10000 3.6 60 15:41 03.11.2022
1175 Clear 23 1029 38 10000 2.06 30 13:47 03.11.2022
1176 Clear 21 1029 40 9000 0.51 0 12:35 03.11.2022
1177 Clear 19 1028 44 9000 0.51 0 11:43 03.11.2022
1178 Clear 17 1028 55 10000 1.54 290 07:49 03.11.2022
1179 Clear 22 1027 40 10000 2.06 50 23:56 02.11.2022
1180 Clear 26 1027 19 10000 2.91 45 20:56 02.11.2022
1181 Clear 26 1027 17 10000 2.91 45 20:32 02.11.2022
1182 Clear 26 1028 21 10000 3.18 44 18:45 02.11.2022
1183 Clear 25 1030 33 10000 2.53 35 16:29 02.11.2022
1184 Clear 24 1030 25 10000 2.53 35 15:32 02.11.2022
1185 Clear 19 1030 43 10000 2.06 360 13:26 02.11.2022
1186 Clear 17 1030 44 10000 1.54 290 12:28 02.11.2022
1187 Clear 13 1030 65 10000 3.09 330 10:23 02.11.2022
1188 Clear 14 1029 61 10000 4.12 330 08:38 02.11.2022
1189 Clear 16 1030 63 10000 4.63 110 02:40 02.11.2022
1190 Clear 20 1029 40 10000 3.09 60 22:21 01.11.2022
1191 Clear 20 1028 43 10000 3.09 30 21:54 01.11.2022
1192 Clear 20 1028 47 10000 3.6 30 20:55 01.11.2022
1193 Clear 20 1028 47 10000 3.6 30 20:23 01.11.2022
1194 Clear 21 1028 43 10000 2.6 66 19:41 01.11.2022
1195 Clear 21 1029 38 10000 2.35 57 18:26 01.11.2022
1196 Clear 19 1031 38 10000 0.12 88 16:28 01.11.2022
1197 Clear 16 1032 45 10000 3.09 340 14:39 01.11.2022
1198 Clear 14 1033 51 9000 1.03 0 12:38 01.11.2022
1199 Clear 12 1033 62 10000 1.54 200 11:40 01.11.2022
1200 Clear 11 1033 67 10000 1.54 200 11:20 01.11.2022
1201 Clear 9 1032 76 10000 1.03 0 08:58 01.11.2022
1202 Clear 10 1031 71 10000 1.54 190 07:49 01.11.2022
1203 Clear 10 1031 70 10000 1.54 190 07:27 01.11.2022
1204 Clear 10 1031 69 10000 1.03 0 06:45 01.11.2022
1205 Clear 11 1031 63 10000 1.54 150 04:20 01.11.2022
1206 Clear 16 1028 38 10000 4.12 190 22:35 31.10.2022
1207 Clear 17 1028 34 10000 4.12 200 21:31 31.10.2022
1208 Clear 17 1028 32 10000 4.12 190 19:56 31.10.2022
1209 Clear 17 1029 29 10000 4.12 200 18:36 31.10.2022
1210 Clouds 15 1029 37 10000 5.14 200 16:44 31.10.2022
1211 -273 0 0 0 0 0 15:30 31.10.2022
1212 Clouds 10 1028 66 10000 4.12 190 12:21 31.10.2022
1213 Clear 8 1024 75 10000 5.66 200 09:35 31.10.2022
1214 Clear 10 1023 61 10000 4.12 190 05:40 31.10.2022
1215 Clear 12 1021 53 10000 3.6 180 02:38 31.10.2022
1216 Clear 13 1018 55 10000 3.09 170 01:46 31.10.2022
1217 Clouds 12 1013 65 10000 6.17 170 21:51 30.10.2022
1218 Clouds 12 1012 73 10000 5.66 180 20:37 30.10.2022
1219 Clouds 12 1012 73 10000 5.66 180 20:37 30.10.2022
1220 Clouds 11 1011 82 10000 4.63 200 19:33 30.10.2022
1221 Clouds 15 1009 81 9000 2.57 170 16:28 30.10.2022
1222 Rain 14 1007 83 9000 4.12 160 14:23 30.10.2022
1223 Rain 16 1006 76 9000 6.17 150 13:33 30.10.2022
1224 Clouds 16 1003 78 10000 6.17 180 11:56 30.10.2022
1225 Clear 18 1001 70 10000 3.09 190 09:51 30.10.2022
1226 Clear 19 998 68 10000 4.12 130 08:54 30.10.2022
1227 Rain 21 999 62 10000 2.06 150 07:27 30.10.2022
1228 Clear 22 1000 64 10000 6.69 110 00:29 30.10.2022
1229 Clear 23 1000 59 10000 6.17 100 23:45 29.10.2022
1230 Clouds 26 999 54 10000 5.14 80 21:44 29.10.2022
1231 Clear 29 1001 40 10000 3.6 0 18:35 29.10.2022
1232 Clear 29 1001 40 10000 3.6 0 18:35 29.10.2022
1233 Clouds 28 1003 47 10000 2.84 140 17:21 29.10.2022
1234 Clouds 27 1004 47 10000 2.23 195 15:38 29.10.2022
1235 Clear 24 1003 56 10000 1.54 360 14:51 29.10.2022
1236 Thunderstorm 21 1005 60 7000 4.12 0 12:36 29.10.2022
1237 Rain 21 1002 58 10000 3.09 350 11:55 29.10.2022
1238 Clear 22 1003 59 10000 3.09 320 07:39 29.10.2022
1239 Clear 23 1003 59 10000 3.6 330 06:47 29.10.2022
1240 Clear 23 1004 58 10000 2.06 340 05:53 29.10.2022
1241 Clear 31 1003 31 10000 2.06 100 23:43 28.10.2022
1242 Clear 34 1003 23 10000 4.12 290 21:30 28.10.2022
1243 Clear 33 1005 24 10000 5.66 300 19:43 28.10.2022
1244 Clear 33 1005 25 10000 6.69 300 18:32 28.10.2022
1245 Clear 30 1006 35 10000 5.66 340 17:26 28.10.2022
1246 Clear 25 1007 41 10000 6.69 310 14:46 28.10.2022
1247 Clear 21 1007 51 10000 5.14 320 13:23 28.10.2022
1248 Clear 18 1006 52 10000 6.17 320 11:54 28.10.2022
1249 Clear 18 1006 51 10000 6.17 320 11:31 28.10.2022
1250 Clear 17 1006 56 10000 4.12 330 10:41 28.10.2022
1251 Clear 17 1007 50 10000 4 330 08:40 28.10.2022
1252 Clear 19 1007 37 10000 3.09 310 05:58 28.10.2022
1253 Clear 27 1006 21 10000 3.6 0 23:56 27.10.2022
1254 Clear 27 1006 21 10000 3.6 0 23:34 27.10.2022
1255 Clear 27 1007 21 10000 3.09 280 22:31 27.10.2022
1256 Clear 27 1008 20 10000 4.12 230 20:47 27.10.2022
1257 Clear 25 1009 27 10000 5.14 250 18:23 27.10.2022
1258 Clear 22 1010 45 10000 3.09 0 16:33 27.10.2022
1259 Clear 15 1009 64 10000 3.09 260 11:34 27.10.2022
1260 Clear 17 1006 61 10000 2.57 260 07:32 27.10.2022
1261 Clouds 21 1005 61 10000 4.12 250 00:23 27.10.2022
1262 Clouds 22 1004 60 10000 4.63 240 23:51 26.10.2022
1263 Clouds 22 1003 60 10000 6.17 240 22:40 26.10.2022
1264 Clouds 23 1001 66 10000 4.12 260 20:46 26.10.2022
1265 Drizzle 19 1003 86 6000 7.2 290 17:36 26.10.2022
1266 Clouds 19 1004 85 10000 6.17 20 14:54 26.10.2022
1267 Clouds 17 1005 94 7000 6.17 80 12:56 26.10.2022
1268 Rain 17 1005 94 7000 6.17 80 12:18 26.10.2022
1269 Clear 19 1006 78 10000 4.63 120 09:19 26.10.2022
1270 Clear 19 1006 76 10000 4.63 120 08:51 26.10.2022
1271 Clear 21 1008 75 10000 9.26 120 00:51 26.10.2022
1272 Clear 22 1008 71 10000 9.26 120 00:30 26.10.2022
1273 Clear 25 1009 59 10000 7.2 110 22:23 25.10.2022
1274 Clear 25 1009 56 10000 7.2 110 21:44 25.10.2022
1275 Clear 25 1010 58 10000 6.69 110 20:27 25.10.2022
1276 Clear 24 1012 61 10000 4.12 80 18:40 25.10.2022
1277 Clear 22 1015 67 10000 3.09 30 15:48 25.10.2022
1278 Clear 17 1015 86 10000 5.14 360 11:40 25.10.2022
1279 Clear 18 1015 83 10000 4.63 10 10:46 25.10.2022
1280 Clear 18 1015 82 10000 4.63 10 10:28 25.10.2022
1281 Clear 18 1015 74 10000 3.6 10 08:36 25.10.2022
1282 Clear 19 1015 77 10000 3.6 10 08:18 25.10.2022
1283 Clear 18 1016 81 10000 1.03 0 07:41 25.10.2022
1284 Clear 18 1017 90 9000 4.63 110 04:27 25.10.2022
1285 Clear 18 1017 91 10000 5.14 110 03:20 25.10.2022
1286 Clear 20 1016 78 10000 7.2 110 00:31 25.10.2022
1287 Clear 23 1015 59 10000 4.83 94 22:25 24.10.2022
1288 Clear 23 1016 59 10000 5.66 100 21:34 24.10.2022
1289 Clear 23 1016 59 10000 5.66 100 21:34 24.10.2022
1290 Clear 23 1017 60 10000 4.12 90 20:44 24.10.2022
1291 Clear 23 1017 56 10000 2.57 70 19:36 24.10.2022
1292 Clouds 22 1019 68 10000 3.09 40 17:53 24.10.2022
1293 Clear 22 1019 64 10000 2.83 72 16:54 24.10.2022
1294 Clear 19 1020 76 10000 3.97 43 14:31 24.10.2022
1295 Clouds 18 1021 82 10000 3.6 30 13:41 24.10.2022
1296 Clear 15 1020 88 10000 4.63 20 11:55 24.10.2022
1297 Clear 15 1019 90 10000 4.63 30 08:50 24.10.2022
1298 Clear 16 1020 74 10000 8.75 120 00:52 24.10.2022
1299 Clear 18 1020 63 10000 8.23 100 21:23 23.10.2022
1300 Clouds 17 1022 63 10000 7.2 110 19:53 23.10.2022
1301 Clouds 17 1023 64 10000 6.69 110 18:25 23.10.2022
1302 Clouds 17 1024 64 10000 6.17 100 17:27 23.10.2022
1303 Clouds 17 1024 63 10000 4.63 130 15:21 23.10.2022
1304 Clouds 13 1024 76 10000 2.06 170 12:59 23.10.2022
1305 Clouds 11 1023 81 10000 2.57 170 11:18 23.10.2022
1306 Clouds 10 1022 83 10000 2.06 170 08:19 23.10.2022
1307 Clouds 14 1022 69 10000 3.09 180 23:56 22.10.2022
1308 Clouds 14 1022 69 10000 3.6 160 22:31 22.10.2022
1309 Clouds 14 1021 69 10000 3.6 170 21:42 22.10.2022
1310 Clouds 14 1021 69 10000 4.12 160 20:49 22.10.2022
1311 Clouds 14 1022 70 10000 4.63 150 19:45 22.10.2022
1312 Clouds 14 1022 69 10000 4.63 150 19:24 22.10.2022
1313 Clouds 13 1021 73 10000 4.63 160 17:36 22.10.2022
1314 Clouds 12 1022 86 10000 4.63 190 15:28 22.10.2022
1315 Drizzle 11 1021 91 5000 4.63 190 14:36 22.10.2022
1316 Drizzle 11 1021 91 5000 4.63 190 13:39 22.10.2022
1317 Rain 11 1018 92 9000 3.6 170 09:51 22.10.2022
1318 Rain 11 1018 92 9000 3.6 170 09:24 22.10.2022
1319 Clouds 11 1017 92 8000 6.17 180 07:33 22.10.2022
1320 Clouds 16 1017 76 10000 8.23 130 02:44 22.10.2022
1321 Clouds 19 1013 83 10000 8.75 110 23:44 21.10.2022
1322 Clouds 21 1011 76 9000 6.17 100 21:34 21.10.2022
1323 Clouds 21 1011 79 8000 6.17 100 20:56 21.10.2022
1324 Clouds 22 1012 72 6000 2.57 140 18:55 21.10.2022
1325 Clouds 20 1012 76 6000 2.57 160 15:26 21.10.2022
1326 Clouds 18 1011 83 8000 3.6 190 13:53 21.10.2022
1327 Clouds 17 1010 92 6000 2.06 220 11:56 21.10.2022
1328 Clouds 17 1009 94 9000 1.03 0 10:28 21.10.2022
1329 Fog 17 1009 96 9000 0.51 0 09:38 21.10.2022
1330 Fog 18 1008 95 9000 0.51 0 08:26 21.10.2022
1331 Clouds 18 1009 95 9000 1.54 110 05:57 21.10.2022
1332 Rain 20 1009 89 10000 3.09 80 23:59 20.10.2022
1333 Rain 21 1008 82 10000 2.57 350 21:50 20.10.2022
1334 Clear 22 1009 79 10000 2.57 30 20:18 20.10.2022
1335 Rain 23 1008 75 10000 2.54 92 19:30 20.10.2022
1336 Clouds 23 1011 78 10000 1.73 108 17:51 20.10.2022
1337 Clouds 21 1011 82 8000 3.09 70 15:46 20.10.2022
1338 Clouds 18 1012 93 10000 1.03 0 12:33 20.10.2022
1339 Rain 18 1012 93 10000 1.54 320 11:53 20.10.2022
1340 Clouds 18 1011 93 10000 1.03 0 10:56 20.10.2022
1341 Clouds 19 1011 93 9000 1.54 50 09:35 20.10.2022
1342 Clouds 18 1012 94 9000 5.14 100 07:44 20.10.2022
1343 Clear 18 1014 86 10000 4.63 120 03:30 20.10.2022
1344 Clear 19 1013 83 10000 6.17 110 23:53 19.10.2022
1345 Clear 21 1014 70 10000 6.17 100 22:32 19.10.2022
1346 Rain 22 1014 69 10000 4.63 120 21:39 19.10.2022
1347 Clouds 21 1015 74 10000 5.66 120 20:23 19.10.2022
1348 Clouds 19 1017 79 10000 6.17 100 17:52 19.10.2022
1349 Clouds 20 1018 79 10000 6.17 100 16:49 19.10.2022
1350 Clouds 18 1019 82 10000 5.14 110 14:34 19.10.2022
1351 Clouds 17 1020 89 10000 4.63 90 12:40 19.10.2022
1352 Clouds 17 1020 85 10000 5.14 70 08:58 19.10.2022
1353 Clouds 17 1021 88 10000 3.6 100 07:24 19.10.2022
1354 Clear 18 1022 79 10000 7.2 120 02:46 19.10.2022
1355 Clear 19 1021 73 10000 9.26 110 23:47 18.10.2022
1356 Clear 20 1021 69 10000 9.77 110 22:35 18.10.2022
1357 Clear 20 1021 68 10000 9.77 120 21:31 18.10.2022
1358 Clear 21 1022 64 10000 8.23 110 20:31 18.10.2022
1359 Clouds 20 1024 65 10000 7.72 100 18:59 18.10.2022
1360 Clouds 18 1025 73 10000 8.75 100 16:57 18.10.2022
1361 Clouds 17 1026 77 10000 8.75 100 15:36 18.10.2022
1362 Clouds 16 1026 87 10000 7.72 110 13:43 18.10.2022
1363 Clouds 15 1026 90 9000 8.23 100 11:47 18.10.2022
1364 Clouds 16 1026 87 9000 8.75 100 10:36 18.10.2022
1365 Clouds 16 1026 83 10000 8.23 100 09:26 18.10.2022
1366 Clouds 16 1026 80 10000 8.75 100 06:38 18.10.2022
1367 Clouds 17 1025 75 10000 12.35 120 23:40 17.10.2022
1368 Clouds 19 1025 66 10000 11.83 120 21:31 17.10.2022
1369 Clouds 19 1025 66 10000 10.8 120 20:49 17.10.2022
1370 Clouds 20 1025 63 10000 10.8 120 20:29 17.10.2022
1371 Clouds 20 1025 61 10000 11.32 120 19:41 17.10.2022
1372 Clouds 20 1025 61 10000 11.32 120 19:41 17.10.2022
1373 Clouds 18 1027 66 10000 11.32 110 17:47 17.10.2022
1374 Clouds 18 1028 67 10000 9.26 110 15:55 17.10.2022
1375 Clouds 18 1028 68 10000 9.26 110 15:20 17.10.2022
1376 Clouds 15 1028 82 10000 4.63 130 12:48 17.10.2022
1377 Clouds 14 1026 80 10000 7.2 100 08:52 17.10.2022
1378 Clouds 15 1024 81 10000 7.72 130 01:25 17.10.2022
1379 Clear 17 1023 66 10000 8.75 110 22:54 16.10.2022
1380 Clear 18 1023 59 10000 10.29 110 21:22 16.10.2022
1381 Clouds 18 1024 66 10000 8.75 100 19:51 16.10.2022
1382 Clouds 18 1024 68 10000 8.75 100 19:27 16.10.2022
1383 Clouds 19 1025 67 10000 8.23 100 17:45 16.10.2022
1384 Clouds 17 1025 70 10000 7.2 100 16:26 16.10.2022
1385 Clouds 18 1025 70 10000 6.17 120 15:53 16.10.2022
1386 Clouds 12 1024 93 9000 1.54 180 12:25 16.10.2022
1387 Clouds 12 1024 93 10000 1.54 200 11:27 16.10.2022
1388 Clouds 12 1023 95 10000 1.54 180 10:26 16.10.2022
1389 Clouds 13 1025 92 10000 3.09 140 04:52 16.10.2022
1390 Clouds 13 1026 94 10000 5.14 130 23:43 15.10.2022
1391 Rain 13 1027 93 8000 3.6 120 21:53 15.10.2022
1392 Rain 13 1026 93 8000 3.6 120 21:18 15.10.2022
1393 Rain 13 1028 88 7000 3.6 110 19:30 15.10.2022
1394 Rain 14 1029 73 9000 4.12 80 17:23 15.10.2022
1395 Clear 14 1030 67 10000 5.66 80 15:45 15.10.2022
1396 Clouds 13 1031 72 10000 0.45 180 13:26 15.10.2022
1397 Clouds 13 1030 71 10000 4.63 70 11:43 15.10.2022
1398 Clear 13 1030 68 10000 6.69 60 09:28 15.10.2022
1399 Clear 14 1030 67 10000 7.72 70 07:33 15.10.2022
1400 Clear 13 1030 59 10000 8.23 120 00:40 15.10.2022
1401 Clear 15 1030 50 10000 8.23 110 22:41 14.10.2022
1402 Clear 15 1030 48 10000 8.23 110 22:22 14.10.2022
1403 Clear 15 1030 42 10000 8.23 100 20:46 14.10.2022
1404 Clouds 16 1032 46 10000 6.69 80 18:39 14.10.2022
1405 Clouds 14 1032 57 10000 5.66 80 15:32 14.10.2022
1406 Clouds 12 1031 62 10000 4.63 80 12:48 14.10.2022
1407 Clouds 11 1031 64 10000 5.14 80 11:25 14.10.2022
1408 Clouds 12 1029 62 10000 6.69 70 08:26 14.10.2022
1409 Clouds 12 1028 62 10000 6.69 60 06:46 14.10.2022
1410 Clouds 12 1028 61 10000 6.69 60 06:18 14.10.2022
1411 Clouds 13 1028 62 10000 6.17 60 05:42 14.10.2022
1412 Clouds 14 1026 58 10000 6.17 100 02:18 14.10.2022
1413 Clear 16 1023 52 10000 6.69 100 23:22 13.10.2022
1414 Clear 18 1022 19 10000 4.63 150 21:32 13.10.2022
1415 Clear 19 1022 43 10000 4.12 190 20:42 13.10.2022
1416 Clear 18 1022 23 10000 6.17 160 19:42 13.10.2022
1417 Clear 18 1022 23 10000 6.17 160 19:42 13.10.2022
1418 Clear 17 1022 24 10000 4.63 160 18:45 13.10.2022
1419 Clear 17 1022 25 10000 4.63 160 18:20 13.10.2022
1420 Clouds 15 1022 35 10000 5.14 160 15:49 13.10.2022
1421 Clouds 15 1022 35 10000 5.14 160 15:49 13.10.2022
1422 Clouds 14 1021 42 10000 5.66 180 14:59 13.10.2022
1423 Clouds 12 1020 56 10000 5.66 190 13:50 13.10.2022
1424 Clouds 14 1015 61 9000 6.17 190 11:46 13.10.2022
1425 Clouds 19 1013 34 9000 3.6 230 10:18 13.10.2022
1426 Clouds 20 1011 34 9000 3.09 270 08:33 13.10.2022
1427 Clouds 20 1011 34 9000 3.09 270 08:33 13.10.2022
1428 Clouds 20 1011 35 9000 3.6 290 07:36 13.10.2022
1429 Clouds 23 1009 22 9000 3.09 280 03:37 13.10.2022
1430 Clouds 23 1008 30 9000 3.6 320 01:38 13.10.2022
1431 Clouds 26 1007 49 9000 6.17 340 23:32 12.10.2022
1432 Clouds 29 1007 51 10000 2.24 45 22:44 12.10.2022
1433 Clear 28 1008 18 10000 7.2 330 21:25 12.10.2022
1434 Clear 28 1008 17 9000 7.72 330 20:55 12.10.2022
1435 Clouds 28 1008 17 9000 7.72 330 20:27 12.10.2022
1436 Clouds 27 1010 47 9000 5.66 340 19:18 12.10.2022
1437 Clear 25 1013 26 10000 6.17 310 17:54 12.10.2022
1438 Clear 22 1014 37 10000 5.66 340 16:29 12.10.2022
1439 Clear 16 1016 71 10000 6.17 320 13:58 12.10.2022
1440 Clear 14 1016 77 10000 6.17 320 13:34 12.10.2022
1441 Clear 12 1015 78 10000 4.63 330 10:39 12.10.2022
1442 Clear 13 1015 77 10000 3.6 360 08:37 12.10.2022
1443 Clear 13 1015 71 10000 3.09 20 07:41 12.10.2022
1444 Clear 14 1016 69 10000 2.57 30 06:43 12.10.2022
1445 Clear 16 1017 45 10000 3.6 80 01:34 12.10.2022
1446 Clear 18 1017 50 10000 4.12 80 22:40 11.10.2022
1447 Clear 19 1018 51 10000 4.63 70 20:55 11.10.2022
1448 Clear 18 1019 52 10000 4.63 70 19:56 11.10.2022
1449 Clouds 19 1020 47 10000 3.09 40 17:38 11.10.2022
1450 Clear 17 1021 53 10000 2.57 360 15:32 11.10.2022
1451 Clear 14 1022 69 10000 3.09 360 13:28 11.10.2022
1452 Clear 12 1021 69 10000 5.14 10 10:31 11.10.2022
1453 Clear 12 1021 69 10000 5.14 10 10:31 11.10.2022
1454 Clear 13 1022 68 10000 5.14 10 09:50 11.10.2022
1455 Clear 13 1022 66 10000 4.63 30 08:22 11.10.2022
1456 Clear 15 1022 65 10000 7.2 100 02:39 11.10.2022
1457 Clear 16 1022 60 10000 7.2 100 00:33 11.10.2022
1458 Clear 19 1022 38 10000 5.14 70 21:40 10.10.2022
1459 Clouds 19 1022 34 10000 4.12 50 20:30 10.10.2022
1460 Clouds 20 1023 34 10000 3.98 79 18:44 10.10.2022
1461 Clear 20 1024 33 10000 2.96 61 17:24 10.10.2022
1462 Clear 19 1025 28 10000 2.62 52 16:20 10.10.2022
1463 Clear 14 1025 42 10000 1.03 0 13:31 10.10.2022
1464 Clear 11 1024 50 10000 0 0 12:21 10.10.2022
1465 Clear 11 1023 60 10000 1.03 0 09:22 10.10.2022
1466 Clear 13 1023 63 10000 1.03 0 05:45 10.10.2022
1467 Clear 12 1023 63 10000 1.03 0 05:27 10.10.2022
1468 Clear 17 1020 20 10000 1.54 200 00:34 10.10.2022
1469 Clear 19 1020 43 10000 3.09 190 23:31 09.10.2022
1470 Clear 20 1019 19 10000 2.57 190 22:20 09.10.2022
1471 Clear 19 1019 20 10000 3.09 230 21:26 09.10.2022
1472 Clear 19 1019 20 10000 5.14 180 20:30 09.10.2022
1473 Clear 19 1020 19 10000 3.6 220 19:47 09.10.2022
1474 Clear 18 1020 24 10000 4.12 230 18:45 09.10.2022
1475 Clouds 16 1021 26 10000 4.63 240 17:32 09.10.2022
1476 Clear 16 1022 30 10000 3.6 250 16:37 09.10.2022
1477 Clear 15 1022 33 10000 2.57 240 15:45 09.10.2022
1478 Clear 12 1021 45 10000 3.09 270 14:34 09.10.2022
1479 Clear 10 1021 52 10000 3.09 260 13:48 09.10.2022
1480 Clear 7 1021 66 10000 1.54 0 12:46 09.10.2022
1481 Clear 6 1019 73 10000 1.03 0 10:52 09.10.2022
1482 Clear 7 1019 74 10000 2.57 280 08:31 09.10.2022
1483 Clear 9 1019 64 10000 3.6 210 04:19 09.10.2022
1484 Clear 9 1018 69 10000 4.12 210 03:19 09.10.2022
1485 Rain 10 1015 71 10000 4.12 230 00:40 09.10.2022
1486 Rain 13 1012 50 10000 3.6 0 22:59 08.10.2022
1487 Clear 14 1012 42 10000 3.6 0 22:22 08.10.2022
1488 Clear 15 1010 39 10000 5.66 240 20:31 08.10.2022
1489 Clear 16 1009 34 10000 3.09 230 19:22 08.10.2022
1490 Clear 16 1009 29 10000 4.63 230 17:39 08.10.2022
1491 Clouds 14 1007 37 10000 4.12 230 15:26 08.10.2022
1492 Clouds 17 1006 62 10000 5.14 240 13:32 08.10.2022
1493 Rain 19 1000 54 10000 5.66 320 10:48 08.10.2022
1494 Clear 19 1000 54 10000 5.66 320 10:25 08.10.2022
1495 Rain 20 1000 58 10000 4.63 330 09:19 08.10.2022
1496 Rain 21 1002 48 10000 2.57 320 05:31 08.10.2022
1497 Clear 23 1003 43 10000 3.09 330 00:59 08.10.2022
1498 Clear 25 1003 29 10000 5.14 330 23:39 07.10.2022
1499 Clear 26 1003 55 10000 5.14 330 23:20 07.10.2022
1500 Clear 28 1004 19 10000 6.17 310 21:48 07.10.2022
1501 Clear 27 1006 22 10000 4.12 300 19:51 07.10.2022
1502 Clear 24 1009 32 10000 5.14 330 17:54 07.10.2022
1503 Clear 22 1010 46 10000 4.63 340 16:42 07.10.2022
1504 Clear 19 1010 47 10000 3.6 340 15:25 07.10.2022
1505 Clear 16 1010 61 10000 1.54 240 13:55 07.10.2022
1506 Clear 12 1010 74 10000 1.54 230 11:28 07.10.2022
1507 Clear 13 1009 67 10000 3.09 210 09:25 07.10.2022
1508 Clear 14 1008 62 10000 3.09 220 08:20 07.10.2022
1509 Clouds 17 1008 63 8000 1.03 0 02:30 07.10.2022
1510 Clear 21 1007 46 10000 3.6 210 22:53 06.10.2022
1511 Clear 21 1007 47 10000 3.09 170 21:52 06.10.2022
1512 Clear 22 1007 46 10000 3.09 170 21:30 06.10.2022
1513 Clouds 20 1008 56 10000 3.09 180 20:38 06.10.2022
1514 Rain 18 1010 67 9000 3.6 200 18:56 06.10.2022
1515 Rain 18 1010 70 9000 3.6 200 18:31 06.10.2022
1516 Rain 17 1011 78 10000 2.57 170 15:36 06.10.2022
1517 Rain 15 1010 92 9000 3.09 180 12:49 06.10.2022
1518 Clouds 16 1011 90 10000 1.03 0 08:51 06.10.2022
1519 Clear 17 1013 70 10000 4.63 120 04:37 06.10.2022
1520 Clear 18 1013 78 10000 6.17 120 00:50 06.10.2022
1521 Clear 20 1012 58 10000 7.2 100 21:53 05.10.2022
1522 Clear 21 1013 53 10000 5.66 100 19:41 05.10.2022
1523 Clear 19 1015 58 10000 4.12 100 17:37 05.10.2022
1524 Clear 18 1016 64 10000 5.14 70 16:24 05.10.2022
1525 Clear 17 1016 69 10000 5.14 50 14:55 05.10.2022
1526 Clear 16 1016 70 10000 5.14 50 14:20 05.10.2022
1527 Clear 14 1016 73 10000 6.17 50 12:28 05.10.2022
1528 Clear 14 1015 81 10000 4.63 40 10:48 05.10.2022
1529 Clear 15 1015 78 10000 6.17 50 08:19 05.10.2022
1530 Clear 16 1014 73 10000 6.69 70 06:24 05.10.2022
1531 Clear 16 1015 77 10000 5.66 70 05:27 05.10.2022
1532 Clear 16 1014 88 10000 9.26 100 02:20 05.10.2022
1533 Clear 16 1014 81 10000 9.77 110 00:28 05.10.2022
1534 Clear 19 1014 58 10000 7.72 100 22:51 04.10.2022
1535 Clear 18 1015 59 10000 7.2 100 20:44 04.10.2022
1536 Clear 18 1016 55 10000 7.2 100 19:47 04.10.2022
1537 Clear 19 1017 52 10000 6.17 100 18:40 04.10.2022
1538 Clear 16 1018 55 10000 6.17 70 17:51 04.10.2022
1539 Clear 17 1019 53 10000 7.2 70 16:50 04.10.2022
1540 Clouds 13 1020 71 10000 6.69 60 13:52 04.10.2022
1541 Clouds 12 1019 70 10000 7.2 80 09:52 04.10.2022
1542 Clouds 13 1019 74 10000 7.2 70 07:34 04.10.2022
1543 Clouds 14 1020 75 8000 10.29 100 02:41 04.10.2022
1544 Clear 15 1020 63 10000 8.23 110 23:42 03.10.2022
1545 Clear 16 1020 63 10000 7.72 110 22:19 03.10.2022
1546 Clear 16 1020 63 10000 7.72 110 21:23 03.10.2022
1547 Clear 17 1021 57 10000 7.2 100 20:32 03.10.2022
1548 Clouds 17 1023 59 10000 7.2 110 18:46 03.10.2022
1549 Clouds 16 1024 67 10000 6.69 100 17:28 03.10.2022
1550 Clouds 16 1024 64 10000 7.2 110 15:49 03.10.2022
1551 Clouds 15 1024 67 10000 7.72 110 14:21 03.10.2022
1552 Clouds 12 1023 82 10000 5.66 130 12:31 03.10.2022
1553 Clear 12 1023 76 10000 4.12 130 10:40 03.10.2022
1554 Clear 12 1023 72 10000 3.6 140 09:44 03.10.2022
1555 Clear 13 1024 74 10000 4.12 140 07:32 03.10.2022
1556 Clouds 16 1024 78 10000 9.26 120 03:38 03.10.2022
1557 Clear 23 1021 54 10000 1.54 60 22:50 02.10.2022
1558 Clear 25 1020 43 10000 0.3 101 21:26 02.10.2022
1559 Clear 26 1021 34 10000 1.48 23 19:28 02.10.2022
1560 Clear 25 1022 39 10000 1.17 26 17:54 02.10.2022
1561 Clear 24 1023 41 10000 0.84 20 16:48 02.10.2022
1562 Clear 23 1024 42 10000 0.22 174 16:26 02.10.2022
1563 Clear 19 1024 64 10000 2.06 360 14:53 02.10.2022
1564 Clear 17 1024 66 10000 1.03 0 13:45 02.10.2022
1565 Clouds 13 1023 81 9000 1.54 310 12:30 02.10.2022
1566 Clear 13 1023 86 10000 1.03 290 11:41 02.10.2022
1567 Clear 13 1023 86 10000 1.03 290 11:21 02.10.2022
1568 Clear 14 1022 84 10000 2.57 340 09:45 02.10.2022
1569 Clear 15 1022 86 10000 2.06 350 08:23 02.10.2022
1570 Clear 16 1022 78 10000 3.09 120 03:52 02.10.2022
1571 Clear 18 1021 66 10000 3.6 110 00:51 02.10.2022
1572 Clear 18 1021 66 10000 3.6 110 00:32 02.10.2022
1573 Clear 21 1021 48 10000 2.06 60 22:53 01.10.2022
1574 Clear 21 1021 62 10000 3.6 70 20:55 01.10.2022
1575 Clouds 22 1021 46 10000 2.81 49 18:53 01.10.2022
1576 Clouds 19 1022 67 10000 3.09 40 17:22 01.10.2022
1577 Clouds 17 1023 76 10000 2.57 350 14:43 01.10.2022
1578 Clear 15 1022 82 10000 2.57 350 13:35 01.10.2022
1579 Clear 14 1021 93 10000 2.06 20 12:33 01.10.2022
1580 Clear 13 1021 94 10000 2.06 350 11:21 01.10.2022
1581 Clear 12 1020 94 10000 0.51 0 10:32 01.10.2022
1582 Clear 13 1021 91 10000 2.06 10 09:55 01.10.2022
1583 Clear 13 1021 91 10000 2.57 70 08:58 01.10.2022
1584 Clear 15 1022 78 10000 4.63 110 05:47 01.10.2022
1585 Clear 15 1022 74 10000 5.66 110 03:34 01.10.2022
1586 Clear 16 1022 75 10000 7.72 100 01:21 01.10.2022
1587 Clouds 18 1021 57 10000 5.66 100 22:55 30.09.2022
1588 Clouds 18 1021 56 10000 6.17 100 21:31 30.09.2022
1589 Clear 19 1021 52 10000 3.62 102 20:44 30.09.2022
1590 Clouds 18 1022 60 10000 5.66 100 20:18 30.09.2022
1591 Clouds 17 1024 63 10000 3.6 80 17:38 30.09.2022
1592 Clouds 15 1024 71 10000 5.14 80 15:58 30.09.2022
1593 Clear 15 1024 74 10000 3.09 80 13:34 30.09.2022
1594 Clear 12 1023 85 10000 1.54 80 11:58 30.09.2022
1595 Clear 12 1023 85 10000 1.54 80 11:28 30.09.2022
1596 Clear 13 1024 74 10000 5.66 30 08:37 30.09.2022
1597 Clear 13 1024 74 10000 6.69 80 06:26 30.09.2022
1598 Clear 15 1025 67 10000 8.23 110 02:39 30.09.2022
1599 Clear 17 1025 41 10000 9.26 110 22:40 29.09.2022
1600 Clear 17 1025 39 10000 7.72 110 21:28 29.09.2022
1601 Clear 17 1025 38 10000 7.72 100 20:57 29.09.2022
1602 Clear 16 1027 42 10000 5.66 100 18:45 29.09.2022
1603 Clear 15 1028 45 10000 4.12 110 17:24 29.09.2022
1604 Clear 14 1029 49 10000 4.63 80 16:28 29.09.2022
1605 Clear 14 1029 51 10000 5.14 70 15:36 29.09.2022
1606 Clear 14 1029 52 10000 5.14 70 14:31 29.09.2022
1607 Clear 11 1029 64 10000 3.6 60 10:29 29.09.2022
1608 Clear 13 1030 52 10000 7.2 80 06:58 29.09.2022
1609 Clear 14 1030 58 10000 9.77 110 02:49 29.09.2022
1610 Clear 15 1029 52 10000 8.75 110 23:55 28.09.2022
1611 Clear 16 1029 46 10000 8.75 100 22:42 28.09.2022
1612 Clear 16 1029 49 10000 8.23 110 21:29 28.09.2022
1613 Clear 16 1030 45 10000 7.2 110 20:22 28.09.2022
1614 Clear 17 1031 48 10000 7.2 100 18:31 28.09.2022
1615 Clouds 15 1031 59 10000 6.69 110 15:26 28.09.2022
1616 Clear 11 1030 68 10000 3.6 150 12:56 28.09.2022
1617 Clear 11 1028 74 10000 4.63 140 10:59 28.09.2022
1618 Clear 11 1028 71 10000 4.63 140 09:18 28.09.2022
1619 Clear 12 1028 70 10000 5.14 130 07:19 28.09.2022
1620 Clear 15 1026 51 10000 9.26 130 02:36 28.09.2022
1621 Clouds 16 1025 65 10000 11.32 130 01:33 28.09.2022
1622 Clear 21 1022 56 10000 5.66 100 23:20 27.09.2022
1623 Clouds 23 1020 57 10000 2.57 20 21:42 27.09.2022
1624 Clear 25 1020 38 10000 1.9 158 20:37 27.09.2022
1625 Clouds 25 1020 27 10000 0.96 157 19:47 27.09.2022
1626 Clouds 25 1020 30 10000 0.97 157 18:37 27.09.2022
1627 Clouds 24 1020 32 10000 0.91 145 17:44 27.09.2022
1628 Clear 22 1020 41 10000 1.54 180 15:29 27.09.2022
1629 Clear 21 1020 46 10000 2.06 200 14:45 27.09.2022
1630 Clouds 15 1019 62 8000 1.54 230 12:40 27.09.2022
1631 Clouds 14 1018 72 9000 1.03 0 10:58 27.09.2022
1632 Fog 15 1017 96 6000 1.03 270 08:46 27.09.2022
1633 Fog 15 1017 88 6000 0 0 06:31 27.09.2022
1634 Clear 18 1014 74 10000 1.03 0 01:57 27.09.2022
1635 Clear 18 1014 73 10000 1.03 0 01:27 27.09.2022
1636 Clouds 22 1013 48 10000 1.7 40 23:25 26.09.2022
1637 Clouds 23 1012 34 10000 1.7 40 22:31 26.09.2022
1638 Clear 19 1012 77 10000 3.09 30 20:40 26.09.2022
1639 Clouds 23 1012 34 10000 2.69 64 19:30 26.09.2022
1640 Clear 20 1013 60 10000 2.57 30 18:31 26.09.2022
1641 Clouds 17 1014 76 10000 3.09 10 15:55 26.09.2022
1642 Clouds 16 1014 82 10000 2.06 20 13:30 26.09.2022
1643 Clouds 14 1014 91 10000 2.06 50 11:29 26.09.2022
1644 Clouds 15 1013 90 10000 2.06 50 10:37 26.09.2022
1645 Clouds 15 1013 89 10000 2.06 50 10:19 26.09.2022
1646 Clouds 15 1013 90 10000 1.54 30 09:53 26.09.2022
1647 Clouds 15 1013 88 10000 1.54 30 09:22 26.09.2022
1648 Clouds 15 1015 87 10000 3.6 120 06:28 26.09.2022
1649 Rain 16 1015 71 10000 10.29 120 02:44 26.09.2022
1650 Clear 18 1015 48 10000 6.69 120 23:28 25.09.2022
1651 Clear 19 1015 47 10000 5.14 110 21:49 25.09.2022
1652 Clear 19 1015 47 10000 5.14 110 21:25 25.09.2022
1653 Clear 20 1016 46 10000 4.63 100 20:38 25.09.2022
1654 Clouds 20 1016 38 10000 4.32 104 19:30 25.09.2022
1655 Clear 18 1018 45 10000 3.6 70 18:34 25.09.2022
1656 Clear 18 1019 47 10000 3.09 90 17:41 25.09.2022
1657 Clear 17 1019 49 10000 2.06 60 16:21 25.09.2022
1658 Clear 16 1020 62 10000 2.57 20 14:55 25.09.2022
1659 Rain 16 1020 61 10000 2.57 20 14:19 25.09.2022
1660 Clear 14 1018 72 10000 1.03 0 11:35 25.09.2022
1661 Clear 14 1018 72 10000 2.06 20 09:48 25.09.2022
1662 Clear 15 1019 71 10000 3.6 20 07:45 25.09.2022
1663 Clear 16 1019 78 10000 5.14 70 05:27 25.09.2022
1664 Clear 18 1017 54 10000 6.17 100 23:37 24.09.2022
1665 Clear 18 1017 54 10000 6.17 100 23:37 24.09.2022
1666 Clear 20 1017 40 10000 3.09 90 21:25 24.09.2022
1667 Clear 21 1018 42 10000 3.6 70 20:32 24.09.2022
1668 Clear 21 1019 46 10000 3.09 60 19:20 24.09.2022
1669 Clear 19 1021 53 10000 3.6 360 16:56 24.09.2022
1670 Clouds 18 1022 46 10000 3 358 15:29 24.09.2022
1671 Clear 17 1021 56 10000 3.6 340 14:47 24.09.2022
1672 Clear 14 1021 67 10000 2.57 330 13:22 24.09.2022
1673 Clear 12 1020 72 10000 2.57 330 12:25 24.09.2022
1674 Clear 13 1020 79 10000 3.6 360 09:59 24.09.2022
1675 Clear 13 1020 77 10000 3.09 360 08:58 24.09.2022
1676 Clear 14 1020 77 10000 3.09 10 07:41 24.09.2022
1677 Clear 15 1020 74 10000 3.6 30 04:55 24.09.2022
1678 Clear 15 1020 72 10000 3.6 30 04:21 24.09.2022
1679 Clear 17 1019 47 10000 4.12 50 22:58 23.09.2022
1680 Clear 18 1019 52 10000 4.12 60 21:37 23.09.2022
1681 Clear 18 1019 51 10000 4.12 60 21:19 23.09.2022
1682 Clear 19 1018 43 10000 2.77 65 20:43 23.09.2022
1683 Clear 19 1020 36 10000 2.71 44 19:20 23.09.2022
1684 Clear 19 1020 36 10000 2.71 44 19:20 23.09.2022
1685 Clear 15 1021 50 10000 3.09 10 16:23 23.09.2022
1686 Clear 9 1020 77 9000 2.06 300 12:52 23.09.2022
1687 Clear 9 1018 76 9000 1.03 0 09:36 23.09.2022
1688 Clear 10 1019 75 10000 0.51 0 06:51 23.09.2022
1689 Clouds 12 1018 70 9000 1.54 170 00:44 23.09.2022
1690 Rain 14 1017 60 5000 2.57 160 23:28 22.09.2022
1691 Rain 16 1017 42 10000 2.57 0 22:27 22.09.2022
1692 Clouds 16 1017 36 9000 3.09 270 21:23 22.09.2022
1693 Clouds 16 1018 36 9000 2.57 230 19:58 22.09.2022
1694 Clouds 16 1018 37 10000 4.12 220 18:30 22.09.2022
1695 Clear 14 1019 59 10000 1.54 0 14:48 22.09.2022
1696 Clear 12 1017 80 10000 2.06 300 10:38 22.09.2022
1697 Clear 12 1017 80 10000 2.06 300 10:18 22.09.2022
1698 Rain 13 1018 71 9000 0 0 07:36 22.09.2022
1699 Rain 14 1018 60 10000 3.6 100 04:37 22.09.2022
1700 Clear 15 1017 57 10000 6.69 100 23:46 21.09.2022
1701 Clear 15 1017 56 10000 6.69 100 22:26 21.09.2022
1702 Clear 16 1017 57 10000 5.66 90 20:54 21.09.2022
1703 Clouds 16 1018 60 10000 6.17 110 17:55 21.09.2022
1704 Clouds 16 1018 59 10000 6.17 110 17:21 21.09.2022
1705 Clouds 15 1019 67 10000 2.57 140 15:18 21.09.2022
1706 Clouds 12 1018 76 10000 2.06 190 13:38 21.09.2022
1707 Clear 12 1018 81 10000 2.57 130 11:34 21.09.2022
1708 Clear 12 1018 81 10000 3.09 140 10:50 21.09.2022
1709 Clouds 12 1018 81 10000 3.09 150 09:38 21.09.2022
1710 Clouds 12 1018 79 10000 3.6 130 08:23 21.09.2022
1711 Rain 13 1018 73 10000 5.66 100 02:51 21.09.2022
1712 Rain 13 1018 73 10000 5.66 100 02:51 21.09.2022
1713 Clouds 13 1017 72 10000 5.66 100 02:32 21.09.2022
1714 Clouds 13 1017 73 10000 5.66 100 01:49 21.09.2022
1715 Clear 14 1017 66 10000 3.09 80 23:19 20.09.2022
1716 Clear 14 1017 58 10000 2.57 20 21:33 20.09.2022
1717 Clear 15 1017 57 10000 2.57 40 19:57 20.09.2022
1718 Clear 14 1019 57 10000 4.12 90 17:38 20.09.2022
1719 Clouds 10 1019 68 10000 4.12 150 14:59 20.09.2022
1720 Clouds 9 1019 75 10000 4.12 160 13:58 20.09.2022
1721 Clear 9 1018 81 10000 2.57 180 10:41 20.09.2022
1722 Clear 10 1018 80 10000 2.06 180 08:29 20.09.2022
1723 Clear 11 1017 79 10000 3.6 170 07:27 20.09.2022
1724 Clouds 14 1017 71 10000 3.09 210 04:29 20.09.2022
1725 Clouds 19 1014 53 10000 3.09 230 23:49 19.09.2022
1726 Clouds 20 1014 49 10000 3.09 190 22:28 19.09.2022
1727 Clouds 21 1014 52 10000 3.09 220 20:58 19.09.2022
1728 Clouds 20 1014 53 10000 3.09 220 20:39 19.09.2022
1729 Clouds 19 1015 63 10000 3.6 230 17:55 19.09.2022
1730 Clouds 16 1014 81 10000 3.6 220 15:53 19.09.2022
1731 Clouds 16 1013 84 9000 1.54 250 13:35 19.09.2022
1732 Clear 15 1013 90 10000 1.03 0 11:29 19.09.2022
1733 Clear 16 1012 96 10000 1.54 340 08:51 19.09.2022
1734 Clear 17 1013 96 10000 1.54 340 08:18 19.09.2022
1735 Rain 18 1012 82 10000 3.6 110 01:58 19.09.2022
1736 Rain 18 1011 79 10000 4.63 110 23:24 18.09.2022
1737 Rain 19 1011 72 10000 6.17 110 21:45 18.09.2022
1738 Clear 19 1011 74 10000 6.69 110 20:33 18.09.2022
1739 Clear 18 1013 74 10000 5.14 110 18:34 18.09.2022
1740 Clear 20 1014 67 10000 4.12 100 17:39 18.09.2022
1741 Rain 18 1015 75 10000 4.63 80 15:53 18.09.2022
1742 Clear 16 1015 81 10000 4.63 80 14:23 18.09.2022
1743 Clear 16 1015 82 10000 4.12 80 12:35 18.09.2022
1744 Rain 17 1015 80 10000 4.12 60 11:24 18.09.2022
1745 Clear 19 1016 73 10000 3.6 60 04:28 18.09.2022
1746 Clear 21 1015 69 10000 5.14 60 01:26 18.09.2022
1747 Clouds 22 1015 61 10000 0.89 45 00:24 18.09.2022
1748 Clouds 24 1014 51 10000 5.5 44 21:44 17.09.2022
1749 Clear 23 1016 57 10000 3.6 80 19:44 17.09.2022
1750 Clear 22 1017 60 10000 3.09 80 18:59 17.09.2022
1751 Clear 19 1019 69 10000 3.09 60 16:22 17.09.2022
1752 Clear 16 1020 77 10000 4.63 30 13:57 17.09.2022
1753 Clear 15 1019 82 10000 5.14 30 11:55 17.09.2022
1754 Clear 16 1019 80 10000 5.66 20 09:37 17.09.2022
1755 Clear 17 1020 75 10000 4.12 50 06:25 17.09.2022
1756 Clear 19 1019 69 10000 3.6 60 01:51 17.09.2022
1757 Clouds 22 1020 54 10000 0.45 0 22:54 16.09.2022
1758 Clouds 22 1019 46 10000 5.4 38 21:23 16.09.2022
1759 Clear 21 1021 57 10000 4.12 30 19:51 16.09.2022
1760 Clouds 19 1024 64 10000 5.22 25 16:56 16.09.2022
1761 Clouds 18 1024 72 10000 6.05 21 15:34 16.09.2022
1762 Clouds 15 1024 83 10000 7.72 360 13:57 16.09.2022
1763 Clear 14 1023 89 10000 6.17 10 11:42 16.09.2022
1764 Clear 15 1023 83 10000 6.17 20 08:26 16.09.2022
1765 Clear 15 1023 78 10000 4.12 40 07:19 16.09.2022
1766 Clear 15 1023 77 10000 4.63 20 06:47 16.09.2022
1767 Clear 16 1023 74 10000 4.12 70 02:40 16.09.2022
1768 Clear 18 1022 63 10000 4.12 90 22:52 15.09.2022
1769 Clear 19 1023 57 10000 2.57 60 21:18 15.09.2022
1770 Clouds 19 1024 57 10000 3.6 50 19:49 15.09.2022
1771 Clouds 19 1026 63 10000 3.6 50 18:29 15.09.2022
1772 Clear 19 1025 49 10000 2.87 43 17:32 15.09.2022
1773 Clear 17 1026 72 10000 3.09 360 16:42 15.09.2022
1774 Clear 14 1026 77 10000 4.12 350 14:30 15.09.2022
1775 Clear 12 1025 79 10000 2.57 10 12:20 15.09.2022
1776 Clear 13 1024 81 10000 2.06 40 09:53 15.09.2022
1777 Clear 14 1025 78 10000 3.6 50 07:50 15.09.2022
1778 Clear 15 1026 75 10000 3.6 70 03:52 15.09.2022
1779 Clear 16 1025 62 10000 3.6 80 23:44 14.09.2022
1780 Clear 17 1025 66 10000 4.12 60 21:30 14.09.2022
1781 Clear 20 1026 46 10000 1.34 45 19:34 14.09.2022
1782 Clouds 18 1026 64 10000 3.6 60 18:32 14.09.2022
1783 Clear 17 1026 65 9000 2.57 60 16:44 14.09.2022
1784 Clear 16 1026 69 9000 2.06 40 15:34 14.09.2022
1785 Clear 14 1026 89 10000 0.51 0 13:36 14.09.2022
1786 Clear 11 1024 90 10000 2.06 50 10:52 14.09.2022
1787 Clear 12 1023 91 10000 2.06 50 09:41 14.09.2022
1788 Clear 13 1023 85 10000 3.09 60 06:52 14.09.2022
1789 Clear 13 1024 84 10000 3.09 60 06:34 14.09.2022
1790 Clear 13 1024 84 10000 3.09 60 06:34 14.09.2022
1791 Clouds 14 1023 85 10000 3.6 100 03:55 14.09.2022
1792 Clouds 14 1022 82 9000 5.14 110 01:43 14.09.2022
1793 Clouds 14 1021 82 9000 5.14 110 01:20 14.09.2022
1794 Clear 15 1021 74 10000 3.6 80 23:55 13.09.2022
1795 Clear 16 1020 74 10000 3.6 80 23:37 13.09.2022
1796 Clear 16 1020 74 10000 3.6 80 23:19 13.09.2022
1797 Clear 16 1020 73 10000 4.63 80 22:44 13.09.2022
1798 Clear 16 1019 74 10000 4.63 80 21:42 13.09.2022
1799 Clouds 17 1020 75 10000 4.12 70 19:32 13.09.2022
1800 Clouds 16 1021 76 10000 4.12 70 17:33 13.09.2022
1801 Clouds 15 1021 78 9000 4.12 80 15:54 13.09.2022
1802 Clouds 12 1020 90 9000 1.03 0 13:54 13.09.2022
1803 Fog 10 1019 96 10000 1.03 0 12:28 13.09.2022
1804 Clear 11 1018 89 10000 1.03 0 08:32 13.09.2022
1805 Clear 13 1018 79 10000 3.6 80 04:24 13.09.2022
1806 Clear 15 1017 60 10000 3.09 70 23:32 12.09.2022
1807 Clear 15 1016 56 10000 3.09 70 22:46 12.09.2022
1808 Clear 17 1016 50 10000 2.57 50 21:35 12.09.2022
1809 Clear 17 1017 51 10000 3.09 40 20:24 12.09.2022
1810 Clear 17 1018 52 10000 3.09 50 18:42 12.09.2022
1811 Clear 16 1019 57 10000 2.06 50 16:20 12.09.2022
1812 Clear 13 1019 68 10000 1.03 0 13:24 12.09.2022
1813 Clear 11 1019 73 10000 1.54 60 10:56 12.09.2022
1814 Clear 12 1019 72 10000 2.06 80 09:35 12.09.2022
1815 Clear 13 1019 69 10000 5.66 90 04:45 12.09.2022
1816 Clear 14 1020 64 10000 5.14 90 03:25 12.09.2022
1817 Clear 15 1019 51 10000 5.66 110 23:18 11.09.2022
1818 Clear 16 1020 43 10000 2.06 70 21:41 11.09.2022
1819 Clear 16 1021 38 10000 2.06 70 20:45 11.09.2022
1820 Clouds 17 1020 37 10000 2.43 53 19:46 11.09.2022
1821 Clouds 17 1021 38 10000 2.72 48 19:22 11.09.2022
1822 Clouds 17 1022 36 10000 2.49 39 17:57 11.09.2022
1823 Clear 15 1023 48 10000 3.09 10 16:23 11.09.2022
1824 Clear 12 1023 56 10000 4.63 330 14:18 11.09.2022
1825 Clear 8 1022 76 8000 0 0 12:31 11.09.2022
1826 Clear 10 1023 64 10000 2.06 300 08:25 11.09.2022
1827 Clear 12 1024 69 10000 2.57 10 05:56 11.09.2022
1828 Clear 14 1022 54 10000 3.09 360 00:49 11.09.2022
1829 Clear 18 1023 29 10000 0.89 45 22:26 10.09.2022
1830 Clear 18 1023 27 10000 3.09 0 20:51 10.09.2022
1831 Clear 17 1023 29 10000 3.09 0 19:45 10.09.2022
1832 Clear 17 1023 29 10000 3.09 0 19:45 10.09.2022
1833 Clear 17 1023 29 10000 3.09 0 19:27 10.09.2022
1834 Clear 15 1024 33 10000 2.57 0 17:53 10.09.2022
1835 Clear 12 1025 48 10000 2.06 260 15:44 10.09.2022
1836 Clear 9 1024 57 10000 3.09 280 14:34 10.09.2022
1837 Clear 6 1024 74 10000 2.06 280 12:52 10.09.2022
1838 Clear 6 1023 71 10000 1.03 0 10:34 10.09.2022
1839 Clear 6 1023 70 10000 1.03 0 08:42 10.09.2022
1840 Clear 7 1023 69 10000 1.03 0 08:23 10.09.2022
1841 Clear 9 1023 54 10000 1.54 230 04:55 10.09.2022
1842 Clear 12 1020 47 10000 3.09 220 23:52 09.09.2022
1843 Clear 12 1020 48 10000 3.09 220 23:19 09.09.2022
1844 Clouds 12 1018 45 10000 4.12 220 21:21 09.09.2022
1845 Clouds 12 1018 48 10000 4.12 0 20:22 09.09.2022
1846 Clouds 12 1018 46 10000 4.12 230 19:23 09.09.2022
1847 Clouds 12 1019 50 10000 4.63 190 18:18 09.09.2022
1848 Clouds 10 1019 62 10000 4.63 170 15:45 09.09.2022
1849 Clouds 8 1017 78 10000 5.14 170 13:43 09.09.2022
1850 Drizzle 8 1015 87 9000 5.14 190 11:38 09.09.2022
1851 Clouds 9 1013 92 10000 4.12 190 07:58 09.09.2022
1852 Thunderstorm 11 1011 90 8000 6.69 170 03:39 09.09.2022
1853 Thunderstorm 15 1005 92 7000 6.69 190 00:21 09.09.2022
1854 Thunderstorm 20 1004 73 8000 4.63 120 21:52 08.09.2022
1855 Rain 22 1003 64 10000 0.89 45 20:49 08.09.2022
1856 Rain 22 1003 64 10000 0.89 45 20:49 08.09.2022
1857 Rain 21 1003 64 10000 4.63 110 20:27 08.09.2022
1858 Clear 21 1004 63 10000 5.66 100 19:25 08.09.2022
1859 Clear 20 1006 65 10000 3.09 90 17:29 08.09.2022
1860 Clear 19 1007 68 10000 2.06 30 15:53 08.09.2022
1861 Clear 17 1006 71 10000 2.57 20 13:30 08.09.2022
1862 Clear 16 1006 76 10000 3.09 350 12:41 08.09.2022
1863 Clear 15 1006 79 10000 3.09 340 11:23 08.09.2022
1864 Clear 16 1006 76 10000 3.09 360 09:35 08.09.2022
1865 Clear 16 1007 75 10000 2.57 330 07:18 08.09.2022
1866 Clear 18 1007 76 10000 0.89 23 03:37 08.09.2022
1867 Clear 19 1007 73 10000 1.54 20 02:36 08.09.2022
1868 Clear 19 1007 71 10000 1.54 20 02:18 08.09.2022
1869 Clear 23 1006 43 10000 0.89 90 22:58 07.09.2022
1870 Clear 24 1006 37 10000 4.6 20 21:45 07.09.2022
1871 Clear 24 1007 38 10000 4.79 21 21:21 07.09.2022
1872 Clear 24 1007 38 10000 4.79 21 21:21 07.09.2022
1873 Clear 22 1007 57 10000 3.09 50 20:25 07.09.2022
1874 Clouds 24 1009 43 10000 1.79 45 18:54 07.09.2022
1875 Clouds 20 1012 50 10000 4.42 8 16:18 07.09.2022
1876 Clear 14 1011 83 10000 4.63 350 10:52 07.09.2022
1877 Clear 14 1011 88 10000 4.63 350 10:32 07.09.2022
1878 Clear 15 1012 90 10000 4.63 10 08:23 07.09.2022
1879 Clear 16 1014 86 10000 4.12 20 05:33 07.09.2022
1880 Clear 17 1015 78 10000 5.14 110 00:27 07.09.2022
1881 Clear 19 1016 72 10000 4.63 100 21:48 06.09.2022
1882 Clear 19 1016 71 10000 4.63 100 21:30 06.09.2022
1883 Clear 19 1019 64 10000 3.09 80 19:27 06.09.2022
1884 Clear 20 1019 51 10000 2.64 54 18:34 06.09.2022
1885 Clear 19 1022 60 10000 2.59 26 17:23 06.09.2022
1886 Clear 19 1022 56 10000 2.59 26 16:41 06.09.2022
1887 Clear 15 1022 77 10000 3.09 360 15:26 06.09.2022
1888 Clear 14 1023 75 10000 3.6 360 13:47 06.09.2022
1889 Clear 13 1022 78 10000 3.6 360 13:26 06.09.2022
1890 Clear 13 1022 80 10000 3.6 10 12:40 06.09.2022
1891 Clear 13 1022 75 10000 2.57 10 10:52 06.09.2022
1892 Clear 13 1023 75 10000 2.06 330 08:56 06.09.2022
1893 Clear 14 1024 73 10000 2.57 360 07:52 06.09.2022
1894 Clear 14 1024 72 10000 2.57 90 04:48 06.09.2022
1895 Clear 17 1023 55 10000 1.03 0 23:52 05.09.2022
1896 Clear 19 1023 51 10000 1.54 50 22:40 05.09.2022
1897 Clear 21 1023 27 10000 2.17 50 20:58 05.09.2022
1898 Clear 22 1024 44 10000 2.38 36 19:50 05.09.2022
1899 Clear 18 1025 67 10000 3.09 30 18:49 05.09.2022
1900 Clear 18 1025 67 10000 3.09 30 18:23 05.09.2022
1901 Clear 18 1026 63 10000 2.57 360 17:31 05.09.2022
1902 Clear 17 1026 40 10000 4.12 320 15:52 05.09.2022
1903 Clear 13 1026 49 10000 2.57 320 13:39 05.09.2022
1904 Clear 10 1025 57 10000 2.57 300 12:29 05.09.2022
1905 Clear 11 1024 55 10000 2.57 300 10:30 05.09.2022
1906 Clear 13 1025 53 10000 3.09 320 07:36 05.09.2022
1907 Clear 16 1025 47 10000 3.09 310 02:49 05.09.2022
1908 Clear 19 1024 46 10000 2.06 30 23:28 04.09.2022
1909 Clear 21 1025 33 10000 0.89 90 22:28 04.09.2022
1910 Clear 21 1024 39 10000 2.15 30 21:34 04.09.2022
1911 Clear 20 1024 32 10000 3.1 10 19:38 04.09.2022
1912 Clear 19 1026 37 10000 4.12 340 18:20 04.09.2022
1913 Clear 17 1027 42 10000 4.12 320 16:56 04.09.2022
1914 Clear 13 1027 56 10000 3.09 340 14:33 04.09.2022
1915 Clear 11 1027 59 10000 3.09 300 13:49 04.09.2022
1916 Clear 9 1026 67 10000 4.12 320 11:54 04.09.2022
1917 Clear 10 1026 65 10000 4.63 320 10:47 04.09.2022
1918 Clear 11 1026 64 10000 4.12 320 08:20 04.09.2022
1919 Clear 12 1026 63 10000 2.57 330 05:19 04.09.2022
1920 Clear 15 1026 60 10000 2.57 10 00:47 04.09.2022
1921 Clear 16 1026 56 10000 3.09 30 22:22 03.09.2022
1922 Clear 17 1026 49 10000 3.09 30 21:23 03.09.2022
1923 Clear 18 1027 28 10000 2.24 25 19:39 03.09.2022
1924 Clear 16 1029 47 10000 3.6 360 17:26 03.09.2022
1925 Clear 14 1029 51 10000 3.6 360 16:27 03.09.2022
1926 Clear 13 1029 61 9000 1.54 310 14:45 03.09.2022
1927 Clear 10 1029 66 9000 2.06 310 13:58 03.09.2022
1928 Clear 8 1028 79 10000 1.03 0 12:19 03.09.2022
1929 Clear 8 1027 63 10000 1.54 130 10:27 03.09.2022
1930 Clear 8 1028 67 10000 1.03 0 08:28 03.09.2022
1931 Clear 9 1028 60 10000 2.57 130 06:58 03.09.2022
1932 Clear 11 1027 49 10000 1.54 150 04:33 03.09.2022
1933 Clear 15 1025 31 10000 2.57 0 23:55 02.09.2022
1934 Clear 16 1024 30 10000 2.57 180 22:45 02.09.2022
1935 Clear 16 1023 30 10000 3.6 210 20:59 02.09.2022
1936 Clear 16 1023 31 10000 3.6 210 20:27 02.09.2022
1937 Clear 16 1024 32 10000 4.12 175 19:00 02.09.2022
1938 Clear 16 1024 30 10000 4.12 200 18:28 02.09.2022
1939 Clear 14 1024 34 10000 3.6 200 17:43 02.09.2022
1940 Clear 13 1023 42 10000 3.6 180 16:46 02.09.2022
1941 Clouds 8 1022 83 10000 6.17 200 13:55 02.09.2022
1942 Clouds 7 1021 87 10000 5.66 190 12:24 02.09.2022
1943 Clear 9 1020 76 10000 5.14 190 09:50 02.09.2022
1944 Clouds 9 1021 75 10000 0.89 0 08:56 02.09.2022
1945 Clear 11 1019 66 10000 5.14 190 07:24 02.09.2022
1946 Clouds 11 1019 65 10000 1.34 45 06:35 02.09.2022
1947 Clouds 16 1015 92 8000 2.06 200 02:37 02.09.2022
1948 Rain 16 1011 88 9000 1.03 0 22:26 01.09.2022
1949 Clouds 16 1011 88 9000 1.54 360 21:40 01.09.2022
1950 Rain 16 1011 88 9000 1.54 360 21:21 01.09.2022
1951 Clouds 16 1011 91 9000 2.06 80 20:37 01.09.2022
1952 Rain 16 1012 92 10000 1.54 60 18:38 01.09.2022
1953 Clear 16 1012 94 10000 0.51 0 16:58 01.09.2022
1954 Rain 15 1013 94 3500 0 0 15:29 01.09.2022
1955 Clear 15 1013 94 10000 3.6 80 13:44 01.09.2022
1956 Clear 15 1011 88 10000 2.06 110 12:56 01.09.2022
1957 Clear 15 1011 88 10000 1.54 120 11:51 01.09.2022
1958 Clear 15 1011 88 10000 1.54 120 11:22 01.09.2022
1959 Clear 16 1012 87 10000 2.06 350 09:32 01.09.2022
1960 Clear 15 1013 88 10000 2.57 330 07:31 01.09.2022
1961 Clear 15 1013 87 10000 3.09 120 03:59 01.09.2022
1962 Clear 16 1013 79 10000 4.12 120 01:30 01.09.2022
1963 Clear 16 1013 79 10000 4.12 120 01:30 01.09.2022
1964 Clear 16 1013 79 10000 4.12 120 01:30 01.09.2022
1965 Clear 16 1013 79 10000 4.12 120 01:30 01.09.2022
1966 Clear 16 1013 79 10000 4.12 120 01:30 01.09.2022
1967 Clear 16 1013 79 10000 4.12 120 01:30 01.09.2022
1968 Clear 18 1013 73 10000 4.63 100 22:50 31.08.2022
1969 Clear 17 1014 77 10000 4.63 110 20:44 31.08.2022
1970 Clouds 19 1016 65 10000 2.57 51 18:46 31.08.2022
1971 Clear 16 1019 73 10000 3.6 70 16:41 31.08.2022
1972 Clear 15 1020 79 10000 3.09 70 15:22 31.08.2022
1973 Clear 13 1020 83 10000 3.09 60 13:28 31.08.2022
1974 Clear 13 1020 87 10000 3.6 50 11:54 31.08.2022
1975 Clear 14 1019 79 10000 4.12 60 09:35 31.08.2022
1976 Clear 14 1021 81 10000 3.6 60 07:39 31.08.2022
1977 Clouds 14 1022 78 9000 5.66 110 02:47 31.08.2022
1978 Clear 16 1023 62 10000 4.12 80 22:21 30.08.2022
1979 Clouds 16 1024 55 10000 2.06 40 21:27 30.08.2022
1980 Clouds 16 1024 57 10000 4.12 70 20:26 30.08.2022
1981 Clear 14 1028 64 10000 4.98 24 16:48 30.08.2022
1982 Clear 11 1029 78 10000 5.14 360 13:38 30.08.2022
1983 Clear 9 1029 80 10000 5.14 360 11:44 30.08.2022
1984 Clear 10 1029 79 10000 5.14 360 11:19 30.08.2022
1985 Clear 10 1029 75 10000 5.66 360 08:51 30.08.2022
1986 Clear 12 1031 65 10000 4.63 10 03:57 30.08.2022
1987 Clear 13 1031 60 10000 4.12 360 00:30 30.08.2022
1988 Clear 14 1030 55 10000 4.12 30 22:36 29.08.2022
1989 Clear 14 1031 52 10000 4.12 20 21:48 29.08.2022
1990 Clear 14 1032 53 10000 3.6 50 20:34 29.08.2022
1991 Clear 14 1034 48 10000 3.09 10 18:55 29.08.2022
1992 Clear 13 1035 49 10000 4.12 350 17:26 29.08.2022
1993 Clear 12 1035 52 10000 4.12 340 16:56 29.08.2022
1994 Clear 10 1035 54 10000 3.6 310 15:18 29.08.2022
1995 Clear 10 1035 54 10000 3.6 310 15:18 29.08.2022
1996 Clear 7 1035 67 10000 3.09 310 13:40 29.08.2022
1997 Clear 5 1034 72 10000 2.57 300 11:44 29.08.2022
1998 Clear 6 1034 68 10000 2.06 290 10:42 29.08.2022
1999 Clear 7 1035 66 10000 3.09 300 08:40 29.08.2022
2000 Clear 8 1035 63 10000 1.03 270 06:25 29.08.2022
2001 Clear 10 1035 47 10000 1.54 190 01:53 29.08.2022
2002 Clear 12 1034 39 10000 2.06 200 22:55 28.08.2022
2003 Clear 12 1034 38 10000 2.06 0 21:45 28.08.2022
2004 Clear 13 1034 39 10000 3.09 180 20:58 28.08.2022
2005 Clear 12 1034 40 10000 3.6 200 19:44 28.08.2022
2006 Clear 11 1035 42 10000 4.63 200 18:21 28.08.2022
2007 Clouds 10 1035 42 10000 4.12 0 17:25 28.08.2022
2008 Clouds 9 1035 45 10000 4.12 190 16:28 28.08.2022
2009 Clear 7 1035 50 10000 2.57 190 14:42 28.08.2022
2010 Clear 4 1032 62 10000 2.57 190 12:48 28.08.2022
2011 Clear 5 1031 59 10000 2.57 190 10:43 28.08.2022
2012 Clear 5 1031 59 10000 2.57 190 10:43 28.08.2022
2013 Clear 5 1030 60 10000 4.12 180 09:54 28.08.2022
2014 Clear 6 1030 55 10000 3.6 190 08:37 28.08.2022
2015 Clear 6 1030 52 10000 3.6 180 07:43 28.08.2022
2016 Clear 10 1025 37 10000 4.12 180 02:48 28.08.2022
2017 Clear 13 1021 41 10000 4.63 190 00:27 28.08.2022
2018 Clear 15 1019 41 10000 5.14 190 22:36 27.08.2022
2019 Clear 16 1016 47 10000 4.63 190 21:31 27.08.2022
2020 Clear 17 1014 48 10000 4.63 190 19:49 27.08.2022
2021 Clear 17 1015 46 10000 4.12 230 17:43 27.08.2022
2022 Clear 16 1012 61 10000 4.12 210 15:53 27.08.2022
2023 Clear 16 1012 71 10000 4.12 210 15:24 27.08.2022
2024 Thunderstorm 18 1007 95 4500 5.66 180 12:28 27.08.2022
2025 Thunderstorm 17 1008 99 2800 3.09 0 11:31 27.08.2022
2026 Rain 18 1007 95 8000 3.6 310 09:48 27.08.2022
2027 Thunderstorm 19 1006 89 10000 2.57 280 07:54 27.08.2022
2028 Clear 18 1008 86 10000 1.54 90 02:52 27.08.2022
2029 Clouds 19 1009 81 8000 5.66 110 23:57 26.08.2022
2030 Mist 20 1010 79 4000 5.14 110 22:37 26.08.2022
2031 Clouds 22 1010 72 8548 3.48 89 20:42 26.08.2022
2032 Mist 21 1013 72 2500 3.09 90 19:23 26.08.2022
2033 Fog 16 1016 94 200 2.57 50 16:50 26.08.2022
2034 Mist 17 1017 81 2000 4.12 100 15:31 26.08.2022
2035 Mist 16 1017 89 800 3.09 110 14:29 26.08.2022
2036 Fog 14 1016 98 100 0.51 0 12:47 26.08.2022
2037 Fog 15 1016 98 200 0.51 0 11:27 26.08.2022
2038 Mist 15 1016 96 1500 1.03 0 10:25 26.08.2022
2039 Fog 16 1017 94 6000 1.03 0 07:28 26.08.2022
2040 Clear 18 1017 88 10000 0.51 0 01:28 26.08.2022
2041 Clear 20 1016 80 10000 1.54 90 23:30 25.08.2022
2042 Clouds 23 1015 69 10000 2.84 94 21:26 25.08.2022
2043 Clouds 24 1016 62 8425 2.58 90 20:21 25.08.2022
2044 Clouds 20 1017 82 10000 2.06 50 18:48 25.08.2022
2045 Clear 20 1017 77 10000 1.54 40 17:32 25.08.2022
2046 Clouds 22 1018 69 7690 1.91 40 16:49 25.08.2022
2047 Clear 19 1017 79 10000 1.54 70 15:37 25.08.2022
2048 Clear 16 1017 85 10000 1.03 0 14:30 25.08.2022
2049 Rain 15 1017 93 8000 1.03 0 11:34 25.08.2022
2050 Clouds 14 1016 91 9000 1.03 0 10:46 25.08.2022
2051 Clear 15 1017 86 10000 1.03 0 08:41 25.08.2022
2052 Clear 16 1017 79 10000 3.09 110 04:40 25.08.2022
2053 Clear 18 1016 76 10000 4.12 100 23:56 24.08.2022
2054 Clear 19 1016 70 10000 4.12 100 23:25 24.08.2022
2055 Clouds 21 1016 63 10000 2.57 90 21:59 24.08.2022
2056 Clouds 21 1016 65 10000 2.57 90 21:31 24.08.2022
2057 Clouds 23 1017 54 10000 1.32 100 20:18 24.08.2022
2058 Clear 18 1019 77 10000 2.06 50 17:32 24.08.2022
2059 Clear 17 1020 73 10000 1.03 0 15:55 24.08.2022
2060 Clear 18 1020 70 10000 1.03 0 15:35 24.08.2022
2061 Clear 12 1019 91 10000 1.03 0 12:52 24.08.2022
2062 Clear 12 1019 91 10000 1.03 0 12:52 24.08.2022
2063 Clear 11 1018 91 10000 1.03 280 11:21 24.08.2022
2064 Fog 12 1018 89 10000 0.51 0 08:59 24.08.2022
2065 Clear 13 1018 86 10000 1.03 0 06:40 24.08.2022
2066 Clear 14 1018 83 9000 3.09 90 01:20 24.08.2022
2067 Clear 17 1017 65 10000 3.09 90 22:49 23.08.2022
2068 Clear 18 1017 65 10000 3.09 90 22:18 23.08.2022
2069 Clear 18 1018 64 10000 2.15 75 20:49 23.08.2022
2070 Clear 18 1019 63 10000 1.35 19 19:24 23.08.2022
2071 Clouds 17 1021 64 10000 2.06 30 18:18 23.08.2022
2072 Clear 17 1021 65 10000 2.96 5 17:30 23.08.2022
2073 Clear 15 1022 71 10000 3.37 14 16:26 23.08.2022
2074 Clear 12 1022 81 10000 4.12 360 14:30 23.08.2022
2075 Clear 10 1022 88 10000 3.6 350 12:46 23.08.2022
2076 Clear 11 1021 84 10000 4.12 10 10:58 23.08.2022
2077 Clear 11 1021 84 10000 4.12 10 10:33 23.08.2022
2078 Clear 11 1022 86 10000 4.63 10 09:32 23.08.2022
2079 Clear 11 1022 85 10000 4.63 30 08:46 23.08.2022
2080 Clear 11 1022 84 10000 4.63 30 08:19 23.08.2022
2081 Clear 11 1022 84 10000 4.63 50 07:31 23.08.2022
2082 Clear 12 1023 81 10000 6.17 50 06:22 23.08.2022
2083 Clouds 11 1023 91 9000 8.23 100 01:45 23.08.2022
2084 Clear 11 1023 88 10000 6.69 110 00:27 23.08.2022
2085 Clear 13 1023 78 10000 4.63 120 23:32 22.08.2022
2086 Clouds 13 1023 74 9000 5.66 120 22:24 22.08.2022
2087 Clouds 13 1024 75 8000 4.12 110 20:29 22.08.2022
2088 Clouds 12 1025 77 9000 4.12 110 19:41 22.08.2022
2089 Clouds 12 1026 77 10000 5.14 100 18:37 22.08.2022
2090 Clouds 11 1028 79 10000 5.14 100 15:46 22.08.2022
2091 Clouds 11 1028 79 10000 5.14 100 15:18 22.08.2022
2092 Clouds 9 1027 86 10000 4.12 90 11:39 22.08.2022
2093 Clouds 10 1027 86 8000 5.14 90 09:24 22.08.2022
2094 Clouds 11 1028 83 9000 4.12 130 05:44 22.08.2022
2095 Clouds 13 1028 65 9000 0.51 0 00:56 22.08.2022
2096 Clouds 13 1028 64 9000 0.51 0 00:36 22.08.2022
2097 Clouds 15 1027 57 8000 1.54 30 22:57 21.08.2022
2098 Clouds 17 1027 45 10000 0.78 73 21:50 21.08.2022
2099 Clouds 18 1027 38 10000 0.62 83 21:18 21.08.2022
2100 Clouds 18 1027 39 10000 0.84 344 19:40 21.08.2022
2101 Clouds 17 1028 34 10000 1.25 342 18:35 21.08.2022
2102 Clouds 14 1029 53 9000 2.57 360 16:34 21.08.2022
2103 Clouds 13 1029 50 9000 2.57 350 15:51 21.08.2022
2104 Clouds 11 1029 56 9000 1.03 310 14:41 21.08.2022
2105 Clouds 9 1029 66 9000 1.54 310 13:44 21.08.2022
2106 Clouds 8 1028 70 9000 1.03 0 12:53 21.08.2022
2107 Clouds 9 1027 64 8000 1.03 310 09:57 21.08.2022
2108 Clouds 9 1028 66 8000 1.03 0 08:56 21.08.2022
2109 Clouds 9 1027 66 8000 1.03 0 08:38 21.08.2022
2110 Clouds 9 1028 64 9000 1.03 0 07:50 21.08.2022
2111 Clear 11 1028 55 10000 2.57 310 04:28 21.08.2022
2112 Clear 14 1026 55 10000 4.12 360 00:53 21.08.2022
2113 Clear 16 1026 43 9000 3.6 30 22:59 20.08.2022
2114 Clear 16 1026 44 9000 2.57 40 21:45 20.08.2022
2115 Clear 16 1027 47 9000 2.57 40 20:48 20.08.2022
2116 Clear 17 1027 35 10000 3.09 360 19:42 20.08.2022
2117 Clear 16 1028 35 10000 4.63 340 18:43 20.08.2022
2118 Clear 15 1028 36 10000 4.63 340 18:25 20.08.2022
2119 Clear 15 1029 35 10000 4.63 340 17:19 20.08.2022
2120 Clear 11 1030 45 10000 3.6 350 15:51 20.08.2022
2121 Clear 8 1030 50 10000 3.6 320 13:39 20.08.2022
2122 Clear 8 1028 49 10000 3.6 320 11:53 20.08.2022
2123 Clear 8 1028 46 10000 4.12 330 10:36 20.08.2022
2124 Clear 9 1028 43 10000 5.14 320 08:53 20.08.2022
2125 Clear 11 1028 43 10000 4.63 320 05:58 20.08.2022
2126 Clear 12 1028 36 10000 5.14 320 03:28 20.08.2022
2127 Smoke 13 1028 36 3500 4.63 320 00:51 20.08.2022
2128 Smoke 15 1027 36 4000 4.63 340 23:19 19.08.2022
2129 Clear 17 1027 21 10000 4.63 300 22:35 19.08.2022
2130 Clear 17 1027 25 10000 6.69 310 20:29 19.08.2022
2131 Clear 15 1029 28 10000 5.66 310 18:46 19.08.2022
2132 Clear 10 1030 35 9000 4.63 290 15:51 19.08.2022
2133 Clear 6 1030 46 10000 3.6 300 13:36 19.08.2022
2134 Clear 5 1028 49 10000 3.09 290 11:33 19.08.2022
2135 Clear 6 1028 51 9000 1.54 280 10:26 19.08.2022
2136 Clear 7 1029 51 10000 1.54 270 06:58 19.08.2022
2137 Clouds 9 1027 49 10000 5.04 238 00:58 19.08.2022
2138 Clear 10 1026 47 10000 3.09 250 00:30 19.08.2022
2139 Clouds 10 1026 47 10000 5.97 233 23:44 18.08.2022
2140 Clear 11 1024 44 10000 3.6 220 22:50 18.08.2022
2141 Clouds 12 1024 47 10000 6.72 229 21:57 18.08.2022
2142 Clear 12 1024 43 10000 4.12 210 21:34 18.08.2022
2143 Clouds 11 1023 43 10000 4.12 210 19:56 18.08.2022
2144 Clouds 11 1023 43 10000 4.12 210 19:28 18.08.2022
2145 Clouds 10 1023 50 10000 4.12 220 17:50 18.08.2022
2146 Clouds 9 1023 57 10000 3.6 0 16:58 18.08.2022
2147 Clear 6 1022 66 10000 3.09 210 14:45 18.08.2022
2148 Clear 5 1021 68 10000 3.09 210 14:19 18.08.2022
2149 Clear 4 1019 67 10000 1.54 230 12:55 18.08.2022
2150 Clear 4 1018 67 10000 2.06 230 11:34 18.08.2022
2151 Clear 5 1016 62 10000 2.57 230 09:43 18.08.2022
2152 Clear 6 1017 59 10000 2.57 0 08:39 18.08.2022
2153 Clear 7 1016 54 10000 3.6 230 07:19 18.08.2022
2154 Clear 9 1014 48 10000 2.06 0 03:53 18.08.2022
2155 Clear 12 1011 45 10000 3.6 230 23:30 17.08.2022
2156 Clear 14 1010 44 10000 4.12 210 21:39 17.08.2022
2157 Clear 12 1009 59 10000 3.09 0 19:59 17.08.2022
2158 Clear 12 1009 64 10000 3.09 0 19:28 17.08.2022
2159 Rain 10 1010 83 9000 3.6 200 17:32 17.08.2022
2160 Rain 9 1010 85 9000 4.12 190 16:22 17.08.2022
2161 Rain 11 1010 78 9000 4.63 200 15:18 17.08.2022
2162 Clear 12 1007 73 10000 1.03 0 12:52 17.08.2022
2163 Rain 12 1006 75 10000 1.03 0 11:36 17.08.2022
2164 Clear 12 1006 72 10000 1.54 30 09:31 17.08.2022
2165 Clear 13 1006 68 10000 1.54 50 07:36 17.08.2022
2166 Clouds 15 1007 52 10000 2.57 320 02:21 17.08.2022
2167 Smoke 17 1007 28 1500 2.57 330 23:49 16.08.2022
2168 Clear 18 1007 42 10000 4.12 300 21:59 16.08.2022
2169 Clouds 19 1007 24 9000 5.14 300 20:51 16.08.2022
2170 Clouds 18 1008 22 9000 6.69 300 19:50 16.08.2022
2171 Clear 18 1008 24 10000 5.14 310 18:23 16.08.2022
2172 Clear 16 1009 25 10000 5.66 300 17:40 16.08.2022
2173 Clouds 13 1010 30 8000 4.12 290 15:46 16.08.2022
2174 Clouds 11 1010 34 9000 5.14 290 14:55 16.08.2022
2175 Clouds 11 1010 35 9000 5.14 290 14:37 16.08.2022
2176 Clear 9 1009 44 10000 3.6 310 12:41 16.08.2022
2177 Clear 9 1008 42 10000 3.09 300 10:35 16.08.2022
2178 Clear 9 1009 41 10000 4.63 300 09:31 16.08.2022
2179 Clear 10 1010 40 10000 3.6 300 08:26 16.08.2022
2180 Clear 10 1010 39 10000 2.57 290 07:23 16.08.2022
2181 Clear 12 1009 36 10000 2.06 250 01:23 16.08.2022
2182 Clear 14 1008 38 10000 4.12 220 22:29 15.08.2022
2183 Clear 15 1008 34 10000 4.12 0 21:51 15.08.2022
2184 Clouds 15 1007 42 10000 4.12 230 20:39 15.08.2022
2185 Clouds 16 1008 45 10000 0.89 135 20:00 15.08.2022
2186 Clouds 14 1007 74 10000 4.12 220 18:20 15.08.2022
2187 Clouds 14 1007 78 10000 3.09 230 16:26 15.08.2022
2188 Clouds 14 1007 83 10000 2.06 210 15:55 15.08.2022
2189 Clouds 13 1005 87 10000 3.6 120 13:54 15.08.2022
2190 Clouds 14 1003 84 10000 4.63 110 12:24 15.08.2022
2191 Rain 18 1002 76 10000 3.09 280 09:54 15.08.2022
2192 Clouds 19 1001 81 10000 5.14 330 07:50 15.08.2022
2193 Clear 19 1002 84 10000 2.06 340 04:35 15.08.2022
2194 Clear 20 1004 73 10000 1.54 20 00:54 15.08.2022
2195 Clear 21 1004 70 10000 4.63 70 22:38 14.08.2022
2196 Clear 20 1006 73 10000 5.14 90 21:37 14.08.2022
2197 Clear 20 1009 69 10000 4.12 100 19:48 14.08.2022
2198 Clear 19 1010 71 10000 4.63 110 18:57 14.08.2022
2199 Clear 19 1010 72 10000 4.63 110 18:18 14.08.2022
2200 Clear 17 1012 76 10000 3.09 90 16:52 14.08.2022
2201 Clear 17 1013 79 10000 2.57 70 15:48 14.08.2022
2202 Clear 16 1013 85 10000 2.06 50 14:24 14.08.2022
2203 Clear 15 1013 89 10000 2.06 30 13:49 14.08.2022
2204 Clear 14 1013 90 10000 2.06 30 13:19 14.08.2022
2205 Clear 15 1013 90 10000 3.09 20 11:56 14.08.2022
2206 Clear 15 1014 89 10000 3.09 30 10:40 14.08.2022
2207 Clear 15 1015 89 10000 2.06 20 08:50 14.08.2022
2208 Clear 15 1016 85 10000 1.54 40 06:21 14.08.2022
2209 Clear 16 1016 82 10000 5.14 80 02:47 14.08.2022
2210 Clear 17 1016 75 10000 5.14 110 23:49 13.08.2022
2211 Clear 18 1016 70 10000 4.63 100 22:52 13.08.2022
2212 Clear 19 1017 66 10000 2.06 20 20:58 13.08.2022
2213 Clear 20 1017 67 10000 2.06 20 20:28 13.08.2022
2214 Clear 20 1017 66 10000 1.54 40 19:24 13.08.2022
2215 Clear 20 1019 67 10000 1.54 53 17:36 13.08.2022
2216 Clear 16 1018 80 10000 1.54 20 15:23 13.08.2022
2217 Clear 15 1019 86 9000 0 0 14:24 13.08.2022
2218 Fog 13 1018 92 9000 0.51 0 13:38 13.08.2022
2219 Fog 12 1017 94 10000 0.51 0 11:51 13.08.2022
2220 Clear 13 1016 91 10000 0.45 315 09:50 13.08.2022
2221 Clear 14 1017 83 10000 2.06 80 07:51 13.08.2022
2222 Clear 15 1015 73 10000 3.6 90 02:56 13.08.2022
2223 Clear 16 1015 69 10000 3.09 110 23:46 12.08.2022
2224 Clouds 17 1014 63 10000 3.09 80 21:40 12.08.2022
2225 Clouds 17 1016 63 10000 2.57 30 19:51 12.08.2022
2226 Clouds 17 1016 63 10000 2.57 30 19:26 12.08.2022
2227 Clouds 18 1017 61 10000 0.89 90 18:37 12.08.2022
2228 Clouds 15 1018 70 10000 3.6 360 16:28 12.08.2022
2229 Clear 14 1018 68 10000 3.09 340 15:31 12.08.2022
2230 Clear 13 1018 76 10000 2.57 340 14:27 12.08.2022
2231 Clear 11 1018 87 10000 3.09 350 12:51 12.08.2022
2232 Clear 11 1019 79 10000 3.6 330 09:28 12.08.2022
2233 Clear 12 1020 79 10000 4.63 360 07:47 12.08.2022
2234 Clear 13 1020 76 10000 4.63 360 06:28 12.08.2022
2235 Clear 14 1020 67 10000 3.6 360 01:45 12.08.2022
2236 Clear 15 1020 67 10000 2.57 10 00:20 12.08.2022
2237 Clear 16 1019 64 10000 3.6 10 23:29 11.08.2022
2238 Clear 17 1020 55 10000 4.12 0 21:57 11.08.2022
2239 Clear 17 1020 56 10000 4.12 0 21:34 11.08.2022
2240 Clear 17 1020 58 10000 3.6 20 20:31 11.08.2022
2241 Clear 16 1021 54 10000 4.12 10 19:41 11.08.2022
2242 Clear 16 1021 54 10000 4.12 10 19:21 11.08.2022
2243 Clear 14 1024 66 10000 4.12 20 17:23 11.08.2022
2244 Clear 13 1024 69 10000 4.63 340 15:51 11.08.2022
2245 Clear 12 1024 71 10000 4.63 340 15:20 11.08.2022
2246 Clear 9 1024 81 10000 4.63 360 12:35 11.08.2022
2247 Clear 10 1023 80 10000 4.63 350 09:24 11.08.2022
2248 Clear 11 1024 76 10000 5.14 10 06:58 11.08.2022
2249 Clear 12 1024 70 10000 4.63 20 03:23 11.08.2022
2250 Clear 11 1024 74 10000 4.63 80 00:19 11.08.2022
2251 Clear 13 1025 62 10000 2.57 70 21:56 10.08.2022
2252 Clear 13 1025 60 10000 2.57 70 21:19 10.08.2022
2253 Clear 13 1026 59 10000 2.57 50 20:36 10.08.2022
2254 Clear 13 1028 59 10000 3.09 20 18:53 10.08.2022
2255 Clear 13 1029 62 10000 3.6 360 17:28 10.08.2022
2256 Clouds 11 1030 73 10000 3.6 20 14:57 10.08.2022
2257 Clouds 9 1029 79 10000 3.6 30 13:34 10.08.2022
2258 Clear 9 1029 78 10000 4.12 50 10:51 10.08.2022
2259 Clear 10 1030 71 10000 5.14 70 08:42 10.08.2022
2260 Clear 10 1030 71 10000 5.14 70 07:35 10.08.2022
2261 Clear 10 1031 74 10000 4.63 100 04:50 10.08.2022
2262 Clear 11 1032 71 10000 4.63 100 01:52 10.08.2022
2263 Clouds 12 1031 73 10000 5.14 100 23:32 09.08.2022
2264 Clouds 12 1031 69 10000 5.14 110 22:45 09.08.2022
2265 Clouds 13 1031 69 10000 4.12 100 21:24 09.08.2022
2266 Clouds 13 1031 69 10000 4.12 110 19:28 09.08.2022
2267 Clouds 12 1033 77 10000 4.63 110 17:39 09.08.2022
2268 Clouds 12 1033 78 10000 4.63 110 17:21 09.08.2022
2269 Clouds 11 1033 83 10000 3.09 120 16:23 09.08.2022
2270 Clouds 10 1033 87 10000 1.54 170 15:23 09.08.2022
2271 Clouds 11 1031 80 10000 4.63 90 11:30 09.08.2022
2272 Clouds 10 1030 88 9000 5.14 130 08:53 09.08.2022
2273 Clouds 10 1030 85 10000 5.14 140 07:58 09.08.2022
2274 Rain 10 1030 82 8000 3.6 150 05:24 09.08.2022
2275 Clear 12 1028 67 10000 5.66 130 00:36 09.08.2022
2276 Rain 12 1027 67 10000 6.17 120 23:24 08.08.2022
2277 Rain 12 1027 65 10000 6.69 120 22:40 08.08.2022
2278 Clouds 13 1027 68 10000 6.69 110 21:44 08.08.2022
2279 Rain 13 1027 66 10000 8.23 110 20:34 08.08.2022
2280 Clouds 13 1027 63 10000 7.72 110 19:34 08.08.2022
2281 Clouds 12 1028 69 10000 7.72 120 17:56 08.08.2022
2282 Clouds 10 1028 78 10000 7.72 130 15:47 08.08.2022
2283 Clouds 9 1028 83 10000 4.63 130 14:46 08.08.2022
2284 Clouds 7 1027 88 10000 1.54 180 12:30 08.08.2022
2285 Clouds 7 1026 85 10000 1.03 0 10:26 08.08.2022
2286 Clouds 9 1026 79 10000 7.2 100 07:51 08.08.2022
2287 Clouds 8 1026 78 10000 6.17 140 03:42 08.08.2022
2288 Clouds 10 1024 75 10000 9.26 120 23:28 07.08.2022
2289 Clouds 12 1023 71 10000 9.26 110 21:41 07.08.2022
2290 Clouds 13 1023 68 10000 9.77 110 20:55 07.08.2022
2291 Clouds 13 1023 67 10000 9.77 110 20:18 07.08.2022
2292 Clouds 13 1023 66 10000 9.26 110 19:51 07.08.2022
2293 Clouds 13 1024 66 10000 9.77 120 18:41 07.08.2022
2294 Clouds 13 1025 67 10000 8.75 110 17:21 07.08.2022
2295 Clouds 13 1025 71 10000 8.23 110 16:41 07.08.2022
2296 Rain 12 1024 76 10000 7.2 110 15:25 07.08.2022
2297 Clouds 10 1024 84 10000 8.23 100 13:44 07.08.2022
2298 Clouds 10 1023 88 9000 4.12 120 12:19 07.08.2022
2299 Clouds 10 1022 82 10000 6.17 110 10:37 07.08.2022
2300 Clouds 11 1023 80 10000 5.66 80 08:26 07.08.2022
2301 Rain 11 1023 82 10000 5.66 120 04:26 07.08.2022
2302 Clear 11 1022 75 10000 7.2 130 01:50 07.08.2022
2303 Clear 13 1021 57 10000 6.69 100 22:28 06.08.2022
2304 Clear 14 1020 56 10000 7.2 100 21:28 06.08.2022
2305 Clear 14 1020 51 10000 6.69 110 19:42 06.08.2022
2306 Clear 15 1020 47 10000 6.17 110 18:33 06.08.2022
2307 Clouds 15 1022 47 10000 2.93 100 17:39 06.08.2022
2308 Clear 13 1021 62 10000 2.06 70 15:21 06.08.2022
2309 Clear 9 1021 75 10000 0.51 0 13:50 06.08.2022
2310 Clear 9 1021 69 10000 2.06 320 12:19 06.08.2022
2311 Clear 9 1021 79 10000 1.03 0 10:33 06.08.2022
2312 Clear 10 1021 78 10000 2.57 310 09:21 06.08.2022
2313 Clear 11 1021 71 10000 1.54 50 03:54 06.08.2022
2314 Clear 13 1019 62 10000 1.54 50 23:54 05.08.2022
2315 Clear 15 1019 48 8000 1.54 50 22:33 05.08.2022
2316 Clear 16 1019 37 9000 2.06 230 19:59 05.08.2022
2317 Clear 15 1020 39 10000 2.06 220 18:46 05.08.2022
2318 Clear 15 1020 40 10000 2.06 220 18:25 05.08.2022
2319 Clear 12 1020 56 10000 1.54 200 16:49 05.08.2022
2320 Clear 9 1020 71 10000 1.54 0 15:22 05.08.2022
2321 Clear 8 1020 78 10000 1.54 180 14:31 05.08.2022
2322 Clear 6 1019 83 10000 1.54 210 13:24 05.08.2022
2323 Clear 6 1019 82 8000 2.06 230 12:30 05.08.2022
2324 Clear 7 1018 79 8000 1.54 280 10:53 05.08.2022
2325 Mist 7 1018 85 5000 1.03 330 08:30 05.08.2022
2326 Clear 7 1018 83 6000 2.06 310 07:22 05.08.2022
2327 Clear 9 1017 69 10000 0.51 0 01:28 05.08.2022
2328 Clear 11 1016 61 10000 2.06 210 22:32 04.08.2022
2329 Clear 11 1015 58 10000 2.57 190 21:27 04.08.2022
2330 Clouds 11 1015 63 10000 3.09 200 20:44 04.08.2022
2331 Clouds 11 1015 70 10000 3.6 170 19:48 04.08.2022
2332 Clouds 10 1016 73 10000 4.12 180 18:51 04.08.2022
2333 Clouds 9 1016 81 10000 4.12 210 18:32 04.08.2022
2334 Clouds 8 1017 90 9000 3.6 190 14:39 04.08.2022
2335 Clouds 8 1017 92 9000 2.06 170 13:22 04.08.2022
2336 Clouds 9 1014 87 10000 6.17 150 11:33 04.08.2022
2337 Clouds 11 1015 85 10000 4.12 150 07:55 04.08.2022
2338 Clouds 11 1015 84 10000 6.17 140 06:42 04.08.2022
2339 Clouds 13 1016 86 10000 2.57 160 02:35 04.08.2022
2340 Clouds 14 1014 78 10000 3.6 160 23:46 03.08.2022
2341 Clouds 14 1014 74 10000 5.14 140 22:59 03.08.2022
2342 Clouds 15 1014 76 10000 3.09 160 20:57 03.08.2022
2343 Clouds 14 1015 89 10000 2.57 160 19:54 03.08.2022
2344 Clouds 13 1016 88 10000 2.57 180 18:37 03.08.2022
2345 Clouds 12 1017 93 7000 3.6 190 16:26 03.08.2022
2346 Mist 11 1017 96 3500 3.6 190 15:45 03.08.2022
2347 Mist 10 1016 96 1800 1.03 0 12:44 03.08.2022
2348 Mist 10 1015 97 1700 2.06 160 09:46 03.08.2022
2349 Clear 12 1016 91 8000 2.06 140 04:51 03.08.2022
2350 Clear 13 1016 91 9000 4.12 130 03:52 03.08.2022
2351 Clouds 13 1017 89 9000 5.14 130 01:45 03.08.2022
2352 Clear 15 1015 80 10000 4.63 120 23:41 02.08.2022
2353 Clouds 15 1016 80 10000 5.66 100 21:59 02.08.2022
2354 Clouds 15 1015 80 10000 5.66 100 21:40 02.08.2022
2355 Clouds 15 1017 74 10000 4.63 100 19:38 02.08.2022
2356 Clouds 14 1019 79 10000 4.63 80 16:42 02.08.2022
2357 Clouds 12 1019 91 6000 4.63 60 13:21 02.08.2022
2358 Clear 12 1017 88 10000 5.66 100 09:53 02.08.2022
2359 Clear 12 1018 88 10000 5.14 100 08:27 02.08.2022
2360 Clear 12 1018 83 10000 4.63 90 07:50 02.08.2022
2361 Clear 12 1019 82 10000 2.57 60 04:56 02.08.2022
2362 Clear 12 1018 86 10000 2.57 130 01:58 02.08.2022
2363 Clear 14 1017 78 10000 5.14 110 23:21 01.08.2022
2364 Clear 16 1017 64 10000 4.12 100 21:19 01.08.2022
2365 Clear 16 1018 66 10000 2.06 50 19:44 01.08.2022
2366 Clear 16 1018 71 10000 2.57 50 18:53 01.08.2022
2367 Clouds 15 1019 77 10000 2.06 60 16:54 01.08.2022
2368 Clouds 15 1019 81 10000 2.06 60 16:29 01.08.2022
2369 Clouds 14 1019 81 10000 2.57 70 15:33 01.08.2022
2370 Clouds 13 1019 92 10000 2.06 80 14:43 01.08.2022
2371 Clear 11 1018 94 10000 1.03 0 12:57 01.08.2022
2372 Fog 10 1018 95 10000 1.54 90 10:30 01.08.2022
2373 Fog 11 1018 94 10000 1.54 70 08:41 01.08.2022
2374 Clear 11 1018 91 9000 2.06 130 06:50 01.08.2022
2375 Clear 12 1018 87 10000 2.57 120 04:29 01.08.2022
2376 Clear 13 1018 79 10000 3.6 90 00:56 01.08.2022
2377 Clear 15 1017 68 10000 3.6 90 22:42 31.07.2022
2378 Clear 16 1017 63 10000 2.57 70 21:46 31.07.2022
2379 Clouds 18 1018 52 10000 2.03 53 20:18 31.07.2022
2380 Clouds 17 1018 57 10000 2.53 41 18:38 31.07.2022
2381 Clear 15 1020 76 10000 2.06 60 16:18 31.07.2022
2382 Clear 12 1019 85 10000 1.54 60 13:53 31.07.2022
2383 Clear 12 1019 81 10000 0.51 0 12:29 31.07.2022
2384 Rain 12 1018 76 10000 1.54 300 10:22 31.07.2022
2385 Rain 12 1018 79 10000 2.06 300 08:18 31.07.2022
2386 Clear 14 1018 80 10000 2.06 10 04:30 31.07.2022
2387 Clear 15 1017 66 10000 2.57 10 00:23 31.07.2022
2388 Clear 17 1017 52 10000 1.54 70 22:19 30.07.2022
2389 Clear 17 1017 52 10000 1.54 70 22:19 30.07.2022
2390 Clouds 17 1016 58 9000 1.54 40 21:50 30.07.2022
2391 Clear 17 1017 58 9000 1.54 0 20:58 30.07.2022
2392 Clear 18 1017 56 10000 2.49 28 19:59 30.07.2022
2393 Clear 16 1018 67 10000 2.06 20 19:20 30.07.2022
2394 Clear 17 1018 54 10000 2.58 358 17:45 30.07.2022
2395 Clear 14 1019 59 10000 2.57 340 15:55 30.07.2022
2396 Clear 13 1019 61 10000 2.57 340 15:25 30.07.2022
2397 Clear 9 1018 70 9000 1.03 310 13:21 30.07.2022
2398 Clear 10 1018 66 10000 1.54 330 12:20 30.07.2022
2399 Clear 10 1017 61 10000 2.06 310 10:35 30.07.2022
2400 Clear 10 1017 63 10000 2.57 300 09:57 30.07.2022
2401 Clear 11 1017 68 10000 2.06 310 07:55 30.07.2022
2402 Clear 11 1017 68 10000 2.06 310 07:55 30.07.2022
2403 Clear 12 1018 65 10000 2.57 320 04:20 30.07.2022
2404 Clear 12 1017 67 10000 2.06 320 02:28 30.07.2022
2405 Clear 15 1016 62 10000 3.09 360 22:46 29.07.2022
2406 Clear 17 1016 45 10000 1.63 284 21:28 29.07.2022
2407 Clear 17 1017 39 10000 2.06 0 20:50 29.07.2022
2408 Clear 15 1018 41 10000 2.06 0 18:27 29.07.2022
2409 Clear 12 1019 52 10000 1.54 220 16:32 29.07.2022
2410 Clear 7 1019 75 10000 1.54 240 13:45 29.07.2022
2411 Clear 7 1019 75 10000 1.54 250 11:30 29.07.2022
2412 Clear 7 1018 77 10000 2.57 230 08:50 29.07.2022
2413 Clear 7 1018 77 10000 2.57 230 08:20 29.07.2022
2414 Clear 11 1017 70 10000 4.12 240 02:29 29.07.2022
2415 Clouds 13 1014 61 10000 3.6 0 23:18 28.07.2022
2416 Clouds 14 1013 56 10000 3.6 230 21:29 28.07.2022
2417 Clouds 15 1013 57 10000 3.6 230 20:34 28.07.2022
2418 Clouds 14 1013 61 10000 3.6 210 19:44 28.07.2022
2419 Clouds 14 1013 61 10000 3.6 210 19:25 28.07.2022
2420 Clouds 12 1015 67 10000 5.14 0 17:44 28.07.2022
2421 Clouds 11 1015 71 10000 4.63 200 16:59 28.07.2022
2422 Clouds 11 1015 72 10000 4.63 200 16:36 28.07.2022
2423 Clouds 11 1013 91 10000 3.6 0 13:35 28.07.2022
2424 Drizzle 11 1013 95 3400 3.09 210 11:42 28.07.2022
2425 Clouds 15 1011 95 6000 1.54 190 06:46 28.07.2022
2426 Drizzle 16 1010 95 2000 3.6 200 05:33 28.07.2022
2427 Clouds 15 1010 97 6000 1.03 0 02:40 28.07.2022
2428 Clouds 16 1009 94 9000 6.17 130 22:45 27.07.2022
2429 Clouds 17 1009 94 8000 5.66 120 21:29 27.07.2022
2430 Rain 17 1010 94 8000 6.17 110 19:43 27.07.2022
2431 Clouds 17 1012 94 9000 7.72 110 18:39 27.07.2022
2432 Clouds 17 1014 94 9000 3.6 110 15:52 27.07.2022
2433 Clouds 17 1014 93 9000 3.6 110 15:20 27.07.2022
2434 Clouds 17 1014 95 9000 4.12 110 14:40 27.07.2022
2435 Clouds 17 1013 95 10000 6.17 110 12:50 27.07.2022
2436 Clouds 17 1014 94 10000 7.72 90 08:44 27.07.2022
2437 Clouds 17 1016 95 3000 6.17 90 06:56 27.07.2022
2438 Clear 18 1015 92 10000 3.09 130 01:59 27.07.2022
2439 Clear 20 1015 84 10000 3.09 120 22:29 26.07.2022
2440 Clear 21 1014 83 10000 2.57 120 21:21 26.07.2022
2441 Clouds 20 1015 83 10000 3.09 110 20:31 26.07.2022
2442 Clouds 19 1016 82 10000 3.6 90 18:44 26.07.2022
2443 Clouds 18 1017 86 10000 3.09 90 17:59 26.07.2022
2444 Clouds 17 1017 92 10000 3.6 100 16:31 26.07.2022
2445 Clouds 17 1018 94 10000 3.6 110 15:30 26.07.2022
2446 Clouds 16 1017 95 10000 4.12 130 13:38 26.07.2022
2447 Clouds 15 1016 97 10000 4.12 120 11:38 26.07.2022
2448 Clear 15 1015 95 10000 3.09 110 08:57 26.07.2022
2449 Thunderstorm 15 1016 96 10000 2.06 100 05:53 26.07.2022
2450 Mist 15 1016 97 4000 5.14 110 00:37 26.07.2022
2451 Mist 15 1015 97 4000 5.66 110 22:53 25.07.2022
2452 Mist 15 1016 97 1100 5.66 110 22:25 25.07.2022
2453 Fog 15 1016 97 900 6.69 110 21:41 25.07.2022
2454 Mist 15 1017 95 1400 5.66 100 20:41 25.07.2022
2455 Mist 14 1017 98 1100 4.63 110 19:33 25.07.2022
2456 Clouds 13 1019 98 6000 6.17 100 18:18 25.07.2022
2457 Clouds 13 1018 95 10000 8.23 120 17:27 25.07.2022
2458 Thunderstorm 12 1020 99 2500 9.77 120 14:44 25.07.2022
2459 Thunderstorm 12 1018 98 900 8.75 120 12:21 25.07.2022
2460 Mist 13 1019 97 1500 6.17 130 09:18 25.07.2022
2461 Drizzle 13 1018 97 400 7.72 120 03:23 25.07.2022
2462 Fog 13 1017 97 900 8.23 120 23:54 24.07.2022
2463 Mist 14 1016 95 4000 7.72 120 22:59 24.07.2022
2464 Mist 14 1016 94 4000 7.72 120 22:29 24.07.2022
2465 Mist 15 1016 93 5000 7.72 120 21:19 24.07.2022
2466 Mist 15 1016 93 5000 8.23 120 20:50 24.07.2022
2467 Mist 14 1016 93 3000 8.75 120 20:19 24.07.2022
2468 Mist 14 1016 96 1200 7.72 120 18:38 24.07.2022
2469 Fog 15 1017 98 800 5.66 120 16:29 24.07.2022
2470 Fog 15 1017 99 300 4.63 120 15:45 24.07.2022
2471 Fog 15 1017 99 500 4.63 130 14:29 24.07.2022
2472 Fog 14 1015 99 100 4.12 130 12:54 24.07.2022
2473 Fog 14 1014 99 50 4.63 110 11:40 24.07.2022
2474 Fog 14 1014 99 50 3.6 110 11:00 24.07.2022
2475 Fog 15 1015 99 300 2.06 120 08:32 24.07.2022
2476 Fog 15 1015 99 900 2.57 150 07:52 24.07.2022
2477 Fog 15 1015 99 800 1.54 160 05:44 24.07.2022
2478 Fog 15 1012 97 100 1.03 0 00:28 24.07.2022
2479 Fog 15 1012 97 300 2.06 80 21:28 23.07.2022
2480 Fog 15 1012 97 300 2.06 110 19:59 23.07.2022
2481 Drizzle 14 1013 97 300 3.6 70 18:50 23.07.2022
2482 Drizzle 14 1014 97 600 4.12 110 17:28 23.07.2022
2483 Fog 13 1014 98 400 3.6 90 16:33 23.07.2022
2484 Drizzle 13 1014 98 600 3.6 90 15:22 23.07.2022
2485 Drizzle 13 1014 96 600 4.63 100 14:58 23.07.2022
2486 Drizzle 13 1014 97 600 5.14 100 14:26 23.07.2022
2487 Fog 13 1014 98 500 3.09 100 12:44 23.07.2022
2488 Clouds 13 1014 97 8000 4.12 60 10:45 23.07.2022
2489 Clouds 12 1014 96 7000 3.6 60 09:56 23.07.2022
2490 Mist 12 1014 97 3000 4.63 70 08:31 23.07.2022
2491 Clear 11 1016 90 10000 4.63 130 03:38 23.07.2022
2492 Clear 13 1015 81 10000 4.63 120 00:41 23.07.2022
2493 Clear 16 1014 71 8000 4.12 120 22:19 22.07.2022
2494 Clear 17 1014 67 10000 3.6 110 20:39 22.07.2022
2495 Clear 17 1015 68 10000 3.06 112 19:32 22.07.2022
2496 Clear 16 1016 72 10000 3.03 115 18:23 22.07.2022
2497 Clouds 13 1016 88 7000 3.6 100 16:46 22.07.2022
2498 Fog 9 1016 95 500 5.14 130 14:20 22.07.2022
2499 Clear 9 1014 95 9000 2.06 140 10:41 22.07.2022
2500 Clear 8 1014 96 9000 3.09 130 09:25 22.07.2022
2501 Clear 9 1015 94 10000 1.54 160 08:26 22.07.2022
2502 Clear 10 1015 89 10000 4.63 100 04:26 22.07.2022
2503 Clear 12 1015 78 10000 7.72 120 23:45 21.07.2022
2504 Clear 13 1015 73 10000 7.2 110 22:20 21.07.2022
2505 Clear 16 1014 62 10000 3.09 90 20:36 21.07.2022
2506 Clear 19 1014 46 10000 3.09 150 18:52 21.07.2022
2507 Clear 17 1015 57 10000 2.06 180 17:29 21.07.2022
2508 Clear 16 1015 62 10000 3.09 190 16:43 21.07.2022
2509 Clouds 13 1014 87 9000 2.06 200 14:49 21.07.2022
2510 Clouds 12 1013 90 8000 1.54 240 13:58 21.07.2022
2511 Clouds 12 1013 90 8000 1.54 240 13:58 21.07.2022
2512 Clear 12 1012 91 9000 1.54 250 12:18 21.07.2022
2513 Clear 13 1011 93 10000 1.54 270 10:21 21.07.2022
2514 Clear 13 1011 92 10000 1.54 290 08:53 21.07.2022
2515 Clear 13 1010 92 10000 1.54 290 08:18 21.07.2022
2516 Clear 14 1011 92 10000 2.06 310 06:45 21.07.2022
2517 Clouds 15 1010 82 10000 1.03 0 02:59 21.07.2022
2518 Clouds 16 1010 73 10000 2.06 360 22:49 20.07.2022
2519 Clouds 16 1010 71 10000 2.06 360 22:19 20.07.2022
2520 Clear 16 1011 71 10000 1.54 70 20:46 20.07.2022
2521 Clear 18 1013 66 10000 0.89 315 19:47 20.07.2022
2522 Clear 17 1013 65 10000 4.01 6 18:54 20.07.2022
2523 Clear 15 1014 74 10000 2.57 10 18:31 20.07.2022
2524 Clear 15 1016 69 10000 4.62 5 17:28 20.07.2022
2525 Clear 12 1016 79 10000 2.57 340 15:33 20.07.2022
2526 Clear 11 1017 86 10000 3.6 330 14:49 20.07.2022
2527 Clear 9 1017 92 10000 3.6 330 13:21 20.07.2022
2528 Clear 10 1018 91 10000 4.12 350 10:59 20.07.2022
2529 Clear 11 1020 91 10000 3.6 360 06:35 20.07.2022
2530 Clear 10 1021 86 10000 3.09 110 01:47 20.07.2022
2531 Clear 10 1022 79 9000 4.12 110 00:42 20.07.2022
2532 Clear 13 1022 62 9000 3.09 90 22:36 19.07.2022
2533 Clear 14 1022 53 10000 2.57 80 21:54 19.07.2022
2534 Clear 14 1023 51 10000 2.57 80 20:49 19.07.2022
2535 Clear 15 1024 47 10000 2.44 43 19:22 19.07.2022
2536 Clear 14 1024 53 10000 2.44 43 18:41 19.07.2022
2537 Clear 12 1027 61 10000 2.57 50 17:53 19.07.2022
2538 Clear 11 1027 67 10000 3.09 40 15:27 19.07.2022
2539 Clouds 7 1027 91 9000 1.03 0 13:33 19.07.2022
2540 Clear 7 1027 73 10000 3.09 130 11:32 19.07.2022
2541 Clear 7 1027 66 10000 1.03 0 09:51 19.07.2022
2542 Clear 8 1027 65 10000 2.06 130 08:46 19.07.2022
2543 Clear 8 1027 63 10000 1.54 190 07:19 19.07.2022
2544 Clear 8 1027 61 10000 1.54 170 06:27 19.07.2022
2545 Clear 9 1027 57 10000 1.54 160 05:18 19.07.2022
2546 Clouds 11 1027 53 10000 2.62 165 02:37 19.07.2022
2547 Clear 14 1024 48 10000 1.03 0 23:52 18.07.2022
2548 Clear 14 1024 47 10000 1.03 0 23:19 18.07.2022
2549 Clear 16 1024 44 10000 1.54 230 22:26 18.07.2022
2550 Clear 16 1023 44 10000 1.54 220 21:20 18.07.2022
2551 Clear 15 1023 48 10000 2.06 0 19:54 18.07.2022
2552 Clear 14 1023 55 10000 2.57 280 18:24 18.07.2022
2553 Clear 11 1024 67 10000 4.12 290 16:28 18.07.2022
2554 Clear 9 1023 73 10000 5.14 300 15:19 18.07.2022
2555 Clear 6 1022 87 10000 3.6 320 13:31 18.07.2022
2556 Clear 7 1021 84 10000 4.63 320 11:31 18.07.2022
2557 Clear 7 1019 81 10000 6.17 320 09:53 18.07.2022
2558 Clear 8 1019 79 10000 5.66 330 07:48 18.07.2022
2559 Clear 10 1019 68 10000 3.6 330 02:34 18.07.2022
2560 Clear 13 1018 49 10000 5.14 320 22:52 17.07.2022
2561 Clear 13 1018 49 10000 5.14 320 22:25 17.07.2022
2562 Clear 13 1017 51 10000 5.66 330 21:26 17.07.2022
2563 Clear 14 1018 48 10000 6.17 330 20:44 17.07.2022
2564 Clear 13 1019 49 10000 6.17 320 19:49 17.07.2022
2565 Clear 13 1019 50 10000 6.17 320 19:19 17.07.2022
2566 Clear 11 1021 54 10000 3.09 300 17:39 17.07.2022
2567 Clear 10 1021 59 10000 2.57 270 16:51 17.07.2022
2568 Clear 8 1021 62 10000 2.57 270 16:27 17.07.2022
2569 Clear 6 1021 66 10000 2.06 280 15:27 17.07.2022
2570 Clear 4 1020 77 10000 2.57 280 13:47 17.07.2022
2571 Clear 3 1019 81 10000 2.57 300 12:32 17.07.2022
2572 Clear 4 1018 77 10000 2.06 290 09:31 17.07.2022
2573 Clear 5 1018 76 10000 1.54 260 06:58 17.07.2022
2574 Clouds 9 1016 65 10000 3.6 220 02:33 17.07.2022
2575 Clouds 10 1012 69 10000 3.6 0 23:22 16.07.2022
2576 Clouds 10 1012 69 10000 3.6 0 23:22 16.07.2022
2577 Clouds 10 1012 74 10000 3.6 0 21:57 16.07.2022
2578 Clouds 10 1011 74 10000 4.63 0 20:26 16.07.2022
2579 Rain 10 1011 77 10000 4.63 180 18:41 16.07.2022
2580 Rain 9 1012 80 10000 4.63 180 17:20 16.07.2022
2581 Clouds 9 1012 80 10000 3.09 180 15:23 16.07.2022
2582 Drizzle 9 1009 90 7000 4.12 190 11:54 16.07.2022
2583 Rain 9 1009 90 10000 4.63 180 09:37 16.07.2022
2584 Clouds 10 1011 88 10000 3.09 0 08:48 16.07.2022
2585 Clouds 10 1011 88 10000 3.09 0 08:29 16.07.2022
2586 Clouds 11 1011 90 10000 2.57 200 04:28 16.07.2022
2587 Clouds 11 1010 93 8000 2.57 210 03:29 16.07.2022
2588 Drizzle 11 1010 92 4000 2.57 170 23:38 15.07.2022
2589 Clouds 11 1010 93 6000 2.06 200 22:41 15.07.2022
2590 Clouds 12 1008 93 6000 2.57 0 21:29 15.07.2022
2591 Mist 11 1007 93 5000 3.6 150 20:31 15.07.2022
2592 Mist 12 1009 92 5000 1.54 170 18:44 15.07.2022
2593 Mist 11 1010 93 5000 1.54 170 17:44 15.07.2022
2594 Mist 10 1008 94 2500 3.09 160 14:54 15.07.2022
2595 Mist 9 1008 96 5000 3.6 190 13:18 15.07.2022
2596 Mist 9 1008 96 2700 2.06 210 11:44 15.07.2022
2597 Mist 10 1009 98 3500 2.06 190 10:23 15.07.2022
2598 Fog 11 1009 94 5000 1.54 150 06:30 15.07.2022
2599 Clear 12 1008 85 10000 1.54 190 01:32 15.07.2022
2600 Clear 12 1008 85 10000 3.6 120 00:22 15.07.2022
2601 Clear 14 1007 78 10000 3.09 130 22:52 14.07.2022
2602 Clear 13 1007 79 10000 2.57 140 21:51 14.07.2022
2603 Clear 13 1008 79 10000 2.57 140 21:30 14.07.2022
2604 Clear 13 1007 77 10000 3.6 120 20:45 14.07.2022
2605 Clear 13 1007 77 10000 3.6 120 20:21 14.07.2022
2606 Clear 13 1008 79 10000 3.09 120 19:18 14.07.2022
2607 Clear 12 1011 79 10000 4.12 80 16:23 14.07.2022
2608 Clear 12 1011 80 10000 3.6 60 15:32 14.07.2022
2609 Clear 10 1012 85 10000 4.63 80 13:59 14.07.2022
2610 Clear 10 1012 83 10000 5.14 70 12:58 14.07.2022
2611 Clear 10 1011 81 10000 4.12 80 11:54 14.07.2022
2612 Clear 10 1011 81 10000 4.12 80 11:23 14.07.2022
2613 Clear 10 1012 78 10000 4.12 70 10:24 14.07.2022
2614 Clear 11 1014 76 10000 4.12 50 07:47 14.07.2022
2615 Clear 12 1015 72 10000 4.12 60 01:25 14.07.2022
2616 Clear 12 1015 72 10000 3.09 50 00:53 14.07.2022
2617 Clear 14 1015 67 10000 3.09 20 22:33 13.07.2022
2618 Clear 14 1016 68 10000 3.6 20 21:59 13.07.2022
2619 Clear 14 1016 66 10000 3.6 20 21:18 13.07.2022
2620 Clear 15 1017 64 10000 4.12 10 19:34 13.07.2022
2621 Clear 13 1019 69 10000 4.63 340 17:51 13.07.2022
2622 Clouds 11 1019 73 10000 5.66 340 16:43 13.07.2022
2623 Clouds 9 1019 79 10000 4.63 340 15:24 13.07.2022
2624 Clear 7 1018 87 10000 5.66 330 12:55 13.07.2022
2625 Clear 7 1018 84 10000 6.17 340 10:46 13.07.2022
2626 Clear 7 1018 84 10000 6.17 340 10:24 13.07.2022
2627 Clear 8 1018 81 10000 5.14 350 09:24 13.07.2022
2628 Clear 9 1018 74 10000 7.2 340 06:20 13.07.2022
2629 Clear 9 1019 68 10000 6.17 340 02:21 13.07.2022
2630 Clear 9 1019 65 10000 2.57 350 23:45 12.07.2022
2631 Clear 11 1019 55 10000 3.6 360 21:57 12.07.2022
2632 Clear 11 1019 57 10000 3.6 360 21:32 12.07.2022
2633 Clouds 11 1019 55 10000 2.48 342 20:41 12.07.2022
2634 Clear 10 1020 56 10000 3.6 350 19:28 12.07.2022
2635 Clear 9 1021 58 10000 1.54 0 17:50 12.07.2022
2636 Clear 7 1021 65 10000 1.54 160 16:20 12.07.2022
2637 Clear 6 1021 82 10000 1.03 0 14:31 12.07.2022
2638 Clear 5 1020 86 10000 1.03 0 12:29 12.07.2022
2639 Clear 5 1020 86 10000 2.06 220 11:22 12.07.2022
2640 Clouds 6 1019 81 10000 1.54 210 09:38 12.07.2022
2641 Clouds 6 1019 82 10000 3.09 200 08:19 12.07.2022
2642 Clouds 7 1019 75 10000 3.6 180 06:29 12.07.2022
2643 Clouds 7 1019 73 10000 4.12 190 05:39 12.07.2022
2644 Clouds 11 1016 66 10000 3.6 180 02:21 12.07.2022
2645 Clouds 11 1014 67 10000 2.57 170 23:28 11.07.2022
2646 Clouds 11 1013 66 10000 3.09 0 22:30 11.07.2022
2647 Clouds 11 1011 69 10000 4.12 180 20:41 11.07.2022
2648 Clouds 10 1012 70 10000 4.63 160 19:36 11.07.2022
2649 Clouds 10 1012 75 10000 4.12 160 18:32 11.07.2022
2650 Clouds 10 1012 77 10000 4.63 160 17:46 11.07.2022
2651 Rain 9 1012 79 10000 4.63 160 16:19 11.07.2022
2652 Rain 9 1010 80 10000 6.17 160 14:38 11.07.2022
2653 Rain 10 1011 70 10000 3.6 160 11:49 11.07.2022
2654 Clear 10 1009 66 10000 4.63 160 10:29 11.07.2022
2655 Rain 11 1010 63 10000 3.6 170 09:42 11.07.2022
2656 Clear 11 1009 62 10000 4.12 170 08:34 11.07.2022
2657 Rain 13 1009 65 10000 4.12 160 05:51 11.07.2022
2658 Clouds 15 1008 78 10000 3.09 170 00:22 11.07.2022
2659 Clouds 16 1006 79 9000 3.6 150 22:58 10.07.2022
2660 Clouds 16 1005 84 10000 4.63 180 21:51 10.07.2022
2661 Clouds 16 1005 86 9000 4.12 190 20:54 10.07.2022
2662 Clouds 18 1004 86 8000 3.6 180 19:50 10.07.2022
2663 Clouds 18 1004 86 8000 3.6 180 19:50 10.07.2022
2664 Clouds 18 1005 88 10000 0.89 180 18:49 10.07.2022
2665 Clouds 20 1004 76 10000 3.09 0 17:37 10.07.2022
2666 Clouds 19 1004 76 10000 4.12 320 16:57 10.07.2022
2667 Clear 19 1004 76 10000 4.12 320 15:33 10.07.2022
2668 Clear 19 1003 78 10000 4.12 320 14:30 10.07.2022
2669 Clouds 18 1002 84 10000 1.54 340 12:29 10.07.2022
2670 Clear 18 1002 84 10000 1.54 340 11:20 10.07.2022
2671 Clear 18 1003 84 10000 0.51 0 08:45 10.07.2022
2672 Clear 18 1003 86 10000 2.06 350 07:59 10.07.2022
2673 Clear 17 1004 92 10000 1.03 0 02:50 10.07.2022
2674 Clear 16 1004 90 10000 5.14 110 22:59 09.07.2022
2675 Clear 16 1004 88 10000 5.14 110 22:25 09.07.2022
2676 Clouds 17 1005 82 10000 3.09 100 21:28 09.07.2022
2677 Clouds 15 1010 92 8180 0.89 45 18:43 09.07.2022
2678 Clouds 14 1011 89 10000 1.54 40 17:45 09.07.2022
2679 Clouds 13 1011 89 10000 3.09 70 16:44 09.07.2022
2680 Clouds 13 1012 89 10000 2.06 40 15:41 09.07.2022
2681 Clouds 12 1012 87 10000 2.57 60 14:43 09.07.2022
2682 Clouds 12 1012 87 10000 2.57 70 13:50 09.07.2022
2683 Clouds 12 1012 83 10000 3.09 60 12:47 09.07.2022
2684 Clouds 12 1012 86 10000 3.09 60 11:31 09.07.2022
2685 Clouds 12 1013 84 10000 3.09 60 10:22 09.07.2022
2686 Clouds 11 1014 73 10000 5.14 70 07:53 09.07.2022
2687 Clear 11 1015 69 10000 7.2 70 05:24 09.07.2022
2688 Clear 13 1017 54 10000 4.63 80 02:34 09.07.2022
2689 Clear 12 1018 58 10000 8.23 100 22:54 08.07.2022
2690 Clear 12 1018 58 10000 9.26 100 21:59 08.07.2022
2691 Clear 12 1019 53 10000 8.23 100 20:41 08.07.2022
2692 Clear 13 1019 52 10000 8.23 100 20:23 08.07.2022
2693 Clear 13 1022 46 10000 5.66 100 18:26 08.07.2022
2694 Clear 12 1023 48 10000 5.66 80 16:48 08.07.2022
2695 Clear 10 1023 71 10000 4.12 70 14:54 08.07.2022
2696 Clear 8 1023 76 10000 1.03 0 13:41 08.07.2022
2697 Clear 7 1023 63 10000 2.06 110 11:51 08.07.2022
2698 Clear 6 1023 61 10000 0 0 10:29 08.07.2022
2699 Clear 6 1024 61 10000 1.03 0 08:37 08.07.2022
2700 Clear 7 1024 56 10000 0 0 06:50 08.07.2022
2701 Clear 10 1022 40 10000 0.51 0 01:31 08.07.2022
2702 Clear 12 1020 26 10000 1.54 230 23:22 07.07.2022
2703 Clear 13 1020 25 10000 2.57 240 22:35 07.07.2022
2704 Clear 13 1018 29 10000 2.57 0 20:35 07.07.2022
2705 Clear 12 1019 39 10000 2.57 0 18:20 07.07.2022
2706 Clear 10 1018 45 10000 2.57 0 16:53 07.07.2022
2707 Clear 8 1018 53 10000 3.09 230 14:35 07.07.2022
2708 Clear 8 1016 56 10000 3.09 240 13:18 07.07.2022
2709 Clear 8 1015 63 10000 3.6 0 12:24 07.07.2022
2710 Clear 9 1014 69 10000 3.09 240 11:45 07.07.2022
2711 Clear 9 1014 73 10000 3.09 240 11:24 07.07.2022
2712 Clouds 9 1014 85 10000 0.89 0 10:41 07.07.2022
2713 Clear 10 1013 76 10000 3.6 250 10:23 07.07.2022
2714 Clouds 12 1009 95 10000 3.09 240 06:48 07.07.2022
2715 Mist 13 1005 98 1500 0.51 0 01:43 07.07.2022
2716 Clouds 13 1005 97 10000 0.45 135 23:36 06.07.2022
2717 Clouds 13 1005 97 10000 2.18 32 23:18 06.07.2022
2718 Fog 13 1004 95 800 3.09 90 22:52 06.07.2022
2719 Fog 13 1004 95 800 3.09 90 22:52 06.07.2022
2720 Fog 13 1004 96 800 3.09 90 22:34 06.07.2022
2721 Fog 12 1005 98 500 2.06 80 20:30 06.07.2022
2722 Fog 12 1006 98 400 3.09 80 19:33 06.07.2022
2723 Drizzle 11 1010 97 800 4.12 70 17:22 06.07.2022
2724 Drizzle 11 1012 94 2000 3.09 40 15:58 06.07.2022
2725 Clouds 11 1013 94 10000 4.63 50 12:57 06.07.2022
2726 Clouds 11 1013 95 10000 4.63 50 12:21 06.07.2022
2727 Clouds 10 1014 95 10000 4.63 70 10:55 06.07.2022
2728 Clouds 10 1015 96 8000 3.09 70 09:27 06.07.2022
2729 Clouds 10 1015 96 8000 3.09 70 09:27 06.07.2022
2730 Mist 9 1016 97 2000 4.12 80 07:44 06.07.2022
2731 Mist 9 1017 94 1200 3.6 100 06:49 06.07.2022
2732 Fog 10 1017 97 300 5.14 90 00:38 06.07.2022
2733 Clouds 11 1017 86 10000 4.63 110 22:43 05.07.2022
2734 Clouds 12 1017 80 10000 3.09 110 20:49 05.07.2022
2735 Clouds 12 1017 80 10000 3.09 110 20:31 05.07.2022
2736 Clouds 12 1018 80 10000 2.57 90 19:38 05.07.2022
2737 Clouds 12 1019 80 10000 3.09 70 17:51 05.07.2022
2738 Clouds 12 1019 79 10000 3.09 70 17:19 05.07.2022
2739 Clouds 12 1019 84 10000 2.57 80 16:25 05.07.2022
2740 Clouds 11 1019 84 10000 3.09 100 14:54 05.07.2022
2741 Clouds 10 1019 95 9000 5.14 100 13:34 05.07.2022
2742 Clouds 10 1018 92 7000 4.12 120 12:22 05.07.2022
2743 Mist 10 1018 95 5000 2.57 150 10:45 05.07.2022
2744 Drizzle 10 1018 94 2300 2.57 150 09:52 05.07.2022
2745 Clouds 10 1018 91 10000 2.57 180 08:21 05.07.2022
2746 Clouds 11 1019 94 9000 2.57 190 06:51 05.07.2022
2747 Clouds 11 1018 93 10000 2.57 180 04:35 05.07.2022
2748 Clouds 11 1015 88 6000 2.06 0 01:25 05.07.2022
2749 Clouds 11 1016 84 10000 3.25 189 23:37 04.07.2022
2750 Mist 12 1015 81 5000 1.03 0 22:55 04.07.2022
2751 Mist 12 1014 83 5000 1.03 0 21:56 04.07.2022
2752 Clouds 12 1014 80 10000 3.6 80 20:56 04.07.2022
2753 Clouds 12 1014 80 10000 3.6 80 20:35 04.07.2022
2754 Clouds 13 1014 79 10000 3.6 100 19:56 04.07.2022
2755 Clouds 13 1014 80 10000 3.6 100 19:37 04.07.2022
2756 Clouds 12 1015 81 10000 3.6 120 18:34 04.07.2022
2757 Clouds 11 1018 87 10000 3.6 90 16:42 04.07.2022
2758 Clouds 10 1017 85 10000 5.14 120 15:34 04.07.2022
2759 Clouds 10 1017 89 10000 4.12 90 13:41 04.07.2022
2760 Clear 10 1017 87 10000 5.66 100 12:38 04.07.2022
2761 Clear 10 1017 87 10000 5.14 70 10:39 04.07.2022
2762 Clear 10 1017 85 10000 5.14 70 10:20 04.07.2022
2763 Clear 10 1019 78 10000 4.12 70 08:31 04.07.2022
2764 Clear 10 1021 85 10000 6.69 100 05:36 04.07.2022
2765 Clear 9 1022 69 10000 4.12 130 00:43 04.07.2022
2766 Clear 10 1022 65 10000 4.63 130 23:27 03.07.2022
2767 Clear 12 1021 59 10000 4.12 110 22:23 03.07.2022
2768 Clear 12 1022 50 10000 4.63 100 20:42 03.07.2022
2769 Clear 12 1022 45 10000 2.57 110 19:42 03.07.2022
2770 Clear 12 1022 47 10000 2.57 110 19:23 03.07.2022
2771 Clear 11 1024 59 10000 3.09 30 17:45 03.07.2022
2772 Clear 11 1024 62 10000 3.6 20 16:58 03.07.2022
2773 Clouds 9 1023 82 9000 2.57 330 15:25 03.07.2022
2774 Clear 7 1023 89 9000 1.54 300 14:37 03.07.2022
2775 Fog 6 1022 93 8000 1.03 0 13:49 03.07.2022
2776 Clear 6 1022 96 8000 0 0 12:41 03.07.2022
2777 Clear 6 1022 92 8000 1.03 290 11:39 03.07.2022
2778 Clear 6 1022 91 10000 0.51 0 10:39 03.07.2022
2779 Clear 6 1022 90 10000 0.51 0 09:59 03.07.2022
2780 Clear 6 1021 84 10000 0.51 0 07:36 03.07.2022
2781 Clear 7 1020 77 10000 0 0 05:18 03.07.2022
2782 Clear 10 1019 54 10000 1.03 0 00:23 03.07.2022
2783 Clear 12 1018 49 10000 1.54 0 22:35 02.07.2022
2784 Clear 13 1017 48 10000 1.54 0 21:38 02.07.2022
2785 Clear 13 1016 51 10000 3.09 200 19:52 02.07.2022
2786 Clear 12 1016 52 10000 3.09 200 19:31 02.07.2022
2787 Clear 11 1016 59 10000 3.6 220 17:58 02.07.2022
2788 Clear 11 1016 60 10000 3.6 220 17:36 02.07.2022
2789 Clear 8 1015 70 10000 3.09 210 15:28 02.07.2022
2790 Clear 8 1012 87 10000 3.09 0 12:22 02.07.2022
2791 Clear 9 1011 90 10000 2.57 240 11:27 02.07.2022
2792 Clear 9 1011 96 10000 3.09 250 10:46 02.07.2022
2793 Clear 9 1010 97 10000 2.57 250 09:37 02.07.2022
2794 Clear 9 1010 95 10000 2.57 260 08:36 02.07.2022
2795 Clear 9 1010 95 10000 2.57 260 08:18 02.07.2022
2796 Clouds 11 1008 95 10000 2.06 40 02:51 02.07.2022
2797 Rain 11 1006 94 10000 3.09 80 00:26 02.07.2022
2798 Rain 11 1006 92 5000 2.06 40 22:58 01.07.2022
2799 Rain 12 1007 87 4000 2.06 30 21:49 01.07.2022
2800 Rain 12 1006 86 10000 3.09 20 21:29 01.07.2022
2801 Rain 12 1007 83 3000 3.6 360 20:43 01.07.2022
2802 Clear 12 1008 76 10000 3.09 10 19:47 01.07.2022
2803 Clouds 12 1010 71 10000 5.14 10 17:58 01.07.2022
2804 Clear 11 1011 65 10000 6.17 30 16:24 01.07.2022
2805 Clear 10 1013 70 10000 5.66 30 13:55 01.07.2022
2806 Clear 10 1013 73 10000 5.66 30 12:55 01.07.2022
2807 Clear 10 1014 70 10000 4.12 20 10:20 01.07.2022
2808 Clear 10 1015 68 10000 5.66 20 09:47 01.07.2022
2809 Clear 10 1017 84 10000 4.12 80 05:25 01.07.2022
2810 Clear 11 1019 72 10000 1.03 90 00:42 01.07.2022
2811 Clear 13 1018 62 10000 1.03 0 23:22 30.06.2022
2812 Clear 14 1018 61 10000 1.03 0 22:44 30.06.2022
2813 Clear 14 1018 60 10000 1.03 0 22:25 30.06.2022
2814 Clear 15 1018 53 7000 1.54 360 21:45 30.06.2022
2815 Clear 17 1019 33 10000 0.14 5 20:30 30.06.2022
2816 Clear 17 1019 33 10000 0.54 234 19:54 30.06.2022
2817 Clear 17 1019 33 10000 1.6 219 19:26 30.06.2022
2818 Clear 16 1019 38 10000 1.6 219 18:42 30.06.2022
2819 Clear 15 1020 50 10000 2.06 20 17:44 30.06.2022
2820 Clear 14 1020 54 10000 1.54 200 16:55 30.06.2022
2821 Clear 13 1020 65 10000 2.57 190 15:42 30.06.2022
2822 Clouds 10 1019 70 9000 1.54 0 13:36 30.06.2022
2823 Clear 10 1018 70 10000 1.54 0 12:35 30.06.2022
2824 Clear 10 1017 73 10000 2.06 260 11:43 30.06.2022
2825 Clear 11 1015 72 10000 2.06 340 09:55 30.06.2022
2826 Clear 11 1015 72 10000 2.06 340 09:35 30.06.2022
2827 Clear 12 1016 65 10000 1.03 0 08:19 30.06.2022
2828 Rain 11 1016 67 10000 1.03 0 07:23 30.06.2022
2829 Clear 14 1012 60 10000 3.09 320 01:47 30.06.2022
2830 Clear 16 1011 50 10000 4.63 330 23:34 29.06.2022
2831 Clouds 17 1011 50 10000 5.14 330 22:40 29.06.2022
2832 Clear 18 1011 41 10000 5.14 330 21:39 29.06.2022
2833 Clouds 19 1011 43 10000 4.77 349 20:34 29.06.2022
2834 Clear 18 1013 44 10000 5.14 330 19:48 29.06.2022
2835 Clear 16 1015 52 10000 5.66 310 17:54 29.06.2022
2836 Clear 14 1016 63 10000 5.14 310 16:48 29.06.2022
2837 Clear 12 1016 71 9000 4.63 320 15:32 29.06.2022
2838 Clear 9 1016 80 10000 4.12 320 12:49 29.06.2022
2839 Clear 9 1015 80 10000 3.09 320 11:47 29.06.2022
2840 Clear 10 1016 69 10000 2.57 290 09:34 29.06.2022
2841 Clear 10 1016 67 10000 2.06 290 08:42 29.06.2022
2842 Clear 10 1016 68 9000 0.51 0 05:19 29.06.2022
2843 Clear 12 1017 64 10000 0 0 01:48 29.06.2022
2844 Clear 12 1017 63 10000 1.03 0 00:37 29.06.2022
2845 Clouds 14 1017 56 10000 2.67 269 22:56 28.06.2022
2846 Clear 15 1016 51 10000 2.06 0 22:34 28.06.2022
2847 Clear 15 1016 52 10000 1.03 0 21:55 28.06.2022
2848 Clear 15 1016 52 10000 1.03 0 21:33 28.06.2022
2849 Clear 14 1016 57 10000 1.54 0 20:50 28.06.2022
2850 Clear 14 1017 59 10000 1.54 250 19:34 28.06.2022
2851 Clear 14 1017 59 10000 1.54 250 19:34 28.06.2022
2852 Clear 14 1017 60 10000 1.54 230 18:53 28.06.2022
2853 Clear 12 1018 65 10000 2.06 0 17:42 28.06.2022
2854 Clear 12 1018 67 10000 2.06 240 16:24 28.06.2022
2855 Rain 12 1018 68 10000 2.06 240 15:53 28.06.2022
2856 Clear 11 1018 73 10000 2.06 230 14:21 28.06.2022
2857 Rain 11 1018 74 10000 1.54 230 13:54 28.06.2022
2858 Rain 11 1017 75 10000 1.54 230 13:20 28.06.2022
2859 Rain 10 1018 77 10000 1.54 320 11:21 28.06.2022
2860 Clear 10 1017 77 10000 1.54 230 09:36 28.06.2022
2861 Rain 10 1017 76 10000 1.03 0 08:44 28.06.2022
2862 Clouds 10 1018 79 10000 3.04 227 07:43 28.06.2022
2863 Rain 10 1018 79 10000 0.45 225 07:19 28.06.2022
2864 Clear 10 1016 78 10000 1.03 0 01:32 28.06.2022
2865 Clear 11 1015 75 10000 3.09 320 23:41 27.06.2022
2866 Rain 11 1015 76 10000 3.09 350 22:52 27.06.2022
2867 Clear 12 1016 70 10000 2.57 360 21:38 27.06.2022
2868 Clouds 11 1016 72 10000 2.57 350 20:53 27.06.2022
2869 Rain 11 1016 72 10000 2.57 360 19:36 27.06.2022
2870 Clouds 11 1017 72 10000 2.57 350 18:26 27.06.2022
2871 Rain 10 1019 74 10000 2.57 330 16:27 27.06.2022
2872 Rain 10 1019 75 10000 2.57 330 15:23 27.06.2022
2873 Clear 9 1018 78 10000 2.06 310 13:37 27.06.2022
2874 Rain 9 1019 79 10000 2.06 330 12:56 27.06.2022
2875 Clear 9 1018 81 10000 2.57 350 10:34 27.06.2022
2876 Clear 8 1019 78 10000 4.63 360 09:20 27.06.2022
2877 Rain 9 1020 78 10000 3.6 20 08:29 27.06.2022
2878 Clear 9 1021 75 10000 4.12 60 06:38 27.06.2022
2879 Clear 9 1022 72 10000 4.63 60 03:24 27.06.2022
2880 Clouds 9 1023 71 10000 4.12 80 23:56 26.06.2022
2881 Rain 9 1023 72 10000 3.09 60 21:59 26.06.2022
2882 Rain 10 1024 72 10000 2.57 60 20:44 26.06.2022
2883 Rain 10 1024 72 10000 3.09 30 19:32 26.06.2022
2884 Rain 9 1026 73 10000 3.09 30 18:30 26.06.2022
2885 Clouds 9 1028 76 10000 3.09 30 16:33 26.06.2022
2886 Rain 7 1027 80 10000 3.6 60 14:40 26.06.2022
2887 Clouds 7 1027 74 10000 3.6 60 13:38 26.06.2022
2888 Clouds 7 1027 77 10000 3.6 60 13:18 26.06.2022
2889 Clouds 8 1027 84 10000 4.12 80 11:26 26.06.2022
2890 Clouds 8 1027 84 10000 5.14 80 10:26 26.06.2022
2891 Clouds 8 1027 82 10000 5.14 100 09:19 26.06.2022
2892 Rain 7 1029 82 10000 2.06 140 07:30 26.06.2022
2893 Clouds 8 1030 74 10000 3.09 130 00:49 26.06.2022
2894 Clouds 8 1031 73 10000 3.09 130 00:20 26.06.2022
2895 Clouds 9 1031 71 10000 2.57 70 23:33 25.06.2022
2896 Clouds 10 1031 68 10000 2.57 60 22:55 25.06.2022
2897 Clouds 10 1031 66 10000 2.57 60 22:27 25.06.2022
2898 Clouds 10 1030 64 10000 3.09 80 21:37 25.06.2022
2899 Clouds 10 1030 65 10000 3.09 80 21:18 25.06.2022
2900 Clouds 11 1030 60 10000 3.09 0 20:25 25.06.2022
2901 Clear 11 1032 60 10000 2.57 160 18:45 25.06.2022
2902 Clear 9 1033 66 10000 2.57 0 17:28 25.06.2022
2903 Clear 8 1034 71 10000 2.06 0 16:44 25.06.2022
2904 Clear 5 1034 82 10000 2.06 170 14:50 25.06.2022
2905 Clear 5 1033 78 10000 2.06 170 12:56 25.06.2022
2906 Clear 5 1033 78 10000 2.06 170 12:37 25.06.2022
2907 Clear 5 1032 84 10000 2.06 180 09:40 25.06.2022
2908 Clear 5 1032 82 10000 1.54 200 08:56 25.06.2022
2909 Clear 5 1032 83 10000 1.54 200 08:28 25.06.2022
2910 Clear 6 1031 78 10000 2.06 150 06:46 25.06.2022
2911 Clouds 9 1029 64 10000 3.09 150 01:53 25.06.2022
2912 Clouds 10 1028 70 10000 3.09 120 00:20 25.06.2022
2913 Clouds 11 1026 72 10000 3.6 90 22:29 24.06.2022
2914 Clouds 11 1026 72 10000 4.12 100 21:28 24.06.2022
2915 Clouds 12 1025 73 10000 4.12 100 20:24 24.06.2022
2916 Clouds 11 1025 74 10000 5.14 100 19:39 24.06.2022
2917 Clouds 11 1025 76 10000 5.14 100 19:18 24.06.2022
2918 Clouds 11 1025 72 10000 5.14 120 18:44 24.06.2022
2919 Clouds 11 1025 72 10000 5.14 120 18:24 24.06.2022
2920 Clouds 10 1025 79 10000 4.63 130 16:47 24.06.2022
2921 Clouds 9 1025 83 10000 4.63 110 14:50 24.06.2022
2922 Clouds 9 1024 84 10000 4.63 110 14:23 24.06.2022
2923 Clouds 9 1024 88 10000 5.14 120 13:41 24.06.2022
2924 Clouds 9 1022 89 10000 4.12 140 11:41 24.06.2022
2925 Clouds 9 1022 83 10000 3.09 130 10:36 24.06.2022
2926 Rain 9 1022 87 10000 3.09 140 09:42 24.06.2022
2927 Rain 9 1022 87 10000 3.09 140 09:42 24.06.2022
2928 Rain 9 1022 87 10000 3.6 130 08:54 24.06.2022
2929 Clouds 9 1022 88 10000 3.6 130 07:57 24.06.2022
2930 Clouds 9 1023 88 10000 4.12 120 06:44 24.06.2022
2931 Clouds 9 1022 88 10000 4.12 120 06:22 24.06.2022
2932 Clouds 9 1022 83 10000 4.63 110 04:46 24.06.2022
2933 Clouds 9 1021 70 10000 3.6 110 23:24 23.06.2022
2934 Clouds 9 1020 69 10000 1.54 150 22:42 23.06.2022
2935 Clouds 9 1020 70 10000 3.09 120 20:59 23.06.2022
2936 Clouds 9 1020 70 10000 3.09 120 20:36 23.06.2022
2937 Clouds 9 1021 68 10000 3.6 100 19:40 23.06.2022
2938 Clouds 9 1023 70 10000 4.12 110 17:54 23.06.2022
2939 Clouds 9 1023 69 10000 4.12 110 17:33 23.06.2022
2940 Clouds 8 1023 74 10000 5.66 120 16:23 23.06.2022
2941 Clouds 7 1023 74 10000 4.63 130 15:25 23.06.2022
2942 Clouds 6 1022 71 10000 2.57 160 13:46 23.06.2022
2943 Clouds 6 1022 70 10000 2.57 170 11:27 23.06.2022
2944 Clouds 6 1021 70 10000 3.09 170 10:40 23.06.2022
2945 Clouds 6 1022 71 10000 2.57 150 09:18 23.06.2022
2946 Clouds 7 1022 68 10000 6.69 130 03:40 23.06.2022
2947 Clouds 8 1020 63 10000 5.66 140 00:27 23.06.2022
2948 Clouds 8 1020 64 10000 3.6 140 23:41 22.06.2022
2949 Clouds 9 1020 66 10000 7.2 130 22:48 22.06.2022
2950 Clouds 9 1020 66 10000 7.2 130 22:48 22.06.2022
2951 Rain 9 1020 64 10000 6.17 130 21:22 22.06.2022
2952 Clouds 9 1020 64 10000 6.69 120 20:45 22.06.2022
2953 Clouds 9 1020 61 10000 6.17 130 19:58 22.06.2022
2954 Clear 9 1020 60 10000 5.66 140 18:49 22.06.2022
2955 Clear 7 1020 61 10000 3.6 150 17:28 22.06.2022
2956 Clear 6 1021 62 10000 5.14 160 16:29 22.06.2022
2957 Clear 6 1021 65 10000 3.6 160 15:26 22.06.2022
2958 Clear 4 1022 69 10000 4.12 160 14:20 22.06.2022
2959 Clear 5 1022 68 10000 3.6 170 13:39 22.06.2022
2960 Clear 5 1021 68 10000 3.6 170 13:21 22.06.2022
2961 Clouds 6 1021 73 10000 4.12 160 11:49 22.06.2022
2962 Clear 6 1021 74 10000 4.12 160 10:55 22.06.2022
2963 Clear 5 1021 75 10000 4.12 160 10:19 22.06.2022
2964 Clear 5 1021 82 10000 5.14 150 08:27 22.06.2022
2965 Clear 8 1020 69 10000 7.72 150 03:50 22.06.2022
2966 Rain 10 1020 68 10000 7.2 130 01:23 22.06.2022
2967 Rain 11 1019 67 10000 7.72 130 00:24 22.06.2022
2968 Clouds 13 1017 71 10000 6.69 110 22:18 21.06.2022
2969 Clear 14 1015 54 10000 5.14 150 19:55 21.06.2022
2970 Clear 14 1015 55 10000 6.69 140 18:35 21.06.2022
2971 Clear 13 1015 62 10000 4.63 160 17:31 21.06.2022
2972 Clear 9 1015 85 10000 1.03 0 13:54 21.06.2022
2973 Clear 9 1014 83 10000 2.57 140 11:37 21.06.2022
2974 Clear 10 1014 81 10000 3.6 120 09:54 21.06.2022
2975 Clear 10 1015 79 10000 1.54 150 08:47 21.06.2022
2976 Clear 11 1015 74 10000 2.57 100 06:36 21.06.2022
2977 Rain 11 1015 77 10000 4.63 120 01:31 21.06.2022
2978 Clear 12 1015 69 10000 4.63 130 23:24 20.06.2022
2979 Clear 13 1015 64 10000 2.06 80 21:54 20.06.2022
2980 Clear 13 1015 64 10000 2.57 80 20:50 20.06.2022
2981 Clear 13 1016 63 10000 2.06 90 19:40 20.06.2022
2982 Clear 13 1017 67 10000 2.06 50 18:46 20.06.2022
2983 Clear 12 1018 75 10000 2.57 50 17:59 20.06.2022
2984 Clear 12 1018 77 10000 2.57 50 17:32 20.06.2022
2985 Clear 11 1019 82 10000 2.57 120 15:56 20.06.2022
2986 Fog 8 1018 96 9000 1.03 0 12:54 20.06.2022
2987 Clear 8 1018 88 10000 2.57 90 10:58 20.06.2022
2988 Clear 9 1018 78 10000 1.54 150 09:41 20.06.2022
2989 Clear 9 1018 74 10000 3.09 120 08:44 20.06.2022
2990 Clear 10 1019 62 10000 2.57 130 06:19 20.06.2022
2991 Clear 11 1018 58 10000 0 0 02:29 20.06.2022
2992 Clear 12 1018 46 10000 0.51 270 00:26 20.06.2022
2993 Clear 15 1017 35 10000 2.06 280 22:59 19.06.2022
2994 Clear 17 1016 32 10000 3.6 310 21:58 19.06.2022
2995 Clear 17 1016 31 10000 3.6 310 21:40 19.06.2022
2996 Clear 16 1016 34 10000 4.12 290 20:39 19.06.2022
2997 Clear 17 1017 36 10000 4.12 300 19:48 19.06.2022
2998 Clear 16 1017 36 10000 5.14 300 18:57 19.06.2022
2999 Clear 16 1017 38 10000 5.14 300 18:30 19.06.2022
3000 Clear 15 1018 42 10000 5.66 300 17:22 19.06.2022
3001 Clear 12 1018 50 10000 4.63 320 16:35 19.06.2022
3002 Clear 11 1019 55 10000 5.66 320 15:42 19.06.2022
3003 Clear 9 1018 61 10000 6.69 320 14:58 19.06.2022
3004 Clear 8 1017 64 10000 6.69 320 14:20 19.06.2022
3005 Clear 8 1017 63 10000 5.66 320 13:36 19.06.2022
3006 Clear 7 1017 66 10000 5.14 320 11:38 19.06.2022
3007 Clear 8 1016 65 10000 5.66 320 10:31 19.06.2022
3008 Clear 9 1017 59 10000 6.69 320 08:49 19.06.2022
3009 Clear 9 1017 59 10000 6.69 320 08:19 19.06.2022
3010 Clear 11 1017 61 10000 5.14 330 05:44 19.06.2022
3011 Clear 11 1017 52 8000 3.6 320 02:32 19.06.2022
3012 Clear 12 1016 47 10000 2.57 320 00:25 19.06.2022
3013 Clear 14 1016 38 10000 3.09 320 23:36 18.06.2022
3014 Clear 15 1016 35 10000 4.12 310 22:44 18.06.2022
3015 Clear 16 1016 33 10000 4.12 300 21:38 18.06.2022
3016 Clear 15 1017 34 10000 4.63 290 20:42 18.06.2022
3017 Clear 14 1017 35 10000 5.66 300 19:40 18.06.2022
3018 Clear 13 1018 36 10000 5.14 290 18:53 18.06.2022
3019 Clear 11 1019 38 10000 4.12 300 17:35 18.06.2022
3020 Clear 11 1019 35 10000 6.17 300 16:59 18.06.2022
3021 Clear 8 1019 38 10000 5.14 300 15:37 18.06.2022
3022 Clear 6 1019 47 10000 3.6 300 14:46 18.06.2022
3023 Clear 4 1019 53 10000 1.54 290 13:30 18.06.2022
3024 Clear 5 1018 51 10000 2.06 270 11:56 18.06.2022
3025 Clear 5 1018 54 10000 1.03 0 10:55 18.06.2022
3026 Clear 5 1018 52 10000 1.54 270 09:27 18.06.2022
3027 Clear 5 1018 53 10000 1.54 290 08:30 18.06.2022
3028 Clear 5 1018 53 10000 1.54 300 07:20 18.06.2022
3029 Clear 7 1017 43 10000 3.09 230 03:46 18.06.2022
3030 Clear 9 1016 43 10000 4.12 240 01:26 18.06.2022
3031 Clear 9 1016 43 10000 4.12 240 01:26 18.06.2022
3032 Clear 9 1015 42 10000 4.12 240 00:48 18.06.2022
3033 Clear 9 1015 41 10000 0.89 248 23:58 17.06.2022
3034 Clear 10 1014 38 10000 4.63 240 23:24 17.06.2022
3035 Clear 12 1012 37 10000 4.63 250 21:27 17.06.2022
3036 Clear 12 1012 40 10000 5.14 250 20:24 17.06.2022
3037 Clear 12 1012 47 10000 4.63 0 18:49 17.06.2022
3038 Clear 11 1012 52 10000 4.12 0 17:44 17.06.2022
3039 Clear 10 1012 60 10000 4.63 250 16:43 17.06.2022
3040 Clear 9 1012 76 10000 3.6 0 15:49 17.06.2022
3041 Clear 8 1012 81 10000 3.6 0 15:22 17.06.2022
3042 Clouds 6 1011 89 10000 3.09 260 14:20 17.06.2022
3043 Clouds 6 1011 89 10000 3.09 260 14:20 17.06.2022
3044 Clouds 6 1011 87 10000 2.06 260 13:46 17.06.2022
3045 Clouds 6 1011 87 10000 2.06 260 13:24 17.06.2022
3046 Clear 7 1010 87 10000 1.54 0 11:58 17.06.2022
3047 Clear 7 1010 87 10000 1.54 0 11:36 17.06.2022
3048 Clouds 7 1011 93 9000 3.09 220 10:52 17.06.2022
3049 Mist 8 1012 96 2600 3.09 200 08:30 17.06.2022
3050 Mist 9 1012 93 2300 2.06 0 07:47 17.06.2022
3051 Mist 9 1012 96 2300 1.54 0 05:57 17.06.2022
3052 Mist 9 1011 96 1100 2.06 220 03:19 17.06.2022
3053 Clouds 10 1012 99 10000 0.89 135 00:42 17.06.2022
3054 Clouds 14 1010 75 9000 2.57 120 22:45 16.06.2022
3055 Clouds 15 1010 72 9000 2.57 120 22:20 16.06.2022
3056 Clouds 16 1011 69 9000 1.03 0 21:19 16.06.2022
3057 Clouds 16 1011 74 9000 1.03 0 20:50 16.06.2022
3058 Clouds 16 1012 75 6000 1.54 10 19:57 16.06.2022
3059 Clouds 15 1013 82 6000 2.06 20 18:34 16.06.2022
3060 Mist 14 1014 87 4000 2.06 20 17:44 16.06.2022
3061 Mist 13 1015 88 4000 2.57 70 16:46 16.06.2022
3062 Mist 13 1015 93 3500 2.57 100 15:24 16.06.2022
3063 Mist 12 1015 93 3000 2.57 120 14:56 16.06.2022
3064 Mist 10 1015 99 2000 2.57 120 13:45 16.06.2022
3065 Rain 10 1015 99 6000 1.54 100 12:37 16.06.2022
3066 Fog 10 1015 94 9000 0 0 11:54 16.06.2022
3067 Fog 10 1015 94 9000 0 0 11:18 16.06.2022
3068 Fog 10 1015 94 10000 0 0 10:33 16.06.2022
3069 Fog 10 1015 95 10000 0.51 0 09:25 16.06.2022
3070 Clear 11 1015 93 10000 0.51 0 08:46 16.06.2022
3071 Clear 12 1015 91 10000 1.03 310 07:29 16.06.2022
3072 Fog 12 1016 92 9000 1.54 310 05:31 16.06.2022
3073 Clouds 12 1015 92 9000 0.51 0 02:52 16.06.2022
3074 Clouds 13 1015 92 9000 1.54 90 01:51 16.06.2022
3075 Clouds 13 1015 91 9000 1.54 90 01:21 16.06.2022
3076 Clouds 13 1015 91 9000 1.54 90 01:21 16.06.2022
3077 Clear 14 1015 84 10000 1.54 90 23:49 15.06.2022
3078 Clear 15 1015 79 10000 2.06 90 22:44 15.06.2022
3079 Clear 16 1014 74 10000 2.06 70 21:23 15.06.2022
3080 Clear 16 1015 73 10000 1.54 60 20:56 15.06.2022
3081 Clear 16 1015 72 10000 1.54 60 20:35 15.06.2022
3082 Clear 16 1015 74 10000 1.54 30 19:30 15.06.2022
3083 Clouds 16 1017 64 10000 1.94 360 17:58 15.06.2022
3084 Clouds 16 1017 70 10000 1.94 360 17:33 15.06.2022
3085 Clear 13 1017 79 10000 2.06 340 15:46 15.06.2022
3086 Clear 12 1017 91 10000 2.06 350 14:30 15.06.2022
3087 Clouds 10 1017 93 9000 2.06 350 12:56 15.06.2022
3088 Clouds 10 1017 93 9000 2.06 350 12:32 15.06.2022
3089 Fog 9 1016 99 8000 0 0 10:27 15.06.2022
3090 Fog 10 1017 95 5000 1.03 280 09:53 15.06.2022
3091 Fog 10 1017 97 900 0 0 08:50 15.06.2022
3092 Clear 12 1017 92 10000 3.09 350 06:42 15.06.2022
3093 Clear 12 1017 93 10000 1.54 80 04:47 15.06.2022
3094 Clear 12 1016 92 10000 3.09 110 01:55 15.06.2022
3095 Clear 12 1016 89 10000 4.12 110 00:51 15.06.2022
3096 Clear 13 1016 80 10000 2.06 80 23:40 14.06.2022
3097 Clear 14 1015 78 10000 2.06 80 23:21 14.06.2022
3098 Clear 15 1015 75 10000 2.06 80 22:23 14.06.2022
3099 Clouds 15 1015 71 10000 1.54 60 21:40 14.06.2022
3100 Clouds 16 1016 69 10000 2.06 90 20:56 14.06.2022
3101 Clouds 16 1016 69 10000 2.06 90 20:31 14.06.2022
3102 Clouds 17 1017 64 10000 0.45 45 19:20 14.06.2022
3103 Clouds 16 1018 62 10000 0.45 0 18:20 14.06.2022
3104 Clouds 14 1019 67 10000 4.07 358 16:48 14.06.2022
3105 Clear 13 1018 74 10000 5.14 340 15:50 14.06.2022
3106 Clear 12 1018 75 10000 5.14 340 15:28 14.06.2022
3107 Clear 12 1018 77 10000 5.14 340 14:37 14.06.2022
3108 Clear 11 1018 82 10000 5.14 360 13:46 14.06.2022
3109 Clear 10 1018 78 10000 4.63 350 12:45 14.06.2022
3110 Clear 10 1018 78 10000 4.12 350 11:38 14.06.2022
3111 Clear 10 1018 77 10000 2.57 340 10:48 14.06.2022
3112 Clear 10 1018 78 10000 2.57 340 10:22 14.06.2022
3113 Clear 10 1018 77 10000 4.63 360 08:48 14.06.2022
3114 Clear 11 1019 75 10000 4.12 350 07:35 14.06.2022
3115 Clear 12 1019 75 10000 4.12 10 05:29 14.06.2022
3116 Clear 13 1020 75 10000 2.57 20 02:58 14.06.2022
3117 Clear 13 1020 82 10000 3.09 80 00:54 14.06.2022
3118 Clear 14 1020 68 10000 2.57 70 23:41 13.06.2022
3119 Clear 16 1020 57 10000 2.06 40 22:26 13.06.2022
3120 Clear 17 1021 54 10000 2.06 30 21:52 13.06.2022
3121 Clouds 18 1021 48 10000 3.77 17 20:42 13.06.2022
3122 Clouds 18 1021 47 10000 3.81 15 19:35 13.06.2022
3123 Clouds 17 1023 49 10000 3.84 0 18:28 13.06.2022
3124 Clouds 17 1024 51 10000 0.89 0 17:47 13.06.2022
3125 Clear 14 1024 61 10000 2.57 350 16:52 13.06.2022
3126 Clear 12 1024 69 10000 3.09 340 15:39 13.06.2022
3127 Clear 11 1024 74 10000 2.06 320 14:47 13.06.2022
3128 Clear 9 1024 77 10000 2.06 320 13:54 13.06.2022
3129 Clear 8 1023 79 10000 2.06 310 12:48 13.06.2022
3130 Clear 9 1023 79 10000 1.54 310 11:34 13.06.2022
3131 Fog 9 1023 83 10000 1.54 310 10:27 13.06.2022
3132 Fog 8 1023 88 10000 0 0 09:39 13.06.2022
3133 Fog 8 1024 90 9000 0.51 0 07:53 13.06.2022
3134 Fog 9 1024 84 9000 0 0 06:28 13.06.2022
3135 Clear 10 1024 68 10000 1.03 0 03:18 13.06.2022
3136 Clouds 11 1024 67 9000 0 0 01:38 13.06.2022
3137 Clouds 11 1024 67 9000 0 0 00:22 13.06.2022
3138 Clear 12 1023 61 9000 1.54 80 23:25 12.06.2022
3139 Clear 14 1023 54 9000 1.54 60 22:22 12.06.2022
3140 Clear 15 1023 47 9000 1.54 50 21:27 12.06.2022
3141 Clear 15 1023 51 9000 2.06 50 20:33 12.06.2022
3142 Clear 16 1022 42 10000 1.11 12 19:30 12.06.2022
3143 Clear 16 1024 39 10000 1.38 297 17:54 12.06.2022
3144 Clear 13 1025 46 10000 1.03 0 16:34 12.06.2022
3145 Clear 10 1025 53 10000 0 0 15:18 12.06.2022
3146 Clear 8 1025 60 10000 1.03 0 14:29 12.06.2022
3147 Clear 7 1024 63 10000 1.03 250 13:55 12.06.2022
3148 Clear 7 1024 60 10000 0.51 0 12:43 12.06.2022
3149 Clear 8 1023 55 10000 0.51 0 11:40 12.06.2022
3150 Clear 7 1022 55 10000 1.03 0 10:45 12.06.2022
3151 Clear 7 1022 58 9000 0 0 09:25 12.06.2022
3152 Clear 7 1022 59 9000 0 0 08:46 12.06.2022
3153 Clear 7 1023 57 8000 0 0 07:38 12.06.2022
3154 Clear 8 1023 55 7000 0 0 05:29 12.06.2022
3155 Clouds 9 1023 49 8000 0 0 03:29 12.06.2022
3156 Clear 10 1023 49 10000 1.03 0 01:42 12.06.2022
3157 Clear 10 1023 47 10000 0 0 00:58 12.06.2022
3158 Clear 11 1023 44 10000 0 0 00:21 12.06.2022
3159 Clear 12 1022 40 10000 1.54 250 23:44 11.06.2022
3160 Clear 14 1022 34 10000 2.06 250 22:39 11.06.2022
3161 Clear 14 1022 32 10000 3.6 260 21:53 11.06.2022
3162 Clear 15 1023 30 10000 2.57 240 20:38 11.06.2022
3163 Clear 14 1023 31 10000 3.09 230 19:59 11.06.2022
3164 Clear 14 1023 31 10000 3.09 230 19:26 11.06.2022
3165 Clear 13 1024 34 10000 3.09 240 18:34 11.06.2022
3166 Clear 12 1025 34 10000 3.09 210 17:51 11.06.2022
3167 Clear 12 1025 33 10000 3.09 210 17:27 11.06.2022
3168 Clear 10 1025 37 10000 3.09 230 16:56 11.06.2022
3169 Clear 10 1025 38 10000 3.09 230 16:29 11.06.2022
3170 Clear 8 1025 43 10000 3.09 0 15:42 11.06.2022
3171 Clear 4 1025 55 10000 2.06 240 13:53 11.06.2022
3172 Clear 3 1025 55 10000 2.57 230 12:51 11.06.2022
3173 Clear 3 1025 60 10000 4.27 237 10:54 11.06.2022
3174 Clear 4 1024 53 10000 2.57 240 09:55 11.06.2022
3175 Clear 4 1024 50 10000 2.57 240 09:19 11.06.2022
3176 Clear 4 1025 53 10000 2.06 240 07:41 11.06.2022
3177 Clear 5 1026 53 10000 2.06 250 06:30 11.06.2022
3178 Clear 5 1026 48 10000 2.06 240 04:30 11.06.2022
3179 Clear 7 1026 38 10000 2.57 250 01:53 11.06.2022
3180 Clear 8 1026 37 10000 2.57 250 01:32 11.06.2022
3181 Clear 8 1025 37 10000 5.13 236 23:49 10.06.2022
3182 Clear 10 1025 25 10000 3.6 220 22:31 10.06.2022
3183 Clear 11 1025 24 10000 2.57 240 21:50 10.06.2022
3184 Clear 11 1025 26 10000 3.6 0 20:41 10.06.2022
3185 Clear 11 1025 26 10000 3.6 0 20:21 10.06.2022
3186 Clear 10 1026 28 10000 4.63 230 19:20 10.06.2022
3187 Clear 10 1027 29 10000 3.6 0 18:55 10.06.2022
3188 Clear 9 1027 36 10000 4.12 0 17:55 10.06.2022
3189 Clear 9 1028 36 10000 4.12 0 17:33 10.06.2022
3190 Clear 8 1028 43 10000 2.57 220 16:47 10.06.2022
3191 Clear 6 1028 54 10000 2.06 0 15:40 10.06.2022
3192 Clear 5 1029 60 10000 3.09 220 14:34 10.06.2022
3193 Clear 4 1028 66 10000 2.06 0 13:23 10.06.2022
3194 Clear 5 1027 66 10000 2.57 200 11:59 10.06.2022
3195 Clear 5 1027 65 10000 2.57 200 11:25 10.06.2022
3196 Clear 5 1027 67 10000 3.6 0 10:35 10.06.2022
3197 Clear 6 1027 67 10000 2.57 220 09:21 10.06.2022
3198 Clear 7 1026 64 10000 3.09 190 07:51 10.06.2022
3199 Clear 7 1026 63 10000 3.6 190 06:47 10.06.2022
3200 Clear 8 1025 62 10000 3.6 190 06:28 10.06.2022
3201 Clear 9 1025 61 10000 3.6 180 04:55 10.06.2022
3202 Clear 10 1023 84 10000 2.06 230 02:31 10.06.2022
3203 Clear 11 1023 84 10000 2.06 220 01:37 10.06.2022
3204 Clouds 12 1021 77 8000 2.06 230 23:58 09.06.2022
3205 Clouds 14 1020 73 7000 2.06 220 22:30 09.06.2022
3206 Clouds 15 1020 70 7000 3.09 220 21:43 09.06.2022
3207 Clouds 15 1019 69 7000 3.09 220 21:24 09.06.2022
3208 Clouds 16 1019 68 7000 3.09 220 20:38 09.06.2022
3209 Clouds 14 1018 68 6000 1.54 0 19:43 09.06.2022
3210 Mist 15 1019 76 4000 2.57 270 18:37 09.06.2022
3211 Mist 13 1020 93 4000 2.06 240 17:28 09.06.2022
3212 Mist 11 1020 96 3100 3.09 270 16:28 09.06.2022
3213 Mist 10 1020 96 3200 0.51 0 14:45 09.06.2022
3214 Mist 10 1020 97 3200 0.51 0 14:24 09.06.2022
3215 Mist 10 1019 97 3000 1.54 0 13:30 09.06.2022
3216 Mist 9 1019 97 3200 1.03 0 12:51 09.06.2022
3217 Mist 9 1017 100 3000 1.54 290 11:20 09.06.2022
3218 Fog 9 1016 100 500 1.03 0 09:55 09.06.2022
3219 Fog 9 1016 100 500 1.03 0 09:55 09.06.2022
3220 Fog 9 1017 100 900 2.57 310 09:36 09.06.2022
3221 Mist 9 1017 100 1700 1.54 330 08:27 09.06.2022
3222 Fog 9 1018 100 200 1.03 0 07:24 09.06.2022
3223 Clouds 10 1017 93 8000 3.09 310 03:29 09.06.2022
3224 Mist 10 1017 93 3200 2.57 360 00:32 09.06.2022
3225 Mist 10 1017 90 1800 2.06 30 22:59 08.06.2022
3226 Mist 10 1016 87 1800 2.06 30 22:30 08.06.2022
3227 Mist 11 1016 82 1800 2.06 20 21:59 08.06.2022
3228 Mist 12 1017 81 1800 2.06 20 21:31 08.06.2022
3229 Mist 13 1016 75 2000 2.57 30 20:24 08.06.2022
3230 Mist 13 1017 73 2500 2.57 20 19:39 08.06.2022
3231 Mist 13 1018 68 3000 2.57 360 18:48 08.06.2022
3232 Mist 12 1018 74 5000 3.09 10 17:35 08.06.2022
3233 Clear 11 1018 81 10000 1.54 310 15:52 08.06.2022
3234 Clouds 8 1018 93 9000 2.06 330 14:18 08.06.2022
3235 Clouds 8 1018 93 7000 1.03 0 12:29 08.06.2022
3236 Clouds 8 1017 93 8000 2.06 300 11:34 08.06.2022
3237 Clouds 9 1016 93 10000 1.54 320 10:30 08.06.2022
3238 Clouds 9 1017 95 10000 1.03 0 09:22 08.06.2022
3239 Clouds 8 1016 92 10000 1.54 330 08:43 08.06.2022
3240 Clouds 9 1017 94 10000 1.54 280 06:35 08.06.2022
3241 Clouds 10 1016 93 10000 3.09 330 04:22 08.06.2022
3242 Clouds 11 1014 91 10000 3.09 20 00:49 08.06.2022
3243 Mist 10 1014 93 4000 2.06 10 23:30 07.06.2022
3244 Mist 10 1014 93 3000 2.57 10 22:48 07.06.2022
3245 Mist 10 1014 93 2000 3.09 30 22:30 07.06.2022
3246 Fog 10 1014 93 500 2.57 10 21:35 07.06.2022
3247 Mist 10 1014 93 1500 3.09 20 20:59 07.06.2022
3248 Mist 10 1014 93 1500 3.09 20 20:33 07.06.2022
3249 Mist 11 1015 93 2000 2.57 360 19:45 07.06.2022
3250 Fog 12 1016 86 600 2.06 10 18:24 07.06.2022
3251 Fog 11 1016 87 500 2.06 30 17:27 07.06.2022
3252 Fog 11 1017 93 400 1.54 360 16:43 07.06.2022
3253 Fog 11 1017 97 500 2.06 340 15:54 07.06.2022
3254 Fog 10 1017 97 200 1.54 320 15:26 07.06.2022
3255 Fog 9 1017 98 300 2.06 350 14:51 07.06.2022
3256 Fog 9 1017 97 100 1.03 0 14:32 07.06.2022
3257 Fog 8 1017 100 100 2.06 330 13:31 07.06.2022
3258 Fog 8 1016 99 100 3.09 320 12:49 07.06.2022
3259 Fog 8 1016 99 3000 1.54 330 11:47 07.06.2022
3260 Mist 9 1016 99 4000 1.54 310 10:26 07.06.2022
3261 Mist 9 1017 98 1200 2.06 320 08:50 07.06.2022
3262 Fog 9 1017 98 50 1.54 320 07:34 07.06.2022
3263 Fog 10 1017 98 3500 0.51 260 06:18 07.06.2022
3264 Mist 9 1018 97 1500 2.06 360 03:31 07.06.2022
3265 Fog 10 1018 100 200 2.06 30 00:45 07.06.2022
3266 Fog 11 1017 98 100 0.51 0 23:41 06.06.2022
3267 Fog 12 1017 93 200 1.03 0 22:53 06.06.2022
3268 Clear 14 1017 83 10000 0.82 102 21:57 06.06.2022
3269 Fog 14 1017 78 400 1.54 10 20:42 06.06.2022
3270 Clear 15 1017 68 10000 1.79 200 19:24 06.06.2022
3271 Fog 13 1017 79 500 2.06 10 18:47 06.06.2022
3272 Fog 12 1018 83 500 1.54 60 17:55 06.06.2022
3273 Fog 11 1018 94 400 2.06 80 16:55 06.06.2022
3274 Fog 12 1018 92 2000 2.06 60 15:45 06.06.2022
3275 Clouds 11 1017 94 6000 0.51 0 14:59 06.06.2022
3276 Mist 8 1016 97 5000 1.54 200 13:43 06.06.2022
3277 Mist 8 1016 97 5000 1.54 200 13:19 06.06.2022
3278 Clouds 8 1016 96 6000 2.06 200 12:33 06.06.2022
3279 Clouds 8 1016 96 6000 1.03 0 11:45 06.06.2022
3280 Clouds 9 1016 94 6000 1.03 0 09:51 06.06.2022
3281 Fog 9 1016 95 5000 0 0 08:44 06.06.2022
3282 Mist 9 1016 93 5000 0.51 240 07:44 06.06.2022
3283 Mist 10 1016 92 5000 1.54 240 06:49 06.06.2022
3284 Clouds 11 1016 92 7000 1.03 0 04:36 06.06.2022
3285 Clouds 13 1016 83 9000 1.03 0 01:31 06.06.2022
3286 Clouds 13 1016 85 9000 0 0 00:55 06.06.2022
3287 Clouds 13 1016 84 9000 0 0 00:33 06.06.2022
3288 Clouds 14 1016 80 8000 1.54 20 22:58 05.06.2022
3289 Clouds 14 1016 76 7000 1.54 10 21:59 05.06.2022
3290 Clouds 15 1016 76 7000 1.54 20 20:23 05.06.2022
3291 Clouds 13 1016 78 8000 1.54 30 18:57 05.06.2022
3292 Clouds 14 1017 81 8000 2.06 360 17:59 05.06.2022
3293 Clouds 14 1017 81 8000 2.06 360 17:38 05.06.2022
3294 Clouds 13 1017 81 8000 2.06 360 17:20 05.06.2022
3295 Clouds 13 1018 86 8000 1.54 360 16:47 05.06.2022
3296 Clouds 11 1018 91 8000 0.51 0 15:22 05.06.2022
3297 Clouds 10 1017 95 8000 0 0 14:18 05.06.2022
3298 Fog 9 1017 96 9000 0 0 11:58 05.06.2022
3299 Fog 9 1016 96 10000 0.51 0 10:45 05.06.2022
3300 Fog 9 1016 95 10000 0.51 0 10:24 05.06.2022
3301 Clouds 9 1017 95 10000 1.03 0 09:29 05.06.2022
3302 Clouds 9 1017 90 10000 1.03 0 08:23 05.06.2022
3303 Clouds 10 1017 87 10000 2.06 80 05:58 05.06.2022
3304 Clear 9 1017 91 10000 3.35 41 05:19 05.06.2022
3305 Clouds 11 1018 88 10000 4.12 120 02:23 05.06.2022
3306 Clouds 11 1017 88 10000 3.6 140 01:23 05.06.2022
3307 Clouds 11 1017 88 10000 3.6 140 01:23 05.06.2022
3308 Clear 13 1017 79 10000 4.63 120 22:49 04.06.2022
3309 Clear 14 1017 71 10000 2.57 100 21:25 04.06.2022
3310 Clear 14 1019 70 10000 1.54 360 19:26 04.06.2022
3311 Clear 12 1021 80 10000 3.6 360 16:48 04.06.2022
3312 Clear 11 1021 80 10000 3.6 360 16:20 04.06.2022
3313 Clear 11 1021 83 10000 4.63 10 15:35 04.06.2022
3314 Clouds 10 1022 88 10000 5.14 20 13:57 04.06.2022
3315 Clear 9 1022 86 10000 4.12 30 11:28 04.06.2022
3316 Clear 9 1022 81 10000 4.12 50 10:52 04.06.2022
3317 Rain 9 1023 81 10000 4.63 50 09:46 04.06.2022
3318 Clear 9 1024 77 10000 4.63 50 08:50 04.06.2022
3319 Clear 9 1024 76 10000 4.63 50 08:31 04.06.2022
3320 Clear 10 1024 72 10000 3.09 40 06:25 04.06.2022
3321 Clear 9 1024 67 10000 5.66 60 03:37 04.06.2022
3322 Clear 10 1024 72 10000 6.17 90 00:21 04.06.2022
3323 Clouds 10 1025 68 10000 5.66 100 22:54 03.06.2022
3324 Clouds 11 1025 65 10000 3.6 70 21:46 03.06.2022
3325 Clouds 11 1025 63 10000 3.6 70 20:40 03.06.2022
3326 Clouds 11 1027 62 10000 3.6 60 19:19 03.06.2022
3327 Clouds 10 1028 67 10000 3.09 40 16:56 03.06.2022
3328 Clouds 10 1029 73 10000 2.06 350 15:52 03.06.2022
3329 Clouds 7 1028 83 9000 2.06 130 13:58 03.06.2022
3330 Clouds 8 1027 82 10000 2.57 80 11:54 03.06.2022
3331 Clouds 7 1027 82 10000 3.09 70 09:56 03.06.2022
3332 Clouds 8 1027 82 10000 3.09 70 09:29 03.06.2022
3333 Clouds 7 1027 75 10000 2.57 90 07:43 03.06.2022
3334 Clear 7 1027 80 10000 1.54 0 06:49 03.06.2022
3335 Clear 7 1027 79 10000 1.54 0 06:27 03.06.2022
3336 Clear 8 1027 64 10000 2.57 130 02:58 03.06.2022
3337 Clear 10 1026 59 10000 1.54 70 23:39 02.06.2022
3338 Clouds 12 1025 52 10000 2.57 40 21:58 02.06.2022
3339 Clouds 12 1024 53 10000 2.57 60 20:34 02.06.2022
3340 Clouds 12 1025 55 10000 3.09 60 19:54 02.06.2022
3341 Clear 12 1025 51 10000 0.44 76 19:36 02.06.2022
3342 Clear 12 1025 51 10000 2.57 60 18:38 02.06.2022
3343 Clear 10 1026 62 10000 2.57 70 16:28 02.06.2022
3344 Clear 9 1026 66 10000 1.03 0 15:46 02.06.2022
3345 Clear 6 1025 66 7000 1.03 0 13:30 02.06.2022
3346 Clear 6 1025 66 7000 1.03 0 13:30 02.06.2022
3347 Clear 5 1025 68 10000 1.03 0 12:46 02.06.2022
3348 Clear 6 1024 64 10000 1.54 200 10:34 02.06.2022
3349 Clear 6 1023 67 10000 1.03 220 09:29 02.06.2022
3350 Clear 6 1023 67 10000 1.03 220 08:30 02.06.2022
3351 Clear 6 1023 68 10000 1.03 200 07:58 02.06.2022
3352 Clear 7 1023 65 10000 1.03 230 06:20 02.06.2022
3353 Clear 9 1023 59 10000 1.03 220 03:49 02.06.2022
3354 Clear 10 1023 54 10000 1.03 190 00:39 02.06.2022
3355 Clear 12 1022 50 9000 2.06 50 22:57 01.06.2022
3356 Clear 12 1022 45 9000 2.57 10 21:45 01.06.2022
3357 Clear 12 1021 47 9000 2.57 10 21:22 01.06.2022
3358 Clear 12 1021 47 9000 2.57 10 21:22 01.06.2022
3359 Clear 12 1021 47 8000 2.57 60 20:38 01.06.2022
3360 Clouds 12 1022 46 9000 2.57 10 19:49 01.06.2022
3361 Clouds 11 1023 47 9000 1.54 30 18:19 01.06.2022
3362 Clouds 11 1023 47 10000 1.54 190 16:46 01.06.2022
3363 Clouds 10 1023 51 7000 1.03 0 15:39 01.06.2022
3364 Clouds 8 1023 64 6000 1.54 100 14:31 01.06.2022
3365 Clouds 6 1022 66 8000 0.51 0 12:42 01.06.2022
3366 Rain 6 1022 71 10000 1.03 0 10:41 01.06.2022
3367 Clear 5 1022 71 10000 0.51 0 09:26 01.06.2022
3368 Clear 5 1022 74 10000 1.03 0 07:56 01.06.2022
3369 Clear 6 1022 72 10000 1.54 310 06:41 01.06.2022
3370 Clear 8 1021 60 10000 2.57 310 01:30 01.06.2022
3371 Clear 9 1021 55 10000 2.06 10 23:47 31.05.2022
3372 Clear 10 1021 48 10000 1.03 0 22:38 31.05.2022
3373 Clear 10 1021 48 10000 1.03 0 22:38 31.05.2022
3374 Clear 11 1021 39 10000 1.03 0 21:46 31.05.2022
3375 Clear 11 1021 41 10000 2.57 310 20:57 31.05.2022
3376 Clear 11 1021 41 10000 2.57 310 20:33 31.05.2022
3377 Clear 11 1022 44 10000 1.54 0 18:57 31.05.2022
3378 Clouds 10 1023 46 10000 1.03 0 17:51 31.05.2022
3379 Clouds 10 1023 47 10000 1.03 0 17:31 31.05.2022
3380 Clear 8 1024 61 10000 1.54 230 15:42 31.05.2022
3381 Clear 5 1024 76 10000 1.03 0 14:34 31.05.2022
3382 Clear 4 1023 79 10000 1.54 220 12:22 31.05.2022
3383 Clear 4 1023 75 10000 1.54 0 11:42 31.05.2022
3384 Clear 5 1022 71 10000 1.03 230 09:49 31.05.2022
3385 Clear 5 1023 68 10000 1.03 220 07:36 31.05.2022
3386 Clear 6 1023 65 10000 1.03 0 05:24 31.05.2022
3387 Clouds 7 1023 65 10000 3.23 193 02:33 31.05.2022
3388 Clouds 9 1021 49 10000 2.06 210 23:29 30.05.2022
3389 Clouds 10 1021 47 10000 2.06 210 22:59 30.05.2022
3390 Clouds 11 1020 46 10000 2.06 210 22:24 30.05.2022
3391 Clouds 11 1020 47 10000 2.57 0 21:35 30.05.2022
3392 Clouds 11 1019 47 10000 3.09 0 20:22 30.05.2022
3393 Clear 10 1020 47 10000 3.6 0 18:58 30.05.2022
3394 Clear 9 1020 50 10000 3.09 220 17:41 30.05.2022
3395 Clear 9 1020 48 10000 2.57 220 16:45 30.05.2022
3396 Smoke 7 1020 45 9000 3.09 0 15:22 30.05.2022
3397 Clear 4 1018 58 10000 3.09 260 12:37 30.05.2022
3398 Clear 4 1018 59 10000 2.06 270 10:47 30.05.2022
3399 Clear 4 1018 62 10000 2.06 290 09:39 30.05.2022
3400 Clear 5 1018 55 10000 2.06 240 07:23 30.05.2022
3401 Clear 5 1018 54 10000 2.06 0 05:50 30.05.2022
3402 Clear 7 1017 50 10000 1.54 240 02:33 30.05.2022
3403 Clear 9 1016 42 10000 2.57 220 23:23 29.05.2022
3404 Clear 10 1015 39 10000 3.09 0 22:39 29.05.2022
3405 Clear 11 1015 38 10000 3.09 230 21:19 29.05.2022
3406 Clear 10 1015 44 10000 2.57 200 19:38 29.05.2022
3407 Clear 10 1015 44 10000 2.57 200 19:18 29.05.2022
3408 Clear 10 1016 45 10000 3.6 190 17:32 29.05.2022
3409 Clear 8 1016 57 10000 3.09 190 15:49 29.05.2022
3410 Clear 7 1016 58 10000 3.09 190 15:23 29.05.2022
3411 Clear 6 1016 66 10000 3.09 0 14:18 29.05.2022
3412 Clear 10 1014 67 10000 3.6 200 11:48 29.05.2022
3413 Clouds 11 1014 69 10000 3.09 230 10:40 29.05.2022
3414 Rain 11 1013 76 9000 2.06 240 09:31 29.05.2022
3415 Clouds 11 1013 78 9000 0.51 0 06:24 29.05.2022
3416 Clear 11 1013 77 10000 1.03 0 04:45 29.05.2022
3417 Clear 11 1013 77 10000 1.03 0 04:19 29.05.2022
3418 Clear 11 1012 71 10000 2.57 130 23:53 28.05.2022
3419 Clear 12 1012 69 10000 2.57 130 23:34 28.05.2022
3420 Clear 12 1012 68 10000 2.57 70 22:40 28.05.2022
3421 Clouds 12 1012 72 10000 3.6 70 21:38 28.05.2022
3422 Clouds 13 1013 74 10000 3.6 60 19:51 28.05.2022
3423 Clouds 12 1014 76 10000 3.09 50 18:54 28.05.2022
3424 Clouds 13 1015 75 10000 3.09 70 17:37 28.05.2022
3425 Clouds 13 1016 74 10000 2.57 60 16:43 28.05.2022
3426 Clouds 13 1017 74 10000 2.57 60 15:43 28.05.2022
3427 Clouds 11 1017 81 10000 2.06 120 14:26 28.05.2022
3428 Clouds 10 1017 81 10000 1.54 130 12:51 28.05.2022
3429 Clouds 11 1017 81 10000 1.54 130 12:33 28.05.2022
3430 Clouds 11 1017 81 10000 1.54 140 11:21 28.05.2022
3431 Clouds 11 1017 79 10000 1.03 0 09:58 28.05.2022
3432 Clouds 11 1017 77 10000 1.03 0 09:21 28.05.2022
3433 Clear 10 1018 79 10000 1.54 150 07:23 28.05.2022
3434 Clear 11 1018 82 10000 2.06 120 05:36 28.05.2022
3435 Clouds 11 1018 84 10000 3.09 110 02:44 28.05.2022
3436 Clouds 13 1018 78 10000 2.57 80 00:32 28.05.2022
3437 Clouds 13 1017 77 10000 2.57 70 22:53 27.05.2022
3438 Clouds 14 1017 72 10000 2.57 70 21:44 27.05.2022
3439 Clouds 14 1017 69 10000 2.57 60 20:50 27.05.2022
3440 Clouds 14 1017 70 10000 2.57 60 20:24 27.05.2022
3441 Clouds 14 1018 70 10000 3.09 60 19:42 27.05.2022
3442 Clouds 14 1018 65 10000 3.09 60 19:21 27.05.2022
3443 Clouds 14 1019 65 10000 3.6 130 17:54 27.05.2022
3444 Clouds 14 1020 71 10000 2.57 130 16:38 27.05.2022
3445 Clouds 11 1019 81 10000 2.57 160 15:22 27.05.2022
3446 Clouds 10 1020 91 9000 1.54 190 13:53 27.05.2022
3447 Clouds 10 1019 91 10000 2.06 150 12:39 27.05.2022
3448 Clouds 10 1019 90 10000 2.57 140 11:33 27.05.2022
3449 Clouds 10 1019 87 10000 1.54 160 10:54 27.05.2022
3450 Clouds 10 1019 86 10000 1.54 160 10:26 27.05.2022
3451 Clouds 10 1019 84 10000 1.54 180 09:32 27.05.2022
3452 Clouds 11 1020 82 10000 3.6 140 07:42 27.05.2022
3453 Clouds 12 1021 80 10000 6.17 110 05:27 27.05.2022
3454 Clouds 11 1022 77 10000 6.69 100 02:25 27.05.2022
3455 Clouds 11 1022 74 10000 6.17 110 00:19 27.05.2022
3456 Clouds 12 1022 68 10000 6.69 100 22:30 26.05.2022
3457 Clouds 13 1022 63 10000 7.2 100 21:34 26.05.2022
3458 Clouds 13 1024 67 10000 5.66 100 19:51 26.05.2022
3459 Clouds 13 1024 67 10000 5.66 100 19:18 26.05.2022
3460 Clear 12 1026 66 10000 6.69 130 17:36 26.05.2022
3461 Clear 12 1026 66 10000 6.69 130 17:36 26.05.2022
3462 Clear 12 1027 66 10000 6.17 130 16:35 26.05.2022
3463 Clear 11 1027 63 10000 4.12 140 15:34 26.05.2022
3464 Clear 8 1027 73 10000 3.09 160 14:21 26.05.2022
3465 Clear 6 1027 81 10000 2.06 170 12:35 26.05.2022
3466 Clear 7 1026 83 10000 2.57 170 11:21 26.05.2022
3467 Clear 8 1026 87 10000 2.06 160 09:40 26.05.2022
3468 Clear 8 1026 90 10000 3.09 160 08:57 26.05.2022
3469 Clear 8 1026 93 10000 3.09 170 07:38 26.05.2022
3470 Clear 9 1025 89 10000 3.09 170 02:59 26.05.2022
3471 Clouds 10 1024 88 10000 3.09 160 00:20 26.05.2022
3472 Clouds 10 1022 88 10000 3.6 150 23:19 25.05.2022
3473 Clouds 11 1021 87 10000 5.14 140 21:46 25.05.2022
3474 Drizzle 11 1020 90 9000 4.63 150 20:53 25.05.2022
3475 Drizzle 10 1020 85 9000 5.66 160 19:59 25.05.2022
3476 Drizzle 10 1020 87 8000 7.72 160 18:48 25.05.2022
3477 Clouds 11 1020 83 10000 6.17 160 17:30 25.05.2022
3478 Clouds 11 1020 88 10000 6.17 150 16:36 25.05.2022
3479 Clouds 11 1019 94 10000 4.63 160 15:53 25.05.2022
3480 Clouds 12 1019 96 7000 5.66 150 14:51 25.05.2022
3481 Clouds 13 1018 96 7000 5.66 150 14:32 25.05.2022
3482 Thunderstorm 12 1017 99 3000 4.63 170 13:28 25.05.2022
3483 Rain 13 1018 98 8285 0.89 90 11:51 25.05.2022
3484 Rain 14 1016 99 5000 7.72 100 10:42 25.05.2022
3485 Rain 14 1016 99 4000 6.17 110 09:46 25.05.2022
3486 Clouds 13 1018 96 10000 0.89 135 08:22 25.05.2022
3487 Clouds 13 1019 90 10000 0.89 225 06:37 25.05.2022
3488 Clear 14 1017 84 10000 2.06 160 02:46 25.05.2022
3489 Clear 16 1015 81 10000 2.06 120 23:52 24.05.2022
3490 Clear 17 1015 80 10000 2.06 120 23:23 24.05.2022
3491 Clear 19 1014 72 10000 2.06 60 22:18 24.05.2022
3492 Clouds 19 1014 72 9000 2.06 40 21:38 24.05.2022
3493 Clouds 19 1014 71 9000 2.06 40 21:19 24.05.2022
3494 Clear 20 1014 62 10000 2.06 270 19:32 24.05.2022
3495 Clear 19 1014 64 10000 3.09 290 18:40 24.05.2022
3496 Clear 17 1015 73 10000 3.09 340 16:40 24.05.2022
3497 Rain 16 1015 75 10000 2.57 330 15:54 24.05.2022
3498 Rain 15 1015 79 10000 2.57 330 14:45 24.05.2022
3499 Clear 14 1014 85 10000 3.09 330 13:48 24.05.2022
3500 Clear 14 1013 85 10000 2.57 330 12:35 24.05.2022
3501 Clear 14 1013 88 10000 3.09 340 09:52 24.05.2022
3502 Clear 14 1012 87 10000 3.09 340 09:27 24.05.2022
3503 Clear 15 1013 88 10000 3.09 340 08:42 24.05.2022
3504 Clear 15 1014 86 10000 2.06 20 06:42 24.05.2022
3505 Clear 15 1014 82 10000 4.12 80 03:48 24.05.2022
3506 Clouds 15 1015 91 10000 1.54 120 01:47 24.05.2022
3507 Clear 16 1015 89 10000 2.57 100 00:53 24.05.2022
3508 Clear 18 1015 74 10000 1.54 90 22:25 23.05.2022
3509 Clear 18 1015 73 10000 2.06 90 21:53 23.05.2022
3510 Clear 18 1016 74 10000 2.06 70 20:53 23.05.2022
3511 Clouds 20 1015 66 10000 1.98 32 19:56 23.05.2022
3512 Clear 17 1016 82 10000 2.06 70 19:27 23.05.2022
3513 Clouds 20 1016 71 10000 2.09 28 18:41 23.05.2022
3514 Clear 17 1017 77 10000 2.57 30 17:56 23.05.2022
3515 Clear 16 1018 76 10000 2.06 350 16:40 23.05.2022
3516 Clear 14 1018 91 10000 2.57 350 14:20 23.05.2022
3517 Clear 12 1017 94 10000 2.06 340 11:57 23.05.2022
3518 Clear 12 1017 93 10000 3.09 360 10:58 23.05.2022
3519 Clear 12 1016 93 10000 2.57 350 09:48 23.05.2022
3520 Clear 13 1016 92 10000 2.57 360 08:47 23.05.2022
3521 Clear 13 1017 85 10000 3.09 360 07:37 23.05.2022
3522 Clear 13 1017 85 10000 3.6 360 06:41 23.05.2022
3523 Clear 15 1017 80 10000 3.09 20 03:52 23.05.2022
3524 Clear 15 1017 78 10000 2.06 10 02:18 23.05.2022
3525 Clear 16 1017 70 10000 2.57 330 01:33 23.05.2022
3526 Clear 17 1016 65 10000 3.09 340 23:22 22.05.2022
3527 Clear 18 1016 63 10000 4.63 10 22:33 22.05.2022
3528 Clear 18 1017 69 10000 2.06 60 21:53 22.05.2022
3529 Clouds 20 1017 56 10000 3.24 28 20:50 22.05.2022
3530 Clouds 20 1018 56 10000 2.4 22 20:23 22.05.2022
3531 Clouds 20 1018 58 10000 2.47 26 19:39 22.05.2022
3532 Clouds 19 1019 65 10000 2.84 0 18:52 22.05.2022
3533 Clouds 19 1019 67 10000 3.1 7 18:21 22.05.2022
3534 Clouds 18 1020 65 10000 3.43 2 17:26 22.05.2022
3535 Mist 14 1021 86 1500 2.57 350 15:57 22.05.2022
3536 Mist 13 1021 99 1500 1.54 330 14:48 22.05.2022
3537 Fog 11 1021 100 5000 0 0 13:22 22.05.2022
3538 Mist 10 1020 100 2500 1.54 310 12:48 22.05.2022
3539 Fog 10 1020 96 6000 1.03 0 11:29 22.05.2022
3540 Fog 11 1020 100 4000 0 0 09:40 22.05.2022
3541 Fog 13 1021 93 5000 1.03 0 07:54 22.05.2022
3542 Fog 13 1021 93 5000 1.03 0 07:20 22.05.2022
3543 Clear 13 1021 86 8000 1.03 0 04:59 22.05.2022
3544 Fog 15 1020 88 10000 0.51 0 01:21 22.05.2022
3545 Fog 15 1020 84 10000 0.51 0 00:26 22.05.2022
3546 Clear 16 1020 76 10000 0.51 0 23:47 21.05.2022
3547 Clear 20 1020 53 10000 0.89 90 22:24 21.05.2022
3548 Clear 21 1019 44 10000 0.75 280 21:39 21.05.2022
3549 Clear 21 1019 43 10000 1.32 270 20:48 21.05.2022
3550 Clear 21 1019 43 10000 1.53 279 20:21 21.05.2022
3551 Clouds 21 1020 45 10000 1.72 284 19:24 21.05.2022
3552 Clear 18 1020 58 10000 2.06 290 17:38 21.05.2022
3553 Clear 14 1021 76 10000 1.54 310 15:38 21.05.2022
3554 Clear 13 1021 83 10000 3.09 330 14:37 21.05.2022
3555 Clear 12 1020 85 10000 2.06 320 13:39 21.05.2022
3556 Clear 12 1020 82 10000 1.54 0 12:40 21.05.2022
3557 Clear 12 1019 82 10000 1.54 270 11:54 21.05.2022
3558 Clear 12 1019 81 10000 1.54 300 10:22 21.05.2022
3559 Clear 12 1019 83 10000 2.57 310 09:20 21.05.2022
3560 Clear 12 1019 83 10000 2.57 310 09:20 21.05.2022
3561 Clear 12 1018 81 10000 3.09 310 08:47 21.05.2022
3562 Clouds 13 1019 84 10000 0.45 315 06:22 21.05.2022
3563 Clear 14 1018 78 10000 2.57 310 02:23 21.05.2022
3564 Clear 16 1017 68 10000 3.09 330 23:42 20.05.2022
3565 Clear 17 1016 62 10000 3.6 340 22:41 20.05.2022
3566 Clear 17 1016 61 10000 3.6 340 22:18 20.05.2022
3567 Clear 18 1015 57 10000 3.09 340 21:19 20.05.2022
3568 Clear 18 1015 60 10000 3.6 350 20:51 20.05.2022
3569 Clear 17 1016 60 10000 3.6 350 19:54 20.05.2022
3570 Clear 18 1017 59 10000 4.63 350 18:58 20.05.2022
3571 Clear 17 1017 61 10000 4.63 350 18:23 20.05.2022
3572 Clear 13 1018 77 10000 3.6 340 16:27 20.05.2022
3573 Clear 13 1018 77 10000 3.6 330 15:54 20.05.2022
3574 Clear 11 1018 83 10000 3.6 330 15:20 20.05.2022
3575 Clear 10 1019 86 10000 3.09 320 14:27 20.05.2022
3576 Clear 8 1018 92 10000 2.57 310 12:37 20.05.2022
3577 Clear 9 1018 88 10000 2.06 300 10:47 20.05.2022
3578 Clear 9 1019 87 10000 5.14 320 09:27 20.05.2022
3579 Clear 9 1019 87 10000 4.12 320 08:24 20.05.2022
3580 Clear 10 1020 87 10000 2.57 310 06:42 20.05.2022
3581 Clear 10 1020 82 10000 1.54 310 05:39 20.05.2022
3582 Clear 12 1020 74 10000 3.6 330 01:30 20.05.2022
3583 Clear 12 1020 74 10000 2.57 10 23:46 19.05.2022
3584 Clear 14 1019 72 10000 2.57 20 22:36 19.05.2022
3585 Clear 14 1020 68 10000 2.57 40 21:50 19.05.2022
3586 Clear 15 1020 65 10000 2.57 40 21:24 19.05.2022
3587 Clear 14 1020 65 10000 2.57 20 20:47 19.05.2022
3588 Clouds 14 1021 62 10000 2.57 30 19:54 19.05.2022
3589 Clouds 14 1021 63 10000 1.94 349 19:00 19.05.2022
3590 Clouds 14 1022 62 10000 3.09 350 17:36 19.05.2022
3591 Clouds 12 1022 71 10000 2.06 340 15:43 19.05.2022
3592 Clouds 10 1023 81 8000 1.54 330 14:39 19.05.2022
3593 Clouds 10 1023 83 8000 1.54 330 14:19 19.05.2022
3594 Clouds 8 1022 85 8000 0.51 0 11:53 19.05.2022
3595 Clouds 7 1022 86 8000 0.51 0 10:30 19.05.2022
3596 Clouds 8 1022 85 10000 1.03 0 08:39 19.05.2022
3597 Clouds 9 1023 79 9000 1.54 150 07:18 19.05.2022
3598 Clear 10 1024 72 9000 1.03 0 03:26 19.05.2022
3599 Clear 12 1024 66 10000 2.57 160 00:56 19.05.2022
3600 Clear 13 1024 60 10000 2.06 160 23:21 18.05.2022
3601 Clouds 14 1024 57 10000 1.54 170 22:41 18.05.2022
3602 Clouds 15 1024 56 10000 2.06 190 21:33 18.05.2022
3603 Clouds 15 1024 54 10000 3.6 160 20:55 18.05.2022
3604 Clouds 15 1024 54 10000 3.6 160 20:19 18.05.2022
3605 Clouds 14 1026 57 10000 3.6 160 18:47 18.05.2022
3606 Clouds 13 1027 62 10000 3.6 160 17:41 18.05.2022
3607 Clouds 13 1027 63 10000 3.6 160 17:23 18.05.2022
3608 Clear 12 1027 64 10000 2.57 190 16:36 18.05.2022
3609 Clear 10 1026 68 10000 3.6 190 15:43 18.05.2022
3610 Clear 10 1026 68 10000 3.6 190 15:19 18.05.2022
3611 Clear 9 1026 75 10000 3.6 180 13:53 18.05.2022
3612 Clear 8 1027 79 10000 0.89 135 12:53 18.05.2022
3613 Clouds 9 1025 76 10000 3.6 200 11:47 18.05.2022
3614 Clouds 9 1025 76 10000 3.6 200 11:29 18.05.2022
3615 Clouds 10 1025 74 10000 3.6 200 09:59 18.05.2022
3616 Clouds 9 1024 74 10000 3.6 200 07:56 18.05.2022
3617 Clear 9 1025 75 10000 4.63 200 06:52 18.05.2022
3618 Clouds 11 1025 73 10000 4.12 190 02:47 18.05.2022
3619 Clouds 12 1023 72 10000 4.12 200 00:31 18.05.2022
3620 Clouds 13 1023 72 10000 5.66 200 22:57 17.05.2022
3621 Clouds 14 1022 74 10000 4.63 190 21:21 17.05.2022
3622 Clouds 14 1021 69 10000 5.66 190 20:30 17.05.2022
3623 Clouds 14 1021 69 10000 6.17 190 19:29 17.05.2022
3624 Rain 14 1022 70 10000 4.63 0 18:22 17.05.2022
3625 Clouds 13 1022 73 10000 5.66 200 17:28 17.05.2022
3626 Clouds 12 1022 75 10000 5.14 0 16:36 17.05.2022
3627 Rain 11 1022 83 10000 4.12 0 15:43 17.05.2022
3628 Rain 11 1022 83 10000 5.14 200 14:31 17.05.2022
3629 Rain 11 1021 83 10000 4.63 200 13:54 17.05.2022
3630 Drizzle 10 1021 92 6000 3.6 0 12:32 17.05.2022
3631 Drizzle 9 1020 91 5000 3.6 220 09:53 17.05.2022
3632 Drizzle 9 1020 85 9000 3.6 0 08:44 17.05.2022
3633 Drizzle 9 1021 92 8000 3.09 0 07:18 17.05.2022
3634 Clouds 9 1022 70 10000 4.12 0 04:28 17.05.2022
3635 Clouds 11 1022 58 10000 8.79 200 00:47 17.05.2022
3636 Clouds 13 1021 58 10000 5.14 0 22:44 16.05.2022
3637 Clouds 13 1021 60 10000 5.14 0 22:18 16.05.2022
3638 Clouds 14 1020 64 10000 5.14 190 20:49 16.05.2022
3639 Clouds 14 1020 63 10000 5.66 190 19:59 16.05.2022
3640 Clouds 14 1021 65 10000 5.14 200 18:32 16.05.2022
3641 Clouds 13 1022 70 10000 5.66 200 16:28 16.05.2022
3642 Clouds 12 1022 79 10000 3.09 210 14:42 16.05.2022
3643 Drizzle 10 1021 89 8000 3.6 230 13:25 16.05.2022
3644 Clouds 10 1020 88 10000 4.12 230 11:33 16.05.2022
3645 Drizzle 10 1020 86 8000 3.6 0 09:58 16.05.2022
3646 Clouds 11 1020 77 10000 3.6 230 07:21 16.05.2022
3647 Clouds 12 1021 67 10000 4.12 240 04:41 16.05.2022
3648 Clear 13 1021 46 10000 0.89 90 23:44 15.05.2022
3649 Clear 14 1020 36 10000 4.12 0 22:34 15.05.2022
3650 Clear 15 1020 34 10000 3.6 230 21:47 15.05.2022
3651 Clear 14 1020 36 10000 3.6 0 20:59 15.05.2022
3652 Clear 15 1021 36 10000 3.6 230 19:53 15.05.2022
3653 Clouds 13 1022 48 10000 3.6 220 17:52 15.05.2022
3654 Clear 12 1022 58 10000 2.06 0 16:31 15.05.2022
3655 Clear 9 1022 69 10000 2.06 230 13:59 15.05.2022
3656 Clear 9 1022 68 10000 1.54 210 12:57 15.05.2022
3657 Clear 9 1021 64 10000 2.06 180 11:40 15.05.2022
3658 Clear 10 1021 62 10000 2.06 170 10:29 15.05.2022
3659 Clear 11 1021 60 10000 2.57 180 08:46 15.05.2022
3660 Clear 11 1021 56 10000 3.09 200 06:58 15.05.2022
3661 Rain 12 1021 55 10000 2.57 190 05:52 15.05.2022
3662 Clear 15 1019 44 10000 3.09 180 00:49 15.05.2022
3663 Clear 16 1019 43 10000 2.06 180 23:39 14.05.2022
3664 Clear 17 1019 50 10000 2.06 60 22:59 14.05.2022
3665 Clear 18 1018 54 10000 3.09 40 21:29 14.05.2022
3666 Clear 19 1018 38 10000 2.81 202 20:53 14.05.2022
3667 Clear 19 1018 51 10000 3.09 60 19:39 14.05.2022
3668 Clear 19 1018 52 10000 3.09 60 19:19 14.05.2022
3669 Clouds 19 1018 50 10000 2.06 0 18:44 14.05.2022
3670 Clouds 17 1019 71 10000 2.57 150 16:46 14.05.2022
3671 Clouds 15 1019 79 10000 3.09 160 15:30 14.05.2022
3672 Clouds 14 1020 84 10000 2.06 200 14:34 14.05.2022
3673 Clouds 14 1019 82 10000 0.51 0 12:24 14.05.2022
3674 Clear 14 1019 79 10000 1.03 0 10:59 14.05.2022
3675 Clear 15 1019 78 10000 1.03 0 10:21 14.05.2022
3676 Clear 14 1019 79 10000 1.03 0 09:53 14.05.2022
3677 Clear 14 1019 83 10000 2.57 300 08:49 14.05.2022
3678 Clear 14 1019 84 10000 1.03 0 05:47 14.05.2022
3679 Clear 15 1019 80 10000 1.54 310 02:32 14.05.2022
3680 Clear 17 1018 70 10000 3.6 360 23:36 13.05.2022
3681 Clear 18 1018 66 10000 3.6 10 22:57 13.05.2022
3682 Clear 18 1018 65 10000 3.6 10 22:23 13.05.2022
3683 Clear 18 1017 65 10000 3.09 20 21:38 13.05.2022
3684 Clear 18 1018 65 10000 2.57 50 20:44 13.05.2022
3685 Clear 18 1018 64 10000 2.57 50 20:24 13.05.2022
3686 Clear 18 1018 64 10000 2.06 50 19:21 13.05.2022
3687 Clear 17 1019 63 10000 3.6 350 17:50 13.05.2022
3688 Clear 17 1019 63 10000 3.6 350 17:27 13.05.2022
3689 Clear 16 1019 65 10000 4.12 340 16:18 13.05.2022
3690 Clear 15 1019 71 10000 5.66 360 14:54 13.05.2022
3691 Clear 13 1018 76 10000 3.6 20 13:26 13.05.2022
3692 Clear 13 1018 76 10000 3.6 10 12:25 13.05.2022
3693 Clear 13 1017 75 10000 5.14 360 10:42 13.05.2022
3694 Clear 13 1017 75 10000 5.14 10 09:31 13.05.2022
3695 Clear 13 1017 77 10000 3.6 20 08:23 13.05.2022
3696 Clear 13 1017 78 10000 3.09 40 07:31 13.05.2022
3697 Clear 14 1019 78 10000 5.66 60 05:58 13.05.2022
3698 Clear 14 1018 77 10000 4.63 90 01:49 13.05.2022
3699 Clear 14 1018 69 10000 5.66 110 23:43 12.05.2022
3700 Clear 15 1018 68 10000 5.14 110 22:42 12.05.2022
3701 Clear 16 1018 63 10000 4.12 90 21:36 12.05.2022
3702 Clear 16 1018 62 10000 4.63 80 20:22 12.05.2022
3703 Clouds 16 1021 66 10000 2.57 40 18:31 12.05.2022
3704 Clouds 16 1022 70 10000 4.12 110 16:52 12.05.2022
3705 Clouds 14 1022 78 10000 4.12 110 15:30 12.05.2022
3706 Clouds 11 1022 87 9000 3.09 130 13:59 12.05.2022
3707 Clouds 10 1022 89 9000 3.09 130 13:21 12.05.2022
3708 Clear 10 1021 81 10000 2.06 140 10:35 12.05.2022
3709 Clear 10 1022 79 10000 2.57 150 08:58 12.05.2022
3710 Clear 10 1022 78 10000 2.57 150 08:37 12.05.2022
3711 Clear 11 1022 75 10000 4.63 130 07:36 12.05.2022
3712 Clear 12 1022 71 10000 3.09 140 04:50 12.05.2022
3713 Clouds 14 1022 63 10000 4.63 140 01:55 12.05.2022
3714 Clouds 15 1022 54 10000 7.72 110 23:42 11.05.2022
3715 Clouds 17 1021 61 10000 6.69 110 22:22 11.05.2022
3716 Clouds 17 1021 65 10000 4.12 100 21:27 11.05.2022
3717 Clouds 17 1020 57 10000 5.14 120 20:45 11.05.2022
3718 Clouds 15 1022 67 10000 3.6 130 17:43 11.05.2022
3719 Clouds 14 1022 72 10000 3.6 150 16:39 11.05.2022
3720 Clouds 12 1022 80 10000 2.57 170 14:48 11.05.2022
3721 Clouds 11 1022 81 10000 2.57 170 14:25 11.05.2022
3722 Clouds 11 1022 86 10000 3.09 160 13:25 11.05.2022
3723 Clear 12 1020 89 10000 3.09 150 11:48 11.05.2022
3724 Clear 12 1020 91 10000 1.54 170 09:30 11.05.2022
3725 Clear 14 1020 85 10000 2.06 190 06:36 11.05.2022
3726 Clouds 16 1019 80 10000 3.09 180 02:27 11.05.2022
3727 Clouds 18 1017 77 10000 1.54 40 22:58 10.05.2022
3728 Clouds 18 1017 77 10000 1.54 40 22:58 10.05.2022
3729 Clouds 18 1017 76 10000 1.54 40 22:30 10.05.2022
3730 Clouds 18 1017 74 10000 2.06 30 21:40 10.05.2022
3731 Clouds 19 1017 70 8000 2.57 50 20:34 10.05.2022
3732 Clouds 18 1018 69 8000 2.06 0 18:49 10.05.2022
3733 Clouds 17 1018 75 8000 2.57 200 17:38 10.05.2022
3734 Clouds 16 1019 81 7000 4.12 100 16:35 10.05.2022
3735 Mist 14 1018 93 2500 1.54 160 13:31 10.05.2022
3736 Mist 14 1018 96 3000 3.09 130 11:54 10.05.2022
3737 Mist 14 1018 96 3000 3.09 130 11:32 10.05.2022
3738 Mist 14 1018 98 2500 2.57 150 10:56 10.05.2022
3739 Mist 15 1017 94 1200 2.57 140 09:47 10.05.2022
3740 Mist 14 1018 93 5000 2.57 140 08:18 10.05.2022
3741 Clouds 15 1019 89 6000 2.06 140 06:20 10.05.2022
3742 Clear 17 1018 78 10000 3.6 110 01:54 10.05.2022
3743 Clear 18 1018 72 10000 3.09 130 23:45 09.05.2022
3744 Clear 19 1018 66 10000 3.09 110 22:35 09.05.2022
3745 Clear 20 1018 62 10000 3.6 100 21:38 09.05.2022
3746 Clouds 20 1019 60 9000 3.6 100 20:20 09.05.2022
3747 Clouds 20 1020 60 10000 1.91 75 18:25 09.05.2022
3748 Clouds 20 1021 64 7000 2.57 130 17:25 09.05.2022
3749 Clouds 18 1021 74 6000 2.06 70 16:18 09.05.2022
3750 Mist 18 1021 76 4500 1.03 0 15:47 09.05.2022
3751 Clear 17 1021 84 10000 0 0 14:33 09.05.2022
3752 Fog 14 1021 93 10000 0.51 0 13:56 09.05.2022
3753 Clear 13 1021 94 10000 1.03 0 12:55 09.05.2022
3754 Fog 13 1020 94 10000 1.03 0 11:52 09.05.2022
3755 Fog 13 1020 93 10000 1.03 0 10:47 09.05.2022
3756 Fog 14 1020 91 10000 1.03 0 10:20 09.05.2022
3757 Clear 15 1020 94 10000 1.54 290 07:56 09.05.2022
3758 Clear 16 1020 92 10000 1.03 0 04:35 09.05.2022
3759 Clear 18 1018 69 10000 0 0 00:23 09.05.2022
3760 Clear 20 1018 62 10000 1.54 360 23:27 08.05.2022
3761 Clear 22 1018 57 10000 1.54 20 22:29 08.05.2022
3762 Clouds 23 1017 52 10000 3.94 5 20:53 08.05.2022
3763 Clouds 23 1017 53 10000 4.15 0 20:18 08.05.2022
3764 Clouds 23 1017 53 10000 4.04 358 19:32 08.05.2022
3765 Clouds 22 1017 55 10000 4.18 356 18:35 08.05.2022
3766 Clear 21 1019 63 10000 3.6 340 17:22 08.05.2022
3767 Clear 18 1020 74 10000 3.6 340 15:44 08.05.2022
3768 Clear 18 1020 76 10000 3.6 340 15:20 08.05.2022
3769 Clear 14 1019 96 10000 2.57 320 12:45 08.05.2022
3770 Clear 15 1018 93 10000 4.12 330 10:46 08.05.2022
3771 Clear 16 1019 90 10000 4.12 330 10:22 08.05.2022
3772 Clear 16 1019 87 10000 3.09 330 09:46 08.05.2022
3773 Clear 17 1019 84 10000 3.6 320 07:33 08.05.2022
3774 Clear 18 1020 80 10000 4.63 330 04:56 08.05.2022
3775 Clear 19 1021 79 10000 2.06 340 03:20 08.05.2022
3776 Clear 20 1021 80 10000 2.06 330 00:29 08.05.2022
3777 Clear 20 1020 78 10000 3.09 350 23:53 07.05.2022
3778 Clouds 21 1021 73 10000 2.57 10 22:57 07.05.2022
3779 Clouds 22 1020 71 10000 2.57 10 22:33 07.05.2022
3780 Clouds 23 1022 65 10000 0.45 0 21:44 07.05.2022
3781 Clouds 23 1022 66 10000 0.89 0 20:56 07.05.2022
3782 Clouds 23 1021 68 10000 3.09 0 19:58 07.05.2022
3783 Clouds 22 1022 72 10000 3.09 360 17:51 07.05.2022
3784 Clouds 19 1024 78 10000 2.57 340 15:53 07.05.2022
3785 Clouds 17 1024 90 10000 1.03 0 14:20 07.05.2022
3786 Clouds 15 1022 97 10000 1.54 300 10:59 07.05.2022
3787 Clear 15 1022 96 10000 2.06 330 09:38 07.05.2022
3788 Clear 16 1023 92 10000 3.09 320 07:52 07.05.2022
3789 Clear 17 1023 90 10000 3.6 320 06:43 07.05.2022
3790 Clear 16 1023 88 10000 2.57 320 05:22 07.05.2022
3791 Clear 18 1023 92 10000 1.03 330 02:21 07.05.2022
3792 Clear 20 1021 80 10000 2.06 360 23:38 06.05.2022
3793 Clouds 21 1021 72 10000 3.09 20 22:31 06.05.2022
3794 Clear 23 1021 55 10000 1.38 42 21:44 06.05.2022
3795 Clear 23 1021 55 10000 1.55 2 20:35 06.05.2022
3796 Clear 23 1021 56 10000 1.55 350 19:40 06.05.2022
3797 Clear 23 1021 57 10000 1.56 337 19:00 06.05.2022
3798 Clear 22 1022 62 10000 1.66 328 18:19 06.05.2022
3799 Clear 20 1023 67 10000 3.09 330 16:44 06.05.2022
3800 Clear 18 1023 73 10000 1.54 300 15:41 06.05.2022
3801 Clear 16 1023 85 10000 2.06 330 14:50 06.05.2022
3802 Clear 13 1022 92 10000 2.57 310 12:56 06.05.2022
3803 Clear 13 1022 92 10000 2.57 310 12:37 06.05.2022
3804 Clear 13 1021 92 10000 1.54 310 11:42 06.05.2022
3805 Clear 14 1021 94 10000 1.54 290 10:29 06.05.2022
3806 Clear 14 1020 94 10000 2.57 320 09:45 06.05.2022
3807 Clear 14 1020 93 10000 3.09 320 08:27 06.05.2022
3808 Fog 15 1020 89 10000 3.09 320 06:46 06.05.2022
3809 Clear 15 1021 91 10000 1.54 340 04:53 06.05.2022
3810 Clear 16 1020 86 10000 2.06 320 02:45 06.05.2022
3811 Clear 18 1020 75 10000 1.54 40 23:45 05.05.2022
3812 Clear 20 1019 68 10000 3.09 70 21:56 05.05.2022
3813 Clouds 21 1019 61 10000 2.79 23 21:19 05.05.2022
3814 Clouds 21 1019 49 10000 2.7 16 19:53 05.05.2022
3815 Clouds 20 1020 54 10000 2.88 352 18:26 05.05.2022
3816 Clear 17 1022 68 10000 3.09 350 16:20 05.05.2022
3817 Clear 15 1022 80 10000 2.06 320 14:43 05.05.2022
3818 Clear 12 1021 94 10000 1.03 0 13:21 05.05.2022
3819 Clear 10 1020 94 10000 1.54 280 12:24 05.05.2022
3820 Clear 11 1020 91 10000 1.03 0 10:33 05.05.2022
3821 Clear 11 1020 88 10000 1.03 300 09:39 05.05.2022
3822 Clear 13 1020 85 10000 2.06 300 07:24 05.05.2022
3823 Clear 14 1020 77 10000 2.57 310 02:59 05.05.2022
3824 Clear 15 1020 73 10000 4.12 330 01:48 05.05.2022
3825 Clear 15 1020 73 10000 4.12 330 01:22 05.05.2022
3826 Clear 17 1019 74 10000 1.54 0 23:31 04.05.2022
3827 Clear 18 1019 64 10000 2.06 40 22:25 04.05.2022
3828 Clear 18 1019 60 10000 2.57 40 21:49 04.05.2022
3829 Clear 19 1019 53 10000 2.48 25 21:26 04.05.2022
3830 Clear 20 1019 42 10000 2.3 21 20:22 04.05.2022
3831 Clear 19 1019 46 10000 2.29 19 19:51 04.05.2022
3832 Clear 18 1021 56 10000 3.6 350 18:49 04.05.2022
3833 Clear 17 1021 59 10000 3.6 350 18:20 04.05.2022
3834 Clear 16 1022 63 10000 3.09 350 17:28 04.05.2022
3835 Clouds 14 1022 79 10000 2.57 330 15:38 04.05.2022
3836 Clouds 13 1022 88 10000 2.06 310 14:49 04.05.2022
3837 Clouds 11 1022 91 10000 2.06 310 14:20 04.05.2022
3838 Fog 9 1021 96 10000 1.03 0 12:58 04.05.2022
3839 Fog 9 1021 96 10000 1.03 0 12:28 04.05.2022
3840 Fog 10 1021 96 10000 1.54 260 10:33 04.05.2022
3841 Clear 9 1021 96 10000 1.03 280 09:28 04.05.2022
3842 Clear 10 1021 90 10000 1.03 290 08:33 04.05.2022
3843 Clear 11 1022 84 10000 1.03 0 05:44 04.05.2022
3844 Clear 12 1022 77 10000 0.51 0 02:43 04.05.2022
3845 Clear 14 1021 66 10000 1.54 30 23:31 03.05.2022
3846 Clear 16 1021 61 10000 2.57 30 22:00 03.05.2022
3847 Clear 17 1021 45 10000 1.19 46 21:33 03.05.2022
3848 Clear 16 1022 58 10000 3.09 50 20:52 03.05.2022
3849 Clouds 16 1023 55 10000 3.09 60 19:39 03.05.2022
3850 Clouds 16 1024 50 10000 1.03 0 18:48 03.05.2022
3851 Clouds 15 1024 52 10000 1.54 220 17:34 03.05.2022
3852 Clouds 14 1024 53 10000 1.54 0 16:20 03.05.2022
3853 Clear 11 1024 68 10000 1.54 180 14:34 03.05.2022
3854 Clear 7 1024 78 10000 2.57 200 12:46 03.05.2022
3855 Clear 8 1024 79 10000 2.57 200 12:22 03.05.2022
3856 Clear 8 1023 76 10000 1.54 190 10:50 03.05.2022
3857 Clear 9 1024 73 10000 2.06 190 08:33 03.05.2022
3858 Clouds 10 1024 68 9000 2.06 160 06:46 03.05.2022
3859 Clouds 10 1024 68 9000 2.06 160 06:46 03.05.2022
3860 Clear 12 1024 57 10000 2.06 160 03:26 03.05.2022
3861 Clouds 14 1023 63 10000 5.14 120 23:32 02.05.2022
3862 Clouds 14 1022 63 10000 5.14 120 22:32 02.05.2022
3863 Clouds 15 1022 64 10000 5.66 100 21:48 02.05.2022
3864 Clouds 15 1022 64 10000 5.66 100 21:48 02.05.2022
3865 Clouds 15 1022 62 10000 7.2 100 19:59 02.05.2022
3866 Clouds 15 1023 64 10000 7.72 130 18:27 02.05.2022
3867 Clouds 15 1023 64 10000 7.72 120 17:42 02.05.2022
3868 Clouds 14 1023 63 10000 6.17 130 16:43 02.05.2022
3869 Clouds 13 1023 66 10000 5.14 140 15:44 02.05.2022
3870 Clouds 12 1023 77 10000 3.09 160 14:54 02.05.2022
3871 Clear 10 1023 85 10000 3.09 160 13:45 02.05.2022
3872 Clear 9 1022 80 10000 2.06 160 11:41 02.05.2022
3873 Clear 11 1021 74 10000 2.06 170 09:59 02.05.2022
3874 Clear 11 1021 71 10000 2.57 150 08:31 02.05.2022
3875 Clear 11 1022 68 10000 3.09 140 07:23 02.05.2022
3876 Clouds 15 1018 50 10000 2.57 160 00:48 02.05.2022
3877 Clouds 16 1018 49 10000 2.57 160 00:22 02.05.2022
3878 Clear 16 1017 50 10000 3.6 140 23:40 01.05.2022
3879 Clear 18 1017 41 10000 3.6 160 21:45 01.05.2022
3880 Clear 18 1016 39 10000 3.09 160 20:50 01.05.2022
3881 Clear 18 1017 39 10000 3.6 130 19:40 01.05.2022
3882 Clear 18 1017 40 10000 3.09 180 18:53 01.05.2022
3883 Clear 17 1017 45 10000 2.57 0 17:51 01.05.2022
3884 Clear 16 1018 45 10000 3.09 200 16:42 01.05.2022
3885 Clear 16 1018 45 10000 3.09 200 16:18 01.05.2022
3886 Clear 12 1017 58 10000 2.06 210 14:54 01.05.2022
3887 Clear 9 1017 74 10000 1.03 0 12:52 01.05.2022
3888 Clouds 9 1017 76 10000 2.85 235 10:36 01.05.2022
3889 Clouds 11 1016 68 8000 1.03 0 08:50 01.05.2022
3890 Clouds 10 1017 78 10000 2.57 269 06:50 01.05.2022
3891 Clear 13 1017 55 10000 1.54 40 02:31 01.05.2022
3892 Clear 14 1018 52 10000 2.57 80 22:51 30.04.2022
3893 Clear 14 1019 51 10000 2.57 80 21:33 30.04.2022
3894 Clear 14 1019 51 10000 2.57 80 21:33 30.04.2022
3895 Clear 13 1019 53 10000 1.54 70 20:19 30.04.2022
3896 Clear 14 1020 50 10000 2.06 60 19:31 30.04.2022
3897 Clouds 14 1022 57 10000 3.6 70 17:32 30.04.2022
3898 Clouds 13 1022 70 10000 3.09 70 15:53 30.04.2022
3899 Clouds 13 1022 70 10000 3.09 70 15:19 30.04.2022
3900 Clouds 12 1023 65 10000 3.09 90 14:19 30.04.2022
3901 Clear 9 1022 65 10000 1.54 140 11:58 30.04.2022
3902 Clear 10 1022 64 10000 1.54 140 11:31 30.04.2022
3903 Clouds 10 1023 61 10000 1.03 0 10:23 30.04.2022
3904 Clouds 9 1023 64 10000 1.54 170 08:25 30.04.2022
3905 Clear 10 1026 53 10000 1.03 0 04:58 30.04.2022
3906 Clear 12 1026 42 10000 1.03 0 00:25 30.04.2022
3907 Clear 14 1026 30 10000 1.03 0 22:56 29.04.2022
3908 Clear 14 1026 29 10000 1.03 0 22:21 29.04.2022
3909 Clear 15 1026 29 10000 2.57 220 21:26 29.04.2022
3910 Clear 14 1026 30 10000 2.06 200 20:24 29.04.2022
3911 Clear 14 1027 29 10000 2.06 180 19:28 29.04.2022
3912 Clear 12 1028 33 10000 2.57 160 17:35 29.04.2022
3913 Clear 11 1029 37 10000 2.06 0 16:38 29.04.2022
3914 Clear 10 1029 42 10000 2.57 200 14:37 29.04.2022
3915 Clear 8 1028 50 10000 1.03 0 13:42 29.04.2022
3916 Clear 7 1028 54 10000 1.54 190 12:37 29.04.2022
3917 Clear 8 1027 52 10000 1.54 180 10:32 29.04.2022
3918 Clear 9 1027 46 10000 2.06 180 07:55 29.04.2022
3919 Clear 9 1027 46 10000 2.06 180 07:25 29.04.2022
3920 Clear 10 1027 43 10000 2.06 190 06:32 29.04.2022
3921 Clear 12 1025 40 10000 3.09 200 02:23 29.04.2022
3922 Clear 14 1023 25 10000 2.57 220 23:58 28.04.2022
3923 Clear 15 1023 25 10000 2.57 220 23:25 28.04.2022
3924 Clear 16 1022 24 10000 2.06 230 22:24 28.04.2022
3925 Clear 16 1021 25 10000 2.06 220 21:41 28.04.2022
3926 Clear 16 1021 28 10000 3.09 210 20:45 28.04.2022
3927 Clear 16 1021 29 10000 3.6 180 19:52 28.04.2022
3928 Clear 16 1021 29 10000 3.6 180 19:24 28.04.2022
3929 Clear 17 1022 34 10000 3.09 0 18:51 28.04.2022
3930 Clear 16 1021 33 10000 2.57 190 17:42 28.04.2022
3931 Clear 15 1021 36 10000 4.12 160 16:51 28.04.2022
3932 Clear 15 1021 37 10000 4.12 160 16:20 28.04.2022
3933 Clear 15 1021 37 10000 4.12 160 16:20 28.04.2022
3934 Clear 14 1020 38 10000 3.6 160 15:43 28.04.2022
3935 Clear 14 1019 44 10000 4.12 160 14:58 28.04.2022
3936 Clear 12 1017 51 10000 3.09 150 13:33 28.04.2022
3937 Clear 12 1016 59 10000 4.12 160 12:28 28.04.2022
3938 Clouds 12 1016 59 10000 0.89 45 10:59 28.04.2022
3939 Clear 13 1014 53 10000 2.06 210 10:26 28.04.2022
3940 Clear 14 1014 57 10000 1.54 200 09:47 28.04.2022
3941 Clear 14 1014 63 10000 1.54 220 07:40 28.04.2022
3942 Clear 14 1013 69 10000 1.54 210 06:42 28.04.2022
3943 Clear 13 1012 69 10000 0.51 0 05:52 28.04.2022
3944 Clear 14 1011 67 10000 1.03 0 04:42 28.04.2022
3945 Clear 17 1010 57 10000 3.09 360 00:52 28.04.2022
3946 Clear 18 1010 47 10000 2.57 40 23:18 27.04.2022
3947 Clear 19 1009 39 10000 3.09 50 21:58 27.04.2022
3948 Clear 19 1009 41 10000 3.09 50 21:32 27.04.2022
3949 Clear 19 1010 40 10000 2.57 0 20:44 27.04.2022
3950 Clear 20 1009 31 10000 2.06 180 19:41 27.04.2022
3951 Clear 20 1009 33 10000 2.06 180 19:22 27.04.2022
3952 Clear 20 1009 32 10000 2.06 180 19:22 27.04.2022
3953 Clear 19 1009 34 10000 3.6 190 18:38 27.04.2022
3954 Clear 18 1008 43 10000 4.12 190 17:26 27.04.2022
3955 Clear 17 1008 49 10000 3.09 190 15:56 27.04.2022
3956 Clouds 14 1002 90 10000 4.12 160 12:34 27.04.2022
3957 Rain 15 1002 90 8000 4.63 180 11:23 27.04.2022
3958 Rain 16 1001 92 9000 4.12 210 10:26 27.04.2022
3959 Clouds 25 995 83 10000 5.66 320 07:41 27.04.2022
3960 Clouds 24 995 88 10000 6.69 340 06:30 27.04.2022
3961 Clouds 22 998 90 10000 2.06 350 02:25 27.04.2022
3962 Clouds 22 998 92 10000 1.54 30 01:18 27.04.2022
3963 Clouds 23 998 90 10000 2.57 30 00:27 27.04.2022
3964 Clouds 22 999 89 10000 2.57 30 23:23 26.04.2022
3965 Clouds 23 999 87 10000 2.57 30 22:43 26.04.2022
3966 Clouds 22 1000 82 10000 2.06 60 21:57 26.04.2022
3967 Clouds 23 1002 82 10000 3.09 80 20:56 26.04.2022
3968 Clouds 23 1002 80 10000 3.09 80 20:35 26.04.2022
3969 Clouds 22 1003 83 10000 2.57 50 19:34 26.04.2022
3970 Clouds 21 1005 85 10000 3.6 30 18:51 26.04.2022
3971 Clouds 21 1005 88 10000 3.6 30 18:19 26.04.2022
3972 Clouds 21 1006 86 10000 3.6 20 17:33 26.04.2022
3973 Clouds 20 1008 93 10000 3.6 40 14:46 26.04.2022
3974 Clouds 20 1008 95 10000 3.09 50 13:34 26.04.2022
3975 Clouds 20 1008 96 8000 3.09 60 12:25 26.04.2022
3976 Mist 19 1008 99 2500 3.6 80 10:46 26.04.2022
3977 Mist 19 1008 97 2500 4.12 90 09:41 26.04.2022
3978 Clouds 18 1009 95 7000 5.66 110 07:59 26.04.2022
3979 Clouds 19 1010 93 10000 4.63 130 04:33 26.04.2022
3980 Clouds 19 1010 93 10000 5.14 100 02:20 26.04.2022
3981 Clouds 19 1008 93 8000 5.14 110 00:26 26.04.2022
3982 Fog 20 1008 91 600 5.66 110 22:49 25.04.2022
3983 Mist 20 1007 84 1500 6.69 110 21:44 25.04.2022
3984 Clear 22 1006 78 10000 5.66 110 20:45 25.04.2022
3985 Clear 22 1006 78 10000 5.66 110 20:45 25.04.2022
3986 Clouds 24 1008 52 10000 4.7 93 19:34 25.04.2022
3987 Clear 24 1007 52 10000 6.69 100 18:23 25.04.2022
3988 Clear 23 1007 50 10000 6.17 140 17:32 25.04.2022
3989 Clouds 20 1007 76 10000 4.63 170 15:30 25.04.2022
3990 Clouds 19 1006 93 9000 2.57 170 14:54 25.04.2022
3991 Clouds 20 1005 97 2500 1.54 240 13:41 25.04.2022
3992 Rain 20 1005 97 10000 1.52 283 11:49 25.04.2022
3993 Thunderstorm 20 1002 96 8000 6.17 340 10:27 25.04.2022
3994 Thunderstorm 20 1003 92 8000 7.72 360 08:47 25.04.2022
3995 Thunderstorm 21 1002 76 10000 1.54 20 06:46 25.04.2022
3996 Clear 21 1004 72 10000 2.57 10 04:33 25.04.2022
3997 Clear 21 1005 59 10000 4.12 350 00:58 25.04.2022
3998 Clear 21 1005 56 10000 2.57 350 23:51 24.04.2022
3999 Clear 23 1005 50 10000 3.6 350 22:45 24.04.2022
4000 Clear 23 1005 49 10000 3.6 350 22:26 24.04.2022
4001 Clear 24 1006 45 10000 3.09 10 21:26 24.04.2022
4002 Clear 24 1006 40 10000 5.92 3 20:54 24.04.2022
4003 Clear 23 1007 49 10000 3.09 20 20:35 24.04.2022
4004 Clear 24 1008 46 10000 3.09 10 19:46 24.04.2022
4005 Clear 23 1009 51 10000 3.09 10 18:20 24.04.2022
4006 Clear 21 1010 60 10000 3.6 350 17:28 24.04.2022
4007 Clear 20 1010 62 10000 3.6 350 16:58 24.04.2022
4008 Clear 20 1009 59 10000 6.61 0 16:32 24.04.2022
4009 Clear 19 1010 65 10000 4.63 350 15:54 24.04.2022
4010 Clear 17 1010 65 10000 4.63 330 14:58 24.04.2022
4011 Clear 15 1010 70 10000 4.63 320 13:51 24.04.2022
4012 Clear 15 1010 72 10000 4.63 320 13:24 24.04.2022
4013 Clear 13 1009 83 10000 5.14 330 11:56 24.04.2022
4014 Clear 13 1009 84 10000 5.14 330 11:27 24.04.2022
4015 Clear 14 1008 80 10000 6.17 330 09:55 24.04.2022
4016 Clear 14 1008 79 10000 5.14 330 08:51 24.04.2022
4017 Clear 15 1008 74 10000 5.66 320 06:18 24.04.2022
4018 Clear 17 1007 70 10000 4.63 340 02:59 24.04.2022
4019 Clear 17 1007 66 10000 3.6 330 01:18 24.04.2022
4020 Clear 19 1006 55 10000 5.66 320 23:55 23.04.2022
4021 Clear 19 1006 54 10000 5.66 320 23:25 23.04.2022
4022 Clear 20 1006 52 10000 6.69 330 22:42 23.04.2022
4023 Clear 21 1006 47 10000 6.69 330 21:49 23.04.2022
4024 Clear 21 1006 45 10000 6.69 330 21:30 23.04.2022
4025 Clear 21 1006 46 10000 6.69 320 20:27 23.04.2022
4026 Clear 20 1006 47 10000 6.17 330 19:21 23.04.2022
4027 Clear 20 1007 46 10000 6.17 340 18:54 23.04.2022
4028 Clear 20 1007 46 10000 6.17 340 18:32 23.04.2022
4029 Clear 20 1007 46 10000 6.17 340 18:32 23.04.2022
4030 Clear 19 1007 48 10000 5.66 330 17:47 23.04.2022
4031 Clear 18 1008 51 10000 5.14 330 16:46 23.04.2022
4032 Clear 16 1008 51 10000 3.6 320 15:51 23.04.2022
4033 Clear 11 1007 77 10000 1.03 0 13:31 23.04.2022
4034 Clear 10 1006 77 10000 2.06 310 11:30 23.04.2022
4035 Clear 9 1006 77 10000 0 0 10:32 23.04.2022
4036 Clear 10 1007 71 10000 1.54 280 08:18 23.04.2022
4037 Clear 12 1009 72 10000 0.45 45 03:57 23.04.2022
4038 Clear 13 1008 76 10000 2.06 240 02:36 23.04.2022
4039 Clear 15 1005 72 10000 3.6 290 23:34 22.04.2022
4040 Clear 16 1005 69 10000 3.6 280 22:43 22.04.2022
4041 Rain 16 1005 65 10000 4.63 290 21:56 22.04.2022
4042 Rain 16 1005 65 10000 4.63 290 21:56 22.04.2022
4043 Rain 16 1005 64 10000 4.63 290 21:56 22.04.2022
4044 Rain 16 1005 65 10000 4.63 290 21:56 22.04.2022
4045 Rain 16 1005 64 10000 4.63 290 21:56 22.04.2022
4046 Rain 16 1005 64 10000 4.63 290 21:56 22.04.2022
4047 Rain 16 1005 65 10000 4.63 290 21:56 22.04.2022
4048 Clear 16 1005 63 10000 4.63 290 21:38 22.04.2022
4049 Clouds 16 1005 62 10000 3.6 280 20:30 22.04.2022
4050 Rain 15 1007 82 10000 2.57 290 19:24 22.04.2022
4051 Rain 15 1007 85 9000 3.6 290 18:56 22.04.2022
4052 Rain 15 1007 85 9000 3.6 290 18:24 22.04.2022
4053 Rain 15 1007 83 9000 3.6 300 16:54 22.04.2022
4054 Rain 15 1007 83 9000 3.09 310 15:58 22.04.2022
4055 Rain 15 1007 81 9000 3.09 310 15:23 22.04.2022
4056 Rain 15 1007 75 10000 3.6 310 14:37 22.04.2022
4057 Rain 15 1006 78 10000 4.12 330 13:41 22.04.2022
4058 Rain 14 1006 85 10000 3.6 310 12:35 22.04.2022
4059 Rain 14 1006 90 10000 1.54 0 11:23 22.04.2022
4060 Rain 15 1006 86 10000 3.09 330 10:56 22.04.2022
4061 Rain 15 1006 82 10000 3.09 330 10:32 22.04.2022
4062 Rain 15 1006 82 10000 6.69 350 09:54 22.04.2022
4063 Rain 15 1006 85 8000 6.69 340 08:56 22.04.2022
4064 Clouds 15 1006 87 8000 6.69 340 08:36 22.04.2022
4065 Rain 15 1008 83 10000 5.14 10 06:21 22.04.2022
4066 Clear 18 1009 50 10000 0 0 00:53 22.04.2022
4067 Clear 19 1009 44 10000 1.03 50 23:29 21.04.2022
4068 Clear 21 1009 41 10000 2.57 20 22:34 21.04.2022
4069 Clouds 21 1009 37 10000 1.66 272 21:23 21.04.2022
4070 Clear 21 1010 37 10000 2.57 290 20:27 21.04.2022
4071 Clear 20 1012 37 10000 2.57 270 18:49 21.04.2022
4072 Clear 20 1012 39 10000 2.57 270 18:19 21.04.2022
4073 Clear 18 1014 48 10000 3.09 0 16:53 21.04.2022
4074 Clear 16 1015 62 10000 1.54 240 15:23 21.04.2022
4075 Clear 15 1015 71 10000 2.06 0 14:51 21.04.2022
4076 Clear 13 1015 84 10000 2.57 220 13:52 21.04.2022
4077 Clear 13 1015 86 10000 2.57 220 13:19 21.04.2022
4078 Clear 15 1015 91 10000 1.54 250 11:25 21.04.2022
4079 Clouds 16 1015 92 10000 3.09 240 08:59 21.04.2022
4080 Clear 16 1015 94 10000 1.03 0 08:29 21.04.2022
4081 Rain 17 1014 94 9000 0.51 0 06:25 21.04.2022
4082 Rain 19 1016 75 8000 4.12 190 03:35 21.04.2022
4083 Clouds 20 1016 72 5000 4.12 230 02:48 21.04.2022
4084 Clear 21 1014 73 10000 0 0 01:50 21.04.2022
4085 Clouds 23 1013 68 10000 1.54 70 23:53 20.04.2022
4086 Clouds 23 1013 66 10000 1.54 70 23:23 20.04.2022
4087 Clouds 24 1013 60 10000 2.06 80 22:51 20.04.2022
4088 Clouds 25 1013 59 10000 2.06 80 22:32 20.04.2022
4089 Clouds 26 1014 50 10000 0.45 45 21:33 20.04.2022
4090 Clouds 26 1013 52 10000 3.92 6 20:42 20.04.2022
4091 Clouds 25 1014 54 10000 4.09 7 19:53 20.04.2022
4092 Clouds 25 1014 52 10000 3.76 11 19:25 20.04.2022
4093 Clouds 25 1015 54 10000 3.62 10 18:26 20.04.2022
4094 Clouds 23 1016 59 10000 3.94 10 16:57 20.04.2022
4095 Clouds 23 1016 62 10000 3.94 10 16:38 20.04.2022
4096 Clear 20 1017 79 10000 1.54 340 14:26 20.04.2022
4097 Clear 16 1016 93 10000 1.03 0 11:55 20.04.2022
4098 Clear 17 1016 93 10000 1.03 0 11:25 20.04.2022
4099 Clear 17 1015 91 10000 2.57 320 10:27 20.04.2022
4100 Clear 18 1015 89 10000 2.57 350 09:26 20.04.2022
4101 Clouds 17 1016 89 10000 2.68 2 08:22 20.04.2022
4102 Clouds 17 1016 92 10000 2.68 2 07:42 20.04.2022
4103 Clouds 17 1016 92 10000 2.68 2 07:42 20.04.2022
4104 Clear 19 1016 86 10000 4.12 110 03:54 20.04.2022
4105 Clear 20 1015 82 10000 4.63 110 00:38 20.04.2022
4106 Clear 20 1015 82 10000 4.63 110 00:20 20.04.2022
4107 Clouds 23 1015 61 10000 3.29 81 22:28 19.04.2022
4108 Clouds 23 1015 58 10000 2.57 90 21:57 19.04.2022
4109 Clouds 23 1015 56 10000 2.57 90 21:34 19.04.2022
4110 Clouds 23 1016 61 10000 2.57 70 20:50 19.04.2022
4111 Clouds 23 1016 61 10000 2.57 70 20:32 19.04.2022
4112 Clear 24 1016 57 10000 2.03 58 19:24 19.04.2022
4113 Clear 24 1017 61 10000 2.3 53 17:51 19.04.2022
4114 Clear 22 1018 72 10000 1.54 40 16:43 19.04.2022
4115 Clear 22 1018 67 10000 2.09 21 16:24 19.04.2022
4116 Clear 20 1018 84 10000 1.54 10 14:51 19.04.2022
4117 Clear 19 1018 84 10000 1.54 10 14:30 19.04.2022
4118 Clear 16 1017 94 10000 2.06 10 12:51 19.04.2022
4119 Clear 16 1017 94 10000 2.06 10 12:26 19.04.2022
4120 Clear 17 1017 91 10000 2.06 340 10:50 19.04.2022
4121 Clear 17 1017 89 10000 2.57 20 09:23 19.04.2022
4122 Clear 18 1018 89 10000 4.12 60 06:30 19.04.2022
4123 Clear 18 1018 90 10000 6.17 100 03:59 19.04.2022
4124 Clouds 19 1017 82 10000 6.69 110 00:56 19.04.2022
4125 Clouds 20 1017 75 10000 5.66 110 23:36 18.04.2022
4126 Clouds 21 1018 72 10000 5.66 100 21:37 18.04.2022
4127 Clouds 21 1018 72 10000 5.66 100 21:18 18.04.2022
4128 Clouds 22 1018 64 10000 2.57 80 20:35 18.04.2022
4129 Clouds 22 1018 63 10000 2.81 44 19:57 18.04.2022
4130 Clouds 21 1020 72 10000 2.57 70 18:58 18.04.2022
4131 Clouds 22 1019 67 10000 3.2 39 18:32 18.04.2022
4132 Clouds 20 1020 77 10000 3.09 70 17:36 18.04.2022
4133 Clouds 20 1020 78 10000 3.09 70 17:18 18.04.2022
4134 Clouds 19 1021 79 10000 3.09 60 16:34 18.04.2022
4135 Clouds 18 1021 83 10000 3.6 70 15:18 18.04.2022
4136 Clouds 18 1021 90 10000 3.09 50 13:42 18.04.2022
4137 Clouds 17 1021 89 9000 3.6 20 12:34 18.04.2022
4138 Clouds 17 1021 86 10000 3.09 40 11:35 18.04.2022
4139 Clouds 18 1020 83 10000 3.6 40 10:32 18.04.2022
4140 Clouds 18 1021 82 10000 5.66 60 09:31 18.04.2022
4141 Clear 18 1021 85 10000 4.63 70 08:18 18.04.2022
4142 Clear 18 1021 78 10000 6.17 80 05:45 18.04.2022
4143 Clouds 19 1021 82 10000 5.14 110 00:50 18.04.2022
4144 Rain 20 1021 66 10000 4.63 100 22:42 17.04.2022
4145 Clear 21 1021 62 10000 3.09 80 21:49 17.04.2022
4146 Clear 21 1021 58 10000 3.09 80 21:27 17.04.2022
4147 Rain 22 1021 46 10000 3.47 103 20:41 17.04.2022
4148 Clouds 21 1022 53 10000 2.57 350 19:40 17.04.2022
4149 Clouds 22 1023 59 10000 3.6 360 18:21 17.04.2022
4150 Clear 20 1024 69 10000 2.57 20 16:27 17.04.2022
4151 Clear 20 1024 66 10000 2.06 30 15:26 17.04.2022
4152 Rain 18 1024 75 10000 2.06 30 14:25 17.04.2022
4153 Clear 18 1023 76 10000 1.54 60 13:18 17.04.2022
4154 Clouds 17 1023 86 10000 1.54 60 12:27 17.04.2022
4155 Clouds 17 1023 86 10000 1.54 60 12:27 17.04.2022
4156 Clouds 17 1023 85 10000 3.6 70 10:46 17.04.2022
4157 Clouds 17 1023 85 10000 3.6 70 10:28 17.04.2022
4158 Clouds 18 1023 85 10000 0 0 09:37 17.04.2022
4159 Clouds 18 1023 85 10000 4.12 80 08:53 17.04.2022
4160 Clear 18 1023 83 10000 5.66 70 07:37 17.04.2022
4161 Clear 18 1023 83 10000 3.6 90 04:30 17.04.2022
4162 Clouds 18 1023 70 10000 4.12 90 01:26 17.04.2022
4163 Clear 19 1023 73 10000 5.66 110 23:52 16.04.2022
4164 Clear 20 1022 66 10000 5.14 100 22:35 16.04.2022
4165 Clouds 21 1022 57 10000 3.6 80 21:38 16.04.2022
4166 Clouds 21 1022 58 10000 2.06 40 20:32 16.04.2022
4167 Clear 22 1022 57 10000 2.18 61 18:59 16.04.2022
4168 Clouds 20 1024 65 10000 3.09 360 17:52 16.04.2022
4169 Clear 20 1024 68 10000 4.12 360 16:40 16.04.2022
4170 Clear 19 1024 70 10000 3.6 340 15:45 16.04.2022
4171 Clouds 18 1025 76 10000 3.09 10 14:56 16.04.2022
4172 Clouds 16 1024 83 10000 4.12 350 13:58 16.04.2022
4173 Clouds 16 1024 85 10000 4.12 350 13:32 16.04.2022
4174 Clear 14 1023 91 10000 3.6 10 12:22 16.04.2022
4175 Clear 15 1022 90 10000 3.09 20 10:49 16.04.2022
4176 Clear 15 1022 90 10000 2.57 40 09:56 16.04.2022
4177 Clear 15 1022 92 10000 3.09 60 08:57 16.04.2022
4178 Clear 16 1022 91 10000 4.63 70 07:52 16.04.2022
4179 Clear 16 1022 88 10000 5.66 60 06:58 16.04.2022
4180 Clear 17 1022 86 10000 5.14 80 02:46 16.04.2022
4181 Clear 17 1021 78 10000 5.66 110 00:30 16.04.2022
4182 Clear 17 1021 68 10000 5.14 100 22:58 15.04.2022
4183 Clear 18 1021 66 10000 5.14 100 22:32 15.04.2022
4184 Clear 18 1021 64 10000 3.6 100 21:50 15.04.2022
4185 Clear 18 1021 64 10000 3.6 100 21:18 15.04.2022
4186 Clear 18 1022 62 10000 3.6 70 20:21 15.04.2022
4187 Clouds 18 1022 62 10000 3.09 60 19:39 15.04.2022
4188 Clouds 17 1023 65 10000 2.57 50 18:53 15.04.2022
4189 Clouds 17 1023 65 10000 2.57 50 18:24 15.04.2022
4190 Clouds 17 1024 66 10000 3.09 20 17:32 15.04.2022
4191 Clouds 17 1024 70 10000 3.6 360 16:26 15.04.2022
4192 Clouds 16 1024 76 10000 3.09 10 15:59 15.04.2022
4193 Clouds 16 1024 77 10000 1.54 300 14:41 15.04.2022
4194 Clouds 14 1023 82 10000 2.57 300 13:33 15.04.2022
4195 Clouds 13 1023 87 10000 1.03 0 12:40 15.04.2022
4196 Clouds 12 1023 85 10000 3.6 120 11:54 15.04.2022
4197 Clear 13 1023 79 10000 1.03 0 10:53 15.04.2022
4198 Clear 12 1022 80 10000 1.03 0 10:24 15.04.2022
4199 Clouds 13 1022 80 10000 2.57 140 09:38 15.04.2022
4200 Clouds 13 1022 78 10000 2.57 140 09:18 15.04.2022
4201 Clouds 14 1023 79 10000 2.06 140 07:24 15.04.2022
4202 Clouds 14 1023 74 10000 3.09 130 05:57 15.04.2022
4203 Clear 16 1023 63 10000 3.6 80 01:49 15.04.2022
4204 Clear 18 1022 56 10000 2.57 60 23:30 14.04.2022
4205 Clear 19 1022 55 10000 2.57 40 22:47 14.04.2022
4206 Clear 19 1022 49 10000 2.57 40 22:28 14.04.2022
4207 Clear 19 1022 47 10000 3.6 60 21:54 14.04.2022
4208 Clear 20 1022 48 10000 3.09 30 20:35 14.04.2022
4209 Clear 20 1023 45 10000 3.6 60 19:22 14.04.2022
4210 Clear 19 1024 48 10000 3.09 60 17:58 14.04.2022
4211 Clear 18 1024 49 10000 3.09 60 17:28 14.04.2022
4212 Clear 18 1024 51 10000 1.03 0 16:33 14.04.2022
4213 Clear 14 1024 73 10000 2.06 160 14:23 14.04.2022
4214 Clear 12 1024 77 10000 2.57 160 13:31 14.04.2022
4215 Clear 12 1023 79 10000 2.57 170 12:42 14.04.2022
4216 Clear 12 1023 78 10000 2.57 170 12:22 14.04.2022
4217 Clear 12 1022 73 10000 1.54 0 11:21 14.04.2022
4218 Clear 12 1022 67 10000 2.57 170 10:36 14.04.2022
4219 Clear 12 1021 64 10000 2.06 190 09:54 14.04.2022
4220 Clear 12 1022 65 10000 3.72 195 08:40 14.04.2022
4221 Clear 13 1021 59 8000 1.03 0 06:50 14.04.2022
4222 Clear 15 1020 53 10000 0.51 0 02:45 14.04.2022
4223 Clear 20 1018 32 10000 1.54 0 22:52 13.04.2022
4224 Clear 20 1018 33 10000 2.57 0 21:44 13.04.2022
4225 Clear 20 1017 34 10000 2.57 220 20:53 13.04.2022
4226 Clear 19 1017 34 10000 2.57 220 20:22 13.04.2022
4227 Clear 19 1018 39 10000 3.09 220 19:23 13.04.2022
4228 Clouds 18 1019 46 10000 2.57 230 17:54 13.04.2022
4229 Clouds 17 1019 47 10000 2.57 230 17:23 13.04.2022
4230 Clear 16 1019 53 10000 2.06 0 16:33 13.04.2022
4231 Clear 15 1018 60 10000 2.06 210 15:32 13.04.2022
4232 Clear 13 1018 65 10000 1.54 200 14:50 13.04.2022
4233 Clear 12 1018 70 10000 1.03 0 13:58 13.04.2022
4234 Clear 11 1018 74 10000 1.03 0 12:59 13.04.2022
4235 Clear 10 1017 73 10000 1.03 0 12:19 13.04.2022
4236 Clear 11 1016 69 10000 1.54 220 10:44 13.04.2022
4237 Clear 12 1016 64 10000 1.54 230 08:50 13.04.2022
4238 Clear 12 1016 64 10000 1.54 230 08:28 13.04.2022
4239 Clear 13 1016 59 10000 1.54 230 06:50 13.04.2022
4240 Clear 13 1016 58 10000 1.54 230 06:25 13.04.2022
4241 Clear 16 1015 54 10000 2.06 300 03:31 13.04.2022
4242 Clear 17 1013 48 10000 2.57 250 00:20 13.04.2022
4243 Clear 20 1012 41 10000 3.09 240 22:46 12.04.2022
4244 Clear 20 1011 40 10000 3.6 270 21:57 12.04.2022
4245 Clear 21 1011 39 10000 3.6 250 20:49 12.04.2022
4246 Clear 21 1011 39 10000 3.6 250 20:27 12.04.2022
4247 Clear 21 1011 39 10000 2.57 240 19:41 12.04.2022
4248 Clear 21 1011 39 10000 2.57 240 19:19 12.04.2022
4249 Clear 20 1011 38 10000 3.09 220 17:50 12.04.2022
4250 Clear 19 1012 39 10000 2.57 230 16:50 12.04.2022
4251 Clear 18 1012 46 10000 2.57 250 15:39 12.04.2022
4252 Clear 17 1012 48 10000 2.57 250 15:20 12.04.2022
4253 Clear 14 1012 67 10000 1.54 290 13:53 12.04.2022
4254 Clear 14 1011 71 10000 1.54 290 13:27 12.04.2022
4255 Clear 14 1011 71 10000 1.54 290 13:27 12.04.2022
4256 Clear 13 1011 87 10000 1.54 290 12:26 12.04.2022
4257 Clear 13 1012 93 10000 2.06 280 11:39 12.04.2022
4258 Clear 14 1011 93 10000 1.03 0 09:59 12.04.2022
4259 Clear 14 1011 92 10000 2.06 290 08:53 12.04.2022
4260 Clear 14 1011 92 10000 1.54 290 07:21 12.04.2022
4261 Clear 15 1011 88 10000 2.06 310 05:42 12.04.2022
4262 Clear 17 1010 83 10000 2.57 230 02:49 12.04.2022
4263 Clouds 21 1007 65 10000 2.57 250 23:25 11.04.2022
4264 Clouds 22 1007 61 10000 4.63 240 22:33 11.04.2022
4265 Clouds 22 1006 61 10000 3.6 220 21:23 11.04.2022
4266 Clouds 24 1005 57 10000 3.09 0 20:35 11.04.2022
4267 Clouds 23 1005 64 10000 3.09 0 19:59 11.04.2022
4268 Clouds 22 1005 65 10000 3.09 0 19:27 11.04.2022
4269 Clear 21 1005 70 10000 3.6 350 18:56 11.04.2022
4270 Clear 21 1005 72 10000 1.03 0 17:58 11.04.2022
4271 Clear 21 1005 72 10000 1.03 0 17:39 11.04.2022
4272 Clear 21 1005 72 10000 1.03 0 17:39 11.04.2022
4273 Rain 18 1006 80 10000 2.06 220 16:36 11.04.2022
4274 Rain 17 1008 92 8000 3.6 0 14:59 11.04.2022
4275 Rain 17 1010 96 10000 0.45 135 13:36 11.04.2022
4276 Rain 18 1007 97 10000 1.54 250 12:39 11.04.2022
4277 Clear 17 1007 97 10000 1.54 250 12:20 11.04.2022
4278 Clouds 18 1006 97 10000 1.54 260 10:37 11.04.2022
4279 Clear 18 1006 94 10000 1.03 0 09:49 11.04.2022
4280 Thunderstorm 18 1006 95 5000 9.77 100 07:58 11.04.2022
4281 Rain 21 1010 87 8000 1.03 0 04:18 11.04.2022
4282 Clouds 23 1009 76 10000 3.09 100 23:27 10.04.2022
4283 Clouds 24 1009 76 10000 5.66 110 22:26 10.04.2022
4284 Clouds 25 1010 66 10000 5.66 110 21:43 10.04.2022
4285 Clouds 25 1010 63 10000 4.63 100 20:50 10.04.2022
4286 Clouds 25 1010 66 10000 4.12 100 19:54 10.04.2022
4287 Clouds 25 1010 67 10000 4.12 100 19:33 10.04.2022
4288 Clouds 24 1011 69 10000 2.06 70 18:46 10.04.2022
4289 Clear 25 1012 65 10000 2.65 39 18:20 10.04.2022
4290 Clear 25 1013 66 10000 0.89 225 17:41 10.04.2022
4291 Clear 24 1012 70 10000 3.52 28 16:47 10.04.2022
4292 Clear 23 1013 73 10000 4.11 20 15:37 10.04.2022
4293 Clouds 22 1013 82 10000 2.06 20 14:34 10.04.2022
4294 Clouds 19 1013 92 10000 2.06 10 12:41 10.04.2022
4295 Clouds 19 1013 92 10000 2.06 10 12:21 10.04.2022
4296 Clear 19 1012 90 10000 1.03 0 11:29 10.04.2022
4297 Clouds 19 1012 92 10000 2.57 80 10:57 10.04.2022
4298 Clouds 19 1012 92 10000 2.57 80 10:20 10.04.2022
4299 Clouds 19 1012 93 10000 1.03 70 09:39 10.04.2022
4300 Clouds 19 1012 90 10000 2.57 80 08:24 10.04.2022
4301 Clear 20 1013 89 10000 4.12 70 07:42 10.04.2022
4302 Clear 19 1013 89 10000 3.57 68 05:57 10.04.2022
4303 Clouds 20 1014 91 10000 7.72 100 02:34 10.04.2022
4304 Clear 20 1014 86 10000 4.63 110 00:29 10.04.2022
4305 Clear 21 1013 80 10000 5.14 110 23:49 09.04.2022
4306 Clear 22 1013 75 10000 5.14 100 22:48 09.04.2022
4307 Clear 23 1014 71 10000 3.6 90 21:35 09.04.2022
4308 Clear 23 1014 70 10000 4.12 80 20:49 09.04.2022
4309 Clear 23 1014 70 10000 4.12 80 20:26 09.04.2022
4310 Clear 24 1013 65 10000 2.76 87 19:42 09.04.2022
4311 Clear 24 1014 64 10000 2.56 80 18:59 09.04.2022
4312 Clear 23 1015 68 10000 2.42 72 18:20 09.04.2022
4313 Clouds 23 1016 74 10000 2.06 70 17:39 09.04.2022
4314 Clouds 21 1017 78 10000 2.57 60 16:52 09.04.2022
4315 Clouds 21 1017 79 10000 2.57 70 15:55 09.04.2022
4316 Clouds 20 1017 80 10000 2.57 70 15:30 09.04.2022
4317 Clouds 19 1017 84 10000 2.57 80 14:44 09.04.2022
4318 Clouds 19 1017 87 10000 2.57 80 14:22 09.04.2022
4319 Clouds 18 1016 90 10000 2.57 80 13:18 09.04.2022
4320 Clouds 18 1016 93 10000 2.06 70 12:41 09.04.2022
4321 Clouds 18 1017 93 10000 3.09 110 11:22 09.04.2022
4322 Clouds 18 1016 93 10000 3.6 120 10:21 09.04.2022
4323 Clouds 18 1016 94 8000 3.09 120 09:37 09.04.2022
4324 Clouds 18 1016 95 10000 2.06 150 08:53 09.04.2022
4325 Clouds 18 1016 94 10000 2.06 140 06:56 09.04.2022
4326 Clouds 19 1016 88 10000 4.63 120 01:32 09.04.2022
4327 Clouds 21 1015 82 10000 5.14 100 23:30 08.04.2022
4328 Clear 22 1015 70 10000 4.12 80 21:58 08.04.2022
4329 Clear 24 1014 64 10000 3.6 94 20:48 08.04.2022
4330 Clouds 23 1015 70 10000 5.66 110 20:23 08.04.2022
4331 Clear 24 1015 64 10000 3.1 94 19:20 08.04.2022
4332 Clouds 22 1016 74 10000 5.66 100 18:29 08.04.2022
4333 Clouds 22 1017 74 10000 6.17 100 17:46 08.04.2022
4334 Clouds 22 1017 75 10000 6.17 100 17:22 08.04.2022
4335 Clouds 22 1017 76 10000 4.12 100 16:47 08.04.2022
4336 Clouds 21 1017 80 10000 4.63 100 15:56 08.04.2022
4337 Clouds 21 1017 84 10000 4.63 100 15:25 08.04.2022
4338 Clouds 19 1017 87 10000 4.63 110 14:26 08.04.2022
4339 Clouds 19 1017 91 10000 4.63 100 13:44 08.04.2022
4340 Clouds 19 1017 92 10000 4.63 100 13:25 08.04.2022
4341 Clouds 19 1016 93 8000 6.17 100 11:53 08.04.2022
4342 Clouds 18 1015 89 7000 4.63 130 10:32 08.04.2022
4343 Clouds 18 1015 92 7000 5.66 130 09:26 08.04.2022
4344 Clouds 18 1016 92 7000 4.12 130 08:30 08.04.2022
4345 Clouds 19 1016 94 7000 6.69 110 06:47 08.04.2022
4346 Clouds 19 1016 94 7000 6.69 110 06:47 08.04.2022
4347 Clear 19 1016 91 8000 4.12 120 04:34 08.04.2022
4348 Clear 21 1016 74 10000 5.58 101 00:42 08.04.2022
4349 Clear 22 1016 72 10000 0.45 90 00:19 08.04.2022
4350 Clear 23 1014 66 10000 5.14 110 22:58 07.04.2022
4351 Clear 23 1014 65 10000 5.14 110 22:37 07.04.2022
4352 Clear 24 1014 63 10000 5.14 110 22:19 07.04.2022
4353 Clear 24 1015 64 10000 2.57 110 21:49 07.04.2022
4354 Clouds 25 1015 64 10000 3.09 80 20:58 07.04.2022
4355 Clouds 25 1015 61 10000 3.09 80 20:30 07.04.2022
4356 Clouds 23 1015 74 10000 3.6 100 17:57 07.04.2022
4357 Clouds 23 1015 76 10000 3.6 100 17:24 07.04.2022
4358 Clear 24 1015 72 10000 2.55 79 16:43 07.04.2022
4359 Rain 23 1016 76 10000 3.09 70 16:20 07.04.2022
4360 Clear 22 1016 86 9000 1.54 120 14:36 07.04.2022
4361 Clouds 20 1015 91 8000 1.03 0 13:42 07.04.2022
4362 Fog 17 1015 93 10000 1.03 0 12:40 07.04.2022
4363 Fog 17 1014 95 10000 1.03 0 10:58 07.04.2022
4364 Fog 18 1014 96 10000 0 0 09:36 07.04.2022
4365 Fog 18 1014 94 10000 0 0 08:37 07.04.2022
4366 Clear 19 1014 89 10000 0 0 06:42 07.04.2022
4367 Clear 20 1014 87 10000 2.57 110 02:43 07.04.2022
4368 Clear 21 1014 81 10000 1.03 0 01:52 07.04.2022
4369 Clear 23 1013 70 10000 2.06 50 23:56 06.04.2022
4370 Clouds 25 1013 61 10000 2.06 50 22:46 06.04.2022
4371 Clouds 25 1013 58 10000 2.06 50 22:24 06.04.2022
4372 Clouds 25 1013 58 10000 2.06 30 21:31 06.04.2022
4373 Clouds 24 1013 65 10000 2.57 40 20:27 06.04.2022
4374 Clouds 24 1014 67 10000 3.09 40 19:53 06.04.2022
4375 Clouds 24 1015 67 10000 2.57 40 18:50 06.04.2022
4376 Clouds 23 1015 66 10000 2.57 40 17:52 06.04.2022
4377 Clear 25 1015 55 10000 3.23 360 17:28 06.04.2022
4378 Clear 24 1015 58 10000 3.23 360 16:35 06.04.2022
4379 Clear 22 1016 68 10000 3.09 350 15:47 06.04.2022
4380 Clear 19 1016 82 10000 3.09 330 14:23 06.04.2022
4381 Clear 14 1016 94 10000 1.54 300 12:58 06.04.2022
4382 Clear 15 1016 90 10000 1.54 290 11:54 06.04.2022
4383 Clear 15 1015 88 10000 1.03 0 10:43 06.04.2022
4384 Clear 15 1015 88 10000 1.03 0 10:19 06.04.2022
4385 Clear 15 1015 88 10000 1.54 290 09:27 06.04.2022
4386 Clear 15 1015 87 10000 1.54 300 08:26 06.04.2022
4387 Clear 16 1015 84 10000 1.03 0 07:37 06.04.2022
4388 Clear 18 1015 67 10000 2.57 330 02:19 06.04.2022
4389 Clear 21 1015 50 10000 2.06 20 23:51 05.04.2022
4390 Clear 23 1015 45 10000 2.06 40 22:28 05.04.2022
4391 Clear 22 1015 46 10000 2.57 50 21:18 05.04.2022
4392 Clear 22 1015 46 10000 2.57 50 21:18 05.04.2022
4393 Clear 22 1016 49 10000 2.57 50 20:25 05.04.2022
4394 Clear 21 1017 48 10000 3.09 10 18:56 05.04.2022
4395 Clear 21 1018 46 10000 2.57 10 17:31 05.04.2022
4396 Clear 20 1018 51 10000 2.57 350 16:47 05.04.2022
4397 Clear 19 1018 50 10000 3.09 320 15:52 05.04.2022
4398 Clear 19 1019 50 10000 3.09 320 15:33 05.04.2022
4399 Clear 17 1018 58 10000 2.57 330 14:18 05.04.2022
4400 Clear 12 1018 69 10000 1.03 0 12:55 05.04.2022
4401 Clear 12 1018 69 10000 1.03 0 11:49 05.04.2022
4402 Clear 12 1017 68 10000 1.03 0 11:31 05.04.2022
4403 Clear 12 1017 69 10000 1.03 240 09:41 05.04.2022
4404 Clear 12 1017 69 10000 0.51 0 08:52 05.04.2022
4405 Clear 14 1018 66 10000 1.54 300 05:28 05.04.2022
4406 Clear 18 1017 38 10000 3.09 20 23:51 04.04.2022
4407 Clear 19 1016 35 10000 3.09 30 22:41 04.04.2022
4408 Clear 20 1017 38 10000 3.6 10 21:52 04.04.2022
4409 Clear 20 1017 39 10000 3.6 10 21:21 04.04.2022
4410 Clear 20 1017 37 10000 3.09 20 20:48 04.04.2022
4411 Clear 20 1018 33 10000 3.09 30 19:39 04.04.2022
4412 Clear 21 1018 28 10000 3.6 40 18:59 04.04.2022
4413 Clear 19 1018 28 10000 2.06 0 17:39 04.04.2022
4414 Clear 18 1018 31 10000 2.57 180 16:36 04.04.2022
4415 Clear 18 1019 35 10000 1.03 0 15:34 04.04.2022
4416 Clear 16 1018 43 10000 1.03 0 14:49 04.04.2022
4417 Clear 15 1018 46 10000 1.03 0 14:31 04.04.2022
4418 Clear 12 1018 63 10000 0.51 0 13:18 04.04.2022
4419 Clear 11 1017 63 10000 1.03 0 11:29 04.04.2022
4420 Clear 11 1017 60 10000 2.06 190 10:49 04.04.2022
4421 Clouds 13 1017 58 10000 2.57 190 07:46 04.04.2022
4422 Clouds 13 1017 58 10000 2.57 190 07:46 04.04.2022
4423 Clouds 18 1016 89 10000 1.03 0 03:19 04.04.2022
4424 Drizzle 18 1014 95 8000 1.54 350 00:25 04.04.2022
4425 Drizzle 20 1013 88 4500 4.12 330 22:31 03.04.2022
4426 Clouds 21 1012 79 10000 6.17 330 21:37 03.04.2022
4427 Clouds 22 1012 70 10000 4.12 340 20:40 03.04.2022
4428 Clouds 23 1013 64 10000 4.12 330 19:45 03.04.2022
4429 Clouds 22 1013 70 10000 3.6 30 18:29 03.04.2022
4430 Clear 21 1014 73 10000 3.09 30 17:44 03.04.2022
4431 Clear 21 1014 69 10000 4.12 360 16:50 03.04.2022
4432 Clear 21 1014 70 10000 4.12 360 16:21 03.04.2022
4433 Clear 19 1014 73 10000 4.12 340 14:28 03.04.2022
4434 Clear 18 1014 77 10000 5.14 360 13:45 03.04.2022
4435 Clear 17 1013 83 10000 3.6 350 12:19 03.04.2022
4436 Clear 17 1013 81 10000 4.12 360 10:54 03.04.2022
4437 Clear 17 1014 77 10000 3.6 20 09:23 03.04.2022
4438 Clear 18 1015 72 10000 3.09 40 07:24 03.04.2022
4439 Clear 18 1016 63 10000 4.12 40 03:46 03.04.2022
4440 Clear 19 1017 58 10000 4.63 10 00:41 03.04.2022
4441 Clouds 21 1017 51 10000 3.6 40 22:54 02.04.2022
4442 Clouds 21 1018 51 10000 4.12 40 21:57 02.04.2022
4443 Clouds 21 1018 51 10000 4.12 40 21:33 02.04.2022
4444 Clouds 21 1019 52 10000 3.6 30 20:51 02.04.2022
4445 Clouds 21 1020 57 10000 4.63 10 19:28 02.04.2022
4446 Clouds 21 1021 58 10000 5.66 360 18:20 02.04.2022
4447 Clouds 20 1022 60 10000 6.17 360 17:47 02.04.2022
4448 Clear 18 1023 65 10000 6.17 360 16:22 02.04.2022
4449 Clear 17 1023 70 10000 6.17 10 15:21 02.04.2022
4450 Clear 17 1023 74 10000 5.14 10 14:43 02.04.2022
4451 Clear 16 1023 76 10000 7.2 10 13:34 02.04.2022
4452 Clear 14 1023 80 10000 6.17 10 12:37 02.04.2022
4453 Clear 14 1023 84 10000 3.09 50 10:56 02.04.2022
4454 Clear 14 1024 82 10000 3.09 40 08:44 02.04.2022
4455 Clear 15 1024 81 10000 4.63 60 06:49 02.04.2022
4456 Clear 16 1025 74 10000 4.63 80 03:39 02.04.2022
4457 Clear 17 1024 54 10000 3.09 70 23:55 01.04.2022
4458 Clear 18 1024 47 10000 3.09 70 23:18 01.04.2022
4459 Clear 19 1025 48 10000 3.09 60 21:32 01.04.2022
4460 Clouds 18 1025 48 10000 3.6 60 20:50 01.04.2022
4461 Clouds 19 1026 47 10000 3.09 50 19:51 01.04.2022
4462 Clear 19 1025 45 10000 2.79 53 19:30 01.04.2022
4463 Clear 19 1026 45 10000 2.96 41 18:44 01.04.2022
4464 Clear 19 1027 42 10000 2.98 27 17:46 01.04.2022
4465 Clear 18 1028 48 10000 3.09 360 16:42 01.04.2022
4466 Clear 16 1028 54 10000 2.06 10 15:23 01.04.2022
4467 Clear 15 1028 57 10000 2.06 350 14:19 01.04.2022
4468 Clear 13 1028 62 10000 1.03 0 13:33 01.04.2022
4469 Clear 11 1028 73 10000 0 0 12:32 01.04.2022
4470 Clear 11 1027 74 10000 1.03 300 11:33 01.04.2022
4471 Clear 11 1027 68 10000 0.51 0 10:18 01.04.2022
4472 Clear 12 1027 70 10000 0 0 07:59 01.04.2022
4473 Clear 12 1027 65 10000 1.03 260 06:31 01.04.2022
4474 Clear 13 1026 63 10000 1.03 0 04:45 01.04.2022
4475 Clear 13 1026 60 10000 1.03 300 03:41 01.04.2022
4476 Clear 15 1025 55 10000 1.03 0 01:54 01.04.2022
4477 Clear 18 1024 34 10000 2.57 0 22:58 31.03.2022
4478 Clear 19 1024 33 10000 1.03 0 21:50 31.03.2022
4479 Clear 18 1024 32 10000 1.03 0 21:31 31.03.2022
4480 Clear 18 1024 31 10000 2.57 0 20:28 31.03.2022
4481 Clear 18 1024 32 10000 2.57 0 19:46 31.03.2022
4482 Clear 17 1025 33 10000 2.57 0 18:38 31.03.2022
4483 Clear 17 1025 35 10000 2.57 210 17:33 31.03.2022
4484 Clear 15 1026 42 10000 2.57 230 16:18 31.03.2022
4485 Clear 14 1025 45 10000 2.57 0 15:33 31.03.2022
4486 Clear 13 1026 52 10000 1.54 0 14:52 31.03.2022
4487 Clear 12 1025 57 10000 1.54 0 14:19 31.03.2022
4488 Clear 9 1023 70 10000 1.03 0 11:32 31.03.2022
4489 Clear 9 1023 70 10000 1.03 230 10:41 31.03.2022
4490 Clear 9 1023 69 10000 1.03 0 09:43 31.03.2022
4491 Clear 10 1022 64 10000 1.54 240 07:49 31.03.2022
4492 Clear 12 1021 55 10000 2.06 230 03:57 31.03.2022
4493 Clear 15 1018 40 10000 4.12 240 23:27 30.03.2022
4494 Clear 16 1018 37 10000 4.12 240 22:20 30.03.2022
4495 Clear 16 1018 41 10000 4.12 210 21:32 30.03.2022
4496 Clear 16 1017 41 10000 4.63 230 20:44 30.03.2022
4497 Clear 16 1018 43 10000 4.12 240 19:54 30.03.2022
4498 Clear 16 1018 42 10000 4.12 230 18:50 30.03.2022
4499 Clear 15 1018 42 10000 4.63 220 17:52 30.03.2022
4500 Clear 15 1018 42 10000 4.63 220 17:29 30.03.2022
4501 Clear 14 1018 44 10000 3.6 220 16:41 30.03.2022
4502 Clear 14 1018 44 10000 3.6 220 16:18 30.03.2022
4503 Clear 11 1017 50 10000 3.6 240 14:42 30.03.2022
4504 Clear 10 1016 57 10000 3.6 230 13:23 30.03.2022
4505 Clear 9 1016 59 10000 3.6 240 12:32 30.03.2022
4506 Clear 10 1014 59 10000 4.12 0 10:48 30.03.2022
4507 Clear 10 1015 60 10000 3.6 0 09:58 30.03.2022
4508 Clear 11 1015 57 10000 4.12 210 08:27 30.03.2022
4509 Clear 12 1015 54 10000 3.6 0 07:28 30.03.2022
4510 Clear 15 1014 40 10000 3.6 0 05:40 30.03.2022
4511 Clear 19 1011 37 10000 3.6 220 02:32 30.03.2022
4512 Clouds 21 1005 56 9000 3.09 210 22:42 29.03.2022
4513 Clouds 23 1004 58 10000 6.17 190 21:49 29.03.2022
4514 Clouds 22 1003 58 10000 6.17 190 21:28 29.03.2022
4515 Clouds 25 1004 68 10000 4.63 340 20:25 29.03.2022
4516 Clear 28 1004 55 10000 5.66 310 19:31 29.03.2022
4517 Clear 27 1005 56 10000 3.59 285 18:53 29.03.2022
4518 Clear 27 1005 59 10000 4.63 340 17:48 29.03.2022
4519 Clear 27 1006 55 10000 4.04 331 17:18 29.03.2022
4520 Clear 26 1006 60 10000 3.09 360 16:52 29.03.2022
4521 Clear 23 1007 68 10000 4.63 330 15:20 29.03.2022
4522 Clear 22 1007 73 10000 3.6 330 14:43 29.03.2022
4523 Clear 20 1007 77 10000 4.63 340 13:33 29.03.2022
4524 Clear 20 1007 79 10000 4.12 340 11:58 29.03.2022
4525 Clear 20 1008 80 10000 3.6 340 10:59 29.03.2022
4526 Clear 20 1009 80 10000 2.57 330 09:50 29.03.2022
4527 Clear 21 1009 76 10000 3.6 330 08:32 29.03.2022
4528 Clear 21 1010 75 10000 2.57 310 05:44 29.03.2022
4529 Clear 23 1011 75 10000 2.57 350 01:31 29.03.2022
4530 Clear 25 1011 63 10000 2.57 360 23:26 28.03.2022
4531 Clear 26 1011 59 10000 2.57 10 22:55 28.03.2022
4532 Clear 26 1011 57 10000 2.57 10 22:30 28.03.2022
4533 Clear 27 1012 52 10000 4.06 3 21:18 28.03.2022
4534 Clear 27 1012 50 10000 4.06 3 20:32 28.03.2022
4535 Clouds 27 1012 52 10000 4.12 9 19:46 28.03.2022
4536 Clouds 26 1013 54 10000 4.01 15 19:28 28.03.2022
4537 Clouds 26 1013 54 10000 4.01 15 18:40 28.03.2022
4538 Clouds 25 1014 56 10000 4.21 17 17:39 28.03.2022
4539 Clear 24 1015 59 10000 4.59 16 16:38 28.03.2022
4540 Clear 22 1017 68 10000 2.06 350 14:49 28.03.2022
4541 Clear 20 1017 71 10000 2.06 350 14:22 28.03.2022
4542 Clear 17 1017 86 10000 2.06 330 12:41 28.03.2022
4543 Clear 17 1016 84 10000 1.54 330 11:32 28.03.2022
4544 Clear 18 1016 80 10000 2.57 330 09:43 28.03.2022
4545 Rain 18 1016 80 10000 2.57 330 09:19 28.03.2022
4546 Clear 18 1016 81 10000 1.54 320 08:22 28.03.2022
4547 Clear 19 1016 81 10000 1.54 310 07:34 28.03.2022
4548 Clear 20 1015 74 10000 2.06 330 03:52 28.03.2022
4549 Clear 27 1013 42 10000 2.57 290 23:30 27.03.2022
4550 Clear 28 1012 41 10000 3.6 280 22:24 27.03.2022
4551 Clear 28 1012 40 10000 3.09 290 21:42 27.03.2022
4552 Clear 28 1012 38 10000 4.12 290 20:57 27.03.2022
4553 Clear 27 1013 40 10000 2.57 0 19:49 27.03.2022
4554 Clear 27 1013 40 10000 2.57 0 19:24 27.03.2022
4555 Clear 26 1013 43 10000 3.09 280 18:27 27.03.2022
4556 Clear 25 1013 45 10000 3.09 280 17:39 27.03.2022
4557 Clear 23 1014 51 10000 4.12 290 16:28 27.03.2022
4558 Clear 21 1014 64 10000 3.6 300 15:21 27.03.2022
4559 Clear 17 1013 90 10000 1.03 0 13:55 27.03.2022
4560 Clear 14 1012 97 10000 0.51 0 12:31 27.03.2022
4561 Clouds 15 1011 95 7000 1.54 310 10:57 27.03.2022
4562 Fog 15 1010 93 7000 1.03 0 08:51 27.03.2022
4563 Clear 17 1009 87 9000 1.03 0 05:54 27.03.2022
4564 Clear 19 1008 80 10000 1.54 270 00:48 27.03.2022
4565 Clouds 20 1008 73 10000 2.57 250 23:40 26.03.2022
4566 Clouds 22 1007 69 10000 3.09 250 22:36 26.03.2022
4567 Clouds 22 1007 65 10000 3.6 0 21:33 26.03.2022
4568 Clouds 23 1007 59 10000 3.6 240 20:20 26.03.2022
4569 Clouds 22 1007 61 10000 3.09 240 19:21 26.03.2022
4570 Clouds 21 1008 69 10000 3.6 240 17:51 26.03.2022
4571 Clouds 20 1008 70 10000 3.6 240 17:30 26.03.2022
4572 Clouds 19 1009 76 10000 3.09 230 16:25 26.03.2022
4573 Clouds 19 1009 81 10000 3.09 230 14:51 26.03.2022
4574 Clouds 18 1008 82 10000 3.09 240 13:52 26.03.2022
4575 Clouds 17 1008 87 10000 3.6 0 12:44 26.03.2022
4576 Clouds 17 1008 88 10000 3.09 230 11:29 26.03.2022
4577 Clouds 17 1007 89 10000 2.57 240 09:23 26.03.2022
4578 Clouds 17 1006 91 10000 2.57 0 08:28 26.03.2022
4579 Drizzle 17 1007 95 4000 2.06 220 05:54 26.03.2022
4580 Clouds 17 1006 87 10000 1.03 0 03:58 26.03.2022
4581 Clouds 18 1005 85 10000 0.89 180 23:39 25.03.2022
4582 Clouds 21 1001 78 10000 4.12 250 21:28 25.03.2022
4583 Clouds 20 1000 88 10000 4.12 250 20:45 25.03.2022
4584 Drizzle 19 1001 90 4000 4.12 230 19:28 25.03.2022
4585 Drizzle 18 1001 93 1500 4.12 260 18:46 25.03.2022
4586 Drizzle 18 1001 93 1500 4.12 260 18:46 25.03.2022
4587 Drizzle 18 1002 95 5000 4.12 270 17:35 25.03.2022
4588 Drizzle 18 1002 95 5000 4.12 270 17:35 25.03.2022
4589 Drizzle 17 1002 92 5000 4.12 280 16:41 25.03.2022
4590 Drizzle 16 1002 94 4000 4.63 290 15:52 25.03.2022
4591 Clouds 12 1003 88 10000 4.12 290 13:51 25.03.2022
4592 Clear 11 1003 88 10000 2.57 270 12:20 25.03.2022
4593 Clear 10 1004 90 10000 3.09 0 09:47 25.03.2022
4594 Clear 10 1004 90 10000 3.09 0 09:19 25.03.2022
4595 Clouds 10 1003 92 10000 2.57 0 07:48 25.03.2022
4596 Clouds 10 1003 92 10000 2.57 0 07:21 25.03.2022
4597 Rain 12 1000 97 6000 3.09 200 04:35 25.03.2022
4598 Rain 11 999 90 9000 10.29 330 23:55 24.03.2022
4599 Clouds 12 1001 79 10000 10.29 330 22:24 24.03.2022
4600 Rain 14 1001 70 10000 9.26 320 21:29 24.03.2022
4601 Clouds 14 1002 69 10000 9.26 310 19:50 24.03.2022
4602 Clouds 16 1003 64 10000 8.75 300 18:46 24.03.2022
4603 Clouds 17 1002 61 10000 10.29 300 17:38 24.03.2022
4604 Clouds 17 1002 58 10000 10.29 310 16:41 24.03.2022
4605 Clouds 16 1003 71 10000 7.72 300 14:58 24.03.2022
4606 Clouds 16 1003 72 10000 7.72 300 14:39 24.03.2022
4607 Clouds 15 1003 79 10000 4.63 290 13:36 24.03.2022
4608 Clouds 15 1002 86 10000 6.17 290 12:35 24.03.2022
4609 Clouds 15 1001 91 10000 5.14 280 11:31 24.03.2022
4610 Clouds 16 1001 94 10000 6.17 300 09:34 24.03.2022
4611 Rain 17 1001 94 8000 6.17 300 08:39 24.03.2022
4612 Rain 20 1000 94 6283 2.24 315 05:45 24.03.2022
4613 Clouds 22 1004 88 10000 4.63 120 00:47 24.03.2022
4614 Clouds 24 1003 84 10000 6.17 100 22:23 23.03.2022
4615 Clouds 24 1003 79 10000 5.66 110 21:24 23.03.2022
4616 Clouds 24 1004 81 10000 6.17 110 20:45 23.03.2022
4617 Clouds 25 1005 77 10000 3.09 90 19:33 23.03.2022
4618 Clouds 25 1006 75 10000 2.57 80 18:18 23.03.2022
4619 Clouds 23 1006 84 10000 3.09 70 17:25 23.03.2022
4620 Clouds 24 1008 78 10000 2.57 30 15:56 23.03.2022
4621 Clouds 23 1008 82 10000 3.6 10 14:48 23.03.2022
4622 Clouds 22 1009 87 10000 3.09 10 13:34 23.03.2022
4623 Clouds 20 1009 96 10000 4.12 340 11:33 23.03.2022
4624 Clouds 20 1009 93 10000 4.12 360 08:41 23.03.2022
4625 Clouds 20 1010 92 10000 2.06 350 05:50 23.03.2022
4626 Clouds 21 1011 91 9000 3.6 70 02:50 23.03.2022
4627 Clouds 22 1011 88 10000 2.57 80 00:26 23.03.2022
4628 Clouds 22 1011 81 10000 2.06 40 21:52 22.03.2022
4629 Clouds 23 1011 80 10000 2.06 40 21:23 22.03.2022
4630 Clouds 23 1011 78 10000 2.06 40 20:23 22.03.2022
4631 Clouds 24 1011 68 10000 4.84 12 19:27 22.03.2022
4632 Clouds 23 1012 77 10000 2.06 10 18:48 22.03.2022
4633 Clouds 22 1012 78 10000 3.09 340 17:43 22.03.2022
4634 Clouds 21 1013 84 10000 5.14 350 16:39 22.03.2022
4635 Clouds 21 1014 86 10000 5.14 360 15:41 22.03.2022
4636 Clouds 20 1014 87 10000 5.14 360 15:20 22.03.2022
4637 Clouds 20 1014 89 10000 4.12 10 14:42 22.03.2022
4638 Clouds 19 1015 90 10000 5.14 360 13:42 22.03.2022
4639 Clouds 18 1014 93 10000 5.14 40 11:53 22.03.2022
4640 Clouds 18 1014 93 10000 5.14 30 10:54 22.03.2022
4641 Clouds 18 1014 92 9000 3.6 0 09:21 22.03.2022
4642 Rain 18 1016 94 10000 0.45 68 07:30 22.03.2022
4643 Rain 21 1016 74 10000 5.66 120 03:55 22.03.2022
4644 Clear 21 1015 69 10000 5.14 100 00:46 22.03.2022
4645 Clear 21 1016 67 10000 5.14 110 22:46 21.03.2022
4646 Clear 22 1016 62 10000 4.63 90 21:25 21.03.2022
4647 Clear 21 1017 63 10000 3.6 60 20:43 21.03.2022
4648 Rain 22 1017 60 10000 3.6 60 20:23 21.03.2022
4649 Clouds 21 1018 62 10000 4.63 60 19:35 21.03.2022
4650 Clouds 21 1018 62 10000 4.63 60 19:35 21.03.2022
4651 Clouds 21 1018 62 10000 4.63 60 19:35 21.03.2022
4652 Clouds 20 1019 62 10000 4.12 50 18:47 21.03.2022
4653 Clouds 20 1020 61 10000 4.63 40 17:35 21.03.2022
4654 Clouds 20 1021 61 10000 5.14 40 16:59 21.03.2022
4655 Clouds 20 1021 61 10000 5.14 40 16:26 21.03.2022
4656 Clear 19 1022 68 10000 5.66 50 15:37 21.03.2022
4657 Clear 17 1023 71 10000 6.17 60 14:29 21.03.2022
4658 Clouds 16 1023 75 10000 5.14 60 12:58 21.03.2022
4659 Clouds 16 1023 76 9000 6.17 60 11:57 21.03.2022
4660 Clouds 16 1023 79 10000 6.69 60 10:59 21.03.2022
4661 Clouds 16 1023 77 10000 7.2 60 09:42 21.03.2022
4662 Clear 16 1023 72 10000 8.75 60 07:22 21.03.2022
4663 Clear 17 1024 52 10000 9.26 60 04:54 21.03.2022
4664 Clear 17 1024 62 10000 9.26 100 00:36 21.03.2022
4665 Clouds 18 1024 66 10000 8.75 110 22:56 20.03.2022
4666 Clouds 18 1024 66 10000 8.75 110 22:22 20.03.2022
4667 Clear 20 1025 61 10000 8.75 100 21:31 20.03.2022
4668 Clouds 20 1025 60 10000 7.72 100 20:48 20.03.2022
4669 Clouds 20 1025 59 10000 7.72 100 20:25 20.03.2022
4670 Clouds 21 1025 58 10000 6.17 90 19:43 20.03.2022
4671 Clouds 20 1026 56 10000 5.14 70 18:48 20.03.2022
4672 Clouds 20 1026 53 10000 4.63 80 17:38 20.03.2022
4673 Clouds 20 1027 54 10000 3.6 70 16:59 20.03.2022
4674 Clouds 19 1027 58 10000 3.09 70 15:56 20.03.2022
4675 Clouds 19 1027 58 10000 2.57 30 14:36 20.03.2022
4676 Clouds 17 1027 72 10000 4.12 120 13:20 20.03.2022
4677 Clouds 14 1027 71 9000 1.54 190 11:37 20.03.2022
4678 Clouds 13 1026 72 8000 1.54 200 09:57 20.03.2022
4679 Clouds 15 1026 68 10000 2.06 40 07:51 20.03.2022
4680 Clear 16 1026 65 10000 2.57 60 05:49 20.03.2022
4681 Clear 16 1025 59 10000 1.03 0 02:53 20.03.2022
4682 Clear 17 1024 53 10000 2.06 140 00:48 20.03.2022
4683 Clear 17 1024 49 10000 2.06 90 23:21 19.03.2022
4684 Clear 19 1024 42 10000 4.12 70 21:41 19.03.2022
4685 Clear 19 1024 41 10000 4.12 70 21:18 19.03.2022
4686 Clear 20 1024 37 10000 4.63 70 19:21 19.03.2022
4687 Clear 19 1024 38 10000 4.63 80 18:25 19.03.2022
4688 Clear 19 1025 37 10000 5.14 100 17:41 19.03.2022
4689 Clear 17 1025 38 10000 3.09 0 16:24 19.03.2022
4690 Clear 16 1026 42 10000 3.6 160 15:20 19.03.2022
4691 Clear 13 1025 53 10000 2.57 150 13:35 19.03.2022
4692 Clear 12 1025 62 10000 1.03 0 12:41 19.03.2022
4693 Clear 11 1025 67 10000 1.54 170 11:54 19.03.2022
4694 Clear 11 1025 68 10000 1.54 170 11:25 19.03.2022
4695 Clear 12 1024 65 10000 3.6 160 07:59 19.03.2022
4696 Clear 14 1024 68 10000 3.09 160 03:53 19.03.2022
4697 Clear 15 1023 70 10000 3.6 150 02:30 19.03.2022
4698 Clouds 17 1020 56 10000 3.6 170 23:46 18.03.2022
4699 Clouds 18 1020 51 10000 3.09 170 22:29 18.03.2022
4700 Clouds 19 1020 52 10000 3.6 0 21:55 18.03.2022
4701 Clouds 18 1019 62 10000 6.17 150 19:54 18.03.2022
4702 Clouds 18 1019 63 10000 6.17 150 19:22 18.03.2022
4703 Rain 17 1019 71 10000 4.12 170 18:18 18.03.2022
4704 Rain 15 1019 88 7000 6.69 140 16:51 18.03.2022
4705 Rain 14 1019 91 3000 4.12 160 15:32 18.03.2022
4706 Rain 15 1020 92 3000 2.06 170 14:23 18.03.2022
4707 Rain 16 1016 91 7000 5.66 160 12:38 18.03.2022
4708 Rain 17 1015 93 5000 4.63 160 10:58 18.03.2022
4709 Rain 17 1014 93 9000 2.57 170 09:30 18.03.2022
4710 Clouds 17 1013 96 10000 5.14 160 08:42 18.03.2022
4711 Rain 19 1013 78 8000 5.66 160 06:37 18.03.2022
4712 Clear 25 1009 80 10000 0.51 0 03:19 18.03.2022
4713 Clear 26 1008 72 10000 1.03 0 00:39 18.03.2022
4714 Clear 27 1008 69 10000 1.03 0 23:38 17.03.2022
4715 Clear 27 1007 70 10000 2.06 20 22:25 17.03.2022
4716 Clear 28 1007 67 10000 2.06 40 21:48 17.03.2022
4717 Clouds 29 1007 61 10000 1.44 50 21:23 17.03.2022
4718 Clouds 30 1007 57 10000 1.44 50 20:44 17.03.2022
4719 Clouds 31 1007 51 10000 1.23 44 19:48 17.03.2022
4720 Clouds 30 1007 55 10000 1.52 11 18:59 17.03.2022
4721 Clouds 31 1007 47 10000 1.52 11 18:39 17.03.2022
4722 Clouds 30 1008 52 10000 1.95 359 16:49 17.03.2022
4723 Clouds 29 1009 55 10000 2.03 328 15:44 17.03.2022
4724 Clouds 28 1010 57 10000 2.81 335 15:24 17.03.2022
4725 Clear 25 1009 83 10000 2.57 350 14:28 17.03.2022
4726 Clear 24 1009 81 10000 1.54 320 12:51 17.03.2022
4727 Clear 22 1009 88 10000 1.54 320 12:22 17.03.2022
4728 Clear 21 1009 92 10000 3.09 330 11:27 17.03.2022
4729 Clear 22 1008 87 10000 2.57 330 09:57 17.03.2022
4730 Clouds 22 1008 85 10000 2.57 320 08:34 17.03.2022
4731 Clouds 22 1008 85 10000 2.57 320 08:34 17.03.2022
4732 Clouds 23 1009 84 10000 3.09 330 07:33 17.03.2022
4733 Clear 23 1009 79 10000 3.09 360 05:47 17.03.2022
4734 Clear 25 1010 63 10000 2.06 10 00:46 17.03.2022
4735 Clear 26 1010 56 10000 2.57 360 23:39 16.03.2022
4736 Clear 27 1010 48 10000 3.6 360 22:44 16.03.2022
4737 Clear 27 1010 46 10000 3.6 360 22:21 16.03.2022
4738 Clear 27 1010 52 10000 3.09 20 21:34 16.03.2022
4739 Clear 28 1012 50 10000 3.6 20 19:40 16.03.2022
4740 Clear 27 1012 51 10000 3.6 20 19:19 16.03.2022
4741 Clear 27 1013 52 10000 3.6 10 18:35 16.03.2022
4742 Clear 27 1014 53 10000 4.63 10 17:41 16.03.2022
4743 Clear 27 1013 50 10000 4.73 15 16:50 16.03.2022
4744 Clear 27 1016 51 10000 0.89 135 15:53 16.03.2022
4745 Clear 25 1015 60 10000 4.12 360 14:24 16.03.2022
4746 Clear 24 1015 72 10000 2.06 340 13:22 16.03.2022
4747 Clear 21 1015 81 10000 2.06 310 11:51 16.03.2022
4748 Clear 20 1015 82 10000 2.06 310 11:19 16.03.2022
4749 Clear 21 1014 78 10000 2.06 310 09:59 16.03.2022
4750 Clear 21 1014 77 10000 1.54 300 08:37 16.03.2022
4751 Clear 24 1015 71 10000 2.06 310 03:33 16.03.2022
4752 Clear 25 1014 67 10000 2.06 20 23:39 15.03.2022
4753 Clouds 27 1014 64 10000 2.57 50 22:37 15.03.2022
4754 Clouds 27 1014 60 10000 3.6 50 21:33 15.03.2022
4755 Clouds 29 1013 49 10000 4.33 21 19:47 15.03.2022
4756 Clouds 29 1014 47 10000 3.66 24 18:41 15.03.2022
4757 Clear 28 1016 51 10000 2.57 270 16:47 15.03.2022
4758 Clear 27 1016 52 10000 2.57 270 16:18 15.03.2022
4759 Clear 25 1016 56 10000 2.57 300 14:55 15.03.2022
4760 Clear 24 1016 58 10000 2.57 300 14:30 15.03.2022
4761 Clear 22 1016 61 10000 3.09 320 13:24 15.03.2022
4762 Clear 21 1015 69 10000 3.09 300 11:48 15.03.2022
4763 Clear 20 1015 71 10000 3.09 300 10:56 15.03.2022
4764 Clear 20 1014 71 10000 2.57 310 09:30 15.03.2022
4765 Clear 20 1014 70 10000 3.09 320 08:32 15.03.2022
4766 Clear 21 1014 70 10000 4.12 310 07:39 15.03.2022
4767 Clear 21 1014 72 10000 3.6 320 06:32 15.03.2022
4768 Clear 22 1014 70 10000 3.09 310 01:59 15.03.2022
4769 Clear 24 1013 67 10000 4.63 360 23:32 14.03.2022
4770 Clear 25 1012 64 10000 3.09 10 22:54 14.03.2022
4771 Clear 26 1012 59 10000 3.6 30 21:56 14.03.2022
4772 Clear 26 1012 58 10000 3.6 30 21:18 14.03.2022
4773 Clear 26 1013 56 10000 3.6 10 20:30 14.03.2022
4774 Clear 27 1014 51 10000 3.6 10 19:33 14.03.2022
4775 Clouds 26 1015 53 10000 4.12 360 17:59 14.03.2022
4776 Clouds 26 1015 53 10000 4.12 360 17:41 14.03.2022
4777 Clear 26 1015 52 10000 2.03 352 16:33 14.03.2022
4778 Clear 23 1016 55 10000 3.09 290 14:52 14.03.2022
4779 Clear 21 1016 61 10000 2.57 330 13:57 14.03.2022
4780 Clear 16 1017 84 10000 2.06 290 11:26 14.03.2022
4781 Clear 17 1016 87 10000 2.06 300 09:57 14.03.2022
4782 Clear 17 1016 86 10000 2.06 300 09:35 14.03.2022
4783 Clear 17 1015 84 10000 2.06 300 08:58 14.03.2022
4784 Clear 17 1015 84 10000 2.06 300 08:28 14.03.2022
4785 Clear 18 1016 77 10000 1.03 0 06:47 14.03.2022
4786 Clear 19 1018 62 10000 2.26 66 02:59 14.03.2022
4787 Clear 20 1017 58 10000 2.57 70 01:39 14.03.2022
4788 Clear 21 1016 60 10000 2.57 60 23:41 13.03.2022
4789 Clear 23 1017 57 10000 3.09 30 21:46 13.03.2022
4790 Clear 23 1017 55 10000 3.09 30 21:21 13.03.2022
4791 Clear 23 1017 55 10000 3.09 30 20:46 13.03.2022
4792 Clear 24 1017 53 10000 3.09 30 20:21 13.03.2022
4793 Clear 24 1018 53 10000 3.6 60 19:41 13.03.2022
4794 Clear 25 1017 48 10000 2.62 58 19:21 13.03.2022
4795 Clouds 24 1018 53 10000 3.6 50 18:41 13.03.2022
4796 Clouds 24 1018 54 10000 3.6 50 18:22 13.03.2022
4797 Clear 24 1019 52 10000 3.09 50 17:36 13.03.2022
4798 Clouds 23 1020 50 10000 2.57 40 16:44 13.03.2022
4799 Clear 23 1020 49 10000 1.3 73 16:21 13.03.2022
4800 Clouds 22 1020 56 10000 2.06 30 15:36 13.03.2022
4801 Clouds 21 1021 59 10000 2.57 60 14:20 13.03.2022
4802 Clear 19 1021 64 10000 1.03 0 13:27 13.03.2022
4803 Clear 18 1021 76 10000 1.03 0 12:20 13.03.2022
4804 Clear 16 1021 85 10000 0.51 0 11:36 13.03.2022
4805 Clear 16 1020 82 10000 2.06 90 10:48 13.03.2022
4806 Clear 16 1020 82 10000 2.06 90 10:25 13.03.2022
4807 Clear 16 1019 81 10000 2.57 70 09:41 13.03.2022
4808 Clear 17 1019 81 10000 3.09 70 08:47 13.03.2022
4809 Clear 17 1019 78 10000 3.09 80 07:57 13.03.2022
4810 Clear 18 1020 78 10000 4.12 70 05:55 13.03.2022
4811 Clouds 19 1020 71 10000 3.6 70 03:26 13.03.2022
4812 Clear 20 1018 58 10000 3.6 80 00:30 13.03.2022
4813 Clear 22 1018 53 10000 3.6 70 22:44 12.03.2022
4814 Clear 23 1018 49 10000 4.12 60 20:58 12.03.2022
4815 Clear 23 1018 49 10000 3.09 50 19:56 12.03.2022
4816 Clear 24 1018 49 10000 3.09 50 19:38 12.03.2022
4817 Clear 24 1019 47 10000 2.14 65 18:27 12.03.2022
4818 Clear 23 1019 44 10000 3.6 10 17:34 12.03.2022
4819 Clear 22 1019 44 10000 3.09 360 16:24 12.03.2022
4820 Clear 21 1020 46 10000 2.57 30 15:24 12.03.2022
4821 Clear 21 1020 49 10000 2.57 360 14:50 12.03.2022
4822 Clouds 20 1019 50 10000 0.51 0 13:47 12.03.2022
4823 Clouds 15 1019 85 7000 1.03 0 11:57 12.03.2022
4824 Clouds 15 1019 87 7000 1.03 0 11:38 12.03.2022
4825 Clear 14 1019 81 10000 1.03 0 10:58 12.03.2022
4826 Clear 14 1019 77 10000 1.03 180 09:45 12.03.2022
4827 Clear 15 1019 75 10000 1.54 200 08:56 12.03.2022
4828 Clear 16 1019 70 10000 1.54 210 07:27 12.03.2022
4829 Clear 18 1020 64 10000 1.03 0 03:36 12.03.2022
4830 Clear 20 1019 54 10000 0.45 45 23:56 11.03.2022
4831 Clear 20 1019 54 10000 0.45 45 23:56 11.03.2022
4832 Clear 20 1019 54 10000 0.45 45 23:56 11.03.2022
4833 Clear 21 1018 50 10000 3.09 190 23:18 11.03.2022
4834 Clear 21 1018 50 10000 3.09 190 23:18 11.03.2022
4835 Clear 22 1017 47 10000 2.57 0 21:35 11.03.2022
4836 Clear 23 1017 45 10000 3.6 200 20:55 11.03.2022
4837 Clear 23 1017 45 10000 3.6 200 20:34 11.03.2022
4838 Clouds 23 1017 46 10000 4.12 0 19:49 11.03.2022
4839 Clouds 23 1017 47 10000 4.12 0 19:22 11.03.2022
4840 Clouds 22 1018 52 10000 3.09 0 17:30 11.03.2022
4841 Clear 21 1018 55 10000 3.6 0 16:27 11.03.2022
4842 Clouds 21 1018 59 10000 3.6 280 15:53 11.03.2022
4843 Clear 20 1018 66 10000 2.57 280 14:19 11.03.2022
4844 Clear 18 1019 75 10000 2.06 290 12:44 11.03.2022
4845 Clear 17 1019 76 10000 2.06 290 12:21 11.03.2022
4846 Clear 17 1018 80 10000 2.57 290 11:51 11.03.2022
4847 Clear 16 1017 82 10000 2.57 300 09:40 11.03.2022
4848 Clear 16 1017 82 10000 1.03 0 08:47 11.03.2022
4849 Clear 16 1016 82 10000 1.03 290 07:53 11.03.2022
4850 Clear 16 1016 80 10000 1.03 290 07:28 11.03.2022
4851 Clear 17 1017 71 10000 1.03 0 05:42 11.03.2022
4852 Clear 19 1016 67 10000 5.66 110 02:56 11.03.2022
4853 Clear 21 1015 61 10000 5.66 100 22:56 10.03.2022
4854 Clear 22 1015 60 10000 5.66 100 22:28 10.03.2022
4855 Clear 23 1014 62 10000 6.17 100 21:26 10.03.2022
4856 Clear 23 1014 62 10000 5.66 110 20:45 10.03.2022
4857 Clouds 24 1014 60 10000 5.66 80 19:22 10.03.2022
4858 Clouds 24 1014 63 10000 6.17 100 18:30 10.03.2022
4859 Clouds 23 1015 70 10000 6.17 100 16:53 10.03.2022
4860 Clouds 22 1015 70 10000 4.12 130 15:36 10.03.2022
4861 Clouds 21 1015 76 10000 3.6 150 14:19 10.03.2022
4862 Clear 18 1014 81 10000 2.57 170 12:46 10.03.2022
4863 Clear 17 1014 89 10000 2.06 180 11:37 10.03.2022
4864 Clear 16 1013 90 10000 2.57 200 10:19 10.03.2022
4865 Clear 17 1013 91 10000 2.57 190 08:40 10.03.2022
4866 Clear 18 1014 89 10000 1.54 170 05:48 10.03.2022
4867 Clear 18 1015 86 10000 1.03 0 03:22 10.03.2022
4868 Rain 19 1014 82 10000 1.03 0 00:22 10.03.2022
4869 Clouds 20 1013 79 10000 4.63 110 22:32 09.03.2022
4870 Rain 20 1013 78 10000 3.09 110 21:47 09.03.2022
4871 Rain 20 1013 77 10000 1.03 0 20:50 09.03.2022
4872 Rain 19 1013 75 10000 9.77 360 18:58 09.03.2022
4873 Rain 17 1014 88 10000 0.89 270 17:28 09.03.2022
4874 Rain 18 1015 86 7000 4.12 360 16:45 09.03.2022
4875 Rain 18 1015 90 4000 2.06 350 15:37 09.03.2022
4876 Rain 18 1016 92 5000 1.03 0 14:23 09.03.2022
4877 Rain 18 1017 92 6000 1.03 0 13:25 09.03.2022
4878 Rain 18 1017 92 9000 2.57 330 12:20 09.03.2022
4879 Rain 18 1017 96 10000 2.4 349 11:45 09.03.2022
4880 Rain 19 1017 89 10000 3.48 325 10:50 09.03.2022
4881 Thunderstorm 20 1015 70 10000 3.6 300 09:22 09.03.2022
4882 Thunderstorm 21 1014 72 9000 4.63 330 08:42 09.03.2022
4883 Clear 22 1012 69 10000 3.09 30 04:49 09.03.2022
4884 Clear 22 1013 59 10000 4.63 90 00:55 09.03.2022
4885 Clear 24 1013 51 10000 4.12 80 23:21 08.03.2022
4886 Clear 25 1013 48 10000 3.09 80 22:45 08.03.2022
4887 Clear 26 1013 45 10000 3.09 70 21:28 08.03.2022
4888 Clear 26 1014 41 10000 2.57 40 20:54 08.03.2022
4889 Clear 26 1014 40 10000 2.57 20 19:59 08.03.2022
4890 Clear 26 1015 36 10000 3.6 20 18:45 08.03.2022
4891 Clear 26 1014 37 10000 3.09 60 17:50 08.03.2022
4892 Clear 26 1015 41 10000 3.09 30 16:33 08.03.2022
4893 Clear 23 1015 47 10000 2.06 210 14:23 08.03.2022
4894 Clear 20 1015 58 10000 1.54 0 12:44 08.03.2022
4895 Clear 17 1014 65 10000 1.54 200 11:53 08.03.2022
4896 Clear 17 1014 66 10000 1.54 200 11:34 08.03.2022
4897 Clear 16 1014 69 10000 1.54 230 10:22 08.03.2022
4898 Clear 18 1013 69 10000 1.03 230 07:34 08.03.2022
4899 Clear 19 1013 66 10000 1.54 250 05:44 08.03.2022
4900 Clear 23 1009 55 10000 4.12 250 23:58 07.03.2022
4901 Clear 25 1008 50 10000 3.6 280 22:23 07.03.2022
4902 Clear 25 1007 49 10000 4.12 260 21:34 07.03.2022
4903 Clear 25 1007 50 10000 3.09 0 20:49 07.03.2022
4904 Clear 25 1007 50 10000 3.09 0 20:20 07.03.2022
4905 Clear 25 1007 47 10000 4.12 240 19:33 07.03.2022
4906 Clear 25 1007 47 10000 3.6 230 18:44 07.03.2022
4907 Clouds 24 1007 54 10000 5.14 240 17:52 07.03.2022
4908 Clouds 23 1007 62 10000 3.09 230 16:56 07.03.2022
4909 Clouds 22 1006 71 10000 3.6 250 15:59 07.03.2022
4910 Clouds 18 1004 83 10000 3.6 0 13:52 07.03.2022
4911 Clouds 18 1004 83 10000 3.6 0 13:52 07.03.2022
4912 Clouds 17 1003 92 9000 3.6 190 12:28 07.03.2022
4913 Clouds 16 1002 89 10000 5.14 220 10:38 07.03.2022
4914 Thunderstorm 19 1002 93 5000 4.12 260 08:57 07.03.2022
4915 Clouds 24 1005 85 10000 4.63 70 04:43 07.03.2022
4916 Clouds 23 1005 88 10000 9.26 100 00:22 07.03.2022
4917 Clouds 23 1006 87 10000 7.2 120 23:35 06.03.2022
4918 Clear 24 1006 81 10000 6.69 100 22:42 06.03.2022
4919 Clouds 25 1007 77 10000 7.2 100 21:47 06.03.2022
4920 Clouds 25 1008 76 10000 7.2 110 20:38 06.03.2022
4921 Clouds 26 1008 73 10000 7.2 110 20:20 06.03.2022
4922 Clouds 26 1010 73 10000 6.17 70 18:56 06.03.2022
4923 Clouds 26 1010 72 10000 6.17 70 18:23 06.03.2022
4924 Clouds 26 1010 76 10000 5.14 90 17:21 06.03.2022
4925 Clear 26 1010 71 10000 5.14 100 16:41 06.03.2022
4926 Clouds 25 1010 74 10000 5.66 100 15:49 06.03.2022
4927 Clouds 25 1010 74 10000 5.66 100 15:49 06.03.2022
4928 Clouds 24 1011 78 10000 4.12 100 14:49 06.03.2022
4929 Clouds 24 1011 78 10000 4.12 100 14:30 06.03.2022
4930 Clouds 22 1011 88 10000 3.09 90 12:50 06.03.2022
4931 Clouds 20 1011 90 10000 2.57 130 11:56 06.03.2022
4932 Mist 19 1011 92 4000 2.06 160 10:52 06.03.2022
4933 Clouds 20 1010 91 10000 2.06 140 09:43 06.03.2022
4934 Clouds 21 1010 91 10000 4.63 90 08:29 06.03.2022
4935 Clouds 20 1010 89 10000 6.69 110 07:34 06.03.2022
4936 Clouds 21 1010 86 10000 6.17 140 04:46 06.03.2022
4937 Rain 23 1009 88 10000 1.54 190 00:44 06.03.2022
4938 Clear 23 1009 89 10000 1.54 190 00:25 06.03.2022
4939 Clear 24 1009 87 10000 2.06 70 23:20 05.03.2022
4940 Clouds 24 1009 85 10000 3.09 90 22:43 05.03.2022
4941 Rain 24 1009 84 10000 5.14 110 21:45 05.03.2022
4942 Clouds 25 1008 83 10000 5.14 110 21:19 05.03.2022
4943 Rain 25 1009 82 10000 5.66 110 19:24 05.03.2022
4944 Rain 24 1009 87 10000 7.2 100 18:50 05.03.2022
4945 Rain 25 1009 85 10000 4.12 110 17:41 05.03.2022
4946 Rain 24 1010 92 8000 4.63 80 16:20 05.03.2022
4947 Rain 24 1010 89 9000 3.6 100 15:30 05.03.2022
4948 Rain 24 1010 88 10000 3.6 110 14:42 05.03.2022
4949 Rain 24 1010 87 10000 3.6 110 14:24 05.03.2022
4950 Clear 24 1010 85 9000 1.54 160 12:55 05.03.2022
4951 Clear 22 1009 92 10000 1.03 0 11:39 05.03.2022
4952 Clear 22 1009 93 10000 1.03 0 11:18 05.03.2022
4953 Clear 22 1008 91 10000 1.03 0 09:40 05.03.2022
4954 Clear 22 1009 90 10000 3.09 310 08:46 05.03.2022
4955 Clear 23 1009 87 10000 3.09 310 07:23 05.03.2022
4956 Clear 23 1009 87 10000 3.09 310 07:23 05.03.2022
4957 Clear 23 1010 86 10000 3.6 330 05:39 05.03.2022
4958 Clouds 24 1010 84 10000 5.14 110 00:51 05.03.2022
4959 Clouds 25 1009 82 10000 4.63 110 23:20 04.03.2022
4960 Clear 25 1009 81 10000 5.66 110 22:39 04.03.2022
4961 Clouds 27 1009 73 10000 4.63 100 21:43 04.03.2022
4962 Clouds 27 1009 71 10000 3.09 100 20:45 04.03.2022
4963 Clouds 27 1010 75 10000 2.57 120 19:38 04.03.2022
4964 Clear 26 1011 80 10000 2.06 30 18:58 04.03.2022
4965 Clear 26 1011 79 10000 2.06 30 18:35 04.03.2022
4966 Clear 25 1011 76 10000 1.54 330 17:29 04.03.2022
4967 Clouds 23 1011 87 10000 2.06 290 15:58 04.03.2022
4968 Rain 23 1011 87 10000 2.06 290 15:25 04.03.2022
4969 Clear 22 1012 89 9000 3.6 320 13:36 04.03.2022
4970 Clear 23 1012 81 10000 3.09 330 12:47 04.03.2022
4971 Clear 22 1012 86 10000 2.06 10 11:37 04.03.2022
4972 Clear 22 1010 88 10000 1.54 80 10:25 04.03.2022
4973 Clear 21 1010 87 10000 2.06 10 09:27 04.03.2022
4974 Clear 22 1010 85 10000 2.06 10 07:48 04.03.2022
4975 Clear 23 1011 85 10000 3.09 90 05:49 04.03.2022
4976 Clear 22 1011 84 10000 6.69 100 01:46 04.03.2022
4977 Clear 23 1010 75 10000 7.72 110 23:35 03.03.2022
4978 Clear 25 1011 66 10000 7.72 110 22:18 03.03.2022
4979 Clear 25 1011 64 10000 7.2 110 21:36 03.03.2022
4980 Clear 25 1011 63 10000 6.69 110 20:44 03.03.2022
4981 Clear 25 1012 61 10000 6.69 100 19:22 03.03.2022
4982 Clear 25 1013 60 10000 6.17 100 18:25 03.03.2022
4983 Clear 25 1013 57 10000 6.17 110 17:31 03.03.2022
4984 Clear 24 1014 54 10000 5.66 100 16:38 03.03.2022
4985 Clear 23 1014 54 10000 6.17 110 15:43 03.03.2022
4986 Clear 23 1015 51 10000 5.14 90 14:44 03.03.2022
4987 Clear 23 1015 51 10000 5.14 90 14:25 03.03.2022
4988 Clear 21 1015 65 10000 5.66 80 12:32 03.03.2022
4989 Clouds 19 1014 78 8000 5.66 90 10:58 03.03.2022
4990 Clouds 20 1014 81 8000 5.66 90 09:58 03.03.2022
4991 Clouds 20 1014 80 8000 7.72 100 08:42 03.03.2022
4992 Clouds 20 1013 80 8000 8.75 110 06:55 03.03.2022
4993 Clouds 21 1013 80 7000 8.23 110 05:22 03.03.2022
4994 Clear 27 1009 46 10000 3.09 200 23:48 02.03.2022
4995 Clear 28 1009 43 10000 3.09 210 22:54 02.03.2022
4996 Clear 29 1009 40 10000 3.09 210 22:33 02.03.2022
4997 Clear 30 1009 37 10000 3.6 240 20:59 02.03.2022
4998 Clear 30 1009 37 10000 3.6 240 20:25 02.03.2022
4999 Clear 30 1009 40 10000 4.12 280 19:38 02.03.2022
5000 Clear 30 1009 41 10000 4.12 280 19:18 02.03.2022
5001 Clear 29 1010 42 10000 3.09 0 18:31 02.03.2022
5002 Clear 28 1010 45 10000 3.09 270 17:42 02.03.2022
5003 Clear 27 1010 49 10000 4.63 290 16:52 02.03.2022
5004 Clear 26 1010 51 10000 4.63 280 15:59 02.03.2022
5005 Clear 24 1010 50 10000 6.17 290 14:29 02.03.2022
5006 Clear 21 1010 55 10000 4.63 290 12:56 02.03.2022
5007 Clear 20 1010 57 10000 4.63 290 12:34 02.03.2022
5008 Clear 19 1010 62 10000 5.14 300 11:27 02.03.2022
5009 Clear 19 1010 65 10000 5.66 310 10:39 02.03.2022
5010 Clear 19 1010 67 10000 3.09 330 09:37 02.03.2022
5011 Clear 20 1009 65 10000 3.6 330 08:36 02.03.2022
5012 Clear 20 1009 66 10000 4.12 320 07:23 02.03.2022
5013 Clear 20 1010 69 10000 3.6 320 05:42 02.03.2022
5014 Clear 22 1010 68 10000 4.12 340 00:40 02.03.2022
5015 Clear 24 1009 59 10000 4.63 330 23:27 01.03.2022
5016 Clear 25 1010 53 10000 4.63 340 22:38 01.03.2022
5017 Clear 25 1010 52 10000 6.17 360 21:44 01.03.2022
5018 Clear 26 1011 51 10000 5.66 360 20:40 01.03.2022
5019 Clear 26 1011 52 10000 5.66 360 20:20 01.03.2022
5020 Clear 25 1013 52 10000 5.66 360 18:58 01.03.2022
5021 Clear 24 1013 54 10000 5.66 360 18:24 01.03.2022
5022 Clouds 24 1014 56 10000 6.17 360 17:54 01.03.2022
5023 Clouds 23 1015 59 10000 5.14 350 16:37 01.03.2022
5024 Clear 22 1015 61 10000 5.66 340 15:48 01.03.2022
5025 Clear 21 1016 60 10000 6.17 350 14:54 01.03.2022
5026 Clear 21 1016 58 10000 6.17 350 14:31 01.03.2022
5027 Clear 20 1016 57 10000 5.66 360 13:26 01.03.2022
5028 Clear 19 1016 59 10000 4.63 20 12:37 01.03.2022
5029 Clear 17 1015 66 10000 4.12 30 11:35 01.03.2022
5030 Clear 16 1015 71 10000 3.6 70 09:52 01.03.2022
5031 Clear 16 1015 65 10000 3.6 80 08:25 01.03.2022
5032 Clear 16 1016 61 10000 4.12 140 06:47 01.03.2022
5033 Clear 19 1016 52 10000 3.09 160 03:26 01.03.2022
5034 Clear 21 1014 47 10000 3.35 230 00:48 01.03.2022
5035 Clear 23 1012 42 10000 3.02 235 23:46 28.02.2022
5036 Clear 25 1011 34 10000 4.12 0 22:43 28.02.2022
5037 Clear 26 1011 34 10000 5.02 233 21:47 28.02.2022
5038 Clear 27 1010 31 10000 4.12 230 20:46 28.02.2022
5039 Clear 28 1010 33 10000 3.09 0 19:51 28.02.2022
5040 Clear 28 1010 31 10000 3.6 240 18:56 28.02.2022
5041 Clear 28 1010 33 10000 6.62 242 17:43 28.02.2022
5042 Clear 28 1010 26 10000 2.57 0 17:21 28.02.2022
5043 Clear 27 1011 34 10000 3.09 270 16:21 28.02.2022
5044 Clear 24 1010 74 10000 2.06 220 14:33 28.02.2022
5045 Clouds 21 1010 88 7000 1.03 0 13:53 28.02.2022
5046 Clouds 20 1010 94 7000 1.03 0 13:19 28.02.2022
5047 Mist 20 1010 97 4500 1.54 200 12:25 28.02.2022
5048 Mist 19 1009 97 2500 1.54 210 11:19 28.02.2022
5049 Clear 20 1009 97 7000 1.54 220 10:23 28.02.2022
5050 Clear 20 1008 97 9000 1.54 190 09:44 28.02.2022
5051 Clear 20 1007 98 8000 1.03 0 08:54 28.02.2022
5052 Clear 21 1007 97 8000 0 0 07:59 28.02.2022
5053 Clouds 21 1008 96 10000 1.54 220 06:31 28.02.2022
5054 Clouds 21 1008 96 10000 1.54 280 04:30 28.02.2022
5055 Clouds 22 1007 93 10000 1.03 0 00:53 28.02.2022
5056 Clouds 23 1006 92 10000 2.06 300 22:53 27.02.2022
5057 Clouds 23 1006 92 10000 2.06 300 22:32 27.02.2022
5058 Rain 23 1007 92 10000 4.12 330 21:42 27.02.2022
5059 Clouds 23 1007 89 10000 1.54 0 20:44 27.02.2022
5060 Rain 24 1007 89 10000 1.54 0 20:18 27.02.2022
5061 Rain 24 1006 91 10000 4.63 320 19:48 27.02.2022
5062 Rain 23 1007 92 10000 4.63 320 19:21 27.02.2022
5063 Clouds 23 1006 93 8000 7.2 330 18:24 27.02.2022
5064 Rain 23 1006 92 10000 7.72 340 17:45 27.02.2022
5065 Rain 22 1006 96 10000 4.63 340 16:23 27.02.2022
5066 Rain 22 1006 96 9000 7.2 360 14:29 27.02.2022
5067 Rain 22 1010 97 3000 3.6 310 12:36 27.02.2022
5068 Thunderstorm 22 1008 95 9000 2.57 340 11:46 27.02.2022
5069 Rain 22 1008 95 10000 2.57 20 10:36 27.02.2022
5070 Rain 22 1007 97 8000 4.12 50 09:58 27.02.2022
5071 Rain 22 1006 97 8000 4.12 50 09:23 27.02.2022
5072 Rain 22 1006 97 6000 5.14 90 08:45 27.02.2022
5073 Rain 22 1006 97 6000 5.14 90 08:45 27.02.2022
5074 Thunderstorm 22 1008 97 7000 4.12 120 05:45 27.02.2022
5075 Thunderstorm 22 1011 97 3200 4.12 210 03:35 27.02.2022
5076 Clouds 24 1008 90 10000 2.57 10 23:52 26.02.2022
5077 Clouds 25 1009 85 10000 2.57 30 22:42 26.02.2022
5078 Clouds 25 1010 78 10000 3.09 360 21:27 26.02.2022
5079 Clouds 26 1011 80 10000 3.6 310 20:43 26.02.2022
5080 Rain 25 1012 73 10000 5.14 320 19:56 26.02.2022
5081 Clouds 24 1012 75 10000 5.14 320 19:33 26.02.2022
5082 Rain 25 1013 83 9000 4.63 310 18:33 26.02.2022
5083 Rain 25 1014 83 9000 5.14 340 17:36 26.02.2022
5084 Clouds 26 1014 78 10000 3.09 360 16:39 26.02.2022
5085 Clouds 26 1014 78 10000 2.57 350 15:37 26.02.2022
5086 Clouds 25 1014 82 10000 2.57 350 15:18 26.02.2022
5087 Clear 25 1014 82 10000 2.57 20 14:41 26.02.2022
5088 Rain 24 1014 82 10000 2.57 20 13:51 26.02.2022
5089 Clouds 24 1014 82 10000 2.57 30 12:53 26.02.2022
5090 Clear 23 1014 85 10000 3.09 20 11:50 26.02.2022
5091 Clear 22 1014 84 10000 3.09 20 11:25 26.02.2022
5092 Clear 22 1014 75 10000 2.06 50 09:31 26.02.2022
5093 Clear 22 1013 74 10000 2.57 50 08:26 26.02.2022
5094 Clear 23 1015 70 10000 3.09 60 04:23 26.02.2022
5095 Clear 26 1014 52 10000 1.54 60 23:50 25.02.2022
5096 Clear 28 1014 37 10000 1.54 20 22:31 25.02.2022
5097 Clear 28 1014 40 10000 2.06 360 21:31 25.02.2022
5098 Clear 28 1015 39 10000 3.6 360 20:47 25.02.2022
5099 Clear 28 1015 38 10000 3.6 360 20:25 25.02.2022
5100 Clear 27 1015 52 10000 3.6 30 17:54 25.02.2022
5101 Clear 27 1015 46 10000 3.09 50 16:48 25.02.2022
5102 Clear 27 1016 39 10000 1.54 0 15:50 25.02.2022
5103 Clear 26 1016 43 10000 1.54 0 15:23 25.02.2022
5104 Clear 25 1016 51 10000 1.54 0 14:55 25.02.2022
5105 Clear 24 1016 58 10000 1.54 0 14:19 25.02.2022
5106 Clear 22 1017 69 10000 1.03 0 13:30 25.02.2022
5107 Clear 18 1016 87 10000 1.03 0 11:56 25.02.2022
5108 Clear 17 1016 90 10000 1.03 0 11:20 25.02.2022
5109 Clear 17 1015 90 10000 1.54 260 10:23 25.02.2022
5110 Fog 17 1015 93 10000 1.03 0 09:42 25.02.2022
5111 Fog 17 1015 93 10000 1.03 0 09:42 25.02.2022
5112 Clear 18 1014 95 8000 1.54 240 07:53 25.02.2022
5113 Fog 19 1013 94 7000 1.54 280 06:54 25.02.2022
5114 Clear 19 1013 92 8000 1.54 290 05:40 25.02.2022
5115 Clouds 20 1012 88 8000 1.03 0 01:23 25.02.2022
5116 Clouds 23 1010 82 10000 3.09 320 22:31 24.02.2022
5117 Clouds 23 1010 85 10000 4.63 320 21:43 24.02.2022
5118 Clouds 22 1010 86 10000 4.63 320 21:21 24.02.2022
5119 Clouds 22 1010 84 10000 4.12 340 20:44 24.02.2022
5120 Clouds 22 1011 85 10000 4.12 10 19:31 24.02.2022
5121 Clouds 22 1011 87 10000 5.14 10 18:20 24.02.2022
5122 Clouds 21 1011 88 10000 5.14 10 17:54 24.02.2022
5123 Clouds 21 1012 92 10000 5.14 10 17:19 24.02.2022
5124 Clouds 21 1012 95 10000 4.63 50 16:28 24.02.2022
5125 Rain 20 1012 96 7000 5.14 60 15:42 24.02.2022
5126 Rain 20 1012 95 7000 4.12 60 14:45 24.02.2022
5127 Rain 20 1013 94 2500 2.57 80 13:57 24.02.2022
5128 Rain 20 1013 93 2500 2.57 80 13:35 24.02.2022
5129 Thunderstorm 21 1009 85 10000 6.69 50 11:38 24.02.2022
5130 Rain 21 1008 85 10000 7.2 50 10:31 24.02.2022
5131 Clouds 21 1009 84 10000 9.77 60 08:43 24.02.2022
5132 Clouds 22 1011 86 10000 1.34 90 06:45 24.02.2022
5133 Rain 22 1011 86 10000 9.26 90 05:40 24.02.2022
5134 Clouds 22 1012 83 10000 9.77 110 00:30 24.02.2022
5135 Clouds 24 1012 73 10000 8.23 120 22:19 23.02.2022
5136 Clouds 25 1013 68 10000 7.2 100 20:44 23.02.2022
5137 Clouds 25 1013 67 10000 7.2 100 20:23 23.02.2022
5138 Clouds 25 1014 65 10000 5.14 80 19:34 23.02.2022
5139 Clouds 25 1015 66 10000 5.14 70 18:22 23.02.2022
5140 Clouds 24 1016 68 10000 4.12 70 16:27 23.02.2022
5141 Clouds 22 1018 74 10000 2.57 110 13:45 23.02.2022
5142 Clear 21 1018 81 10000 2.06 130 12:31 23.02.2022
5143 Clear 19 1018 90 10000 1.54 150 10:56 23.02.2022
5144 Clouds 19 1017 89 10000 3.6 130 09:38 23.02.2022
5145 Clouds 20 1017 89 10000 4.63 110 08:54 23.02.2022
5146 Clouds 20 1017 87 10000 3.09 80 07:47 23.02.2022
5147 Clear 22 1017 76 10000 1.03 0 02:31 23.02.2022
5148 Clear 23 1016 70 10000 1.54 30 23:50 22.02.2022
5149 Clear 24 1016 68 10000 1.54 30 23:31 22.02.2022
5150 Clear 25 1017 66 10000 2.06 360 22:28 22.02.2022
5151 Clear 25 1017 64 10000 2.57 20 21:44 22.02.2022
5152 Clear 25 1017 61 10000 2.57 20 21:20 22.02.2022
5153 Clouds 25 1017 66 10000 2.57 20 20:31 22.02.2022
5154 Clouds 25 1018 64 10000 3.09 50 19:56 22.02.2022
5155 Clouds 25 1018 66 10000 3.09 50 19:33 22.02.2022
5156 Clouds 25 1018 61 10000 3.09 40 18:35 22.02.2022
5157 Clouds 25 1019 59 10000 4.63 70 17:27 22.02.2022
5158 Clouds 24 1019 57 10000 2.57 230 16:55 22.02.2022
5159 Clouds 24 1019 59 10000 2.57 230 16:20 22.02.2022
5160 Clouds 22 1019 67 10000 2.57 180 15:21 22.02.2022
5161 Clouds 21 1019 76 10000 3.09 170 14:19 22.02.2022
5162 Clouds 18 1019 90 10000 2.06 180 11:38 22.02.2022
5163 Clear 18 1018 88 10000 3.09 160 09:44 22.02.2022
5164 Clear 19 1018 84 10000 2.06 170 07:30 22.02.2022
5165 Clear 20 1017 84 10000 3.09 140 06:54 22.02.2022
5166 Clear 23 1017 64 10000 1.03 0 02:50 22.02.2022
5167 Clear 25 1015 51 10000 2.57 200 23:18 21.02.2022
5168 Clear 26 1015 49 10000 3.09 180 22:36 21.02.2022
5169 Clouds 26 1015 52 10000 4.12 200 20:52 21.02.2022
5170 Clouds 26 1015 53 10000 2.57 0 18:56 21.02.2022
5171 Clouds 25 1015 53 10000 2.57 0 18:37 21.02.2022
5172 Clouds 24 1015 59 10000 4.12 170 16:23 21.02.2022
5173 Clear 22 1015 65 10000 3.09 190 14:23 21.02.2022
5174 Clear 20 1014 74 10000 3.09 170 13:31 21.02.2022
5175 Clouds 19 1013 80 10000 2.57 180 12:46 21.02.2022
5176 Clear 19 1015 85 10000 5.12 180 12:21 21.02.2022
5177 Clouds 17 1012 92 10000 2.57 190 10:27 21.02.2022
5178 Clear 18 1010 90 10000 3.6 200 06:25 21.02.2022
5179 Clouds 20 1008 86 10000 3.6 160 00:35 21.02.2022
5180 Clouds 20 1008 82 10000 6.17 150 22:32 20.02.2022
5181 Clouds 19 1007 88 8000 5.14 170 21:43 20.02.2022
5182 Rain 19 1007 89 8000 5.14 170 21:24 20.02.2022
5183 Clouds 19 1007 91 9000 4.12 170 20:43 20.02.2022
5184 Rain 19 1007 92 7000 3.6 170 19:49 20.02.2022
5185 Rain 20 1007 91 4000 4.12 160 18:55 20.02.2022
5186 Rain 20 1007 94 4000 4.12 160 18:34 20.02.2022
5187 Rain 20 1007 96 6000 4.12 160 17:55 20.02.2022
5188 Rain 21 1007 87 8000 2.57 170 16:18 20.02.2022
5189 Rain 21 1008 89 8000 3.09 160 14:55 20.02.2022
5190 Rain 21 1008 87 10000 2.57 180 13:58 20.02.2022
5191 Rain 20 1007 87 10000 2.57 170 12:42 20.02.2022
5192 Clear 20 1007 93 10000 3.6 130 10:52 20.02.2022
5193 Clear 21 1006 93 10000 3.6 130 10:20 20.02.2022
5194 Clouds 21 1006 92 8000 2.06 170 09:24 20.02.2022
5195 Clear 24 1008 74 10000 6.17 100 02:54 20.02.2022
5196 Clear 24 1007 80 10000 7.72 110 00:31 20.02.2022
5197 Clear 25 1007 80 10000 7.2 110 23:30 19.02.2022
5198 Clear 27 1007 64 10000 6.17 110 22:23 19.02.2022
5199 Clear 27 1007 67 10000 7.2 110 21:45 19.02.2022
5200 Clear 28 1008 67 10000 5.14 100 19:58 19.02.2022
5201 Clear 28 1008 65 10000 5.14 100 19:33 19.02.2022
5202 Clouds 28 1009 64 10000 5.66 80 18:38 19.02.2022
5203 Clouds 27 1009 63 10000 4.12 100 17:37 19.02.2022
5204 Clouds 26 1010 69 10000 4.12 80 16:34 19.02.2022
5205 Clear 25 1010 72 10000 3.6 80 15:19 19.02.2022
5206 Clouds 24 1010 73 10000 3.6 90 14:52 19.02.2022
5207 Clouds 23 1010 76 10000 3.6 80 13:47 19.02.2022
5208 Clouds 21 1010 87 10000 3.6 70 11:39 19.02.2022
5209 Clouds 21 1009 89 10000 3.6 60 10:30 19.02.2022
5210 Clouds 21 1010 86 10000 4.63 60 07:55 19.02.2022
5211 Clouds 22 1011 83 10000 8.23 100 04:32 19.02.2022
5212 Clear 23 1010 73 10000 8.23 110 23:38 18.02.2022
5213 Clear 25 1011 65 10000 8.23 100 21:53 18.02.2022
5214 Clear 26 1011 63 10000 7.72 100 20:51 18.02.2022
5215 Clouds 26 1012 61 10000 6.69 100 19:53 18.02.2022
5216 Clouds 25 1013 59 10000 6.17 100 18:50 18.02.2022
5217 Clouds 25 1013 61 10000 6.17 100 18:22 18.02.2022
5218 Clouds 25 1014 62 10000 6.69 100 17:51 18.02.2022
5219 Clouds 22 1015 65 10000 6.17 90 14:54 18.02.2022
5220 Clouds 21 1015 69 10000 4.63 110 13:55 18.02.2022
5221 Clouds 20 1015 69 10000 2.57 130 12:53 18.02.2022
5222 Clouds 18 1015 71 10000 2.57 130 12:32 18.02.2022
5223 Clouds 16 1015 76 10000 2.57 150 11:27 18.02.2022
5224 Clouds 16 1015 77 10000 2.06 160 10:23 18.02.2022
5225 Clouds 17 1016 73 10000 4.12 140 06:56 18.02.2022
5226 Clouds 17 1016 70 10000 4.63 140 05:39 18.02.2022
5227 Clear 21 1015 65 10000 8.75 120 23:24 17.02.2022
5228 Clear 22 1016 64 10000 9.77 110 21:44 17.02.2022
5229 Clear 22 1016 64 10000 9.77 110 21:19 17.02.2022
5230 Clear 23 1016 63 10000 9.26 110 20:36 17.02.2022
5231 Clouds 23 1017 62 10000 9.77 110 19:48 17.02.2022
5232 Clouds 24 1017 61 10000 9.77 110 18:41 17.02.2022
5233 Clouds 23 1017 65 10000 8.23 100 17:50 17.02.2022
5234 Clouds 23 1017 61 10000 7.2 110 16:20 17.02.2022
5235 Clouds 23 1017 61 10000 7.2 110 16:20 17.02.2022
5236 Clouds 22 1017 64 10000 5.66 140 15:26 17.02.2022
5237 Clouds 21 1017 67 10000 6.69 140 14:21 17.02.2022
5238 Clouds 18 1017 76 10000 5.66 150 12:24 17.02.2022
5239 Clouds 18 1016 78 10000 5.66 160 11:21 17.02.2022
5240 Clear 19 1015 75 10000 4.63 160 08:43 17.02.2022
5241 Clear 29 1011 52 10000 2.57 130 00:29 17.02.2022
5242 Clouds 33 1011 45 10000 0.45 315 22:41 16.02.2022
5243 Clouds 35 1009 27 10000 3.7 74 20:46 16.02.2022
5244 Clouds 35 1009 36 10000 3.48 72 19:43 16.02.2022
5245 Clear 35 1010 30 10000 3.19 61 18:36 16.02.2022
5246 -273 0 0 0 0 0 17:38 16.02.2022
5247 Clear 30 1013 50 10000 2.27 6 15:30 16.02.2022
5248 Clear 29 1013 49 10000 3.09 350 14:57 16.02.2022
5249 Clear 24 1013 64 10000 4.63 340 12:35 16.02.2022
5250 Rain 23 1012 65 10000 4.12 350 11:53 16.02.2022
5251 Clear 23 1012 68 10000 4.12 350 11:23 16.02.2022
5252 Clear 22 1012 65 10000 4.12 360 10:29 16.02.2022
5253 Clear 24 1012 69 10000 0.51 0 06:57 16.02.2022
5254 Clear 25 1012 68 10000 2.06 70 04:42 16.02.2022
5255 Clear 29 1010 53 10000 2.06 40 23:35 15.02.2022
5256 Clear 31 1010 46 10000 2.57 40 22:18 15.02.2022
5257 Clear 32 1009 41 10000 3.31 71 21:45 15.02.2022
5258 Clear 32 1010 41 10000 3.42 62 21:26 15.02.2022
5259 Clear 32 1010 41 10000 3.42 62 20:53 15.02.2022
5260 Clear 32 1010 43 10000 3.6 50 19:48 15.02.2022
5261 Clear 32 1011 43 10000 3.69 40 18:45 15.02.2022
5262 Clear 32 1012 37 10000 3.5 28 18:19 15.02.2022
5263 Clear 32 1012 42 10000 3.5 28 17:47 15.02.2022
5264 Clear 31 1012 42 10000 3.35 13 16:30 15.02.2022
5265 Clear 27 1014 48 10000 3.09 350 14:39 15.02.2022
5266 Clear 25 1014 51 10000 4.12 340 13:26 15.02.2022
5267 Clear 22 1013 54 10000 1.54 310 11:52 15.02.2022
5268 Clear 21 1012 59 10000 4.12 330 10:39 15.02.2022
5269 Clear 21 1012 60 10000 3.6 330 09:23 15.02.2022
5270 Clear 22 1012 59 10000 2.06 320 06:48 15.02.2022
5271 Clear 26 1010 52 10000 2.57 320 00:26 15.02.2022
5272 Clear 30 1011 35 10000 0.45 90 21:59 14.02.2022
5273 Clear 31 1009 38 10000 3.07 35 21:19 14.02.2022
5274 Clear 31 1009 37 10000 3.15 28 20:19 14.02.2022
5275 Clear 31 1009 34 10000 3.15 28 19:30 14.02.2022
5276 Clear 30 1011 38 10000 4.63 360 18:24 14.02.2022
5277 Clear 29 1011 38 10000 2.64 18 17:37 14.02.2022
5278 Clear 29 1011 38 10000 2.18 357 17:18 14.02.2022
5279 Clear 27 1012 40 10000 2.06 260 15:58 14.02.2022
5280 Clear 23 1012 46 10000 2.06 0 13:37 14.02.2022
5281 Clear 21 1011 52 10000 2.06 260 12:59 14.02.2022
5282 Clear 20 1011 54 10000 2.06 260 12:32 14.02.2022
5283 Clear 19 1011 57 10000 1.54 250 11:39 14.02.2022
5284 Clear 17 1011 61 10000 1.54 240 10:22 14.02.2022
5285 Clear 18 1010 59 10000 1.54 280 08:32 14.02.2022
5286 Clear 18 1010 58 10000 1.03 0 07:26 14.02.2022
5287 Clear 25 1010 32 10000 3.6 240 23:19 13.02.2022
5288 Clear 26 1010 33 10000 2.57 240 22:41 13.02.2022
5289 Clear 26 1010 33 10000 2.57 240 22:22 13.02.2022
5290 Clear 26 1011 33 10000 2.57 0 21:24 13.02.2022
5291 Clear 26 1011 33 10000 4.12 220 20:30 13.02.2022
5292 Clear 25 1012 33 10000 4.12 240 19:23 13.02.2022
5293 Clear 25 1013 35 10000 3.09 0 18:41 13.02.2022
5294 Clear 24 1014 37 10000 2.57 0 17:41 13.02.2022
5295 Clear 21 1016 42 10000 2.06 0 15:53 13.02.2022
5296 Clear 20 1016 45 10000 2.57 260 14:50 13.02.2022
5297 Clear 18 1016 49 10000 2.06 190 13:39 13.02.2022
5298 Clear 16 1016 56 10000 1.54 190 12:44 13.02.2022
5299 Clear 13 1016 66 10000 1.54 240 10:46 13.02.2022
5300 Clear 13 1016 66 10000 1.54 240 10:27 13.02.2022
5301 Clear 13 1016 64 10000 1.03 0 08:57 13.02.2022
5302 Clear 17 1018 50 10000 5.66 160 02:50 13.02.2022
5303 Clouds 19 1017 60 10000 3.6 170 00:33 13.02.2022
5304 Clouds 21 1017 55 10000 4.12 160 22:56 12.02.2022
5305 Clouds 22 1017 55 10000 4.12 160 22:32 12.02.2022
5306 Clouds 22 1017 57 10000 3.6 180 21:18 12.02.2022
5307 Clouds 22 1017 59 10000 3.6 180 20:24 12.02.2022
5308 Clouds 21 1018 62 10000 5.66 160 18:54 12.02.2022
5309 Clouds 21 1018 62 10000 5.66 160 18:36 12.02.2022
5310 Clouds 20 1018 62 10000 4.63 170 17:40 12.02.2022
5311 Clouds 20 1019 63 10000 4.12 170 16:46 12.02.2022
5312 Clouds 20 1019 65 10000 6.17 160 15:59 12.02.2022
5313 Clouds 19 1019 62 10000 6.17 160 15:21 12.02.2022
5314 Clear 18 1019 67 10000 4.12 180 14:29 12.02.2022
5315 Clear 14 1019 82 10000 4.12 180 11:34 12.02.2022
5316 Clouds 14 1019 86 10000 3.6 180 10:33 12.02.2022
5317 Clouds 14 1019 88 10000 3.6 170 09:38 12.02.2022
5318 Clouds 14 1019 89 10000 4.63 190 08:47 12.02.2022
5319 Clouds 14 1019 90 10000 4.12 200 07:47 12.02.2022
5320 Rain 15 1019 89 7000 4.63 150 05:31 12.02.2022
5321 Clouds 17 1019 60 10000 5.66 160 02:19 12.02.2022
5322 Rain 18 1018 69 10000 0.89 90 23:56 11.02.2022
5323 Rain 19 1016 76 10000 6.17 180 22:23 11.02.2022
5324 Rain 19 1015 88 7000 4.63 170 21:37 11.02.2022
5325 Rain 21 1015 84 9000 4.63 0 20:29 11.02.2022
5326 Clouds 24 1013 72 7000 4.12 170 19:29 11.02.2022
5327 Rain 26 1012 53 10000 6.17 100 18:44 11.02.2022
5328 Rain 28 1012 54 10000 4.12 110 17:27 11.02.2022
5329 Clouds 28 1013 62 10000 3.6 60 16:47 11.02.2022
5330 Clouds 28 1013 64 10000 2.57 60 15:22 11.02.2022
5331 Clear 26 1012 67 10000 1.54 30 14:38 11.02.2022
5332 Clear 26 1012 71 10000 1.54 30 14:19 11.02.2022
5333 Clear 25 1012 75 10000 2.06 50 13:44 11.02.2022
5334 Clear 24 1012 76 10000 2.06 50 13:25 11.02.2022
5335 Clouds 22 1011 85 10000 3.09 60 11:23 11.02.2022
5336 Clear 22 1010 86 10000 3.09 30 09:37 11.02.2022
5337 Clear 22 1010 82 10000 2.57 60 08:35 11.02.2022
5338 Clear 22 1010 76 10000 4.12 70 07:46 11.02.2022
5339 Clear 22 1010 76 10000 4.12 70 07:46 11.02.2022
5340 Clear 23 1009 73 10000 1.54 30 06:24 11.02.2022
5341 Clear 24 1009 78 10000 4.63 110 02:21 11.02.2022
5342 Clear 26 1008 59 10000 6.69 110 23:46 10.02.2022
5343 Clear 28 1008 56 10000 5.66 110 22:33 10.02.2022
5344 Clear 29 1008 58 10000 5.66 110 21:42 10.02.2022
5345 Clouds 29 1009 54 10000 4.12 80 20:50 10.02.2022
5346 Clouds 30 1009 53 10000 3.09 70 19:56 10.02.2022
5347 Clouds 29 1009 52 10000 3.09 70 19:22 10.02.2022
5348 Clear 30 1008 52 10000 3.29 54 18:32 10.02.2022
5349 Clear 29 1010 54 10000 3.37 26 17:21 10.02.2022
5350 Clear 28 1010 56 10000 3.37 26 16:43 10.02.2022
5351 Clear 27 1011 61 10000 3.94 18 15:40 10.02.2022
5352 Clear 26 1011 62 10000 5.12 16 15:21 10.02.2022
5353 Clear 25 1012 66 10000 5.14 360 14:35 10.02.2022
5354 Clear 23 1012 69 10000 4.12 10 13:40 10.02.2022
5355 Clear 23 1012 70 10000 4.12 10 13:19 10.02.2022
5356 Clear 21 1011 74 10000 5.66 10 11:52 10.02.2022
5357 Clear 21 1011 75 10000 5.66 10 11:30 10.02.2022
5358 Clear 20 1010 76 10000 5.14 10 10:23 10.02.2022
5359 Clear 21 1010 74 10000 5.14 20 09:44 10.02.2022
5360 Clear 21 1010 71 10000 3.6 50 08:25 10.02.2022
5361 Clear 21 1010 75 10000 3.6 60 06:32 10.02.2022
5362 Clear 22 1012 81 10000 6.69 100 02:43 10.02.2022
5363 Clear 24 1011 70 10000 6.69 100 00:52 10.02.2022
5364 Clear 24 1011 68 10000 6.69 100 00:30 10.02.2022
5365 Clear 24 1011 68 10000 6.69 100 00:30 10.02.2022
5366 Clear 24 1011 67 10000 6.69 100 23:53 09.02.2022
5367 Clear 26 1011 61 10000 6.17 110 22:51 09.02.2022
5368 Clear 26 1011 60 10000 6.17 110 22:30 09.02.2022
5369 Clear 26 1012 55 10000 4.12 80 21:45 09.02.2022
5370 Clear 27 1012 54 10000 4.12 80 21:24 09.02.2022
5371 Clear 27 1012 51 10000 3.09 80 20:41 09.02.2022
5372 Clear 27 1012 50 10000 3.09 80 20:21 09.02.2022
5373 Clear 27 1012 50 10000 3.09 80 20:21 09.02.2022
5374 Clear 27 1013 51 10000 3.09 70 19:39 09.02.2022
5375 Clouds 26 1014 55 10000 3.09 30 17:50 09.02.2022
5376 Clouds 25 1015 58 10000 4.12 10 16:54 09.02.2022
5377 Clear 25 1015 57 10000 2.74 36 15:55 09.02.2022
5378 Clear 24 1016 63 10000 3.29 24 15:19 09.02.2022
5379 Clouds 21 1016 75 10000 3.6 30 12:42 09.02.2022
5380 Clouds 21 1016 75 10000 3.6 30 12:42 09.02.2022
5381 Clear 19 1016 77 10000 3.09 40 11:20 09.02.2022
5382 Clouds 18 1016 81 10000 2.57 40 10:31 09.02.2022
5383 Clouds 18 1016 82 10000 3.09 70 09:42 09.02.2022
5384 Clouds 18 1016 81 10000 3.09 70 09:19 09.02.2022
5385 Clear 19 1016 78 10000 3.6 90 07:56 09.02.2022
5386 Clear 20 1016 80 10000 4.12 80 05:30 09.02.2022
5387 Clear 20 1016 80 10000 4.12 80 05:30 09.02.2022
5388 Clear 20 1017 72 10000 3.6 90 03:50 09.02.2022
5389 Clear 21 1016 67 10000 3.09 90 01:28 09.02.2022
5390 Clear 22 1016 60 10000 2.57 60 23:39 08.02.2022
5391 Clear 24 1016 56 10000 3.09 70 22:50 08.02.2022
5392 Clear 24 1016 56 10000 3.09 70 22:22 08.02.2022
5393 Clear 24 1016 53 10000 3.09 70 21:49 08.02.2022
5394 Clear 24 1016 52 10000 3.09 70 21:21 08.02.2022
5395 Clear 25 1017 51 10000 3.6 70 20:45 08.02.2022
5396 Clear 25 1017 50 10000 3.6 60 19:46 08.02.2022
5397 Clear 24 1018 50 10000 3.6 60 18:48 08.02.2022
5398 Clear 24 1018 53 10000 3.6 60 17:43 08.02.2022
5399 Clear 23 1019 51 10000 3.09 20 16:30 08.02.2022
5400 Clouds 23 1019 51 10000 2.06 50 15:30 08.02.2022
5401 Clouds 23 1019 51 10000 2.06 50 15:30 08.02.2022
5402 Clouds 22 1019 51 10000 2.57 70 14:36 08.02.2022
5403 Clouds 21 1018 54 10000 3.6 120 13:20 08.02.2022
5404 Clear 18 1018 66 9000 1.54 190 11:33 08.02.2022
5405 Clear 16 1018 73 10000 1.54 180 10:23 08.02.2022
5406 Clouds 16 1017 72 10000 2.06 170 09:44 08.02.2022
5407 Clear 17 1017 66 10000 2.57 150 07:51 08.02.2022
5408 Clear 18 1018 63 10000 3.6 140 05:40 08.02.2022
5409 Clouds 19 1018 64 10000 4.63 130 04:39 08.02.2022
5410 Clouds 19 1018 64 10000 4.63 130 04:21 08.02.2022
5411 Clouds 19 1018 66 10000 5.14 120 03:36 08.02.2022
5412 Clouds 20 1018 65 10000 5.14 120 03:18 08.02.2022
5413 Clouds 20 1018 64 10000 6.17 110 02:58 08.02.2022
5414 Clouds 20 1018 64 10000 6.17 110 02:36 08.02.2022
5415 Clouds 20 1018 64 10000 6.17 110 02:18 08.02.2022
5416 Clouds 20 1018 66 10000 5.66 100 01:43 08.02.2022
5417 Clouds 20 1018 65 10000 5.66 100 01:24 08.02.2022
5418 Clouds 20 1017 66 10000 4.63 90 00:49 08.02.2022
5419 Clouds 21 1017 63 10000 4.63 80 23:54 07.02.2022
5420 Clouds 22 1017 59 10000 4.63 80 23:36 07.02.2022
5421 Clouds 22 1017 58 10000 4.63 80 23:18 07.02.2022
5422 Clear 23 1017 47 10000 3.09 180 22:19 07.02.2022
5423 Clear 23 1017 49 10000 4.12 150 21:52 07.02.2022
5424 Clear 23 1017 49 10000 4.12 150 21:29 07.02.2022
5425 Clear 23 1017 49 10000 4.12 150 21:29 07.02.2022
5426 Clear 24 1017 47 10000 4.63 180 20:56 07.02.2022
5427 Clear 24 1017 46 10000 4.63 180 20:38 07.02.2022
5428 Clear 24 1018 46 10000 5.14 130 19:47 07.02.2022
5429 Clear 23 1018 47 10000 5.14 130 19:20 07.02.2022
5430 Clouds 23 1019 50 10000 2.57 0 17:39 07.02.2022
5431 Clouds 22 1019 52 10000 3.09 160 16:52 07.02.2022
5432 Clouds 21 1019 54 10000 3.09 0 15:49 07.02.2022
5433 Clouds 20 1019 57 10000 3.6 0 14:41 07.02.2022
5434 Clouds 19 1019 65 10000 3.6 170 13:27 07.02.2022
5435 Clear 17 1018 73 10000 3.09 180 12:37 07.02.2022
5436 Clear 16 1018 80 10000 2.06 180 11:52 07.02.2022
5437 Clear 15 1018 81 10000 2.06 180 11:25 07.02.2022
5438 Clear 15 1018 87 10000 2.57 160 10:43 07.02.2022
5439 Clear 15 1018 87 10000 2.57 160 10:24 07.02.2022
5440 Clouds 15 1018 87 10000 3.09 170 09:52 07.02.2022
5441 Clouds 15 1017 85 10000 3.09 170 09:18 07.02.2022
5442 Clouds 16 1017 87 10000 3.09 0 07:58 07.02.2022
5443 Clouds 17 1017 86 10000 3.6 170 06:34 07.02.2022
5444 Clouds 17 1016 84 10000 3.6 160 05:18 07.02.2022
5445 Clear 19 1016 76 10000 3.09 220 02:38 07.02.2022
5446 Clouds 20 1014 61 10000 3.6 240 00:24 07.02.2022
5447 Clouds 21 1014 58 10000 3.09 230 23:20 06.02.2022
5448 Clouds 21 1014 57 10000 4.12 250 22:42 06.02.2022
5449 Clouds 22 1014 56 10000 4.12 0 21:47 06.02.2022
5450 Clouds 21 1014 56 10000 4.12 0 21:21 06.02.2022
5451 Clouds 21 1014 57 10000 4.63 250 20:48 06.02.2022
5452 Clouds 21 1014 58 10000 4.63 250 20:23 06.02.2022
5453 Clouds 21 1014 54 10000 4.12 260 19:22 06.02.2022
5454 Clouds 20 1015 54 10000 3.6 240 18:33 06.02.2022
5455 Clouds 20 1015 54 10000 3.6 270 17:37 06.02.2022
5456 Clouds 19 1016 53 10000 3.6 0 16:52 06.02.2022
5457 Clouds 19 1016 54 10000 3.6 0 16:20 06.02.2022
5458 Clouds 19 1016 53 10000 5.14 230 15:47 06.02.2022
5459 Clouds 18 1016 53 10000 5.14 230 15:24 06.02.2022
5460 Clouds 17 1016 62 10000 3.6 240 13:59 06.02.2022
5461 Clouds 16 1016 65 10000 3.6 240 13:20 06.02.2022
5462 Clouds 15 1016 76 10000 3.09 0 12:19 06.02.2022
5463 Clear 13 1016 87 10000 0.89 293 10:33 06.02.2022
5464 Clouds 13 1016 87 10000 0.45 0 09:43 06.02.2022
5465 Clear 14 1014 83 10000 3.09 0 08:41 06.02.2022
5466 Clear 15 1014 80 10000 4.63 180 06:31 06.02.2022
5467 Clouds 16 1014 80 10000 3.6 190 05:28 06.02.2022
5468 Clouds 16 1014 80 10000 3.6 190 05:28 06.02.2022
5469 Clouds 17 1013 84 10000 4.63 180 02:25 06.02.2022
5470 Clouds 18 1013 82 10000 0.45 45 00:32 06.02.2022
5471 Clouds 20 1011 74 10000 3.09 200 23:38 05.02.2022
5472 Clouds 20 1010 78 3000 3.09 200 21:46 05.02.2022
5473 Clouds 22 1009 61 10000 4.12 200 20:39 05.02.2022
5474 Clouds 22 1009 60 10000 4.12 200 20:19 05.02.2022
5475 Clouds 22 1009 61 10000 4.63 200 19:41 05.02.2022
5476 Clouds 21 1010 64 10000 3.6 0 18:30 05.02.2022
5477 Clouds 20 1009 74 10000 5.14 220 17:35 05.02.2022
5478 Drizzle 19 1009 79 9000 3.6 220 15:51 05.02.2022
5479 Drizzle 19 1009 83 9000 3.6 220 15:29 05.02.2022
5480 Clouds 20 1008 80 10000 2.57 240 13:25 05.02.2022
5481 Clouds 20 1008 80 10000 2.57 240 13:25 05.02.2022
5482 Clouds 19 1007 82 10000 3.09 220 12:42 05.02.2022
5483 Clear 18 1007 81 10000 2.06 220 11:29 05.02.2022
5484 Clouds 19 1007 82 10000 1.54 0 10:43 05.02.2022
5485 Clouds 19 1006 83 10000 4.45 250 09:49 05.02.2022
5486 Clouds 20 1007 83 10000 0.45 45 08:34 05.02.2022
5487 Clear 22 1006 85 10000 1.03 0 06:58 05.02.2022
5488 Clear 22 1006 86 10000 1.03 0 05:44 05.02.2022
5489 Clouds 23 1006 81 10000 2.06 110 01:47 05.02.2022
5490 Clouds 23 1006 81 10000 2.06 110 01:18 05.02.2022
5491 Clouds 24 1006 81 10000 2.57 70 00:36 05.02.2022
5492 Rain 24 1006 80 10000 3.09 90 23:33 04.02.2022
5493 Clouds 25 1006 76 10000 3.6 80 22:28 04.02.2022
5494 Clouds 26 1006 72 10000 4.12 70 21:36 04.02.2022
5495 Rain 26 1006 71 10000 4.12 70 21:18 04.02.2022
5496 Clouds 27 1007 65 10000 3.09 50 20:21 04.02.2022
5497 Clouds 27 1008 63 10000 3.09 60 18:27 04.02.2022
5498 Rain 26 1008 62 10000 2.57 120 15:55 04.02.2022
5499 Clouds 24 1009 71 10000 2.06 0 14:56 04.02.2022
5500 Clouds 23 1009 79 9000 3.09 190 13:55 04.02.2022
5501 Clouds 21 1009 90 8000 2.57 180 12:43 04.02.2022
5502 Clouds 20 1009 94 7000 2.06 190 11:43 04.02.2022
5503 Clouds 20 1008 94 7000 1.03 0 10:37 04.02.2022
5504 Clouds 20 1008 94 10000 1.03 0 08:48 04.02.2022
5505 Clouds 21 1009 91 10000 1.03 160 06:57 04.02.2022
5506 Clouds 22 1009 85 10000 5.66 110 02:48 04.02.2022
5507 Clouds 22 1008 85 10000 5.66 110 01:56 04.02.2022
5508 Clouds 24 1008 80 10000 4.63 110 23:29 03.02.2022
5509 Clouds 24 1009 80 10000 4.12 90 22:40 03.02.2022
5510 Clouds 25 1009 77 10000 4.63 90 21:49 03.02.2022
5511 Clouds 25 1009 73 10000 5.14 90 20:39 03.02.2022
5512 Clouds 25 1009 73 10000 5.14 90 20:19 03.02.2022
5513 Rain 26 1009 72 10000 4.12 120 19:32 03.02.2022
5514 Clear 24 1010 74 10000 3.6 120 18:38 03.02.2022
5515 Rain 24 1010 80 10000 3.09 110 17:33 03.02.2022
5516 Clear 23 1009 82 10000 5.14 100 16:26 03.02.2022
5517 Rain 21 1010 93 5000 1.54 90 14:49 03.02.2022
5518 Rain 20 1011 96 9000 1.03 0 12:58 03.02.2022
5519 Rain 20 1012 97 5000 1.03 0 11:22 03.02.2022
5520 Rain 24 1008 64 10000 1.03 0 08:37 03.02.2022
5521 Rain 23 1011 72 10000 4.12 200 05:26 03.02.2022
5522 Clear 27 1008 60 10000 4.12 90 00:32 03.02.2022
5523 Clear 28 1008 58 10000 4.12 90 23:39 02.02.2022
5524 Clear 31 1009 51 10000 5.14 90 21:55 02.02.2022
5525 Clear 31 1009 48 10000 5.14 90 21:31 02.02.2022
5526 Clouds 32 1010 46 10000 4.63 80 20:40 02.02.2022
5527 Clouds 32 1011 39 10000 2.57 70 19:58 02.02.2022
5528 Clouds 32 1011 39 10000 2.57 70 19:27 02.02.2022
5529 Clouds 32 1011 40 10000 1.54 0 18:39 02.02.2022
5530 Clear 31 1010 33 10000 2.55 67 17:44 02.02.2022
5531 Clear 31 1011 36 10000 2.65 40 17:19 02.02.2022
5532 Clear 31 1011 32 10000 2.65 40 16:41 02.02.2022
5533 Clear 25 1012 59 10000 2.57 30 12:57 02.02.2022
5534 Clear 24 1012 61 10000 2.57 30 12:20 02.02.2022
5535 Clear 23 1011 66 10000 3.09 20 11:32 02.02.2022
5536 Rain 22 1010 69 10000 4.12 360 09:46 02.02.2022
5537 Clear 23 1010 70 10000 4.12 360 07:32 02.02.2022
5538 Clear 28 1009 51 10000 3.09 30 22:51 01.02.2022
5539 Clear 28 1008 48 10000 3.85 62 21:40 01.02.2022
5540 Clear 28 1011 47 10000 4.12 30 19:58 01.02.2022
5541 Clear 27 1011 46 10000 3.13 52 17:41 01.02.2022
5542 Clear 25 1013 48 10000 3.6 360 16:36 01.02.2022
5543 Clear 21 1014 62 10000 6.17 360 13:32 01.02.2022
5544 Clear 20 1014 63 10000 5.14 10 12:30 01.02.2022
5545 Clear 18 1013 67 10000 5.66 10 11:19 01.02.2022
5546 Clear 21 1013 50 10000 5.66 110 02:32 01.02.2022
5547 Clear 23 1011 49 10000 5.14 80 23:40 31.01.2022
5548 Clear 25 1011 33 10000 2.06 0 22:48 31.01.2022
5549 Clear 26 1011 29 10000 2.57 190 21:38 31.01.2022
5550 Clear 26 1011 28 10000 3.09 170 20:45 31.01.2022
5551 Clear 26 1011 29 10000 3.09 170 20:26 31.01.2022
5552 Clear 26 1012 31 10000 2.57 170 18:54 31.01.2022
5553 Clear 26 1012 32 10000 2.57 170 18:20 31.01.2022
5554 Clear 25 1012 32 10000 3.6 170 17:25 31.01.2022
5555 Clear 24 1013 33 10000 4.12 140 16:25 31.01.2022
5556 Clear 23 1012 34 10000 6.17 140 14:54 31.01.2022
5557 Clear 21 1012 36 10000 6.69 140 13:43 31.01.2022
5558 Clear 20 1011 41 10000 6.17 140 12:38 31.01.2022
5559 Clear 18 1011 54 10000 5.66 150 11:31 31.01.2022
5560 Clouds 18 1010 63 10000 6.17 160 10:48 31.01.2022
5561 Clouds 19 1009 78 10000 6.17 160 09:38 31.01.2022
5562 Clear 20 1008 82 10000 4.12 190 08:56 31.01.2022
5563 Clear 20 1007 86 10000 4.12 190 08:20 31.01.2022
5564 Clear 22 1007 78 10000 3.6 310 07:43 31.01.2022
5565 Clear 24 1006 66 10000 3.09 320 05:33 31.01.2022
5566 Clear 27 1006 52 10000 5.14 340 00:36 31.01.2022
5567 Clear 29 1005 50 10000 4.12 10 22:33 30.01.2022
5568 Clear 29 1006 50 10000 3.6 30 21:46 30.01.2022
5569 Clear 30 1006 50 10000 3.6 30 21:26 30.01.2022
5570 Clear 30 1005 49 10000 4.43 37 20:53 30.01.2022
5571 Clear 30 1005 49 10000 4.43 37 20:31 30.01.2022
5572 Clear 29 1007 50 10000 4.63 30 19:56 30.01.2022
5573 Clear 29 1007 50 10000 4.55 32 18:51 30.01.2022
5574 Clear 29 1008 49 10000 4.49 22 18:22 30.01.2022
5575 Clear 29 1008 48 10000 4.49 22 17:31 30.01.2022
5576 Clear 28 1009 48 10000 4.66 14 16:43 30.01.2022
5577 Clear 28 1010 52 10000 4.99 6 16:23 30.01.2022
5578 Clear 27 1010 55 10000 4.99 6 15:54 30.01.2022
5579 Clear 27 1010 57 10000 4.99 6 15:33 30.01.2022
5580 Clear 26 1010 61 10000 5.47 2 14:47 30.01.2022
5581 Clear 24 1011 68 10000 5.66 350 13:47 30.01.2022
5582 Clear 23 1011 71 10000 7.72 360 12:46 30.01.2022
5583 Clear 21 1011 77 10000 8.23 360 10:47 30.01.2022
5584 Clear 21 1011 77 10000 8.23 360 10:25 30.01.2022
5585 Clear 21 1011 75 10000 5.66 10 09:22 30.01.2022
5586 Rain 22 1010 68 10000 4.12 350 07:58 30.01.2022
5587 Clear 24 1011 77 10000 4.63 80 02:44 30.01.2022
5588 Clear 25 1011 70 10000 4.12 90 01:52 30.01.2022
5589 Clouds 26 1011 63 10000 5.14 110 23:46 29.01.2022
5590 Clouds 27 1010 57 10000 4.57 76 22:48 29.01.2022
5591 Clear 28 1011 52 10000 3.09 40 21:28 29.01.2022
5592 Clouds 28 1011 48 10000 3.79 67 20:50 29.01.2022
5593 Clouds 28 1013 49 10000 3.09 40 19:51 29.01.2022
5594 Clouds 28 1013 50 10000 3.09 40 19:30 29.01.2022
5595 Clouds 28 1013 53 10000 3.6 40 18:43 29.01.2022
5596 Clear 28 1013 53 10000 2.7 47 17:46 29.01.2022
5597 Clear 27 1013 52 10000 3.39 37 16:43 29.01.2022
5598 Clouds 26 1015 62 10000 4.12 360 15:20 29.01.2022
5599 Clear 23 1015 69 10000 5.66 360 13:47 29.01.2022
5600 Clear 23 1015 70 10000 5.66 360 13:26 29.01.2022
5601 Clear 22 1015 73 10000 4.63 360 12:42 29.01.2022
5602 Clear 20 1015 77 10000 5.14 360 11:38 29.01.2022
5603 Clear 19 1014 87 10000 4.12 360 10:25 29.01.2022
5604 Clear 20 1014 83 10000 3.6 60 07:24 29.01.2022
5605 Clear 22 1014 57 10000 4.12 90 01:35 29.01.2022
5606 Clear 22 1014 51 10000 4.63 110 00:31 29.01.2022
5607 Clear 24 1013 33 10000 3.45 95 22:53 28.01.2022
5608 Clear 24 1014 39 10000 4.63 90 22:29 28.01.2022
5609 Clear 25 1014 34 10000 4.12 110 21:53 28.01.2022
5610 Clear 24 1015 42 10000 3.6 70 20:31 28.01.2022
5611 Clear 24 1016 46 10000 4.12 70 19:44 28.01.2022
5612 Clouds 24 1016 52 10000 4.12 60 18:48 28.01.2022
5613 Clouds 24 1017 56 10000 3.6 60 17:43 28.01.2022
5614 Clouds 22 1018 58 10000 2.57 20 15:28 28.01.2022
5615 Clouds 20 1018 64 10000 3.09 350 13:59 28.01.2022
5616 Clouds 19 1018 64 10000 2.57 40 12:32 28.01.2022
5617 Clouds 17 1018 70 10000 1.54 190 11:38 28.01.2022
5618 Clouds 15 1018 77 10000 1.03 0 09:59 28.01.2022
5619 Clouds 16 1018 75 10000 2.06 170 08:41 28.01.2022
5620 Clouds 17 1018 72 10000 2.57 150 07:36 28.01.2022
5621 Clouds 18 1019 71 10000 4.12 140 05:23 28.01.2022
5622 Clouds 19 1020 66 10000 5.66 120 03:45 28.01.2022
5623 Clouds 19 1020 63 10000 6.17 110 02:22 28.01.2022
5624 Clear 20 1019 63 10000 6.69 110 01:33 28.01.2022
5625 Clouds 22 1019 58 10000 6.69 110 23:25 27.01.2022
5626 Clouds 22 1019 56 10000 8.75 100 21:49 27.01.2022
5627 Clouds 23 1019 55 10000 8.75 100 21:29 27.01.2022
5628 Clouds 23 1020 47 10000 7.2 100 20:44 27.01.2022
5629 Clouds 23 1020 46 10000 5.66 120 18:55 27.01.2022
5630 Clouds 22 1021 45 10000 5.14 140 17:56 27.01.2022
5631 Clear 19 1021 55 10000 5.14 150 14:42 27.01.2022
5632 Clear 18 1021 58 10000 6.17 150 13:35 27.01.2022
5633 Clear 17 1021 62 10000 5.14 160 12:40 27.01.2022
5634 Clear 14 1020 74 10000 4.63 160 10:23 27.01.2022
5635 Clear 14 1020 75 10000 4.63 170 08:56 27.01.2022
5636 Clear 14 1020 75 10000 4.63 170 08:30 27.01.2022
5637 Clear 16 1020 71 10000 4.63 160 05:59 27.01.2022
5638 Clear 19 1018 65 10000 8.23 150 02:36 27.01.2022
5639 Clouds 23 1013 67 10000 7.72 150 22:44 26.01.2022
5640 Clouds 23 1013 78 10000 8.75 140 21:55 26.01.2022
5641 Clouds 23 1013 81 10000 8.75 140 21:31 26.01.2022
5642 Clouds 24 1012 84 10000 7.72 150 20:35 26.01.2022
5643 Clouds 25 1011 85 10000 7.72 140 19:55 26.01.2022
5644 Clouds 25 1011 87 6000 6.17 160 19:19 26.01.2022
5645 Clouds 27 1010 75 9000 6.17 150 18:26 26.01.2022
5646 Clouds 27 1010 75 10000 5.66 160 17:49 26.01.2022
5647 Clouds 27 1009 76 10000 5.66 160 17:19 26.01.2022
5648 Clouds 27 1009 76 10000 3.6 170 16:26 26.01.2022
5649 Clouds 27 1008 75 10000 3.6 170 15:45 26.01.2022
5650 Clouds 25 1007 83 10000 1.03 0 12:54 26.01.2022
5651 Clouds 24 1007 91 10000 1.03 0 11:34 26.01.2022
5652 Clouds 24 1007 90 10000 1.03 0 10:19 26.01.2022
5653 Rain 24 1007 90 10000 1.54 270 09:42 26.01.2022
5654 Clear 24 1007 90 10000 2.57 320 07:31 26.01.2022
5655 Clear 26 1005 82 10000 4.12 100 00:44 26.01.2022
5656 Rain 27 1006 85 10000 5.66 100 23:44 25.01.2022
5657 Clouds 27 1008 83 10000 4.12 70 22:50 25.01.2022
5658 Clouds 27 1008 83 10000 4.12 70 22:50 25.01.2022
5659 Clouds 27 1008 84 10000 4.12 70 22:21 25.01.2022
5660 Clouds 27 1008 80 10000 3.09 50 21:35 25.01.2022
5661 Rain 27 1008 75 10000 1.54 210 20:46 25.01.2022
5662 Clouds 27 1009 78 10000 2.06 200 19:59 25.01.2022
5663 Clouds 27 1009 75 10000 2.06 200 19:34 25.01.2022
5664 Rain 27 1010 80 10000 3.09 0 18:20 25.01.2022
5665 Clouds 28 1010 78 10000 2.57 20 17:39 25.01.2022
5666 Rain 30 1009 76 10000 2.57 40 16:35 25.01.2022
5667 Clouds 30 1009 78 10000 0.61 345 15:39 25.01.2022
5668 Clouds 29 1009 81 10000 3.6 100 15:20 25.01.2022
5669 Clouds 29 1009 79 10000 3.6 100 14:56 25.01.2022
5670 Clear 26 1010 83 10000 4.12 110 12:23 25.01.2022
5671 Clear 24 1009 90 10000 1.54 120 09:39 25.01.2022
5672 Clear 24 1009 89 10000 1.54 150 08:21 25.01.2022
5673 Clear 25 1010 87 10000 2.06 90 07:27 25.01.2022
5674 Clear 26 1010 87 10000 2.57 70 05:26 25.01.2022
5675 Clear 27 1009 72 10000 5.14 130 00:57 25.01.2022
5676 Clear 28 1008 67 10000 4.12 90 23:36 24.01.2022
5677 Clear 29 1008 66 10000 4.12 90 23:18 24.01.2022
5678 Rain 29 1008 64 10000 1.54 110 22:42 24.01.2022
5679 Rain 29 1008 65 10000 1.54 110 22:23 24.01.2022
5680 Clouds 30 1010 65 10000 2.06 50 21:42 24.01.2022
5681 Clouds 30 1010 65 10000 2.06 50 21:24 24.01.2022
5682 Clouds 30 1011 62 10000 2.57 30 20:27 24.01.2022
5683 Rain 30 1012 62 10000 2.06 20 19:38 24.01.2022
5684 Clouds 30 1011 64 10000 2.16 86 18:50 24.01.2022
5685 Clouds 28 1013 71 10000 3.09 50 17:39 24.01.2022
5686 Clouds 29 1013 71 10000 3.09 50 17:21 24.01.2022
5687 Clouds 28 1012 69 10000 2.11 92 16:31 24.01.2022
5688 Clouds 27 1012 73 10000 4.12 70 15:25 24.01.2022
5689 Clouds 26 1012 75 8000 2.06 140 13:58 24.01.2022
5690 Clouds 25 1012 79 8000 2.06 180 12:34 24.01.2022
5691 Clouds 23 1012 85 7000 1.54 200 11:41 24.01.2022
5692 Clouds 21 1012 93 7000 1.54 250 10:18 24.01.2022
5693 Clouds 21 1011 93 8000 1.03 0 09:44 24.01.2022
5694 Clouds 21 1012 94 10000 2.73 80 07:40 24.01.2022
5695 Clouds 24 1011 80 10000 1.03 0 01:38 24.01.2022
5696 Clouds 24 1011 77 10000 1.03 0 00:50 24.01.2022
5697 Clouds 25 1011 76 10000 1.03 0 00:29 24.01.2022
5698 Clouds 26 1010 71 10000 2.06 220 22:58 23.01.2022
5699 Clouds 26 1010 72 10000 2.06 330 21:52 23.01.2022
5700 Clouds 26 1010 71 10000 2.06 330 21:27 23.01.2022
5701 Clouds 25 1011 74 10000 2.57 350 20:55 23.01.2022
5702 Clouds 26 1011 74 10000 2.57 350 20:21 23.01.2022
5703 Clouds 25 1011 75 10000 2.57 350 18:53 23.01.2022
5704 Rain 25 1011 74 10000 1.54 0 17:56 23.01.2022
5705 Clouds 25 1011 76 10000 1.54 0 16:55 23.01.2022
5706 Clouds 24 1011 79 10000 1.54 290 15:45 23.01.2022
5707 Rain 23 1011 80 10000 2.57 230 14:34 23.01.2022
5708 Clouds 23 1010 84 10000 2.06 190 13:43 23.01.2022
5709 Rain 21 1010 90 10000 1.54 170 12:40 23.01.2022
5710 Clouds 21 1010 91 10000 1.54 170 12:18 23.01.2022
5711 Rain 21 1010 96 10000 2.57 120 11:25 23.01.2022
5712 Rain 20 1009 95 10000 1.54 0 10:57 23.01.2022
5713 Clouds 20 1009 95 10000 1.54 0 10:23 23.01.2022
5714 Clouds 21 1009 96 10000 2.06 180 09:25 23.01.2022
5715 Rain 21 1007 95 9000 4.12 130 05:59 23.01.2022
5716 Clouds 22 1009 97 10000 0.45 0 03:20 23.01.2022
5717 Rain 22 1008 98 10000 7.29 110 01:36 23.01.2022
5718 Thunderstorm 22 1009 95 2500 2.57 110 00:42 23.01.2022
5719 Thunderstorm 22 1009 88 9000 2.57 150 23:57 22.01.2022
5720 Thunderstorm 21 1007 94 2500 4.63 0 22:48 22.01.2022
5721 Rain 24 1007 83 10000 5.66 170 21:58 22.01.2022
5722 Clouds 25 1007 80 10000 6.17 180 20:26 22.01.2022
5723 Clouds 25 1007 78 10000 4.63 180 19:34 22.01.2022
5724 Clouds 25 1007 83 10000 3.09 210 18:36 22.01.2022
5725 Clouds 27 1008 78 10000 2.57 160 17:42 22.01.2022
5726 Clouds 27 1008 82 10000 2.06 200 16:57 22.01.2022
5727 Clouds 26 1008 87 10000 2.06 200 16:20 22.01.2022
5728 Clouds 26 1008 86 10000 2.57 150 15:42 22.01.2022
5729 Clouds 24 1008 92 8000 2.57 140 13:59 22.01.2022
5730 Clouds 23 1008 93 5000 3.09 160 12:58 22.01.2022
5731 Rain 23 1008 96 10000 3.09 160 12:30 22.01.2022
5732 Clouds 22 1009 96 8000 3.6 170 11:57 22.01.2022
5733 Clouds 22 1007 96 3000 3.6 180 10:38 22.01.2022
5734 Thunderstorm 23 1007 93 500 3.09 170 10:19 22.01.2022
5735 Clear 24 1005 88 10000 3.6 80 08:54 22.01.2022
5736 Clear 24 1005 88 10000 3.6 80 08:27 22.01.2022
5737 Clear 24 1008 82 10000 3.6 70 05:20 22.01.2022
5738 Thunderstorm 25 1009 77 10000 3.6 100 01:58 22.01.2022
5739 Rain 25 1008 67 10000 6.69 140 23:48 21.01.2022
5740 Rain 26 1009 68 10000 7.2 160 22:41 21.01.2022
5741 Clouds 29 1005 72 10000 7.78 108 20:45 21.01.2022
5742 Clouds 30 1008 73 10000 6.17 90 18:41 21.01.2022
5743 Clouds 29 1008 73 10000 7.2 100 17:45 21.01.2022
5744 Clouds 28 1009 74 9000 4.63 110 15:48 21.01.2022
5745 Clouds 27 1009 78 10000 4.12 120 14:37 21.01.2022
5746 Rain 25 1010 86 10000 1.03 0 12:40 21.01.2022
5747 Rain 25 1009 87 10000 3.6 40 11:29 21.01.2022
5748 Rain 25 1008 86 10000 6.17 60 10:22 21.01.2022
5749 Clouds 24 1009 86 10000 4.11 47 08:25 21.01.2022
5750 Clouds 24 1009 86 10000 4.11 47 08:25 21.01.2022
5751 Clear 24 1008 82 10000 2.06 20 07:19 21.01.2022
5752 Rain 26 1011 87 10000 8.23 120 23:54 20.01.2022
5753 Clear 27 1011 77 10000 8.23 120 22:44 20.01.2022
5754 Clouds 28 1011 73 10000 8.75 120 21:47 20.01.2022
5755 Clouds 29 1012 69 10000 5.66 130 20:56 20.01.2022
5756 Clouds 27 1013 74 10000 6.17 140 19:21 20.01.2022
5757 Clouds 26 1014 72 8000 4.63 160 18:51 20.01.2022
5758 Clouds 28 1013 76 10000 6.17 100 17:30 20.01.2022
5759 Clouds 28 1014 76 10000 4.63 90 15:45 20.01.2022
5760 Clouds 27 1014 77 10000 4.63 90 15:24 20.01.2022
5761 Clouds 26 1015 85 10000 5.66 100 13:42 20.01.2022
5762 Clouds 24 1015 87 10000 5.66 110 12:35 20.01.2022
5763 Clouds 24 1015 92 10000 5.14 130 11:57 20.01.2022
5764 Clouds 23 1016 95 10000 0.89 0 10:40 20.01.2022
5765 Clouds 23 1016 93 10000 5.66 110 09:40 20.01.2022
5766 Clouds 23 1015 92 10000 6.17 100 08:34 20.01.2022
5767 Clouds 23 1016 91 10000 9.77 110 05:34 20.01.2022
5768 Clouds 25 1015 83 10000 8.75 130 23:35 19.01.2022
5769 Clouds 26 1015 82 10000 8.23 110 22:32 19.01.2022
5770 Clouds 26 1015 78 10000 7.72 110 21:24 19.01.2022
5771 Clouds 26 1015 79 10000 7.72 100 20:50 19.01.2022
5772 Clouds 27 1016 77 10000 6.69 100 19:54 19.01.2022
5773 Clouds 26 1016 77 10000 4.12 100 18:40 19.01.2022
5774 Clouds 26 1016 84 10000 3.6 60 17:45 19.01.2022
5775 Clouds 26 1016 84 10000 4.12 80 16:57 19.01.2022
5776 Clouds 23 1017 95 10000 3.6 80 14:42 19.01.2022
5777 Mist 21 1017 97 2000 2.57 150 12:43 19.01.2022
5778 Drizzle 21 1016 97 1500 1.54 170 11:42 19.01.2022
5779 Drizzle 21 1016 98 3000 4.12 150 10:35 19.01.2022
5780 Drizzle 21 1016 98 2500 8.75 110 09:34 19.01.2022
5781 Clouds 22 1016 94 8000 11.83 100 06:56 19.01.2022
5782 Clouds 22 1017 94 10000 0.89 45 02:41 19.01.2022
5783 Clouds 22 1015 90 10000 7.92 86 23:20 18.01.2022
5784 Clouds 23 1015 91 9000 9.77 100 22:34 18.01.2022
5785 Rain 23 1015 92 7000 9.26 100 20:59 18.01.2022
5786 Rain 24 1015 92 10000 8.75 100 19:55 18.01.2022
5787 Rain 24 1015 92 10000 8.75 100 19:36 18.01.2022
5788 Rain 24 1015 84 10000 6.17 80 18:51 18.01.2022
5789 Rain 23 1016 90 9000 5.14 70 17:58 18.01.2022
5790 Rain 23 1016 89 9000 4.63 70 16:50 18.01.2022
5791 Rain 23 1017 87 10000 6.17 70 15:47 18.01.2022
5792 Rain 23 1017 86 10000 6.17 70 15:21 18.01.2022
5793 Rain 23 1017 83 10000 8.59 84 12:33 18.01.2022
5794 Rain 23 1013 86 10000 9.77 100 10:47 18.01.2022
5795 Rain 22 1012 89 10000 10.8 110 08:59 18.01.2022
5796 Clouds 23 1012 89 10000 11.32 110 07:51 18.01.2022
5797 Clouds 22 1012 89 10000 6.69 140 02:33 18.01.2022
5798 Clouds 23 1009 82 10000 11.32 120 23:38 17.01.2022
5799 Clouds 24 1008 77 10000 8.23 130 22:26 17.01.2022
5800 Clouds 25 1008 72 10000 8.23 120 21:33 17.01.2022
5801 Clouds 26 1008 70 10000 6.69 110 20:24 17.01.2022
5802 Clouds 26 1008 72 10000 5.14 80 18:30 17.01.2022
5803 Rain 25 1008 74 10000 5.66 70 17:25 17.01.2022
5804 Rain 25 1008 75 10000 6.69 100 16:35 17.01.2022
5805 Rain 25 1007 80 10000 4.63 80 15:18 17.01.2022
5806 Rain 24 1006 84 10000 6.69 100 14:43 17.01.2022
5807 Rain 22 1007 87 10000 3.09 170 13:20 17.01.2022
5808 Rain 22 1008 86 10000 2.57 210 12:55 17.01.2022
5809 Rain 21 1007 86 10000 4.63 120 11:48 17.01.2022
5810 Rain 22 1005 83 10000 6.17 130 10:21 17.01.2022
5811 Rain 22 1005 85 10000 10.29 130 09:33 17.01.2022
5812 Rain 21 1005 85 9000 5.14 170 07:23 17.01.2022
5813 Clouds 27 1004 54 10000 2.57 170 02:54 17.01.2022
5814 Clouds 31 1002 55 10000 2.57 180 00:55 17.01.2022
5815 Clouds 31 1002 57 10000 2.06 280 22:18 16.01.2022
5816 Clouds 32 1002 57 10000 3.6 300 20:34 16.01.2022
5817 Clouds 32 1003 59 10000 5.14 320 18:51 16.01.2022
5818 Clouds 31 1003 64 10000 5.14 340 17:57 16.01.2022
5819 Rain 30 1003 63 10000 4.12 330 16:59 16.01.2022
5820 Clear 30 1003 64 10000 4.12 330 16:20 16.01.2022
5821 Rain 24 1002 82 10000 1.03 0 14:30 16.01.2022
5822 Rain 24 1002 91 10000 3.6 300 13:34 16.01.2022
5823 Rain 22 1004 75 10000 3.15 352 12:27 16.01.2022
5824 Rain 23 1004 99 10000 0.45 113 11:38 16.01.2022
5825 Rain 23 1003 93 7000 5.14 360 10:46 16.01.2022
5826 Rain 23 1003 91 10000 2.06 40 09:59 16.01.2022
5827 Rain 22 1002 94 5000 3.09 20 09:38 16.01.2022
5828 Rain 22 1002 94 5000 3.09 20 09:20 16.01.2022
5829 Thunderstorm 23 1005 94 5000 1.54 270 07:23 16.01.2022
5830 Clear 30 1003 70 10000 2.06 60 00:36 16.01.2022
5831 Clouds 33 1002 57 9000 4.63 340 22:55 15.01.2022
5832 Clouds 34 1004 56 9000 6.69 330 21:22 15.01.2022
5833 Rain 35 1004 57 9000 3.09 10 20:45 15.01.2022
5834 Clouds 36 1004 53 10000 0.45 113 20:22 15.01.2022
5835 Clouds 38 1004 46 10000 5.17 40 19:27 15.01.2022
5836 Clouds 38 1005 46 10000 3.94 28 18:23 15.01.2022
5837 Clouds 37 1006 52 10000 5.02 51 16:49 15.01.2022
5838 Clouds 37 1006 52 10000 5.02 51 16:49 15.01.2022
5839 Clouds 35 1008 50 10000 4.06 20 14:38 15.01.2022
5840 Clouds 31 1009 55 8000 3.6 320 12:52 15.01.2022
5841 Clouds 29 1009 60 9000 3.09 340 11:32 15.01.2022
5842 Clear 29 1008 58 9000 1.54 350 09:46 15.01.2022
5843 Clear 32 1009 48 10000 0 0 04:46 15.01.2022
5844 Clear 38 1007 26 10000 4.92 13 23:21 14.01.2022
5845 Clouds 40 1005 26 10000 4.85 39 21:18 14.01.2022
5846 Clouds 41 1006 25 10000 4.87 41 20:25 14.01.2022
5847 Clouds 41 1006 22 10000 4.87 41 19:50 14.01.2022
5848 Clear 40 1007 24 10000 4.68 53 18:41 14.01.2022
5849 Clear 39 1007 29 10000 4.13 39 17:36 14.01.2022
5850 Clear 37 1009 37 10000 3.63 19 16:42 14.01.2022
5851 Clear 35 1009 41 10000 3.93 359 15:30 14.01.2022
5852 Clear 33 1011 49 10000 3.51 346 14:25 14.01.2022
5853 Clear 29 1011 63 10000 5.14 360 12:47 14.01.2022
5854 Clear 27 1010 66 10000 4.63 360 11:51 14.01.2022
5855 Clear 25 1010 73 10000 2.57 350 10:24 14.01.2022
5856 Clear 26 1010 71 10000 4.63 10 08:52 14.01.2022
5857 Clear 26 1010 66 10000 2.06 30 07:29 14.01.2022
5858 Clear 28 1010 72 10000 5.14 120 02:20 14.01.2022
5859 Clear 31 1010 56 10000 7.2 110 23:40 13.01.2022
5860 Clear 34 1010 38 10000 5.66 100 21:46 13.01.2022
5861 Clear 35 1010 38 10000 5.66 100 21:27 13.01.2022
5862 Clear 35 1012 37 10000 3.6 80 19:44 13.01.2022
5863 Clear 35 1012 37 10000 3.6 80 19:23 13.01.2022
5864 Clear 35 1013 33 10000 1.54 20 18:33 13.01.2022
5865 Clear 33 1014 38 10000 2.06 30 16:43 13.01.2022
5866 Clear 32 1015 41 10000 0.89 90 15:38 13.01.2022
5867 Clear 30 1014 51 10000 3.6 10 14:50 13.01.2022
5868 Clear 27 1015 56 10000 3.6 360 13:22 13.01.2022
5869 Rain 23 1013 75 10000 3.6 30 10:29 13.01.2022
5870 Rain 23 1013 72 10000 3.09 40 09:22 13.01.2022
5871 Clear 23 1013 71 10000 3.09 60 08:28 13.01.2022
5872 Clear 24 1013 67 10000 3.09 50 07:25 13.01.2022
5873 Clear 24 1013 65 10000 4.63 90 06:41 13.01.2022
5874 Rain 25 1013 58 10000 5.66 90 05:20 13.01.2022
5875 Clear 25 1014 62 10000 6.69 100 03:24 13.01.2022
5876 Clear 26 1013 65 10000 7.2 110 00:56 13.01.2022
5877 Clear 27 1012 56 10000 7.2 110 23:50 12.01.2022
5878 Clear 28 1012 54 10000 7.2 110 23:30 12.01.2022
5879 Clear 30 1013 54 10000 7.2 100 21:58 12.01.2022
5880 Clear 30 1013 52 10000 7.2 100 21:23 12.01.2022
5881 Clear 30 1013 53 10000 7.2 100 20:57 12.01.2022
5882 Clear 30 1014 46 10000 6.17 100 19:57 12.01.2022
5883 Clear 30 1014 49 10000 5.66 110 18:43 12.01.2022
5884 Clear 30 1015 49 10000 6.69 100 17:51 12.01.2022
5885 Clear 29 1015 50 10000 7.2 100 16:39 12.01.2022
5886 Clear 27 1015 58 10000 7.2 110 14:49 12.01.2022
5887 Clear 26 1015 64 10000 6.17 110 13:34 12.01.2022
5888 Clear 25 1015 63 10000 5.66 120 12:35 12.01.2022
5889 Clear 22 1013 74 6000 7.72 130 08:50 12.01.2022
5890 Clear 22 1013 73 7000 6.69 130 07:52 12.01.2022
5891 Clear 22 1013 73 7000 6.69 130 07:32 12.01.2022
5892 Smoke 31 1008 44 4700 2.06 310 01:26 12.01.2022
5893 Clouds 37 1007 40 9000 3.09 340 23:25 11.01.2022
5894 Clear 38 1007 54 10000 3.09 360 22:24 11.01.2022
5895 Clouds 38 1007 38 9000 3.6 360 21:25 11.01.2022
5896 Clouds 40 1006 22 10000 3.9 27 20:33 11.01.2022
5897 Clouds 38 1008 34 7000 4.63 350 18:48 11.01.2022
5898 Clouds 38 1008 25 10000 3.09 23 17:42 11.01.2022
5899 Clouds 37 1009 30 10000 3.16 16 16:38 11.01.2022
5900 Clouds 36 1009 31 10000 2.83 4 15:59 11.01.2022
5901 Clouds 34 1010 36 10000 2.76 336 14:43 11.01.2022
5902 Clouds 32 1010 38 10000 3.63 329 13:58 11.01.2022
5903 Clouds 32 1010 39 10000 3.63 329 13:39 11.01.2022
5904 Clouds 31 1010 40 10000 3.73 329 13:21 11.01.2022
5905 Clear 28 1010 49 10000 4.12 340 12:22 11.01.2022
5906 Clear 24 1009 61 10000 1.03 0 10:24 11.01.2022
5907 Clear 25 1008 72 10000 1.54 20 07:35 11.01.2022
5908 Clear 30 1008 56 10000 2.06 70 00:43 11.01.2022
5909 Clear 30 1008 56 10000 2.06 70 00:21 11.01.2022
5910 Clear 32 1008 44 10000 2.06 60 23:28 10.01.2022
5911 Clear 33 1008 45 10000 2.57 40 22:19 10.01.2022
5912 Clear 33 1009 45 10000 4.12 70 21:54 10.01.2022
5913 Clear 34 1009 44 10000 4.12 70 21:21 10.01.2022
5914 Clear 34 1010 45 10000 3.6 60 20:57 10.01.2022
5915 Clear 34 1010 45 10000 3.6 60 20:28 10.01.2022
5916 Clouds 34 1011 44 9000 3.6 40 19:44 10.01.2022
5917 Clouds 34 1011 45 9000 3.6 40 19:21 10.01.2022
5918 Clear 33 1011 46 10000 3.09 50 18:50 10.01.2022
5919 Clear 34 1011 38 10000 2.65 74 17:56 10.01.2022
5920 Clear 32 1013 46 10000 3.09 30 16:42 10.01.2022
5921 Clouds 32 1013 44 10000 2.27 44 15:49 10.01.2022
5922 Clouds 29 1013 51 10000 2.36 23 14:34 10.01.2022
5923 Clear 25 1014 69 10000 4.12 10 12:18 10.01.2022
5924 Clear 24 1014 69 10000 5.66 360 11:25 10.01.2022
5925 Clear 23 1013 74 10000 4.63 10 09:52 10.01.2022
5926 Clear 24 1013 70 10000 3.6 20 07:31 10.01.2022
5927 Clear 24 1013 77 10000 1.54 170 05:49 10.01.2022
5928 Clear 26 1012 67 10000 7.2 120 01:31 10.01.2022
5929 Clear 27 1012 68 10000 6.17 120 00:25 10.01.2022
5930 Clear 28 1012 63 10000 7.2 110 23:40 09.01.2022
5931 Clear 29 1012 53 10000 6.69 100 22:38 09.01.2022
5932 Clear 30 1012 42 10000 6.17 100 21:46 09.01.2022
5933 Clear 30 1012 41 10000 6.17 100 21:23 09.01.2022
5934 Clear 30 1013 44 10000 6.17 100 20:51 09.01.2022
5935 Clear 30 1013 46 10000 6.17 100 20:33 09.01.2022
5936 Clear 30 1014 45 10000 4.12 100 19:44 09.01.2022
5937 Clear 30 1014 45 10000 4.12 100 19:23 09.01.2022
5938 Clear 29 1014 46 10000 2.06 80 18:52 09.01.2022
5939 Clear 29 1014 44 10000 2.06 80 18:33 09.01.2022
5940 Clear 28 1015 50 10000 2.06 0 17:31 09.01.2022
5941 Clouds 27 1016 52 10000 2.57 40 16:53 09.01.2022
5942 Clouds 26 1016 56 10000 4.12 20 15:57 09.01.2022
5943 Clouds 26 1016 54 10000 4.12 20 15:35 09.01.2022
5944 Clouds 25 1017 62 10000 4.63 20 14:40 09.01.2022
5945 Clouds 24 1017 65 10000 5.14 20 13:50 09.01.2022
5946 Clouds 23 1017 70 10000 4.63 50 12:50 09.01.2022
5947 Clouds 22 1017 71 10000 4.63 50 11:54 09.01.2022
5948 Clouds 21 1016 71 10000 5.14 50 10:52 09.01.2022
5949 Clouds 21 1016 77 10000 3.6 40 09:47 09.01.2022
5950 Clouds 22 1016 76 10000 5.14 0 08:51 09.01.2022
5951 Clear 24 1014 61 10000 9.26 60 05:21 09.01.2022
5952 Clear 25 1014 74 10000 8.23 120 01:24 09.01.2022
5953 Clear 26 1013 68 10000 10.29 110 23:44 08.01.2022
5954 Clear 27 1013 66 10000 10.29 110 23:26 08.01.2022
5955 Clear 28 1013 59 10000 8.23 120 22:19 08.01.2022
5956 Clear 28 1013 53 10000 7.72 100 21:25 08.01.2022
5957 Clear 29 1014 47 10000 6.69 100 20:41 08.01.2022
5958 Clear 29 1014 47 10000 6.69 100 20:19 08.01.2022
5959 Clouds 28 1015 49 10000 5.66 100 18:34 08.01.2022
5960 Clouds 27 1016 54 10000 6.17 100 17:22 08.01.2022
5961 Clouds 26 1017 53 10000 3.6 50 15:52 08.01.2022
5962 Clear 25 1017 57 10000 4.12 50 14:43 08.01.2022
5963 Clear 23 1017 63 10000 4.12 50 13:25 08.01.2022
5964 Clear 22 1017 65 10000 5.14 60 11:25 08.01.2022
5965 Clear 22 1017 67 10000 3.6 40 10:25 08.01.2022
5966 Clear 22 1016 68 10000 4.12 40 09:47 08.01.2022
5967 Clear 23 1016 68 10000 5.14 60 07:21 08.01.2022
5968 Clear 24 1016 77 10000 9.26 110 02:45 08.01.2022
5969 Clear 24 1015 72 10000 9.77 110 00:41 08.01.2022
5970 Clear 27 1015 60 10000 7.72 100 22:47 07.01.2022
5971 Clouds 28 1015 47 10000 6.69 100 20:56 07.01.2022
5972 Clouds 28 1016 50 10000 5.66 100 19:56 07.01.2022
5973 Clouds 28 1016 50 10000 3.6 100 18:58 07.01.2022
5974 Clouds 28 1016 50 10000 3.6 100 18:38 07.01.2022
5975 Clouds 27 1017 49 10000 2.57 60 17:25 07.01.2022
5976 Clouds 27 1017 52 10000 2.59 84 16:23 07.01.2022
5977 Clouds 23 1018 69 10000 4.12 10 13:53 07.01.2022
5978 Clouds 23 1018 70 10000 4.12 10 13:21 07.01.2022
5979 Clear 23 1017 71 10000 4.12 10 12:49 07.01.2022
5980 Clear 21 1016 76 10000 4.12 50 09:37 07.01.2022
5981 Clear 23 1015 71 10000 9.77 110 02:55 07.01.2022
5982 Clear 23 1015 72 10000 10.29 110 01:54 07.01.2022
5983 Clear 24 1014 70 10000 10.29 110 01:27 07.01.2022
5984 Clear 24 1014 70 10000 9.26 110 00:57 07.01.2022
5985 Clear 26 1014 57 10000 9.77 110 22:46 06.01.2022
5986 Clear 27 1015 53 10000 8.23 100 21:23 06.01.2022
5987 Clear 27 1015 47 10000 7.72 100 20:20 06.01.2022
5988 Clear 28 1016 43 10000 5.66 100 19:41 06.01.2022
5989 Clear 26 1017 42 10000 3.09 80 17:53 06.01.2022
5990 Clear 26 1017 41 10000 3.09 80 17:34 06.01.2022
5991 Clear 25 1018 46 10000 3.09 30 16:40 06.01.2022
5992 Clear 25 1018 47 10000 3 82 15:45 06.01.2022
5993 Clear 24 1018 48 10000 2.95 61 15:24 06.01.2022
5994 Clear 23 1018 55 10000 3.09 50 14:21 06.01.2022
5995 Clear 22 1018 56 10000 3.6 40 13:47 06.01.2022
5996 Clear 21 1018 61 10000 3.6 50 12:43 06.01.2022
5997 Clear 20 1018 64 10000 3.6 60 11:41 06.01.2022
5998 Clear 20 1018 64 10000 3.6 60 11:21 06.01.2022
5999 Clear 19 1017 68 10000 6.69 70 08:50 06.01.2022
6000 Clouds 21 1016 57 10000 9.77 110 00:42 06.01.2022
6001 Clear 23 1016 52 10000 9.26 100 23:36 05.01.2022
6002 Clear 23 1015 51 10000 8.75 110 22:54 05.01.2022
6003 Clear 24 1015 50 10000 8.75 110 22:30 05.01.2022
6004 Clear 24 1015 51 10000 8.23 110 21:46 05.01.2022
6005 Clear 24 1016 52 10000 8.23 100 20:49 05.01.2022
6006 Clear 25 1016 52 10000 5.66 90 19:58 05.01.2022
6007 Clear 26 1016 50 10000 6.17 90 18:33 05.01.2022
6008 Clear 26 1016 47 10000 5.14 70 17:23 05.01.2022
6009 Clouds 24 1016 46 10000 5.14 90 16:24 05.01.2022
6010 Clouds 24 1017 46 10000 5.66 110 15:20 05.01.2022
6011 Clear 21 1016 54 10000 4.63 140 13:38 05.01.2022
6012 Clear 20 1016 57 10000 4.12 140 12:49 05.01.2022
6013 Clear 16 1014 59 10000 3.6 150 08:57 05.01.2022
6014 Clear 17 1013 53 10000 5.66 150 07:31 05.01.2022
6015 Dust 23 1010 48 4500 8.23 130 01:59 05.01.2022
6016 Dust 26 1008 42 3500 7.2 130 23:50 04.01.2022
6017 Dust 27 1008 41 3500 7.2 130 23:26 04.01.2022
6018 Clear 28 1006 40 10000 4.12 160 22:21 04.01.2022
6019 Clear 30 1006 33 10000 4.12 170 20:50 04.01.2022
6020 Clear 31 1005 40 10000 4.12 0 18:46 04.01.2022
6021 Clear 32 1004 38 10000 4.63 0 17:38 04.01.2022
6022 Clear 31 1004 43 10000 4.63 220 16:40 04.01.2022
6023 Clear 31 1004 44 10000 4.63 220 16:21 04.01.2022
6024 Clouds 28 1006 53 10000 5.14 280 14:51 04.01.2022
6025 Clouds 28 1006 53 10000 5.14 280 14:33 04.01.2022
6026 Rain 28 1006 59 10000 6.69 290 13:26 04.01.2022
6027 Rain 26 1004 74 10000 3.6 320 10:29 04.01.2022
6028 Clear 26 1004 69 10000 4.12 320 08:59 04.01.2022
6029 Clear 27 1003 70 10000 3.6 350 06:46 04.01.2022
6030 Clear 28 1005 71 10000 6.17 100 00:50 04.01.2022
6031 Clear 29 1005 69 10000 6.17 100 00:31 04.01.2022
6032 Clouds 33 1004 49 10000 5.14 70 22:30 03.01.2022
6033 Clouds 34 1005 46 10000 5.14 70 21:41 03.01.2022
6034 Clouds 34 1006 47 10000 3.09 50 20:51 03.01.2022
6035 Clouds 35 1006 47 10000 2.57 50 19:44 03.01.2022
6036 Clouds 35 1007 46 10000 2.06 40 18:32 03.01.2022
6037 Clear 34 1007 42 10000 3.09 40 17:34 03.01.2022
6038 Clear 35 1008 40 10000 0.45 135 16:56 03.01.2022
6039 Clear 31 1008 54 10000 1.19 46 14:54 03.01.2022
6040 Clouds 29 1009 67 10000 2.06 80 13:25 03.01.2022
6041 Clouds 27 1009 75 10000 3.09 70 12:28 03.01.2022
6042 Clear 25 1009 80 10000 4.12 90 11:30 03.01.2022
6043 Clear 24 1007 70 10000 2.57 150 09:41 03.01.2022
6044 Clouds 24 1007 68 10000 2.57 120 08:18 03.01.2022
6045 Rain 26 1007 78 10000 3.09 120 05:21 03.01.2022
6046 Clear 30 1004 55 10000 3.09 70 23:44 02.01.2022
6047 Clear 31 1003 47 10000 3.09 80 22:57 02.01.2022
6048 Clear 32 1003 44 10000 3.09 80 22:22 02.01.2022
6049 Clear 32 1003 39 10000 3.09 90 21:26 02.01.2022
6050 Clouds 32 1004 39 10000 4.12 80 20:30 02.01.2022
6051 Clouds 31 1004 43 10000 2.57 30 19:32 02.01.2022
6052 Clouds 30 1005 50 10000 3.6 20 18:56 02.01.2022
6053 Clouds 30 1005 52 10000 3.6 20 18:23 02.01.2022
6054 Clear 31 1006 52 10000 3.09 40 17:42 02.01.2022
6055 Clear 30 1006 55 10000 3.09 40 17:21 02.01.2022
6056 Clouds 29 1006 61 8000 3.6 50 16:28 02.01.2022
6057 Clear 29 1006 61 10000 3.09 0 15:39 02.01.2022
6058 Clear 27 1006 58 10000 2.06 200 13:57 02.01.2022
6059 Clear 23 1005 70 10000 2.06 0 12:32 02.01.2022
6060 Clouds 21 1006 78 9000 2.06 260 11:55 02.01.2022
6061 Clouds 20 1005 88 8000 3.09 300 10:55 02.01.2022
6062 Clear 20 1005 91 10000 1.03 0 09:58 02.01.2022
6063 Clouds 20 1004 91 10000 3.09 310 07:35 02.01.2022
6064 Rain 22 1004 81 10000 2.06 330 02:57 02.01.2022
6065 Clear 24 1002 73 10000 3.09 60 23:50 01.01.2022
6066 Clear 24 1002 73 10000 3.09 60 23:27 01.01.2022
6067 Clear 23 1002 73 10000 3.09 330 22:25 01.01.2022
6068 Clouds 23 1003 78 10000 3.6 340 21:54 01.01.2022
6069 Rain 23 1003 78 10000 3.6 340 21:36 01.01.2022
6070 Rain 23 1004 83 10000 4.12 20 20:27 01.01.2022
6071 Clouds 22 1004 83 10000 4.63 10 19:36 01.01.2022
6072 Clouds 31 1003 36 10000 7.14 311 18:51 01.01.2022
6073 Rain 24 1003 34 10000 7.52 300 17:38 01.01.2022
6074 Rain 23 1005 73 9000 5.14 310 16:35 01.01.2022
6075 Rain 23 1005 69 9000 5.14 340 15:37 01.01.2022
6076 Rain 23 1006 78 9000 2.57 290 14:25 01.01.2022
6077 Rain 24 1005 66 9000 3.6 280 13:41 01.01.2022
6078 Rain 24 1004 69 9000 4.63 300 12:25 01.01.2022
6079 Rain 24 1005 72 8000 5.66 300 11:25 01.01.2022
6080 Rain 23 1006 85 10000 0.45 315 10:56 01.01.2022
6081 Thunderstorm 25 1004 80 6000 6.17 300 09:48 01.01.2022
6082 Rain 26 1001 71 10000 4.63 20 08:35 01.01.2022
6083 Clouds 26 1002 70 10000 3.6 40 07:56 01.01.2022
6084 Clouds 26 1002 70 10000 3.6 40 07:37 01.01.2022
6085 Clear 27 1003 67 10000 3.6 70 06:43 01.01.2022
6086 Clear 27 1004 59 10000 6.69 100 04:39 01.01.2022
6087 Clear 27 1004 64 10000 5.14 90 03:50 01.01.2022
6088 Clear 28 1003 68 10000 7.2 110 23:53 31.12.2021
6089 Clouds 30 1003 59 10000 5.66 100 21:57 31.12.2021
6090 Clouds 30 1003 60 10000 5.66 100 21:39 31.12.2021
6091 Clouds 31 1005 60 10000 6.69 100 19:43 31.12.2021
6092 Clouds 29 1006 74 10000 6.69 100 18:50 31.12.2021
6093 Clouds 30 1007 67 10000 6.17 100 17:49 31.12.2021
6094 Clouds 30 1007 67 10000 6.17 100 17:24 31.12.2021
6095 Clouds 30 1007 68 10000 7.2 100 16:52 31.12.2021
6096 Clouds 30 1007 67 10000 7.2 100 16:18 31.12.2021
6097 Clouds 29 1008 68 10000 7.2 100 15:42 31.12.2021
6098 Clouds 29 1008 69 10000 7.2 100 15:20 31.12.2021
6099 Clouds 28 1008 72 10000 6.17 120 14:38 31.12.2021
6100 Clouds 26 1009 74 7000 5.14 120 13:45 31.12.2021
6101 Clouds 26 1009 74 7000 5.14 120 13:45 31.12.2021
6102 Mist 25 1009 77 5000 4.63 130 12:50 31.12.2021
6103 Mist 23 1009 80 5000 4.63 130 12:19 31.12.2021
6104 Clouds 22 1009 82 10000 4.12 150 11:41 31.12.2021
6105 Clouds 22 1009 83 10000 4.63 140 10:48 31.12.2021
6106 Clouds 22 1009 83 10000 4.63 140 10:25 31.12.2021
6107 Clear 22 1008 78 10000 2.57 150 09:34 31.12.2021
6108 Clear 23 1008 73 10000 2.06 160 08:50 31.12.2021
6109 Clear 24 1008 65 10000 2.57 160 07:49 31.12.2021
6110 Clear 29 1008 42 10000 4.12 160 01:38 31.12.2021
6111 Clear 32 1006 39 10000 2.06 50 22:54 30.12.2021
6112 Clear 32 1006 40 10000 2.06 50 22:27 30.12.2021
6113 Clear 33 1007 34 10000 2.06 150 21:38 30.12.2021
6114 Rain 32 1008 37 10000 4.12 200 20:58 30.12.2021
6115 Clear 32 1008 38 10000 4.12 200 20:35 30.12.2021
6116 Clear 33 1008 34 10000 2.06 0 19:50 30.12.2021
6117 Clear 33 1008 33 10000 2.06 0 19:24 30.12.2021
6118 Clear 34 1008 35 10000 3.09 30 18:26 30.12.2021
6119 Clouds 34 1010 30 10000 0.89 45 16:39 30.12.2021
6120 Clear 32 1009 35 10000 2.57 10 15:53 30.12.2021
6121 Clear 29 1009 41 10000 4.12 340 14:51 30.12.2021
6122 Clear 30 1009 44 10000 4.22 2 14:31 30.12.2021
6123 Clear 28 1009 46 10000 5.66 340 13:24 30.12.2021
6124 Clear 26 1009 57 10000 6.69 360 11:45 30.12.2021
6125 Clear 26 1008 59 10000 6.69 10 10:27 30.12.2021
6126 Clear 26 1008 58 10000 6.69 360 09:27 30.12.2021
6127 Clear 28 1008 51 10000 6.17 10 06:56 30.12.2021
6128 Clear 29 1008 47 10000 3.09 20 04:42 30.12.2021
6129 Clear 30 1008 43 10000 3.09 20 03:40 30.12.2021
6130 Clear 32 1007 34 10000 3.6 30 01:56 30.12.2021
6131 Clouds 35 1006 33 10000 6.94 58 23:36 29.12.2021
6132 Clouds 36 1007 26 10000 0.45 90 22:32 29.12.2021
6133 Clouds 36 1006 32 10000 6.3 66 21:54 29.12.2021
6134 Clouds 37 1006 31 10000 5.45 64 20:56 29.12.2021
6135 Clouds 37 1007 32 10000 4.59 50 20:25 29.12.2021
6136 Clouds 37 1007 32 10000 4.59 50 19:31 29.12.2021
6137 Clouds 36 1008 37 10000 5.62 47 18:30 29.12.2021
6138 Clear 35 1011 40 10000 3.6 30 17:35 29.12.2021
6139 Clear 35 1011 38 10000 3.6 10 16:58 29.12.2021
6140 Clear 35 1011 29 10000 3.6 10 16:19 29.12.2021
6141 Clouds 33 1012 31 10000 1.79 270 14:59 29.12.2021
6142 Clear 29 1013 39 10000 3.6 340 12:57 29.12.2021
6143 Clear 28 1013 44 10000 3.6 340 12:30 29.12.2021
6144 Clear 26 1012 47 10000 5.66 330 10:53 29.12.2021
6145 Clear 27 1010 43 10000 6.69 340 08:56 29.12.2021
6146 Clear 28 1010 49 10000 1.54 330 06:49 29.12.2021
6147 Clear 28 1010 51 10000 1.54 330 06:28 29.12.2021
6148 Clear 28 1011 59 10000 1.54 360 05:51 29.12.2021
6149 Clear 29 1011 65 10000 2.57 100 03:47 29.12.2021
6150 Clear 31 1009 53 10000 4.12 130 00:28 29.12.2021
6151 Clear 32 1009 50 10000 3.6 90 23:56 28.12.2021
6152 Clear 34 1009 39 10000 2.57 70 22:56 28.12.2021
6153 Clear 34 1009 40 10000 2.57 70 22:24 28.12.2021
6154 Clear 34 1009 41 10000 2.57 70 21:54 28.12.2021
6155 Clear 35 1007 37 10000 5.41 57 20:54 28.12.2021
6156 Clear 34 1008 39 10000 5.47 56 19:50 28.12.2021
6157 Clear 33 1011 41 10000 3.09 10 18:53 28.12.2021
6158 Clear 33 1011 39 10000 3.09 10 18:23 28.12.2021
6159 Clear 32 1012 41 10000 2.06 30 17:25 28.12.2021
6160 Clouds 30 1013 43 10000 3.09 10 15:52 28.12.2021
6161 Clouds 29 1013 43 10000 3.09 10 15:27 28.12.2021
6162 Clouds 28 1013 43 10000 2.57 360 14:53 28.12.2021
6163 Clouds 26 1013 48 10000 2.57 360 14:21 28.12.2021
6164 Clouds 25 1012 54 10000 1.54 0 13:54 28.12.2021
6165 Clouds 25 1012 50 10000 1.54 0 13:33 28.12.2021
6166 Clouds 24 1012 55 10000 3.6 360 12:55 28.12.2021
6167 Clouds 24 1011 58 10000 3.09 20 11:51 28.12.2021
6168 Clear 23 1010 57 10000 4.12 10 09:30 28.12.2021
6169 Clear 24 1009 58 10000 3.09 30 07:31 28.12.2021
6170 Clear 25 1010 65 10000 5.66 80 03:28 28.12.2021
6171 Clear 27 1009 67 10000 6.69 110 23:26 27.12.2021
6172 Clear 28 1009 61 10000 5.66 100 22:20 27.12.2021
6173 Clear 29 1009 57 10000 5.66 90 21:29 27.12.2021
6174 Clouds 31 1009 55 10000 5.14 80 20:24 27.12.2021
6175 Clouds 31 1009 55 10000 5.14 80 20:24 27.12.2021
6176 Clouds 30 1009 56 10000 4.12 20 19:45 27.12.2021
6177 Clouds 30 1010 57 10000 3.6 70 18:54 27.12.2021
6178 Clouds 29 1011 61 10000 3.6 60 17:50 27.12.2021
6179 Clouds 28 1011 64 10000 3.6 60 17:18 27.12.2021
6180 Clouds 27 1012 64 10000 4.12 80 15:53 27.12.2021
6181 Clouds 26 1012 68 10000 5.14 100 14:34 27.12.2021
6182 Clouds 26 1012 66 10000 5.14 100 13:58 27.12.2021
6183 Clouds 25 1011 68 10000 4.63 120 12:47 27.12.2021
6184 Clear 21 1010 78 10000 3.6 130 10:36 27.12.2021
6185 Clear 21 1010 80 10000 3.6 130 10:18 27.12.2021
6186 Clear 22 1009 82 10000 4.63 130 08:39 27.12.2021
6187 Clouds 22 1010 81 10000 2.57 130 07:32 27.12.2021
6188 Clear 27 1011 46 10000 1.54 200 02:26 27.12.2021
6189 Clouds 28 1010 39 7000 8.23 130 00:23 27.12.2021
6190 Clouds 31 1009 41 10000 4.12 340 23:41 26.12.2021
6191 Clouds 33 1009 35 10000 0.45 135 22:47 26.12.2021
6192 Clouds 34 1009 34 10000 0.89 45 21:30 26.12.2021
6193 Clouds 33 1008 36 10000 2.75 13 19:52 26.12.2021
6194 Clear 32 1011 40 10000 3.5 25 18:25 26.12.2021
6195 Clear 32 1013 36 10000 0.89 0 17:44 26.12.2021
6196 Clear 28 1014 47 10000 2.57 30 14:38 26.12.2021
6197 Clear 26 1014 56 10000 2.57 10 13:43 26.12.2021
6198 Clear 26 1014 60 10000 2.57 10 13:21 26.12.2021
6199 Clear 25 1014 66 10000 2.06 30 12:33 26.12.2021
6200 Rain 22 1013 81 10000 0 0 10:48 26.12.2021
6201 Clear 20 1012 87 10000 1.03 210 09:29 26.12.2021
6202 Clear 21 1012 85 10000 1.03 200 08:44 26.12.2021
6203 Clear 21 1013 84 10000 0 0 07:59 26.12.2021
6204 Clouds 24 1012 81 10000 6.17 110 01:36 26.12.2021
6205 Clear 25 1011 76 10000 7.72 110 23:58 25.12.2021
6206 Clear 26 1011 73 10000 7.72 110 23:28 25.12.2021
6207 Clear 27 1010 69 10000 6.17 100 22:28 25.12.2021
6208 Clear 29 1010 55 10000 6.17 80 21:18 25.12.2021
6209 Clouds 30 1009 41 10000 4.12 180 19:28 25.12.2021
6210 Clouds 30 1010 44 10000 3.6 0 18:57 25.12.2021
6211 Clouds 30 1010 44 10000 3.6 0 18:21 25.12.2021
6212 Clouds 29 1010 51 10000 3.6 170 16:42 25.12.2021
6213 Clouds 27 1010 64 10000 4.12 160 15:26 25.12.2021
6214 Clear 24 1009 71 10000 3.09 190 13:41 25.12.2021
6215 Clouds 22 1009 82 10000 3.6 190 11:54 25.12.2021
6216 Clouds 21 1008 87 8000 3.6 200 10:18 25.12.2021
6217 Clear 22 1007 87 10000 1.03 0 09:42 25.12.2021
6218 Rain 24 1009 71 10000 4.12 150 04:36 25.12.2021
6219 Clear 30 1006 51 10000 3.09 340 01:27 25.12.2021
6220 Clear 32 1005 44 10000 4.09 39 23:47 24.12.2021
6221 Clear 34 1007 39 10000 4.41 55 19:50 24.12.2021
6222 Clear 34 1008 36 10000 4.06 47 19:24 24.12.2021
6223 Clear 32 1010 42 10000 3.89 26 16:59 24.12.2021
6224 Clear 32 1011 43 10000 3.39 14 16:22 24.12.2021
6225 Clear 30 1012 47 5000 4.12 360 15:48 24.12.2021
6226 Clear 30 1011 46 10000 3.55 357 15:18 24.12.2021
6227 Clear 28 1012 53 6000 4.63 340 14:31 24.12.2021
6228 Clear 27 1012 54 10000 4.44 352 13:42 24.12.2021
6229 Clear 25 1013 61 10000 5.66 350 12:49 24.12.2021
6230 Clear 24 1013 62 10000 5.66 350 12:21 24.12.2021
6231 Clear 23 1013 65 10000 6.17 360 11:30 24.12.2021
6232 Clear 23 1012 68 10000 5.66 10 10:59 24.12.2021
6233 Clear 23 1012 68 10000 5.66 10 10:31 24.12.2021
6234 Clear 23 1012 71 10000 4.12 20 08:28 24.12.2021
6235 Rain 23 1012 74 10000 3.6 60 07:57 24.12.2021
6236 Clear 23 1013 74 10000 4.12 80 06:18 24.12.2021
6237 Clear 25 1014 73 10000 8.75 100 00:19 24.12.2021
6238 Clear 26 1014 68 10000 8.23 110 23:23 23.12.2021
6239 Clouds 27 1014 63 10000 7.72 100 22:44 23.12.2021
6240 Clouds 27 1014 60 10000 7.72 100 22:21 23.12.2021
6241 Clouds 28 1014 56 10000 6.69 100 21:34 23.12.2021
6242 Clouds 29 1015 54 10000 6.17 110 20:21 23.12.2021
6243 Clouds 29 1016 52 10000 6.17 100 19:27 23.12.2021
6244 Clouds 29 1017 46 10000 3.09 70 17:57 23.12.2021
6245 Clear 28 1017 51 10000 3.09 40 16:58 23.12.2021
6246 Clear 28 1017 53 10000 3.09 40 16:26 23.12.2021
6247 Clear 27 1018 58 10000 3.09 50 15:32 23.12.2021
6248 Clear 26 1018 61 10000 3.6 70 14:55 23.12.2021
6249 Clear 26 1018 62 10000 3.6 70 14:37 23.12.2021
6250 Clear 25 1018 62 10000 3.09 60 13:22 23.12.2021
6251 Clear 22 1017 71 10000 4.12 70 10:54 23.12.2021
6252 Clear 21 1016 74 10000 4.63 80 09:49 23.12.2021
6253 Clear 21 1016 74 10000 4.63 80 09:26 23.12.2021
6254 Clear 22 1015 72 10000 4.12 80 08:25 23.12.2021
6255 Clear 23 1016 63 10000 5.14 100 04:36 23.12.2021
6256 Clear 26 1014 56 10000 5.14 90 23:33 22.12.2021
6257 Clouds 27 1014 58 10000 7.72 100 22:48 22.12.2021
6258 Clouds 27 1014 57 10000 6.69 100 21:57 22.12.2021
6259 Clouds 28 1014 56 10000 6.69 100 21:29 22.12.2021
6260 Clouds 28 1014 55 10000 5.66 80 20:51 22.12.2021
6261 Clouds 29 1014 51 10000 5.66 80 20:33 22.12.2021
6262 Clouds 29 1014 57 10000 5.14 70 19:35 22.12.2021
6263 Clouds 30 1015 52 10000 4.12 70 17:55 22.12.2021
6264 Clouds 29 1015 54 10000 4.12 70 17:34 22.12.2021
6265 Clouds 29 1014 55 10000 4.12 80 15:42 22.12.2021
6266 Clouds 26 1014 66 10000 4.12 90 13:44 22.12.2021
6267 Clouds 25 1013 73 10000 4.63 110 12:41 22.12.2021
6268 Clear 22 1012 80 10000 3.09 130 10:46 22.12.2021
6269 Clear 21 1012 81 10000 2.57 130 09:40 22.12.2021
6270 Clear 22 1011 72 10000 5.66 100 07:32 22.12.2021
6271 Clear 22 1011 69 10000 7.72 100 05:50 22.12.2021
6272 Clear 23 1011 67 10000 7.72 100 05:27 22.12.2021
6273 Clear 23 1011 66 10000 8.23 110 04:52 22.12.2021
6274 Clear 23 1011 67 10000 8.23 110 04:29 22.12.2021
6275 Clear 23 1010 72 10000 7.72 110 03:33 22.12.2021
6276 Clear 25 1009 60 10000 9.77 120 00:50 22.12.2021
6277 Clear 26 1007 53 10000 9.26 120 23:25 21.12.2021
6278 Clear 27 1007 44 10000 8.75 120 22:28 21.12.2021
6279 Clear 28 1007 48 10000 8.23 110 21:44 21.12.2021
6280 Rain 28 1007 48 10000 8.23 110 21:22 21.12.2021
6281 Clear 28 1008 57 10000 8.75 120 20:21 21.12.2021
6282 Clouds 28 1008 54 10000 7.72 120 19:42 21.12.2021
6283 Clouds 27 1009 64 10000 7.2 100 18:46 21.12.2021
6284 Clouds 28 1009 67 10000 7.2 100 18:21 21.12.2021
6285 Clouds 27 1009 69 10000 7.2 100 17:41 21.12.2021
6286 Clouds 25 1010 75 10000 6.17 100 15:59 21.12.2021
6287 Clouds 25 1010 74 10000 6.17 100 15:20 21.12.2021
6288 Rain 24 1010 75 10000 4.63 90 13:50 21.12.2021
6289 Clear 24 1010 76 10000 4.63 90 13:30 21.12.2021
6290 Clear 23 1009 79 10000 4.12 80 11:49 21.12.2021
6291 Clear 22 1008 79 10000 4.63 90 10:24 21.12.2021
6292 Clear 22 1008 80 10000 4.63 100 09:23 21.12.2021
6293 Rain 22 1009 84 10000 6.17 100 07:58 21.12.2021
6294 Clouds 22 1012 86 10000 6.09 143 07:27 21.12.2021
6295 Rain 23 1012 82 9000 4.63 130 05:31 21.12.2021
6296 Clear 23 1011 81 10000 9.26 120 02:40 21.12.2021
6297 Clouds 24 1010 79 10000 9.77 120 23:58 20.12.2021
6298 Clouds 25 1010 74 10000 9.77 120 23:27 20.12.2021
6299 Clear 27 1010 65 10000 10.29 120 22:28 20.12.2021
6300 Clear 27 1010 65 10000 10.29 120 22:28 20.12.2021
6301 Clear 28 1010 60 10000 10.29 110 21:47 20.12.2021
6302 Clear 28 1010 59 10000 10.29 110 21:23 20.12.2021
6303 Clear 29 1011 59 10000 8.75 110 20:44 20.12.2021
6304 Clouds 29 1012 60 10000 7.72 100 19:52 20.12.2021
6305 Clouds 29 1012 60 10000 7.72 100 19:31 20.12.2021
6306 Clouds 30 1013 56 10000 6.17 110 18:54 20.12.2021
6307 Clear 30 1013 63 10000 6.69 110 17:52 20.12.2021
6308 Clear 30 1013 65 10000 6.69 110 17:23 20.12.2021
6309 Clear 29 1013 63 10000 5.14 100 16:38 20.12.2021
6310 Clouds 29 1013 58 8000 4.63 90 15:48 20.12.2021
6311 Haze 29 1013 54 5000 5.66 90 14:42 20.12.2021
6312 Clear 26 1013 68 10000 3.09 160 12:51 20.12.2021
6313 Clear 23 1013 76 10000 2.06 170 11:19 20.12.2021
6314 Clear 22 1012 81 10000 1.03 0 09:47 20.12.2021
6315 Rain 22 1011 78 10000 2.06 140 08:58 20.12.2021
6316 Rain 22 1011 78 10000 2.06 140 08:40 20.12.2021
6317 Clear 23 1011 78 10000 4.12 110 07:49 20.12.2021
6318 Clear 23 1011 79 10000 3.09 110 06:47 20.12.2021
6319 Clear 24 1012 82 10000 5.14 100 03:41 20.12.2021
6320 Clear 27 1010 63 10000 5.14 100 23:50 19.12.2021
6321 Clear 29 1010 46 10000 3.6 90 22:44 19.12.2021
6322 Clear 30 1010 49 10000 3.09 70 21:49 19.12.2021
6323 Clear 30 1010 49 10000 3.09 70 21:25 19.12.2021
6324 Clear 30 1010 49 10000 4.12 80 20:29 19.12.2021
6325 Clear 30 1011 46 10000 4.12 70 19:45 19.12.2021
6326 Clouds 30 1012 52 10000 3.6 60 18:54 19.12.2021
6327 Clouds 30 1012 55 10000 3.6 60 18:20 19.12.2021
6328 Clouds 29 1012 56 10000 3.6 50 17:45 19.12.2021
6329 Clear 29 1012 56 10000 2.34 87 16:55 19.12.2021
6330 Clear 27 1013 62 10000 3.09 20 15:58 19.12.2021
6331 Clear 27 1013 62 10000 3.09 20 15:25 19.12.2021
6332 Clear 26 1014 64 10000 4.12 360 14:49 19.12.2021
6333 Clear 24 1014 69 10000 4.63 360 13:41 19.12.2021
6334 Clear 24 1014 71 10000 4.63 360 13:20 19.12.2021
6335 Clouds 22 1014 75 10000 4.12 20 12:33 19.12.2021
6336 Clouds 22 1014 77 10000 4.12 40 11:39 19.12.2021
6337 Clouds 21 1015 79 10000 3.6 40 10:51 19.12.2021
6338 Clouds 21 1015 81 10000 3.6 40 10:23 19.12.2021
6339 Clear 21 1015 77 10000 4.63 50 08:55 19.12.2021
6340 Clear 22 1015 69 10000 4.63 60 06:54 19.12.2021
6341 Clear 24 1014 80 10000 8.75 100 02:30 19.12.2021
6342 Clear 24 1013 75 10000 9.26 120 00:55 19.12.2021
6343 Clear 25 1014 70 10000 8.75 120 23:21 18.12.2021
6344 Clear 26 1014 66 10000 10.29 110 22:28 18.12.2021
6345 Clear 26 1015 66 10000 10.29 110 21:44 18.12.2021
6346 Clear 26 1015 65 10000 10.29 110 21:25 18.12.2021
6347 Clear 27 1015 61 10000 8.75 110 20:43 18.12.2021
6348 Clear 27 1016 55 10000 8.23 100 19:38 18.12.2021
6349 Clear 26 1017 60 10000 7.72 100 18:25 18.12.2021
6350 Clouds 27 1018 59 10000 7.2 100 17:49 18.12.2021
6351 Clouds 26 1018 60 10000 4.63 80 16:48 18.12.2021
6352 Clouds 26 1018 62 10000 4.63 80 16:20 18.12.2021
6353 Clouds 24 1019 68 10000 4.63 60 14:54 18.12.2021
6354 Clouds 23 1019 71 10000 4.63 60 13:45 18.12.2021
6355 Clouds 21 1019 76 10000 4.63 50 11:57 18.12.2021
6356 Clouds 21 1019 76 10000 4.63 50 11:57 18.12.2021
6357 Clear 20 1018 80 10000 5.14 60 09:59 18.12.2021
6358 Clear 20 1018 79 10000 5.14 60 09:32 18.12.2021
6359 Clear 20 1018 79 10000 5.66 60 08:36 18.12.2021
6360 Clear 21 1017 73 10000 6.69 60 07:24 18.12.2021
6361 Clouds 22 1017 83 10000 8.75 120 01:45 18.12.2021
6362 Clear 24 1016 69 10000 9.26 120 23:49 17.12.2021
6363 Clear 25 1016 68 10000 8.23 120 22:39 17.12.2021
6364 Clear 26 1017 64 10000 7.2 110 21:31 17.12.2021
6365 Clear 27 1017 62 10000 6.69 100 20:43 17.12.2021
6366 Clear 27 1018 60 10000 6.69 100 19:56 17.12.2021
6367 Clear 26 1019 56 10000 6.17 100 18:40 17.12.2021
6368 Clouds 26 1019 59 10000 6.17 100 17:50 17.12.2021
6369 Clouds 25 1020 65 10000 6.17 100 16:51 17.12.2021
6370 Clouds 25 1020 65 10000 6.17 100 16:27 17.12.2021
6371 Clouds 24 1020 63 10000 5.66 90 15:38 17.12.2021
6372 Clouds 23 1020 67 10000 5.66 90 14:42 17.12.2021
6373 Clouds 23 1021 68 10000 5.14 80 13:45 17.12.2021
6374 Clouds 21 1020 73 10000 5.14 70 12:36 17.12.2021
6375 Clouds 19 1019 77 10000 5.14 70 10:41 17.12.2021
6376 Clouds 18 1019 80 10000 5.14 80 09:47 17.12.2021
6377 Clouds 18 1019 80 10000 5.14 80 09:47 17.12.2021
6378 Clouds 19 1018 80 10000 5.66 70 08:31 17.12.2021
6379 Clouds 19 1018 82 10000 4.63 60 07:21 17.12.2021
6380 Clouds 20 1018 76 10000 7.72 100 04:40 17.12.2021
6381 Clouds 22 1017 71 10000 10.29 100 23:58 16.12.2021
6382 Clear 24 1017 65 10000 10.29 100 22:24 16.12.2021
6383 Clear 24 1016 65 10000 9.77 100 21:51 16.12.2021
6384 Clear 24 1016 65 10000 9.77 100 21:30 16.12.2021
6385 Clear 24 1017 64 10000 9.26 100 20:31 16.12.2021
6386 Clouds 25 1017 63 10000 9.77 100 19:51 16.12.2021
6387 Clouds 25 1017 62 10000 9.26 100 18:41 16.12.2021
6388 Clouds 26 1017 61 10000 7.72 100 17:57 16.12.2021
6389 Clouds 25 1017 62 10000 7.72 100 17:31 16.12.2021
6390 Clouds 26 1017 63 10000 5.66 100 16:23 16.12.2021
6391 Clouds 24 1017 60 10000 4.63 120 14:54 16.12.2021
6392 Clouds 23 1017 66 10000 4.63 130 13:43 16.12.2021
6393 Clouds 17 1016 84 10000 2.06 170 11:21 16.12.2021
6394 Clouds 17 1016 87 10000 2.57 170 10:59 16.12.2021
6395 Clouds 16 1016 91 10000 2.57 170 10:22 16.12.2021
6396 Clouds 17 1015 87 10000 3.09 160 08:25 16.12.2021
6397 Clear 17 1015 85 10000 2.57 170 06:22 16.12.2021
6398 Clouds 21 1015 69 10000 5.14 140 01:25 16.12.2021
6399 Clouds 23 1013 79 10000 6.69 100 23:33 15.12.2021
6400 Clouds 23 1013 79 10000 5.14 100 22:43 15.12.2021
6401 Clouds 24 1013 75 10000 5.14 100 21:56 15.12.2021
6402 Clouds 24 1013 74 10000 5.14 100 21:27 15.12.2021
6403 Clouds 24 1013 72 10000 4.12 90 20:18 15.12.2021
6404 Clouds 25 1014 73 10000 3.6 70 19:50 15.12.2021
6405 Clouds 25 1014 70 10000 3.6 60 18:37 15.12.2021
6406 Clouds 25 1015 67 10000 3.09 60 17:53 15.12.2021
6407 Clouds 25 1015 69 10000 3.09 60 17:34 15.12.2021
6408 Clouds 23 1015 73 10000 2.06 90 16:28 15.12.2021
6409 Clouds 22 1015 73 10000 2.06 10 15:46 15.12.2021
6410 Clouds 22 1015 74 10000 2.06 10 15:27 15.12.2021
6411 Clouds 22 1015 75 10000 2.06 20 14:18 15.12.2021
6412 Clouds 22 1015 75 10000 1.03 0 12:37 15.12.2021
6413 Clouds 20 1014 83 10000 1.54 280 10:27 15.12.2021
6414 Clouds 20 1013 83 10000 4.12 20 08:55 15.12.2021
6415 Clouds 21 1014 85 10000 6.69 60 06:54 15.12.2021
6416 Rain 22 1015 55 9000 5.66 150 01:20 15.12.2021
6417 Clear 24 1013 41 10000 8.23 140 23:42 14.12.2021
6418 Clear 24 1013 42 10000 8.75 130 22:48 14.12.2021
6419 Clear 25 1013 40 10000 8.75 130 22:18 14.12.2021
6420 Clear 26 1013 43 10000 10.8 110 20:28 14.12.2021
6421 Clear 26 1013 43 10000 12.86 110 19:40 14.12.2021
6422 Clear 26 1014 45 10000 10.29 110 18:53 14.12.2021
6423 Clear 26 1014 45 10000 10.29 110 18:22 14.12.2021
6424 Clear 26 1015 44 10000 9.26 110 17:28 14.12.2021
6425 Clear 26 1016 49 10000 8.23 100 16:38 14.12.2021
6426 Clear 26 1017 51 10000 7.2 100 15:26 14.12.2021
6427 Clear 24 1016 57 10000 7.2 120 13:31 14.12.2021
6428 Clear 22 1016 62 10000 6.17 110 11:58 14.12.2021
6429 Clear 21 1016 63 10000 6.17 110 11:23 14.12.2021
6430 Clear 19 1015 66 10000 6.69 110 09:57 14.12.2021
6431 Clear 19 1015 64 10000 6.69 110 09:35 14.12.2021
6432 Clear 20 1014 57 10000 5.14 90 08:23 14.12.2021
6433 Clear 20 1014 55 10000 6.17 80 07:43 14.12.2021
6434 Clear 23 1014 53 10000 7.2 100 02:25 14.12.2021
6435 Clear 25 1013 47 10000 5.66 100 22:55 13.12.2021
6436 Clear 25 1013 47 10000 6.17 90 21:52 13.12.2021
6437 Clear 26 1013 46 10000 6.17 90 20:59 13.12.2021
6438 Clear 26 1013 44 10000 6.17 90 20:34 13.12.2021
6439 Clear 27 1013 40 10000 6.69 90 19:52 13.12.2021
6440 Clear 27 1013 41 10000 5.14 100 17:56 13.12.2021
6441 Clear 28 1013 41 10000 5.14 100 17:24 13.12.2021
6442 Clear 26 1013 33 10000 5.14 140 15:50 13.12.2021
6443 Clear 26 1013 35 10000 5.14 140 15:19 13.12.2021
6444 Clear 23 1013 48 10000 3.6 160 13:38 13.12.2021
6445 Rain 22 1012 62 10000 3.09 180 12:42 13.12.2021
6446 Clear 22 1011 69 10000 1.54 180 11:54 13.12.2021
6447 Clear 22 1011 69 10000 1.54 180 11:35 13.12.2021
6448 Clear 21 1010 68 10000 2.06 160 10:43 13.12.2021
6449 Clear 22 1009 69 10000 2.06 190 08:52 13.12.2021
6450 Rain 22 1008 67 10000 1.54 150 07:38 13.12.2021
6451 Rain 23 1008 62 10000 2.57 160 05:34 13.12.2021
6452 Clear 24 1006 74 10000 1.54 80 00:43 13.12.2021
6453 Clear 27 1004 66 10000 4.12 70 21:59 12.12.2021
6454 Clear 27 1004 66 10000 4.12 70 21:33 12.12.2021
6455 Clear 25 1004 64 10000 2.57 140 19:38 12.12.2021
6456 Clouds 24 1005 71 10000 3.6 190 18:35 12.12.2021
6457 Rain 27 1006 58 10000 3.09 230 16:58 12.12.2021
6458 Rain 28 1005 52 10000 3.09 230 16:27 12.12.2021
6459 Clear 29 1004 48 10000 2.57 20 15:41 12.12.2021
6460 Clear 28 1004 53 10000 2.57 20 15:21 12.12.2021
6461 Clear 28 1004 53 10000 2.57 10 14:28 12.12.2021
6462 Clear 26 1004 57 10000 4.63 340 12:55 12.12.2021
6463 Clear 25 1004 59 10000 4.63 340 12:24 12.12.2021
6464 Clear 24 1003 63 10000 4.12 350 11:43 12.12.2021
6465 Clear 23 1003 67 10000 4.12 350 10:45 12.12.2021
6466 Clear 22 1003 69 10000 4.12 350 10:21 12.12.2021
6467 Clear 22 1003 70 10000 2.57 10 08:50 12.12.2021
6468 Clear 22 1003 77 10000 2.06 50 07:30 12.12.2021
6469 Clear 23 1004 74 10000 4.12 80 05:56 12.12.2021
6470 Clear 23 1004 76 10000 4.12 90 04:53 12.12.2021
6471 Clear 24 1004 73 10000 5.66 110 02:52 12.12.2021
6472 Clear 26 1003 66 10000 7.2 100 23:28 11.12.2021
6473 Clouds 27 1003 58 10000 5.66 110 22:21 11.12.2021
6474 Clouds 28 1004 52 10000 5.66 100 21:47 11.12.2021
6475 Clear 29 1004 43 10000 4.12 60 20:20 11.12.2021
6476 Clear 29 1005 41 10000 3.6 70 19:21 11.12.2021
6477 Clear 29 1006 44 10000 3.6 60 18:48 11.12.2021
6478 Clear 28 1007 46 10000 3.09 40 17:54 11.12.2021
6479 Clouds 29 1008 46 10000 0.45 270 16:37 11.12.2021
6480 Clouds 27 1007 51 10000 2.51 54 15:41 11.12.2021
6481 Clouds 26 1008 55 10000 2.51 37 14:36 11.12.2021
6482 Clouds 22 1008 73 10000 5.14 360 12:41 11.12.2021
6483 Clear 20 1008 79 10000 3.6 360 10:58 11.12.2021
6484 Clear 20 1008 84 10000 2.57 40 09:44 11.12.2021
6485 Clear 21 1010 77 10000 4.63 110 03:58 11.12.2021
6486 Clear 22 1010 77 10000 6.17 110 00:49 11.12.2021
6487 Clear 23 1010 71 10000 5.14 90 23:44 10.12.2021
6488 Clear 24 1010 69 10000 5.14 100 22:47 10.12.2021
6489 Clouds 24 1011 67 10000 5.66 110 21:41 10.12.2021
6490 Clouds 25 1011 61 10000 4.63 100 20:28 10.12.2021
6491 Clouds 25 1012 60 10000 3.09 70 19:19 10.12.2021
6492 Rain 24 1013 63 10000 3.09 40 17:46 10.12.2021
6493 Clear 23 1014 65 10000 2.57 50 16:37 10.12.2021
6494 Clear 22 1015 66 10000 2.57 30 15:45 10.12.2021
6495 Clear 22 1015 67 10000 2.57 30 15:26 10.12.2021
6496 Rain 21 1015 70 10000 3.09 30 14:35 10.12.2021
6497 Clouds 21 1016 72 10000 3.6 50 13:49 10.12.2021
6498 Rain 21 1016 74 10000 3.09 20 12:56 10.12.2021
6499 Clouds 20 1015 75 10000 4.12 20 11:43 10.12.2021
6500 Clear 20 1015 77 10000 4.12 50 10:57 10.12.2021
6501 Clear 20 1015 76 10000 3.6 40 09:49 10.12.2021
6502 Rain 21 1015 71 10000 4.63 50 07:49 10.12.2021
6503 Clear 22 1016 70 10000 5.66 90 04:57 10.12.2021
6504 Clouds 22 1016 86 10000 7.2 120 02:42 10.12.2021
6505 Clear 24 1016 70 10000 7.2 120 23:42 09.12.2021
6506 Clear 25 1016 65 10000 7.72 130 22:43 09.12.2021
6507 Clear 25 1016 63 10000 7.72 130 22:22 09.12.2021
6508 Clear 25 1016 62 10000 7.72 110 21:40 09.12.2021
6509 Clear 25 1016 63 10000 7.72 110 20:36 09.12.2021
6510 Rain 25 1017 63 10000 6.17 100 19:43 09.12.2021
6511 Clear 25 1017 62 10000 6.17 100 19:20 09.12.2021
6512 Clear 26 1018 58 10000 5.14 100 18:19 09.12.2021
6513 Clear 26 1018 58 10000 5.14 100 17:48 09.12.2021
6514 Clear 25 1018 61 10000 5.14 100 17:24 09.12.2021
6515 Clear 24 1019 64 10000 3.6 90 16:36 09.12.2021
6516 Clear 24 1019 65 10000 3.09 70 15:18 09.12.2021
6517 Rain 23 1019 66 10000 4.14 51 14:30 09.12.2021
6518 Clear 21 1019 71 10000 5.14 60 12:48 09.12.2021
6519 Clear 21 1018 73 10000 4.12 50 11:33 09.12.2021
6520 Clear 20 1018 74 10000 4.63 50 10:20 09.12.2021
6521 Clear 22 1017 70 10000 4.12 50 06:59 09.12.2021
6522 Clear 22 1017 82 10000 6.17 130 03:55 09.12.2021
6523 Clear 23 1017 77 10000 8.75 120 00:25 09.12.2021
6524 Clear 24 1017 70 10000 8.75 110 23:36 08.12.2021
6525 Clear 25 1017 67 10000 8.75 120 22:57 08.12.2021
6526 Clear 27 1017 52 10000 6.69 120 21:50 08.12.2021
6527 Clear 27 1017 48 10000 6.69 120 21:32 08.12.2021
6528 Clear 27 1017 45 10000 6.17 110 20:31 08.12.2021
6529 Clear 27 1018 42 10000 6.69 100 19:55 08.12.2021
6530 Clear 27 1018 45 10000 5.66 100 18:57 08.12.2021
6531 Clear 27 1018 46 10000 5.66 100 18:22 08.12.2021
6532 Clear 25 1019 50 10000 3.09 50 16:49 08.12.2021
6533 Clear 24 1020 55 10000 3.6 60 15:40 08.12.2021
6534 Clouds 24 1020 55 10000 3.7 55 15:21 08.12.2021
6535 Clear 22 1021 64 10000 3.6 30 13:21 08.12.2021
6536 Clouds 20 1019 74 10000 6.17 10 10:42 08.12.2021
6537 Clear 19 1019 75 10000 6.17 10 09:32 08.12.2021
6538 Clear 20 1018 69 10000 7.2 30 07:50 08.12.2021
6539 Clear 22 1018 61 10000 8.23 60 05:22 08.12.2021
6540 Clear 23 1016 77 10000 9.26 110 00:21 08.12.2021
6541 Clear 25 1017 68 10000 9.26 110 22:48 07.12.2021
6542 Clear 27 1017 63 10000 8.75 100 21:25 07.12.2021
6543 Clouds 27 1018 53 10000 7.72 110 20:25 07.12.2021
6544 Clear 28 1018 52 10000 5.33 108 18:57 07.12.2021
6545 Clear 28 1019 50 10000 4.98 104 18:19 07.12.2021
6546 Clear 27 1020 51 10000 4.3 98 17:20 07.12.2021
6547 Clear 27 1020 52 10000 4.3 98 16:37 07.12.2021
6548 Clear 26 1021 57 10000 3.62 83 15:37 07.12.2021
6549 Clear 24 1022 62 10000 4.12 20 14:37 07.12.2021
6550 Clear 23 1022 68 10000 4.12 20 13:29 07.12.2021
6551 Clouds 22 1022 74 10000 3.6 30 12:21 07.12.2021
6552 Clouds 20 1022 76 10000 3.09 50 10:45 07.12.2021
6553 Clouds 20 1021 79 10000 3.09 40 09:19 07.12.2021
6554 Clouds 20 1021 81 10000 5.14 90 06:39 07.12.2021
6555 Clear 21 1021 82 10000 5.66 100 05:45 07.12.2021
6556 Clouds 21 1021 82 10000 8.75 110 00:54 07.12.2021
6557 Clear 23 1020 73 10000 8.75 110 23:18 06.12.2021
6558 Clear 23 1020 69 10000 9.26 110 22:39 06.12.2021
6559 Clouds 24 1021 67 10000 8.23 100 21:54 06.12.2021
6560 Clouds 25 1021 65 10000 7.72 100 20:44 06.12.2021
6561 Clouds 25 1021 63 10000 7.72 100 20:26 06.12.2021
6562 Clouds 25 1021 58 10000 6.69 100 19:23 06.12.2021
6563 Clouds 26 1022 58 10000 6.17 110 18:29 06.12.2021
6564 Clouds 25 1022 59 10000 5.66 100 17:51 06.12.2021
6565 Clouds 25 1022 60 10000 4.63 90 16:56 06.12.2021
6566 Clouds 24 1022 63 10000 5.66 110 15:45 06.12.2021
6567 Clouds 22 1022 72 10000 5.14 110 13:46 06.12.2021
6568 Clouds 22 1022 76 10000 4.12 110 12:40 06.12.2021
6569 Clouds 20 1022 78 10000 4.12 100 11:48 06.12.2021
6570 Clouds 17 1021 89 10000 3.6 130 09:20 06.12.2021
6571 Clouds 18 1020 83 10000 6.69 100 06:43 06.12.2021
6572 Clouds 21 1019 77 10000 8.23 110 23:44 05.12.2021
6573 Clouds 22 1019 71 10000 6.69 100 21:52 05.12.2021
6574 Clouds 23 1019 69 10000 6.69 100 21:19 05.12.2021
6575 Clouds 24 1019 69 10000 6.69 100 20:19 05.12.2021
6576 Clouds 23 1019 69 10000 6.69 100 19:33 05.12.2021
6577 Clouds 24 1020 66 10000 7.2 110 18:55 05.12.2021
6578 Clouds 23 1020 65 10000 7.2 110 18:20 05.12.2021
6579 Clouds 23 1020 67 10000 6.69 100 17:48 05.12.2021
6580 Clouds 22 1020 71 10000 6.69 110 16:48 05.12.2021
6581 Clouds 22 1020 73 10000 6.69 110 16:26 05.12.2021
6582 Clouds 20 1021 77 10000 5.66 120 15:48 05.12.2021
6583 Clouds 20 1021 82 10000 5.66 110 14:41 05.12.2021
6584 Clouds 20 1021 82 10000 5.66 110 14:23 05.12.2021
6585 Clouds 21 1020 79 10000 4.63 70 13:22 05.12.2021
6586 Clouds 20 1021 87 7000 4.12 80 12:40 05.12.2021
6587 Rain 19 1021 89 10000 1.72 75 12:18 05.12.2021
6588 Clouds 19 1020 83 10000 5.66 110 11:29 05.12.2021
6589 Clouds 18 1019 85 10000 4.63 80 09:59 05.12.2021
6590 Rain 20 1019 83 10000 5.14 100 07:55 05.12.2021
6591 Clouds 20 1020 80 10000 7.72 100 03:27 05.12.2021
6592 Clouds 21 1019 77 10000 9.77 110 23:45 04.12.2021
6593 Clouds 22 1018 74 10000 8.23 110 21:55 04.12.2021
6594 Clear 23 1018 71 10000 5.14 100 20:57 04.12.2021
6595 Clouds 24 1018 64 10000 4.63 70 19:55 04.12.2021
6596 Clouds 24 1018 61 10000 4.63 70 19:32 04.12.2021
6597 Clouds 25 1019 61 10000 4.63 80 18:20 04.12.2021
6598 Clouds 25 1019 63 10000 4.63 100 17:38 04.12.2021
6599 Clouds 24 1020 62 10000 5.66 100 16:49 04.12.2021
6600 Clouds 24 1020 65 10000 5.66 100 16:30 04.12.2021
6601 Clouds 23 1020 71 10000 4.63 100 15:22 04.12.2021
6602 Clouds 19 1018 84 10000 3.6 140 11:50 04.12.2021
6603 Rain 19 1018 84 10000 3.6 140 11:32 04.12.2021
6604 Clouds 19 1018 84 10000 3.6 130 10:44 04.12.2021
6605 Clouds 19 1017 82 10000 7.2 100 08:47 04.12.2021
6606 Rain 19 1017 80 10000 4.63 120 06:26 04.12.2021
6607 Clouds 20 1018 79 10000 5.66 120 04:42 04.12.2021
6608 Clear 21 1016 68 10000 6.69 120 00:18 04.12.2021
6609 Clear 23 1015 52 10000 7.2 110 23:20 03.12.2021
6610 Rain 24 1015 46 10000 7.2 120 22:41 03.12.2021
6611 Clouds 24 1015 45 10000 4.63 140 21:25 03.12.2021
6612 Rain 24 1015 51 10000 5.66 100 20:48 03.12.2021
6613 Rain 24 1016 51 10000 4.12 120 19:50 03.12.2021
6614 Rain 24 1016 51 10000 3.09 120 18:34 03.12.2021
6615 Rain 24 1016 54 10000 1.54 80 17:59 03.12.2021
6616 Clouds 23 1017 62 10000 3.42 79 14:47 03.12.2021
6617 Clear 20 1017 70 10000 3.6 30 12:54 03.12.2021
6618 Clouds 19 1016 74 10000 4.12 360 11:38 03.12.2021
6619 Clouds 19 1015 79 10000 3.6 10 10:51 03.12.2021
6620 Clouds 19 1015 77 10000 3.6 10 08:25 03.12.2021
6621 Clear 19 1014 76 10000 4.63 30 07:40 03.12.2021
6622 Clouds 20 1015 79 10000 8.75 110 02:39 03.12.2021
6623 Clear 21 1014 74 10000 7.72 110 00:47 03.12.2021
6624 Clear 21 1014 71 10000 7.72 110 23:47 02.12.2021
6625 Clear 24 1015 59 10000 7.2 100 21:43 02.12.2021
6626 Clear 24 1015 58 10000 7.2 100 21:20 02.12.2021
6627 Clouds 24 1015 58 10000 7.72 100 20:38 02.12.2021
6628 Clouds 25 1016 58 10000 6.69 110 19:31 02.12.2021
6629 Clouds 24 1017 59 10000 4.63 100 17:43 02.12.2021
6630 Clouds 23 1018 64 10000 2.57 40 15:42 02.12.2021
6631 Clear 22 1018 66 10000 2.57 30 14:59 02.12.2021
6632 Clear 22 1018 66 10000 2.57 30 14:33 02.12.2021
6633 Clear 20 1018 71 10000 3.6 50 12:52 02.12.2021
6634 Clear 19 1018 72 10000 3.6 50 12:18 02.12.2021
6635 Clear 16 1017 76 10000 4.12 70 09:41 02.12.2021
6636 Clear 17 1016 75 10000 5.14 70 08:52 02.12.2021
6637 Clouds 18 1017 74 10000 6.69 90 04:54 02.12.2021
6638 Clear 19 1015 70 10000 7.2 110 00:53 02.12.2021
6639 Clear 20 1014 66 10000 6.69 120 23:28 01.12.2021
6640 Clear 22 1014 63 10000 6.17 100 22:23 01.12.2021
6641 Clear 22 1014 57 10000 5.14 100 20:39 01.12.2021
6642 Clouds 21 1015 61 10000 5.66 110 19:57 01.12.2021
6643 Clouds 21 1015 62 10000 5.66 110 19:28 01.12.2021
6644 Rain 21 1016 64 10000 4.63 100 17:45 01.12.2021
6645 Clouds 21 1016 64 10000 3.6 70 16:46 01.12.2021
6646 Clouds 20 1016 68 10000 4.12 60 14:52 01.12.2021
6647 Clouds 20 1016 72 10000 4.12 60 13:45 01.12.2021
6648 Clouds 20 1016 74 10000 4.63 70 12:50 01.12.2021
6649 Clouds 16 1015 82 10000 4.12 70 10:42 01.12.2021
6650 Clouds 16 1014 83 10000 4.63 70 09:20 01.12.2021
6651 Clouds 16 1013 80 10000 4.63 80 08:29 01.12.2021
6652 Clouds 16 1013 79 10000 5.14 100 07:33 01.12.2021
6653 Clouds 17 1013 78 10000 5.14 110 06:34 01.12.2021
6654 Clouds 18 1013 77 10000 8.23 110 03:45 01.12.2021
6655 Clear 21 1011 67 10000 7.72 100 00:56 01.12.2021
6656 Clear 22 1010 60 10000 5.66 70 23:53 30.11.2021
6657 Clear 24 1010 54 10000 5.66 70 23:23 30.11.2021
6658 Clear 25 1009 40 10000 2.57 0 21:30 30.11.2021
6659 Clear 25 1010 41 10000 3.09 20 20:43 30.11.2021
6660 Clear</